<?xml version="1.0"?>
<gpx xmlns="http://www.topografix.com/GPX/1/1" xmlns:xsi="http://www.w3.org/2001/XMLSchema-instance" xmlns:wptx1="http://www.garmin.com/xmlschemas/WaypointExtension/v1" xmlns:gpxtrx="http://www.garmin.com/xmlschemas/GpxExtensions/v3" xmlns:gpxtpx="http://www.garmin.com/xmlschemas/TrackPointExtension/v1" xmlns:gpxx="http://www.garmin.com/xmlschemas/GpxExtensions/v3" xmlns:trp="http://www.garmin.com/xmlschemas/TripExtensions/v1" xmlns:adv="http://www.garmin.com/xmlschemas/AdventuresExtensions/v1" xmlns:prs="http://www.garmin.com/xmlschemas/PressureExtension/v1" xmlns:tmd="http://www.garmin.com/xmlschemas/TripMetaDataExtensions/v1" xmlns:vptm="http://www.garmin.com/xmlschemas/ViaPointTransportationModeExtensions/v1" xmlns:ctx="http://www.garmin.com/xmlschemas/CreationTimeExtension/v1" xmlns:gpxacc="http://www.garmin.com/xmlschemas/AccelerationExtension/v1" xmlns:gpxpx="http://www.garmin.com/xmlschemas/PowerExtension/v1" xmlns:vidx1="http://www.garmin.com/xmlschemas/VideoExtension/v1" creator="Garmin Desktop App" version="1.1" xsi:schemaLocation="http://www.topografix.com/GPX/1/1 http://www.topografix.com/GPX/1/1/gpx.xsd http://www.garmin.com/xmlschemas/WaypointExtension/v1 http://www8.garmin.com/xmlschemas/WaypointExtensionv1.xsd http://www.garmin.com/xmlschemas/TrackPointExtension/v1 http://www.garmin.com/xmlschemas/TrackPointExtensionv1.xsd http://www.garmin.com/xmlschemas/GpxExtensions/v3 http://www8.garmin.com/xmlschemas/GpxExtensionsv3.xsd http://www.garmin.com/xmlschemas/ActivityExtension/v1 http://www8.garmin.com/xmlschemas/ActivityExtensionv1.xsd http://www.garmin.com/xmlschemas/AdventuresExtensions/v1 http://www8.garmin.com/xmlschemas/AdventuresExtensionv1.xsd http://www.garmin.com/xmlschemas/PressureExtension/v1 http://www.garmin.com/xmlschemas/PressureExtensionv1.xsd http://www.garmin.com/xmlschemas/TripExtensions/v1 http://www.garmin.com/xmlschemas/TripExtensionsv1.xsd http://www.garmin.com/xmlschemas/TripMetaDataExtensions/v1 http://www.garmin.com/xmlschemas/TripMetaDataExtensionsv1.xsd http://www.garmin.com/xmlschemas/ViaPointTransportationModeExtensions/v1 http://www.garmin.com/xmlschemas/ViaPointTransportationModeExtensionsv1.xsd http://www.garmin.com/xmlschemas/CreationTimeExtension/v1 http://www.garmin.com/xmlschemas/CreationTimeExtensionsv1.xsd http://www.garmin.com/xmlschemas/AccelerationExtension/v1 http://www.garmin.com/xmlschemas/AccelerationExtensionv1.xsd http://www.garmin.com/xmlschemas/PowerExtension/v1 http://www.garmin.com/xmlschemas/PowerExtensionv1.xsd http://www.garmin.com/xmlschemas/VideoExtension/v1 http://www.garmin.com/xmlschemas/VideoExtensionv1.xsd">

  <metadata>
    <link href="http://www.garmin.com">
      <text>Garmin International</text>
    </link>
    <time>2014-11-15T17:30:28Z</time>
    <bounds maxlat="47.753450917080045" maxlon="11.830902518704534" minlat="47.703563841059804" minlon="11.745016844943166"/>
  </metadata>

  <trk>
    <name>Gindelalmschneid 2014.11.15</name>
    <extensions>
      <gpxx:TrackExtension>
        <gpxx:DisplayColor>Cyan</gpxx:DisplayColor>
      </gpxx:TrackExtension>
      <gpxtrkx:TrackStatsExtension xmlns:gpxtrkx="http://www.garmin.com/xmlschemas/TrackStatsExtension/v1">
        <gpxtrkx:Distance>27634</gpxtrkx:Distance>
        <gpxtrkx:TotalElapsedTime>28741</gpxtrkx:TotalElapsedTime>
        <gpxtrkx:MovingTime>11445</gpxtrkx:MovingTime>
        <gpxtrkx:StoppedTime>1948</gpxtrkx:StoppedTime>
        <gpxtrkx:MovingSpeed>2</gpxtrkx:MovingSpeed>
        <gpxtrkx:MaxSpeed>14</gpxtrkx:MaxSpeed>
        <gpxtrkx:MaxElevation>1332</gpxtrkx:MaxElevation>
        <gpxtrkx:MinElevation>549</gpxtrkx:MinElevation>
        <gpxtrkx:Ascent>1071</gpxtrkx:Ascent>
        <gpxtrkx:Descent>1074</gpxtrkx:Descent>
        <gpxtrkx:AvgAscentRate>0</gpxtrkx:AvgAscentRate>
        <gpxtrkx:MaxAscentRate>0</gpxtrkx:MaxAscentRate>
        <gpxtrkx:AvgDescentRate>0</gpxtrkx:AvgDescentRate>
        <gpxtrkx:MaxDescentRate>-2</gpxtrkx:MaxDescentRate>
      </gpxtrkx:TrackStatsExtension>
    </extensions>
    <trkseg>
      <trkpt lat="47.713783727958798" lon="11.757832691073418">
        <ele>752.480000000000018</ele>
        <time>2014-11-15T08:56:01Z</time>
      </trkpt>
      <trkpt lat="47.713783141225576" lon="11.757832188159227">
        <ele>752.480000000000018</ele>
        <time>2014-11-15T08:56:02Z</time>
      </trkpt>
      <trkpt lat="47.713795630261302" lon="11.757863871753216">
        <ele>751.82000000000005</ele>
        <time>2014-11-15T08:57:09Z</time>
      </trkpt>
      <trkpt lat="47.713784063234925" lon="11.757844090461731">
        <ele>751.200000000000045</ele>
        <time>2014-11-15T08:57:34Z</time>
      </trkpt>
      <trkpt lat="47.713783392682672" lon="11.757836127653718">
        <ele>749.940000000000055</ele>
        <time>2014-11-15T08:58:00Z</time>
      </trkpt>
      <trkpt lat="47.713767047971487" lon="11.757841659709811">
        <ele>751.039999999999964</ele>
        <time>2014-11-15T08:58:28Z</time>
      </trkpt>
      <trkpt lat="47.713760510087013" lon="11.757832774892449">
        <ele>750.590000000000032</ele>
        <time>2014-11-15T08:58:46Z</time>
      </trkpt>
      <trkpt lat="47.71376864053309" lon="11.757835457101464">
        <ele>750.67999999999995</ele>
        <time>2014-11-15T08:59:12Z</time>
      </trkpt>
      <trkpt lat="47.713772496208549" lon="11.757823722437024">
        <ele>750.559999999999945</ele>
        <time>2014-11-15T08:59:19Z</time>
      </trkpt>
      <trkpt lat="47.713814908638597" lon="11.757812490686774">
        <ele>750.600000000000023</ele>
        <time>2014-11-15T08:59:22Z</time>
      </trkpt>
      <trkpt lat="47.714177677407861" lon="11.757688103243709">
        <ele>751.799999999999955</ele>
        <time>2014-11-15T08:59:37Z</time>
      </trkpt>
      <trkpt lat="47.714595599099994" lon="11.757522225379944">
        <ele>754.059999999999945</ele>
        <time>2014-11-15T08:59:54Z</time>
      </trkpt>
      <trkpt lat="47.714953171089292" lon="11.757390042766929">
        <ele>755.950000000000045</ele>
        <time>2014-11-15T09:00:08Z</time>
      </trkpt>
      <trkpt lat="47.715065740048885" lon="11.757277892902493">
        <ele>756.730000000000018</ele>
        <time>2014-11-15T09:00:19Z</time>
      </trkpt>
      <trkpt lat="47.715037912130356" lon="11.757300356402993">
        <ele>756.169999999999959</ele>
        <time>2014-11-15T09:00:23Z</time>
      </trkpt>
      <trkpt lat="47.715009748935699" lon="11.757316030561924">
        <ele>755.75</ele>
        <time>2014-11-15T09:00:25Z</time>
      </trkpt>
      <trkpt lat="47.714937161654234" lon="11.757377721369267">
        <ele>755.110000000000014</ele>
        <time>2014-11-15T09:00:29Z</time>
      </trkpt>
      <trkpt lat="47.714940011501312" lon="11.75740429200232">
        <ele>755.370000000000005</ele>
        <time>2014-11-15T09:00:30Z</time>
      </trkpt>
      <trkpt lat="47.714950488880277" lon="11.75742331892252">
        <ele>756.17999999999995</ele>
        <time>2014-11-15T09:00:31Z</time>
      </trkpt>
      <trkpt lat="47.714965576305985" lon="11.757433712482452">
        <ele>756.610000000000014</ele>
        <time>2014-11-15T09:00:32Z</time>
      </trkpt>
      <trkpt lat="47.714980244636536" lon="11.757441004738212">
        <ele>756.309999999999945</ele>
        <time>2014-11-15T09:00:33Z</time>
      </trkpt>
      <trkpt lat="47.715156432241201" lon="11.757512334734201">
        <ele>759.419999999999959</ele>
        <time>2014-11-15T09:00:47Z</time>
      </trkpt>
      <trkpt lat="47.715357849374413" lon="11.757542174309492">
        <ele>762.299999999999955</ele>
        <time>2014-11-15T09:01:04Z</time>
      </trkpt>
      <trkpt lat="47.715421132743359" lon="11.75754452124238">
        <ele>763.230000000000018</ele>
        <time>2014-11-15T09:01:10Z</time>
      </trkpt>
      <trkpt lat="47.715566977858543" lon="11.757568661123514">
        <ele>766.559999999999945</ele>
        <time>2014-11-15T09:01:24Z</time>
      </trkpt>
      <trkpt lat="47.715716259554029" lon="11.757555082440376">
        <ele>769.710000000000036</ele>
        <time>2014-11-15T09:01:39Z</time>
      </trkpt>
      <trkpt lat="47.715863864868879" lon="11.757545527070761">
        <ele>772.159999999999968</ele>
        <time>2014-11-15T09:01:55Z</time>
      </trkpt>
      <trkpt lat="47.715960508212447" lon="11.757497163489461">
        <ele>774.149999999999977</ele>
        <time>2014-11-15T09:02:10Z</time>
      </trkpt>
      <trkpt lat="47.715969728305936" lon="11.757490038871765">
        <ele>774.080000000000041</ele>
        <time>2014-11-15T09:02:11Z</time>
      </trkpt>
      <trkpt lat="47.715983809903264" lon="11.757480315864086">
        <ele>774.17999999999995</ele>
        <time>2014-11-15T09:02:12Z</time>
      </trkpt>
      <trkpt lat="47.715999064967036" lon="11.757468916475773">
        <ele>773.950000000000045</ele>
        <time>2014-11-15T09:02:13Z</time>
      </trkpt>
      <trkpt lat="47.716017169877887" lon="11.75745751708746">
        <ele>774.419999999999959</ele>
        <time>2014-11-15T09:02:14Z</time>
      </trkpt>
      <trkpt lat="47.716038040816784" lon="11.757443603128195">
        <ele>774.169999999999959</ele>
        <time>2014-11-15T09:02:15Z</time>
      </trkpt>
      <trkpt lat="47.716061761602759" lon="11.757424911484122">
        <ele>773.659999999999968</ele>
        <time>2014-11-15T09:02:16Z</time>
      </trkpt>
      <trkpt lat="47.71608330309391" lon="11.757401777431369">
        <ele>774.139999999999986</ele>
        <time>2014-11-15T09:02:17Z</time>
      </trkpt>
      <trkpt lat="47.716099228709936" lon="11.757376380264759">
        <ele>774.07000000000005</ele>
        <time>2014-11-15T09:02:18Z</time>
      </trkpt>
      <trkpt lat="47.716119512915611" lon="11.757350564002991">
        <ele>773.759999999999991</ele>
        <time>2014-11-15T09:02:19Z</time>
      </trkpt>
      <trkpt lat="47.71614390425384" lon="11.757324663922191">
        <ele>773.740000000000009</ele>
        <time>2014-11-15T09:02:20Z</time>
      </trkpt>
      <trkpt lat="47.71616879850626" lon="11.757298428565264">
        <ele>773.769999999999982</ele>
        <time>2014-11-15T09:02:21Z</time>
      </trkpt>
      <trkpt lat="47.716474067419767" lon="11.756770703941584">
        <ele>774.419999999999959</ele>
        <time>2014-11-15T09:02:35Z</time>
      </trkpt>
      <trkpt lat="47.716728458181024" lon="11.756201153621078">
        <ele>776.269999999999982</ele>
        <time>2014-11-15T09:02:49Z</time>
      </trkpt>
      <trkpt lat="47.71697798743844" lon="11.755749955773354">
        <ele>777.269999999999982</ele>
        <time>2014-11-15T09:03:03Z</time>
      </trkpt>
      <trkpt lat="47.717361208051443" lon="11.755547784268856">
        <ele>778.049999999999955</ele>
        <time>2014-11-15T09:03:17Z</time>
      </trkpt>
      <trkpt lat="47.717561451718211" lon="11.755611151456833">
        <ele>779.42999999999995</ele>
        <time>2014-11-15T09:03:27Z</time>
      </trkpt>
      <trkpt lat="47.717595817521214" lon="11.755654569715261">
        <ele>778.990000000000009</ele>
        <time>2014-11-15T09:03:29Z</time>
      </trkpt>
      <trkpt lat="47.717613587155938" lon="11.75568281672895">
        <ele>779.600000000000023</ele>
        <time>2014-11-15T09:03:30Z</time>
      </trkpt>
      <trkpt lat="47.717662118375301" lon="11.755718272179365">
        <ele>779.860000000000014</ele>
        <time>2014-11-15T09:03:33Z</time>
      </trkpt>
      <trkpt lat="47.717683492228389" lon="11.755717266350985">
        <ele>779.940000000000055</ele>
        <time>2014-11-15T09:03:34Z</time>
      </trkpt>
      <trkpt lat="47.717699501663446" lon="11.755707962438464">
        <ele>780.009999999999991</ele>
        <time>2014-11-15T09:03:35Z</time>
      </trkpt>
      <trkpt lat="47.717855405062437" lon="11.755690528079867">
        <ele>781.720000000000027</ele>
        <time>2014-11-15T09:03:47Z</time>
      </trkpt>
      <trkpt lat="47.718024300411344" lon="11.755673596635461">
        <ele>784.210000000000036</ele>
        <time>2014-11-15T09:03:58Z</time>
      </trkpt>
      <trkpt lat="47.718125469982624" lon="11.755647696554661">
        <ele>786.440000000000055</ele>
        <time>2014-11-15T09:04:04Z</time>
      </trkpt>
      <trkpt lat="47.718207109719515" lon="11.755590867251158">
        <ele>787.169999999999959</ele>
        <time>2014-11-15T09:04:09Z</time>
      </trkpt>
      <trkpt lat="47.718248264864087" lon="11.755565721541643">
        <ele>787.960000000000036</ele>
        <time>2014-11-15T09:04:22Z</time>
      </trkpt>
      <trkpt lat="47.718413807451725" lon="11.755504952743649">
        <ele>791.049999999999955</ele>
        <time>2014-11-15T09:04:43Z</time>
      </trkpt>
      <trkpt lat="47.718600053340197" lon="11.755478549748659">
        <ele>792.919999999999959</ele>
        <time>2014-11-15T09:05:02Z</time>
      </trkpt>
      <trkpt lat="47.718706419691443" lon="11.75546002574265">
        <ele>796.100000000000023</ele>
        <time>2014-11-15T09:05:20Z</time>
      </trkpt>
      <trkpt lat="47.71887824870646" lon="11.755484500899911">
        <ele>798.850000000000023</ele>
        <time>2014-11-15T09:05:35Z</time>
      </trkpt>
      <trkpt lat="47.718896269798279" lon="11.755476286634803">
        <ele>799.129999999999995</ele>
        <time>2014-11-15T09:05:36Z</time>
      </trkpt>
      <trkpt lat="47.719076229259372" lon="11.755501348525286">
        <ele>801.659999999999968</ele>
        <time>2014-11-15T09:05:53Z</time>
      </trkpt>
      <trkpt lat="47.719099447131157" lon="11.755485506728292">
        <ele>801.090000000000032</ele>
        <time>2014-11-15T09:05:55Z</time>
      </trkpt>
      <trkpt lat="47.719404296949506" lon="11.755289705470204">
        <ele>801.629999999999995</ele>
        <time>2014-11-15T09:06:10Z</time>
      </trkpt>
      <trkpt lat="47.719671428203583" lon="11.755165737122297">
        <ele>801.610000000000014</ele>
        <time>2014-11-15T09:06:21Z</time>
      </trkpt>
      <trkpt lat="47.719703195616603" lon="11.755162803456187">
        <ele>802.059999999999945</ele>
        <time>2014-11-15T09:06:23Z</time>
      </trkpt>
      <trkpt lat="47.719739237800241" lon="11.755137322470546">
        <ele>802.490000000000009</ele>
        <time>2014-11-15T09:06:25Z</time>
      </trkpt>
      <trkpt lat="47.719963118433952" lon="11.754899024963379">
        <ele>803.490000000000009</ele>
        <time>2014-11-15T09:06:39Z</time>
      </trkpt>
      <trkpt lat="47.719996562227607" lon="11.754797268658876">
        <ele>800.370000000000005</ele>
        <time>2014-11-15T09:06:42Z</time>
      </trkpt>
      <trkpt lat="47.720015253871679" lon="11.754681346938014">
        <ele>798.159999999999968</ele>
        <time>2014-11-15T09:06:44Z</time>
      </trkpt>
      <trkpt lat="47.720061354339123" lon="11.75441044382751">
        <ele>795.039999999999964</ele>
        <time>2014-11-15T09:06:48Z</time>
      </trkpt>
      <trkpt lat="47.720097731798887" lon="11.754259318113327">
        <ele>791.649999999999977</ele>
        <time>2014-11-15T09:06:51Z</time>
      </trkpt>
      <trkpt lat="47.720148442313075" lon="11.754135601222515">
        <ele>788.450000000000045</ele>
        <time>2014-11-15T09:06:54Z</time>
      </trkpt>
      <trkpt lat="47.720184484496713" lon="11.753997132182121">
        <ele>785.220000000000027</ele>
        <time>2014-11-15T09:06:57Z</time>
      </trkpt>
      <trkpt lat="47.720241565257311" lon="11.753825889900327">
        <ele>781.990000000000009</ele>
        <time>2014-11-15T09:07:00Z</time>
      </trkpt>
      <trkpt lat="47.720291437581182" lon="11.753679290413857">
        <ele>779.289999999999964</ele>
        <time>2014-11-15T09:07:02Z</time>
      </trkpt>
      <trkpt lat="47.720372155308723" lon="11.753494972363114">
        <ele>775.529999999999973</ele>
        <time>2014-11-15T09:07:04Z</time>
      </trkpt>
      <trkpt lat="47.720413813367486" lon="11.753410315141082">
        <ele>775.370000000000005</ele>
        <time>2014-11-15T09:07:05Z</time>
      </trkpt>
      <trkpt lat="47.720442730933428" lon="11.753324903547764">
        <ele>775.82000000000005</ele>
        <time>2014-11-15T09:07:06Z</time>
      </trkpt>
      <trkpt lat="47.720518754795194" lon="11.753141591325402">
        <ele>780.230000000000018</ele>
        <time>2014-11-15T09:07:10Z</time>
      </trkpt>
      <trkpt lat="47.72053174674511" lon="11.753114936873317">
        <ele>780.419999999999959</ele>
        <time>2014-11-15T09:07:11Z</time>
      </trkpt>
      <trkpt lat="47.72054398432374" lon="11.753088952973485">
        <ele>780.92999999999995</ele>
        <time>2014-11-15T09:07:12Z</time>
      </trkpt>
      <trkpt lat="47.720697456970811" lon="11.752860629931092">
        <ele>782.190000000000055</ele>
        <time>2014-11-15T09:07:23Z</time>
      </trkpt>
      <trkpt lat="47.720887390896678" lon="11.752730123698711">
        <ele>784.059999999999945</ele>
        <time>2014-11-15T09:07:34Z</time>
      </trkpt>
      <trkpt lat="47.721187882125378" lon="11.752327792346478">
        <ele>784.57000000000005</ele>
        <time>2014-11-15T09:07:45Z</time>
      </trkpt>
      <trkpt lat="47.72122073918581" lon="11.752310190349817">
        <ele>784.769999999999982</ele>
        <time>2014-11-15T09:07:46Z</time>
      </trkpt>
      <trkpt lat="47.721422323957086" lon="11.752140121534467">
        <ele>786.480000000000018</ele>
        <time>2014-11-15T09:07:56Z</time>
      </trkpt>
      <trkpt lat="47.721629021689296" lon="11.751921186223626">
        <ele>783.490000000000009</ele>
        <time>2014-11-15T09:08:03Z</time>
      </trkpt>
      <trkpt lat="47.721797078847885" lon="11.75176746211946">
        <ele>781.519999999999982</ele>
        <time>2014-11-15T09:08:07Z</time>
      </trkpt>
      <trkpt lat="47.721916856244206" lon="11.751725133508444">
        <ele>780.190000000000055</ele>
        <time>2014-11-15T09:08:10Z</time>
      </trkpt>
      <trkpt lat="47.721994472667575" lon="11.751706441864371">
        <ele>779.490000000000009</ele>
        <time>2014-11-15T09:08:12Z</time>
      </trkpt>
      <trkpt lat="47.722119363024831" lon="11.751699484884739">
        <ele>778.129999999999995</ele>
        <time>2014-11-15T09:08:15Z</time>
      </trkpt>
      <trkpt lat="47.72225322201848" lon="11.751652881503105">
        <ele>776.57000000000005</ele>
        <time>2014-11-15T09:08:18Z</time>
      </trkpt>
      <trkpt lat="47.722370736300945" lon="11.751691522076726">
        <ele>774.690000000000055</ele>
        <time>2014-11-15T09:08:21Z</time>
      </trkpt>
      <trkpt lat="47.722425051033497" lon="11.751697221770883">
        <ele>773.980000000000018</ele>
        <time>2014-11-15T09:08:22Z</time>
      </trkpt>
      <trkpt lat="47.722494285553694" lon="11.751697640866041">
        <ele>773.669999999999959</ele>
        <time>2014-11-15T09:08:23Z</time>
      </trkpt>
      <trkpt lat="47.722552204504609" lon="11.751678362488747">
        <ele>774.110000000000014</ele>
        <time>2014-11-15T09:08:24Z</time>
      </trkpt>
      <trkpt lat="47.722596293315291" lon="11.751628490164876">
        <ele>773.720000000000027</ele>
        <time>2014-11-15T09:08:25Z</time>
      </trkpt>
      <trkpt lat="47.722638035193086" lon="11.751570571213961">
        <ele>773.009999999999991</ele>
        <time>2014-11-15T09:08:26Z</time>
      </trkpt>
      <trkpt lat="47.722696959972382" lon="11.751518603414297">
        <ele>772.92999999999995</ele>
        <time>2014-11-15T09:08:27Z</time>
      </trkpt>
      <trkpt lat="47.722757644951344" lon="11.751455655321479">
        <ele>772.269999999999982</ele>
        <time>2014-11-15T09:08:28Z</time>
      </trkpt>
      <trkpt lat="47.723200293257833" lon="11.751074446365237">
        <ele>772.120000000000005</ele>
        <time>2014-11-15T09:08:37Z</time>
      </trkpt>
      <trkpt lat="47.723216218873858" lon="11.751055670902133">
        <ele>772.039999999999964</ele>
        <time>2014-11-15T09:08:38Z</time>
      </trkpt>
      <trkpt lat="47.723240526393056" lon="11.751046953722835">
        <ele>771.590000000000032</ele>
        <time>2014-11-15T09:08:39Z</time>
      </trkpt>
      <trkpt lat="47.723315544426441" lon="11.75101837143302">
        <ele>772.210000000000036</ele>
        <time>2014-11-15T09:08:42Z</time>
      </trkpt>
      <trkpt lat="47.723352508619428" lon="11.750998171046376">
        <ele>771.669999999999959</ele>
        <time>2014-11-15T09:08:43Z</time>
      </trkpt>
      <trkpt lat="47.723387964069843" lon="11.750975036993623">
        <ele>771.42999999999995</ele>
        <time>2014-11-15T09:08:44Z</time>
      </trkpt>
      <trkpt lat="47.723415540531278" lon="11.750953998416662">
        <ele>771.039999999999964</ele>
        <time>2014-11-15T09:08:45Z</time>
      </trkpt>
      <trkpt lat="47.723458874970675" lon="11.750942012295127">
        <ele>771.159999999999968</ele>
        <time>2014-11-15T09:08:46Z</time>
      </trkpt>
      <trkpt lat="47.723497347906232" lon="11.750914016738534">
        <ele>771.200000000000045</ele>
        <time>2014-11-15T09:08:47Z</time>
      </trkpt>
      <trkpt lat="47.723529534414411" lon="11.750884931534529">
        <ele>771.639999999999986</ele>
        <time>2014-11-15T09:08:48Z</time>
      </trkpt>
      <trkpt lat="47.723563062027097" lon="11.750848218798637">
        <ele>772.129999999999995</ele>
        <time>2014-11-15T09:08:49Z</time>
      </trkpt>
      <trkpt lat="47.723733885213733" lon="11.750672115013003">
        <ele>772.340000000000032</ele>
        <time>2014-11-15T09:08:56Z</time>
      </trkpt>
      <trkpt lat="47.723753163591027" lon="11.750638838857412">
        <ele>772.870000000000005</ele>
        <time>2014-11-15T09:08:57Z</time>
      </trkpt>
      <trkpt lat="47.723768502473831" lon="11.7506084125489">
        <ele>772.840000000000032</ele>
        <time>2014-11-15T09:08:58Z</time>
      </trkpt>
      <trkpt lat="47.72378945723176" lon="11.75057421438396">
        <ele>772.639999999999986</ele>
        <time>2014-11-15T09:08:59Z</time>
      </trkpt>
      <trkpt lat="47.72382122464478" lon="11.75054831430316">
        <ele>772.840000000000032</ele>
        <time>2014-11-15T09:09:00Z</time>
      </trkpt>
      <trkpt lat="47.723853411152959" lon="11.750514283776283">
        <ele>772.82000000000005</ele>
        <time>2014-11-15T09:09:01Z</time>
      </trkpt>
      <trkpt lat="47.724088774994016" lon="11.75031722523272">
        <ele>774.720000000000027</ele>
        <time>2014-11-15T09:09:11Z</time>
      </trkpt>
      <trkpt lat="47.724150968715549" lon="11.750290235504508">
        <ele>775.110000000000014</ele>
        <time>2014-11-15T09:09:14Z</time>
      </trkpt>
      <trkpt lat="47.724184663966298" lon="11.750290989875793">
        <ele>775.5</ele>
        <time>2014-11-15T09:09:15Z</time>
      </trkpt>
      <trkpt lat="47.724213916808367" lon="11.750299455597997">
        <ele>775.769999999999982</ele>
        <time>2014-11-15T09:09:16Z</time>
      </trkpt>
      <trkpt lat="47.724232776090503" lon="11.750295432284474">
        <ele>775.759999999999991</ele>
        <time>2014-11-15T09:09:17Z</time>
      </trkpt>
      <trkpt lat="47.724491944536567" lon="11.75035435706377">
        <ele>777.200000000000045</ele>
        <time>2014-11-15T09:09:28Z</time>
      </trkpt>
      <trkpt lat="47.724716328084469" lon="11.750203734263778">
        <ele>777.789999999999964</ele>
        <time>2014-11-15T09:09:41Z</time>
      </trkpt>
      <trkpt lat="47.724890587851405" lon="11.750127794221044">
        <ele>775.230000000000018</ele>
        <time>2014-11-15T09:09:54Z</time>
      </trkpt>
      <trkpt lat="47.724897544831038" lon="11.750148246064782">
        <ele>774.789999999999964</ele>
        <time>2014-11-15T09:09:55Z</time>
      </trkpt>
      <trkpt lat="47.724975496530533" lon="11.750215468928218">
        <ele>774.649999999999977</ele>
        <time>2014-11-15T09:09:58Z</time>
      </trkpt>
      <trkpt lat="47.724995026364923" lon="11.750227035954595">
        <ele>775.379999999999995</ele>
        <time>2014-11-15T09:09:59Z</time>
      </trkpt>
      <trkpt lat="47.725013215094805" lon="11.750244721770287">
        <ele>775.029999999999973</ele>
        <time>2014-11-15T09:10:00Z</time>
      </trkpt>
      <trkpt lat="47.725029559805989" lon="11.750263245776296">
        <ele>775.100000000000023</ele>
        <time>2014-11-15T09:10:01Z</time>
      </trkpt>
      <trkpt lat="47.725048083811998" lon="11.750283613801003">
        <ele>775.92999999999995</ele>
        <time>2014-11-15T09:10:02Z</time>
      </trkpt>
      <trkpt lat="47.725066859275103" lon="11.750297024846077">
        <ele>775.850000000000023</ele>
        <time>2014-11-15T09:10:03Z</time>
      </trkpt>
      <trkpt lat="47.725086472928524" lon="11.75030842423439">
        <ele>775.67999999999995</ele>
        <time>2014-11-15T09:10:04Z</time>
      </trkpt>
      <trkpt lat="47.725138692185283" lon="11.750334575772285">
        <ele>776.340000000000032</ele>
        <time>2014-11-15T09:10:05Z</time>
      </trkpt>
      <trkpt lat="47.725169453769922" lon="11.750341365113854">
        <ele>776.269999999999982</ele>
        <time>2014-11-15T09:10:06Z</time>
      </trkpt>
      <trkpt lat="47.725233323872089" lon="11.750361565500498">
        <ele>776.539999999999964</ele>
        <time>2014-11-15T09:10:07Z</time>
      </trkpt>
      <trkpt lat="47.725262157618999" lon="11.750365002080798">
        <ele>776.42999999999995</ele>
        <time>2014-11-15T09:10:08Z</time>
      </trkpt>
      <trkpt lat="47.725572288036346" lon="11.75037145614624">
        <ele>777.049999999999955</ele>
        <time>2014-11-15T09:10:16Z</time>
      </trkpt>
      <trkpt lat="47.725586201995611" lon="11.75038754940033">
        <ele>776.92999999999995</ele>
        <time>2014-11-15T09:10:17Z</time>
      </trkpt>
      <trkpt lat="47.725627524778247" lon="11.750445635989308">
        <ele>777.230000000000018</ele>
        <time>2014-11-15T09:10:20Z</time>
      </trkpt>
      <trkpt lat="47.725645378232002" lon="11.750465584918857">
        <ele>777.5</ele>
        <time>2014-11-15T09:10:21Z</time>
      </trkpt>
      <trkpt lat="47.725798347964883" lon="11.750496095046401">
        <ele>778.200000000000045</ele>
        <time>2014-11-15T09:10:27Z</time>
      </trkpt>
      <trkpt lat="47.725820224732161" lon="11.750492658466101">
        <ele>778.529999999999973</ele>
        <time>2014-11-15T09:10:28Z</time>
      </trkpt>
      <trkpt lat="47.726249461993575" lon="11.750516295433044">
        <ele>778.879999999999995</ele>
        <time>2014-11-15T09:10:40Z</time>
      </trkpt>
      <trkpt lat="47.726525394245982" lon="11.750171715393662">
        <ele>780.330000000000041</ele>
        <time>2014-11-15T09:10:53Z</time>
      </trkpt>
      <trkpt lat="47.726634526625276" lon="11.750163668766618">
        <ele>781.970000000000027</ele>
        <time>2014-11-15T09:11:05Z</time>
      </trkpt>
      <trkpt lat="47.726718261837959" lon="11.750109605491161">
        <ele>781.980000000000018</ele>
        <time>2014-11-15T09:11:10Z</time>
      </trkpt>
      <trkpt lat="47.726734690368176" lon="11.75010516308248">
        <ele>781.740000000000009</ele>
        <time>2014-11-15T09:11:11Z</time>
      </trkpt>
      <trkpt lat="47.726746173575521" lon="11.750084459781647">
        <ele>781.470000000000027</ele>
        <time>2014-11-15T09:11:12Z</time>
      </trkpt>
      <trkpt lat="47.726762183010578" lon="11.750040370970964">
        <ele>781.17999999999995</ele>
        <time>2014-11-15T09:11:13Z</time>
      </trkpt>
      <trkpt lat="47.726786658167839" lon="11.750021427869797">
        <ele>780.67999999999995</ele>
        <time>2014-11-15T09:11:14Z</time>
      </trkpt>
      <trkpt lat="47.726807110011578" lon="11.749994354322553">
        <ele>780.549999999999955</ele>
        <time>2014-11-15T09:11:15Z</time>
      </trkpt>
      <trkpt lat="47.726868633180857" lon="11.749925455078483">
        <ele>779.409999999999968</ele>
        <time>2014-11-15T09:11:18Z</time>
      </trkpt>
      <trkpt lat="47.726886989548802" lon="11.74992335960269">
        <ele>779.32000000000005</ele>
        <time>2014-11-15T09:11:19Z</time>
      </trkpt>
      <trkpt lat="47.726901322603226" lon="11.749931070953608">
        <ele>779.159999999999968</ele>
        <time>2014-11-15T09:11:20Z</time>
      </trkpt>
      <trkpt lat="47.726946836337447" lon="11.749961916357279">
        <ele>779.42999999999995</ele>
        <time>2014-11-15T09:11:22Z</time>
      </trkpt>
      <trkpt lat="47.727023782208562" lon="11.749917827546597">
        <ele>779.330000000000041</ele>
        <time>2014-11-15T09:11:28Z</time>
      </trkpt>
      <trkpt lat="47.727306922897696" lon="11.749959485605359">
        <ele>780.490000000000009</ele>
        <time>2014-11-15T09:11:40Z</time>
      </trkpt>
      <trkpt lat="47.727573299780488" lon="11.750006088986993">
        <ele>778.169999999999959</ele>
        <time>2014-11-15T09:11:51Z</time>
      </trkpt>
      <trkpt lat="47.727592661976814" lon="11.750017320737243">
        <ele>778.659999999999968</ele>
        <time>2014-11-15T09:11:52Z</time>
      </trkpt>
      <trkpt lat="47.727727945894003" lon="11.75004456192255">
        <ele>780.210000000000036</ele>
        <time>2014-11-15T09:12:00Z</time>
      </trkpt>
      <trkpt lat="47.727766335010529" lon="11.750021176412702">
        <ele>781</ele>
        <time>2014-11-15T09:12:04Z</time>
      </trkpt>
      <trkpt lat="47.727778740227222" lon="11.750020673498511">
        <ele>780.879999999999995</ele>
        <time>2014-11-15T09:12:05Z</time>
      </trkpt>
      <trkpt lat="47.727900110185146" lon="11.749932831153274">
        <ele>780.610000000000014</ele>
        <time>2014-11-15T09:12:18Z</time>
      </trkpt>
      <trkpt lat="47.728086020797491" lon="11.749943476170301">
        <ele>780.25</ele>
        <time>2014-11-15T09:12:34Z</time>
      </trkpt>
      <trkpt lat="47.728110998868942" lon="11.749937105923891">
        <ele>779.960000000000036</ele>
        <time>2014-11-15T09:12:35Z</time>
      </trkpt>
      <trkpt lat="47.72812801413238" lon="11.749925706535578">
        <ele>780.080000000000041</ele>
        <time>2014-11-15T09:12:36Z</time>
      </trkpt>
      <trkpt lat="47.728232620283961" lon="11.749864099547267">
        <ele>778.779999999999973</ele>
        <time>2014-11-15T09:12:42Z</time>
      </trkpt>
      <trkpt lat="47.728213090449572" lon="11.749727809801698">
        <ele>777.389999999999986</ele>
        <time>2014-11-15T09:12:49Z</time>
      </trkpt>
      <trkpt lat="47.728200098499656" lon="11.749705262482166">
        <ele>776.620000000000005</ele>
        <time>2014-11-15T09:12:50Z</time>
      </trkpt>
      <trkpt lat="47.72818417288363" lon="11.749687660485506">
        <ele>776.610000000000014</ele>
        <time>2014-11-15T09:12:51Z</time>
      </trkpt>
      <trkpt lat="47.72817294113338" lon="11.749659581109881">
        <ele>776.870000000000005</ele>
        <time>2014-11-15T09:12:52Z</time>
      </trkpt>
      <trkpt lat="47.72816363722086" lon="11.749621862545609">
        <ele>776.389999999999986</ele>
        <time>2014-11-15T09:12:53Z</time>
      </trkpt>
      <trkpt lat="47.728161960840225" lon="11.749574085697532">
        <ele>775.440000000000055</ele>
        <time>2014-11-15T09:12:54Z</time>
      </trkpt>
      <trkpt lat="47.728160619735718" lon="11.749522788450122">
        <ele>774.919999999999959</ele>
        <time>2014-11-15T09:12:55Z</time>
      </trkpt>
      <trkpt lat="47.72816363722086" lon="11.749464450404048">
        <ele>774.769999999999982</ele>
        <time>2014-11-15T09:12:56Z</time>
      </trkpt>
      <trkpt lat="47.728192303329706" lon="11.749310810118914">
        <ele>774.309999999999945</ele>
        <time>2014-11-15T09:12:59Z</time>
      </trkpt>
      <trkpt lat="47.728238990530372" lon="11.749168233945966">
        <ele>773.190000000000055</ele>
        <time>2014-11-15T09:13:01Z</time>
      </trkpt>
      <trkpt lat="47.728263717144728" lon="11.74908634275198">
        <ele>772.889999999999986</ele>
        <time>2014-11-15T09:13:02Z</time>
      </trkpt>
      <trkpt lat="47.728321552276611" lon="11.748935803771019">
        <ele>771.919999999999959</ele>
        <time>2014-11-15T09:13:04Z</time>
      </trkpt>
      <trkpt lat="47.72835030220449" lon="11.748868748545647">
        <ele>772.32000000000005</ele>
        <time>2014-11-15T09:13:05Z</time>
      </trkpt>
      <trkpt lat="47.728370921686292" lon="11.748666744679213">
        <ele>773.029999999999973</ele>
        <time>2014-11-15T09:13:12Z</time>
      </trkpt>
      <trkpt lat="47.728386763483286" lon="11.748382598161697">
        <ele>773.659999999999968</ele>
        <time>2014-11-15T09:13:31Z</time>
      </trkpt>
      <trkpt lat="47.728555323556066" lon="11.748163746669888">
        <ele>775.649999999999977</ele>
        <time>2014-11-15T09:13:46Z</time>
      </trkpt>
      <trkpt lat="47.72877593524754" lon="11.74819995649159">
        <ele>778.67999999999995</ele>
        <time>2014-11-15T09:14:02Z</time>
      </trkpt>
      <trkpt lat="47.728787753731012" lon="11.748183025047183">
        <ele>778.649999999999977</ele>
        <time>2014-11-15T09:14:08Z</time>
      </trkpt>
      <trkpt lat="47.728801583871245" lon="11.748159471899271">
        <ele>778.549999999999955</ele>
        <time>2014-11-15T09:14:09Z</time>
      </trkpt>
      <trkpt lat="47.728819521144032" lon="11.748113371431828">
        <ele>777.539999999999964</ele>
        <time>2014-11-15T09:14:10Z</time>
      </trkpt>
      <trkpt lat="47.728867549449205" lon="11.747995438054204">
        <ele>776.129999999999995</ele>
        <time>2014-11-15T09:14:12Z</time>
      </trkpt>
      <trkpt lat="47.728997133672237" lon="11.747651277109981">
        <ele>772.909999999999968</ele>
        <time>2014-11-15T09:14:17Z</time>
      </trkpt>
      <trkpt lat="47.729032086208463" lon="11.747594950720668">
        <ele>772.080000000000041</ele>
        <time>2014-11-15T09:14:18Z</time>
      </trkpt>
      <trkpt lat="47.729075755923986" lon="11.747558070346713">
        <ele>771.340000000000032</ele>
        <time>2014-11-15T09:14:19Z</time>
      </trkpt>
      <trkpt lat="47.729124119505286" lon="11.747536696493626">
        <ele>770.840000000000032</ele>
        <time>2014-11-15T09:14:20Z</time>
      </trkpt>
      <trkpt lat="47.729175584390759" lon="11.747524291276932">
        <ele>770.590000000000032</ele>
        <time>2014-11-15T09:14:21Z</time>
      </trkpt>
      <trkpt lat="47.729228055104613" lon="11.747519597411156">
        <ele>770.75</ele>
        <time>2014-11-15T09:14:22Z</time>
      </trkpt>
      <trkpt lat="47.729535670951009" lon="11.747512388974428">
        <ele>768.639999999999986</ele>
        <time>2014-11-15T09:14:28Z</time>
      </trkpt>
      <trkpt lat="47.729646395891905" lon="11.747533846646547">
        <ele>767.690000000000055</ele>
        <time>2014-11-15T09:14:30Z</time>
      </trkpt>
      <trkpt lat="47.72969601675868" lon="11.747556896880269">
        <ele>767.379999999999995</ele>
        <time>2014-11-15T09:14:31Z</time>
      </trkpt>
      <trkpt lat="47.729726945981383" lon="11.747579192742705">
        <ele>767.230000000000018</ele>
        <time>2014-11-15T09:14:32Z</time>
      </trkpt>
      <trkpt lat="47.729789139702916" lon="11.747652282938361">
        <ele>767.019999999999982</ele>
        <time>2014-11-15T09:14:39Z</time>
      </trkpt>
      <trkpt lat="47.729866253212094" lon="11.747645661234856">
        <ele>767.730000000000018</ele>
        <time>2014-11-15T09:14:43Z</time>
      </trkpt>
      <trkpt lat="47.729882849380374" lon="11.747634513303638">
        <ele>767.980000000000018</ele>
        <time>2014-11-15T09:14:44Z</time>
      </trkpt>
      <trkpt lat="47.729902043938637" lon="11.747614061459899">
        <ele>766.57000000000005</ele>
        <time>2014-11-15T09:14:45Z</time>
      </trkpt>
      <trkpt lat="47.729932386428118" lon="11.747585479170084">
        <ele>765.889999999999986</ele>
        <time>2014-11-15T09:14:46Z</time>
      </trkpt>
      <trkpt lat="47.729959124699235" lon="11.747548179700971">
        <ele>766.919999999999959</ele>
        <time>2014-11-15T09:14:47Z</time>
      </trkpt>
      <trkpt lat="47.729980750009418" lon="11.747517669573426">
        <ele>767.029999999999973</ele>
        <time>2014-11-15T09:14:48Z</time>
      </trkpt>
      <trkpt lat="47.730004470795393" lon="11.747491098940372">
        <ele>766.82000000000005</ele>
        <time>2014-11-15T09:14:49Z</time>
      </trkpt>
      <trkpt lat="47.730021988973022" lon="11.747463187202811">
        <ele>765.549999999999955</ele>
        <time>2014-11-15T09:14:50Z</time>
      </trkpt>
      <trkpt lat="47.730041770264506" lon="11.747428486123681">
        <ele>764.330000000000041</ele>
        <time>2014-11-15T09:14:51Z</time>
      </trkpt>
      <trkpt lat="47.730111423879862" lon="11.747342320159078">
        <ele>761.830000000000041</ele>
        <time>2014-11-15T09:14:53Z</time>
      </trkpt>
      <trkpt lat="47.730155428871512" lon="11.747298901900649">
        <ele>761.289999999999964</ele>
        <time>2014-11-15T09:14:54Z</time>
      </trkpt>
      <trkpt lat="47.730366485193372" lon="11.747080720961094">
        <ele>757.960000000000036</ele>
        <time>2014-11-15T09:14:58Z</time>
      </trkpt>
      <trkpt lat="47.730417614802718" lon="11.747027914971113">
        <ele>758.090000000000032</ele>
        <time>2014-11-15T09:14:59Z</time>
      </trkpt>
      <trkpt lat="47.730464972555637" lon="11.746983826160431">
        <ele>758.309999999999945</ele>
        <time>2014-11-15T09:15:00Z</time>
      </trkpt>
      <trkpt lat="47.730540744960308" lon="11.746948286890984">
        <ele>761.889999999999986</ele>
        <time>2014-11-15T09:15:02Z</time>
      </trkpt>
      <trkpt lat="47.730564214289188" lon="11.74691685475409">
        <ele>761.639999999999986</ele>
        <time>2014-11-15T09:15:03Z</time>
      </trkpt>
      <trkpt lat="47.730976771563292" lon="11.746730441227555">
        <ele>761.899999999999977</ele>
        <time>2014-11-15T09:15:14Z</time>
      </trkpt>
      <trkpt lat="47.731313975527883" lon="11.746542686596513">
        <ele>762.600000000000023</ele>
        <time>2014-11-15T09:15:25Z</time>
      </trkpt>
      <trkpt lat="47.731579598039389" lon="11.746453335508704">
        <ele>761.259999999999991</ele>
        <time>2014-11-15T09:15:34Z</time>
      </trkpt>
      <trkpt lat="47.731606587767601" lon="11.746420981362462">
        <ele>760.490000000000009</ele>
        <time>2014-11-15T09:15:35Z</time>
      </trkpt>
      <trkpt lat="47.73176877759397" lon="11.746264491230249">
        <ele>760.059999999999945</ele>
        <time>2014-11-15T09:15:39Z</time>
      </trkpt>
      <trkpt lat="47.732162056490779" lon="11.745831146836281">
        <ele>759.110000000000014</ele>
        <time>2014-11-15T09:15:49Z</time>
      </trkpt>
      <trkpt lat="47.732203295454383" lon="11.745775993913412">
        <ele>758.32000000000005</ele>
        <time>2014-11-15T09:15:50Z</time>
      </trkpt>
      <trkpt lat="47.732411837205291" lon="11.745502995327115">
        <ele>755.049999999999955</ele>
        <time>2014-11-15T09:15:54Z</time>
      </trkpt>
      <trkpt lat="47.732591880485415" lon="11.745343152433634">
        <ele>750.450000000000045</ele>
        <time>2014-11-15T09:15:57Z</time>
      </trkpt>
      <trkpt lat="47.732726158574224" lon="11.745247934013605">
        <ele>749.370000000000005</ele>
        <time>2014-11-15T09:15:59Z</time>
      </trkpt>
      <trkpt lat="47.73284568451345" lon="11.745143327862024">
        <ele>747.519999999999982</ele>
        <time>2014-11-15T09:16:01Z</time>
      </trkpt>
      <trkpt lat="47.73295029066503" lon="11.745061436668038">
        <ele>745.990000000000009</ele>
        <time>2014-11-15T09:16:03Z</time>
      </trkpt>
      <trkpt lat="47.733007203787565" lon="11.745030423626304">
        <ele>745.399999999999977</ele>
        <time>2014-11-15T09:16:04Z</time>
      </trkpt>
      <trkpt lat="47.733068056404591" lon="11.745016844943166">
        <ele>744.669999999999959</ele>
        <time>2014-11-15T09:16:05Z</time>
      </trkpt>
      <trkpt lat="47.733131926506758" lon="11.745023299008608">
        <ele>744.049999999999955</ele>
        <time>2014-11-15T09:16:06Z</time>
      </trkpt>
      <trkpt lat="47.733190767467022" lon="11.745041739195585">
        <ele>742.809999999999945</ele>
        <time>2014-11-15T09:16:07Z</time>
      </trkpt>
      <trkpt lat="47.733242399990559" lon="11.74507275223732">
        <ele>742.039999999999964</ele>
        <time>2014-11-15T09:16:08Z</time>
      </trkpt>
      <trkpt lat="47.733289254829288" lon="11.745106196030974">
        <ele>742.450000000000045</ele>
        <time>2014-11-15T09:16:09Z</time>
      </trkpt>
      <trkpt lat="47.733334684744477" lon="11.745145171880722">
        <ele>742.17999999999995</ele>
        <time>2014-11-15T09:16:10Z</time>
      </trkpt>
      <trkpt lat="47.733375253155828" lon="11.745176687836647">
        <ele>742.950000000000045</ele>
        <time>2014-11-15T09:16:11Z</time>
      </trkpt>
      <trkpt lat="47.733689155429602" lon="11.74556870944798">
        <ele>743.710000000000036</ele>
        <time>2014-11-15T09:16:22Z</time>
      </trkpt>
      <trkpt lat="47.7339275367558" lon="11.745947822928429">
        <ele>745.75</ele>
        <time>2014-11-15T09:16:35Z</time>
      </trkpt>
      <trkpt lat="47.73404723033309" lon="11.746193747967482">
        <ele>747.799999999999955</ele>
        <time>2014-11-15T09:16:44Z</time>
      </trkpt>
      <trkpt lat="47.734062904492021" lon="11.746221827343106">
        <ele>748.480000000000018</ele>
        <time>2014-11-15T09:16:45Z</time>
      </trkpt>
      <trkpt lat="47.734072459861636" lon="11.746251583099365">
        <ele>748.259999999999991</ele>
        <time>2014-11-15T09:16:46Z</time>
      </trkpt>
      <trkpt lat="47.734081596136093" lon="11.746275303885341">
        <ele>748.42999999999995</ele>
        <time>2014-11-15T09:16:47Z</time>
      </trkpt>
      <trkpt lat="47.734091151505709" lon="11.746299611404538">
        <ele>748.360000000000014</ele>
        <time>2014-11-15T09:16:48Z</time>
      </trkpt>
      <trkpt lat="47.734103053808212" lon="11.746321739628911">
        <ele>748.779999999999973</ele>
        <time>2014-11-15T09:16:49Z</time>
      </trkpt>
      <trkpt lat="47.734117219224572" lon="11.746340598911047">
        <ele>748.870000000000005</ele>
        <time>2014-11-15T09:16:50Z</time>
      </trkpt>
      <trkpt lat="47.734129456803203" lon="11.746359458193183">
        <ele>749.059999999999945</ele>
        <time>2014-11-15T09:16:51Z</time>
      </trkpt>
      <trkpt lat="47.734137335792184" lon="11.746381921693683">
        <ele>749.120000000000005</ele>
        <time>2014-11-15T09:16:52Z</time>
      </trkpt>
      <trkpt lat="47.73414839990437" lon="11.746403882279992">
        <ele>749.879999999999995</ele>
        <time>2014-11-15T09:16:53Z</time>
      </trkpt>
      <trkpt lat="47.734161391854286" lon="11.746423663571477">
        <ele>749.639999999999986</ele>
        <time>2014-11-15T09:16:54Z</time>
      </trkpt>
      <trkpt lat="47.734172036871314" lon="11.74644042737782">
        <ele>749.779999999999973</ele>
        <time>2014-11-15T09:16:55Z</time>
      </trkpt>
      <trkpt lat="47.734265914186835" lon="11.746616195887327">
        <ele>752.789999999999964</ele>
        <time>2014-11-15T09:17:07Z</time>
      </trkpt>
      <trkpt lat="47.734344536438584" lon="11.746754329651594">
        <ele>754.860000000000014</ele>
        <time>2014-11-15T09:17:17Z</time>
      </trkpt>
      <trkpt lat="47.73435216397047" lon="11.746768662706017">
        <ele>755.379999999999995</ele>
        <time>2014-11-15T09:17:18Z</time>
      </trkpt>
      <trkpt lat="47.734356354922056" lon="11.746788779273629">
        <ele>755.440000000000055</ele>
        <time>2014-11-15T09:17:19Z</time>
      </trkpt>
      <trkpt lat="47.734362054616213" lon="11.746807219460607">
        <ele>755.639999999999986</ele>
        <time>2014-11-15T09:17:20Z</time>
      </trkpt>
      <trkpt lat="47.734369514510036" lon="11.746827168390155">
        <ele>755.610000000000014</ele>
        <time>2014-11-15T09:17:21Z</time>
      </trkpt>
      <trkpt lat="47.734372448176146" lon="11.746847871690989">
        <ele>755.259999999999991</ele>
        <time>2014-11-15T09:17:22Z</time>
      </trkpt>
      <trkpt lat="47.734376303851604" lon="11.746868910267949">
        <ele>756.149999999999977</ele>
        <time>2014-11-15T09:17:23Z</time>
      </trkpt>
      <trkpt lat="47.734379824250937" lon="11.746888775378466">
        <ele>756.279999999999973</ele>
        <time>2014-11-15T09:17:24Z</time>
      </trkpt>
      <trkpt lat="47.734431624412537" lon="11.747160265222192">
        <ele>758.299999999999955</ele>
        <time>2014-11-15T09:17:37Z</time>
      </trkpt>
      <trkpt lat="47.734441598877311" lon="11.747181136161089">
        <ele>758.850000000000023</ele>
        <time>2014-11-15T09:17:38Z</time>
      </trkpt>
      <trkpt lat="47.734447382390499" lon="11.747202007099986">
        <ele>759.340000000000032</ele>
        <time>2014-11-15T09:17:39Z</time>
      </trkpt>
      <trkpt lat="47.734449980780482" lon="11.747225476428866">
        <ele>759.590000000000032</ele>
        <time>2014-11-15T09:17:40Z</time>
      </trkpt>
      <trkpt lat="47.734453082084656" lon="11.747247939929366">
        <ele>759.669999999999959</ele>
        <time>2014-11-15T09:17:41Z</time>
      </trkpt>
      <trkpt lat="47.734474120661616" lon="11.747306110337377">
        <ele>760.450000000000045</ele>
        <time>2014-11-15T09:17:44Z</time>
      </trkpt>
      <trkpt lat="47.734478730708361" lon="11.747325221076608">
        <ele>760.490000000000009</ele>
        <time>2014-11-15T09:17:45Z</time>
      </trkpt>
      <trkpt lat="47.734485436230898" lon="11.747343325987458">
        <ele>760.799999999999955</ele>
        <time>2014-11-15T09:17:46Z</time>
      </trkpt>
      <trkpt lat="47.734490633010864" lon="11.74736344255507">
        <ele>761.389999999999986</ele>
        <time>2014-11-15T09:17:47Z</time>
      </trkpt>
      <trkpt lat="47.734553078189492" lon="11.747493697330356">
        <ele>763.559999999999945</ele>
        <time>2014-11-15T09:17:58Z</time>
      </trkpt>
      <trkpt lat="47.73468148894608" lon="11.747664101421833">
        <ele>767.090000000000032</ele>
        <time>2014-11-15T09:18:12Z</time>
      </trkpt>
      <trkpt lat="47.734756004065275" lon="11.747768707573414">
        <ele>768.940000000000055</ele>
        <time>2014-11-15T09:18:21Z</time>
      </trkpt>
      <trkpt lat="47.734764218330383" lon="11.747785555198789">
        <ele>768.860000000000014</ele>
        <time>2014-11-15T09:18:22Z</time>
      </trkpt>
      <trkpt lat="47.734842589125037" lon="11.747993594035506">
        <ele>772.190000000000055</ele>
        <time>2014-11-15T09:18:35Z</time>
      </trkpt>
      <trkpt lat="47.734862705692649" lon="11.748095769435167">
        <ele>773.340000000000032</ele>
        <time>2014-11-15T09:18:39Z</time>
      </trkpt>
      <trkpt lat="47.734907297417521" lon="11.748411264270544">
        <ele>776.139999999999986</ele>
        <time>2014-11-15T09:18:54Z</time>
      </trkpt>
      <trkpt lat="47.734872344881296" lon="11.748793059960008">
        <ele>775.940000000000055</ele>
        <time>2014-11-15T09:19:07Z</time>
      </trkpt>
      <trkpt lat="47.734985835850239" lon="11.749197067692876">
        <ele>774.700000000000045</ele>
        <time>2014-11-15T09:19:15Z</time>
      </trkpt>
      <trkpt lat="47.735123550519347" lon="11.749365292489529">
        <ele>774.409999999999968</ele>
        <time>2014-11-15T09:19:19Z</time>
      </trkpt>
      <trkpt lat="47.735717827454209" lon="11.749867368489504">
        <ele>772.409999999999968</ele>
        <time>2014-11-15T09:19:34Z</time>
      </trkpt>
      <trkpt lat="47.736273631453514" lon="11.750334575772285">
        <ele>771.029999999999973</ele>
        <time>2014-11-15T09:19:45Z</time>
      </trkpt>
      <trkpt lat="47.736331634223461" lon="11.750367097556591">
        <ele>771.210000000000036</ele>
        <time>2014-11-15T09:19:46Z</time>
      </trkpt>
      <trkpt lat="47.737292032688856" lon="11.750705223530531">
        <ele>768.529999999999973</ele>
        <time>2014-11-15T09:20:01Z</time>
      </trkpt>
      <trkpt lat="47.737697968259454" lon="11.750735901296139">
        <ele>766.590000000000032</ele>
        <time>2014-11-15T09:20:07Z</time>
      </trkpt>
      <trkpt lat="47.738391570746899" lon="11.750837238505483">
        <ele>763.42999999999995</ele>
        <time>2014-11-15T09:20:17Z</time>
      </trkpt>
      <trkpt lat="47.739456994459033" lon="11.751244347542524">
        <ele>761.769999999999982</ele>
        <time>2014-11-15T09:20:32Z</time>
      </trkpt>
      <trkpt lat="47.739624297246337" lon="11.751370159909129">
        <ele>760.830000000000041</ele>
        <time>2014-11-15T09:20:35Z</time>
      </trkpt>
      <trkpt lat="47.739667128771544" lon="11.751419948413968">
        <ele>761.080000000000041</ele>
        <time>2014-11-15T09:20:36Z</time>
      </trkpt>
      <trkpt lat="47.739703757688403" lon="11.751472922042012">
        <ele>761.100000000000023</ele>
        <time>2014-11-15T09:20:37Z</time>
      </trkpt>
      <trkpt lat="47.739733932539821" lon="11.7515270691365">
        <ele>761.549999999999955</ele>
        <time>2014-11-15T09:20:38Z</time>
      </trkpt>
      <trkpt lat="47.739758491516113" lon="11.751579791307449">
        <ele>761.840000000000032</ele>
        <time>2014-11-15T09:20:39Z</time>
      </trkpt>
      <trkpt lat="47.739773914217949" lon="11.751631591469049">
        <ele>762.629999999999995</ele>
        <time>2014-11-15T09:20:40Z</time>
      </trkpt>
      <trkpt lat="47.739780116826296" lon="11.751680374145508">
        <ele>763.519999999999982</ele>
        <time>2014-11-15T09:20:41Z</time>
      </trkpt>
      <trkpt lat="47.739779865369201" lon="11.751722618937492">
        <ele>763.57000000000005</ele>
        <time>2014-11-15T09:20:42Z</time>
      </trkpt>
      <trkpt lat="47.739774165675044" lon="11.751759499311447">
        <ele>763.539999999999964</ele>
        <time>2014-11-15T09:20:43Z</time>
      </trkpt>
      <trkpt lat="47.739766286686063" lon="11.751793278381228">
        <ele>763.850000000000023</ele>
        <time>2014-11-15T09:20:44Z</time>
      </trkpt>
      <trkpt lat="47.739690346643329" lon="11.752342460677028">
        <ele>762.379999999999995</ele>
        <time>2014-11-15T09:20:56Z</time>
      </trkpt>
      <trkpt lat="47.739596804603934" lon="11.752843111753464">
        <ele>762.029999999999973</ele>
        <time>2014-11-15T09:21:02Z</time>
      </trkpt>
      <trkpt lat="47.739389603957534" lon="11.753383576869965">
        <ele>762.279999999999973</ele>
        <time>2014-11-15T09:21:10Z</time>
      </trkpt>
      <trkpt lat="47.739353394135833" lon="11.753629334270954">
        <ele>761.990000000000009</ele>
        <time>2014-11-15T09:21:14Z</time>
      </trkpt>
      <trkpt lat="47.73937426507473" lon="11.753694796934724">
        <ele>761.809999999999945</ele>
        <time>2014-11-15T09:21:15Z</time>
      </trkpt>
      <trkpt lat="47.73940603248775" lon="11.75375766120851">
        <ele>761.879999999999995</ele>
        <time>2014-11-15T09:21:16Z</time>
      </trkpt>
      <trkpt lat="47.739443918690085" lon="11.753816921263933">
        <ele>760.840000000000032</ele>
        <time>2014-11-15T09:21:17Z</time>
      </trkpt>
      <trkpt lat="47.739483984187245" lon="11.753878025338054">
        <ele>760.669999999999959</ele>
        <time>2014-11-15T09:21:18Z</time>
      </trkpt>
      <trkpt lat="47.740115812048316" lon="11.754708588123322">
        <ele>757.610000000000014</ele>
        <time>2014-11-15T09:21:31Z</time>
      </trkpt>
      <trkpt lat="47.740606321021914" lon="11.755769066512585">
        <ele>758.730000000000018</ele>
        <time>2014-11-15T09:21:46Z</time>
      </trkpt>
      <trkpt lat="47.740762308239937" lon="11.756504075601697">
        <ele>762.07000000000005</ele>
        <time>2014-11-15T09:21:58Z</time>
      </trkpt>
      <trkpt lat="47.741015274077654" lon="11.757438071072102">
        <ele>763.659999999999968</ele>
        <time>2014-11-15T09:22:15Z</time>
      </trkpt>
      <trkpt lat="47.741360021755099" lon="11.758253630250692">
        <ele>761.980000000000018</ele>
        <time>2014-11-15T09:22:27Z</time>
      </trkpt>
      <trkpt lat="47.741386760026217" lon="11.758328396826982">
        <ele>762.350000000000023</ele>
        <time>2014-11-15T09:22:28Z</time>
      </trkpt>
      <trkpt lat="47.74147242307663" lon="11.758540291339159">
        <ele>762.019999999999982</ele>
        <time>2014-11-15T09:22:31Z</time>
      </trkpt>
      <trkpt lat="47.74150469340384" lon="11.758613800629973">
        <ele>762.860000000000014</ele>
        <time>2014-11-15T09:22:32Z</time>
      </trkpt>
      <trkpt lat="47.741585746407509" lon="11.758864335715771">
        <ele>759.82000000000005</ele>
        <time>2014-11-15T09:22:35Z</time>
      </trkpt>
      <trkpt lat="47.741901492699981" lon="11.759662544354796">
        <ele>761.299999999999955</ele>
        <time>2014-11-15T09:22:45Z</time>
      </trkpt>
      <trkpt lat="47.741935942322016" lon="11.759709566831589">
        <ele>761.82000000000005</ele>
        <time>2014-11-15T09:22:46Z</time>
      </trkpt>
      <trkpt lat="47.741972068324685" lon="11.759743094444275">
        <ele>762.360000000000014</ele>
        <time>2014-11-15T09:22:47Z</time>
      </trkpt>
      <trkpt lat="47.742016911506653" lon="11.759760780259967">
        <ele>762</ele>
        <time>2014-11-15T09:22:48Z</time>
      </trkpt>
      <trkpt lat="47.742064939811826" lon="11.759772514924407">
        <ele>762.5</ele>
        <time>2014-11-15T09:22:49Z</time>
      </trkpt>
      <trkpt lat="47.742566177621484" lon="11.759943254292011">
        <ele>760.450000000000045</ele>
        <time>2014-11-15T09:22:58Z</time>
      </trkpt>
      <trkpt lat="47.742569027468562" lon="11.76001206971705">
        <ele>761.149999999999977</ele>
        <time>2014-11-15T09:22:59Z</time>
      </trkpt>
      <trkpt lat="47.7425567060709" lon="11.760079376399517">
        <ele>760.210000000000036</ele>
        <time>2014-11-15T09:23:00Z</time>
      </trkpt>
      <trkpt lat="47.742512198165059" lon="11.760555552318692">
        <ele>759.710000000000036</ele>
        <time>2014-11-15T09:23:06Z</time>
      </trkpt>
      <trkpt lat="47.742634825408459" lon="11.761594321578741">
        <ele>756.669999999999959</ele>
        <time>2014-11-15T09:23:17Z</time>
      </trkpt>
      <trkpt lat="47.742713782936335" lon="11.762933330610394">
        <ele>753.419999999999959</ele>
        <time>2014-11-15T09:23:29Z</time>
      </trkpt>
      <trkpt lat="47.742806738242507" lon="11.763968914747238">
        <ele>750.980000000000018</ele>
        <time>2014-11-15T09:23:38Z</time>
      </trkpt>
      <trkpt lat="47.742832470685244" lon="11.764062289148569">
        <ele>751.210000000000036</ele>
        <time>2014-11-15T09:23:39Z</time>
      </trkpt>
      <trkpt lat="47.742871027439833" lon="11.764134205877781">
        <ele>750.950000000000045</ele>
        <time>2014-11-15T09:23:40Z</time>
      </trkpt>
      <trkpt lat="47.742917882278562" lon="11.764187850058079">
        <ele>751.200000000000045</ele>
        <time>2014-11-15T09:23:41Z</time>
      </trkpt>
      <trkpt lat="47.742962138727307" lon="11.764219030737877">
        <ele>751.350000000000023</ele>
        <time>2014-11-15T09:23:42Z</time>
      </trkpt>
      <trkpt lat="47.742996253073215" lon="11.764244176447392">
        <ele>752.25</ele>
        <time>2014-11-15T09:23:43Z</time>
      </trkpt>
      <trkpt lat="47.743019554764032" lon="11.764284493401647">
        <ele>752.529999999999973</ele>
        <time>2014-11-15T09:23:44Z</time>
      </trkpt>
      <trkpt lat="47.743030535057187" lon="11.764334281906486">
        <ele>751.659999999999968</ele>
        <time>2014-11-15T09:23:45Z</time>
      </trkpt>
      <trkpt lat="47.743040677160025" lon="11.764389853924513">
        <ele>752.289999999999964</ele>
        <time>2014-11-15T09:23:46Z</time>
      </trkpt>
      <trkpt lat="47.743047466501594" lon="11.764449281617999">
        <ele>752.029999999999973</ele>
        <time>2014-11-15T09:23:47Z</time>
      </trkpt>
      <trkpt lat="47.743187863379717" lon="11.765527194365859">
        <ele>751.970000000000027</ele>
        <time>2014-11-15T09:24:03Z</time>
      </trkpt>
      <trkpt lat="47.743205968290567" lon="11.765660466626287">
        <ele>751.870000000000005</ele>
        <time>2014-11-15T09:24:05Z</time>
      </trkpt>
      <trkpt lat="47.743281740695238" lon="11.765988450497389">
        <ele>752.259999999999991</ele>
        <time>2014-11-15T09:24:10Z</time>
      </trkpt>
      <trkpt lat="47.743486342951655" lon="11.766698230057955">
        <ele>754.960000000000036</ele>
        <time>2014-11-15T09:24:23Z</time>
      </trkpt>
      <trkpt lat="47.74353688582778" lon="11.767149595543742">
        <ele>756.789999999999964</ele>
        <time>2014-11-15T09:24:34Z</time>
      </trkpt>
      <trkpt lat="47.743555493652821" lon="11.767626274377108">
        <ele>759.149999999999977</ele>
        <time>2014-11-15T09:24:46Z</time>
      </trkpt>
      <trkpt lat="47.743533616885543" lon="11.768241170793772">
        <ele>760.139999999999986</ele>
        <time>2014-11-15T09:25:00Z</time>
      </trkpt>
      <trkpt lat="47.743544513359666" lon="11.768839303404093">
        <ele>760.690000000000055</ele>
        <time>2014-11-15T09:25:13Z</time>
      </trkpt>
      <trkpt lat="47.743588434532285" lon="11.769614880904555">
        <ele>762.309999999999945</ele>
        <time>2014-11-15T09:25:27Z</time>
      </trkpt>
      <trkpt lat="47.743744505569339" lon="11.770214773714542">
        <ele>762.889999999999986</ele>
        <time>2014-11-15T09:25:39Z</time>
      </trkpt>
      <trkpt lat="47.743913736194372" lon="11.77080050110817">
        <ele>762.379999999999995</ele>
        <time>2014-11-15T09:25:51Z</time>
      </trkpt>
      <trkpt lat="47.744037201628089" lon="11.771265445277095">
        <ele>761.990000000000009</ele>
        <time>2014-11-15T09:26:00Z</time>
      </trkpt>
      <trkpt lat="47.744217161089182" lon="11.771986456587911">
        <ele>760.740000000000009</ele>
        <time>2014-11-15T09:26:11Z</time>
      </trkpt>
      <trkpt lat="47.744261249899864" lon="11.772135403007269">
        <ele>759.860000000000014</ele>
        <time>2014-11-15T09:26:13Z</time>
      </trkpt>
      <trkpt lat="47.744283461943269" lon="11.772213187068701">
        <ele>759.409999999999968</ele>
        <time>2014-11-15T09:26:14Z</time>
      </trkpt>
      <trkpt lat="47.744584036991" lon="11.773293111473322">
        <ele>758.440000000000055</ele>
        <time>2014-11-15T09:26:27Z</time>
      </trkpt>
      <trkpt lat="47.744664084166288" lon="11.773575078696012">
        <ele>759.009999999999991</ele>
        <time>2014-11-15T09:26:31Z</time>
      </trkpt>
      <trkpt lat="47.744889557361603" lon="11.774229621514678">
        <ele>761.529999999999973</ele>
        <time>2014-11-15T09:26:44Z</time>
      </trkpt>
      <trkpt lat="47.744928449392319" lon="11.774352416396141">
        <ele>761.389999999999986</ele>
        <time>2014-11-15T09:26:47Z</time>
      </trkpt>
      <trkpt lat="47.744955690577626" lon="11.774375466629863">
        <ele>761.379999999999995</ele>
        <time>2014-11-15T09:26:48Z</time>
      </trkpt>
      <trkpt lat="47.744986200705171" lon="11.774391978979111">
        <ele>761.610000000000014</ele>
        <time>2014-11-15T09:26:49Z</time>
      </trkpt>
      <trkpt lat="47.745361039415002" lon="11.774770841002464">
        <ele>763.840000000000032</ele>
        <time>2014-11-15T09:27:05Z</time>
      </trkpt>
      <trkpt lat="47.745560193434358" lon="11.775175267830491">
        <ele>765.409999999999968</ele>
        <time>2014-11-15T09:27:18Z</time>
      </trkpt>
      <trkpt lat="47.745750043541193" lon="11.775534264743328">
        <ele>766.450000000000045</ele>
        <time>2014-11-15T09:27:31Z</time>
      </trkpt>
      <trkpt lat="47.74596051312983" lon="11.775934919714928">
        <ele>767.75</ele>
        <time>2014-11-15T09:27:44Z</time>
      </trkpt>
      <trkpt lat="47.746206438168883" lon="11.776377903297544">
        <ele>769.389999999999986</ele>
        <time>2014-11-15T09:27:58Z</time>
      </trkpt>
      <trkpt lat="47.746385727077723" lon="11.776762465015054">
        <ele>770.649999999999977</ele>
        <time>2014-11-15T09:28:10Z</time>
      </trkpt>
      <trkpt lat="47.746399641036987" lon="11.776792891323566">
        <ele>770.730000000000018</ele>
        <time>2014-11-15T09:28:11Z</time>
      </trkpt>
      <trkpt lat="47.74641296826303" lon="11.776824742555618">
        <ele>770.899999999999977</ele>
        <time>2014-11-15T09:28:12Z</time>
      </trkpt>
      <trkpt lat="47.746429061517119" lon="11.776857683435082">
        <ele>770.850000000000023</ele>
        <time>2014-11-15T09:28:13Z</time>
      </trkpt>
      <trkpt lat="47.746443478390574" lon="11.776890875771642">
        <ele>770.809999999999945</ele>
        <time>2014-11-15T09:28:14Z</time>
      </trkpt>
      <trkpt lat="47.746551102027297" lon="11.777246939018369">
        <ele>772.740000000000009</ele>
        <time>2014-11-15T09:28:25Z</time>
      </trkpt>
      <trkpt lat="47.746549174189568" lon="11.777278874069452">
        <ele>772.919999999999959</ele>
        <time>2014-11-15T09:28:26Z</time>
      </trkpt>
      <trkpt lat="47.746549844741821" lon="11.777310557663441">
        <ele>773.159999999999968</ele>
        <time>2014-11-15T09:28:27Z</time>
      </trkpt>
      <trkpt lat="47.746553113684058" lon="11.777338301762938">
        <ele>772.990000000000009</ele>
        <time>2014-11-15T09:28:28Z</time>
      </trkpt>
      <trkpt lat="47.746562836691737" lon="11.777362776920199">
        <ele>772.940000000000055</ele>
        <time>2014-11-15T09:28:29Z</time>
      </trkpt>
      <trkpt lat="47.746572308242321" lon="11.777390269562602">
        <ele>772.980000000000018</ele>
        <time>2014-11-15T09:28:30Z</time>
      </trkpt>
      <trkpt lat="47.746580019593239" lon="11.777423545718193">
        <ele>773.690000000000055</ele>
        <time>2014-11-15T09:28:31Z</time>
      </trkpt>
      <trkpt lat="47.746581276878715" lon="11.777457660064101">
        <ele>773.940000000000055</ele>
        <time>2014-11-15T09:28:32Z</time>
      </trkpt>
      <trkpt lat="47.746586641296744" lon="11.777488673105836">
        <ele>773.990000000000009</ele>
        <time>2014-11-15T09:28:33Z</time>
      </trkpt>
      <trkpt lat="47.746598711237311" lon="11.777510130777955">
        <ele>774.019999999999982</ele>
        <time>2014-11-15T09:28:34Z</time>
      </trkpt>
      <trkpt lat="47.746608853340149" lon="11.777534019201994">
        <ele>773.970000000000027</ele>
        <time>2014-11-15T09:28:35Z</time>
      </trkpt>
      <trkpt lat="47.746611619368196" lon="11.777557907626033">
        <ele>774.120000000000005</ele>
        <time>2014-11-15T09:28:36Z</time>
      </trkpt>
      <trkpt lat="47.746647577732801" lon="11.777682546526194">
        <ele>774.82000000000005</ele>
        <time>2014-11-15T09:28:42Z</time>
      </trkpt>
      <trkpt lat="47.746679848060012" lon="11.77771951071918">
        <ele>774.629999999999995</ele>
        <time>2014-11-15T09:28:44Z</time>
      </trkpt>
      <trkpt lat="47.746694264933467" lon="11.777738872915506">
        <ele>773.809999999999945</ele>
        <time>2014-11-15T09:28:45Z</time>
      </trkpt>
      <trkpt lat="47.746717482805252" lon="11.777763431891799">
        <ele>773.240000000000009</ele>
        <time>2014-11-15T09:28:46Z</time>
      </trkpt>
      <trkpt lat="47.746761236339808" lon="11.777794612571597">
        <ele>772.600000000000023</ele>
        <time>2014-11-15T09:28:47Z</time>
      </trkpt>
      <trkpt lat="47.746806750074029" lon="11.777824284508824">
        <ele>771.830000000000041</ele>
        <time>2014-11-15T09:28:48Z</time>
      </trkpt>
      <trkpt lat="47.746860729530454" lon="11.777858147397637">
        <ele>771.67999999999995</ele>
        <time>2014-11-15T09:28:49Z</time>
      </trkpt>
      <trkpt lat="47.746917558833957" lon="11.777887819334865">
        <ele>771.879999999999995</ele>
        <time>2014-11-15T09:28:50Z</time>
      </trkpt>
      <trkpt lat="47.746966257691383" lon="11.777917239814997">
        <ele>772.240000000000009</ele>
        <time>2014-11-15T09:28:51Z</time>
      </trkpt>
      <trkpt lat="47.747006909921765" lon="11.77795646712184">
        <ele>772.480000000000018</ele>
        <time>2014-11-15T09:28:52Z</time>
      </trkpt>
      <trkpt lat="47.747114701196551" lon="11.77810306660831">
        <ele>772.610000000000014</ele>
        <time>2014-11-15T09:28:55Z</time>
      </trkpt>
      <trkpt lat="47.747140433639288" lon="11.7781553696841">
        <ele>772.110000000000014</ele>
        <time>2014-11-15T09:28:56Z</time>
      </trkpt>
      <trkpt lat="47.747167255729437" lon="11.778203397989273">
        <ele>772.059999999999945</ele>
        <time>2014-11-15T09:28:57Z</time>
      </trkpt>
      <trkpt lat="47.747187875211239" lon="11.778250588104129">
        <ele>771.92999999999995</ele>
        <time>2014-11-15T09:28:58Z</time>
      </trkpt>
      <trkpt lat="47.747204471379519" lon="11.778292832896113">
        <ele>772.620000000000005</ele>
        <time>2014-11-15T09:28:59Z</time>
      </trkpt>
      <trkpt lat="47.747212769463658" lon="11.778331724926829">
        <ele>772.92999999999995</ele>
        <time>2014-11-15T09:29:00Z</time>
      </trkpt>
      <trkpt lat="47.74725635536015" lon="11.778375981375575">
        <ele>773.110000000000014</ele>
        <time>2014-11-15T09:29:01Z</time>
      </trkpt>
      <trkpt lat="47.747279489412904" lon="11.7784109339118">
        <ele>772.950000000000045</ele>
        <time>2014-11-15T09:29:02Z</time>
      </trkpt>
      <trkpt lat="47.747297426685691" lon="11.778447646647692">
        <ele>773.110000000000014</ele>
        <time>2014-11-15T09:29:03Z</time>
      </trkpt>
      <trkpt lat="47.747327852994204" lon="11.778483688831329">
        <ele>772.57000000000005</ele>
        <time>2014-11-15T09:29:04Z</time>
      </trkpt>
      <trkpt lat="47.747363140806556" lon="11.778519814833999">
        <ele>772.659999999999968</ele>
        <time>2014-11-15T09:29:05Z</time>
      </trkpt>
      <trkpt lat="47.747397506609559" lon="11.778555102646351">
        <ele>772.350000000000023</ele>
        <time>2014-11-15T09:29:06Z</time>
      </trkpt>
      <trkpt lat="47.747430028393865" lon="11.778591563925147">
        <ele>772.220000000000027</ele>
        <time>2014-11-15T09:29:07Z</time>
      </trkpt>
      <trkpt lat="47.747501023113728" lon="11.778689716011286">
        <ele>772.389999999999986</ele>
        <time>2014-11-15T09:29:09Z</time>
      </trkpt>
      <trkpt lat="47.747797323390841" lon="11.779346857219934">
        <ele>773.899999999999977</ele>
        <time>2014-11-15T09:29:23Z</time>
      </trkpt>
      <trkpt lat="47.747945096343756" lon="11.779765365645289">
        <ele>775.909999999999968</ele>
        <time>2014-11-15T09:29:38Z</time>
      </trkpt>
      <trkpt lat="47.748127738013864" lon="11.780138444155455">
        <ele>778.590000000000032</ele>
        <time>2014-11-15T09:29:55Z</time>
      </trkpt>
      <trkpt lat="47.748277941718698" lon="11.780518563464284">
        <ele>781.279999999999973</ele>
        <time>2014-11-15T09:30:13Z</time>
      </trkpt>
      <trkpt lat="47.748369555920362" lon="11.780790472403169">
        <ele>784.379999999999995</ele>
        <time>2014-11-15T09:30:27Z</time>
      </trkpt>
      <trkpt lat="47.748454632237554" lon="11.781053496524692">
        <ele>787.860000000000014</ele>
        <time>2014-11-15T09:30:42Z</time>
      </trkpt>
      <trkpt lat="47.74849939160049" lon="11.781336301937699">
        <ele>790.759999999999991</ele>
        <time>2014-11-15T09:30:58Z</time>
      </trkpt>
      <trkpt lat="47.74848229251802" lon="11.781529504805803">
        <ele>793.980000000000018</ele>
        <time>2014-11-15T09:31:09Z</time>
      </trkpt>
      <trkpt lat="47.74845639243722" lon="11.781664034351707">
        <ele>795.769999999999982</ele>
        <time>2014-11-15T09:31:19Z</time>
      </trkpt>
      <trkpt lat="47.748452117666602" lon="11.781693790107965">
        <ele>796.190000000000055</ele>
        <time>2014-11-15T09:31:21Z</time>
      </trkpt>
      <trkpt lat="47.748454129323363" lon="11.781883724033833">
        <ele>799.230000000000018</ele>
        <time>2014-11-15T09:31:32Z</time>
      </trkpt>
      <trkpt lat="47.748458320274949" lon="11.781902667135">
        <ele>799.450000000000045</ele>
        <time>2014-11-15T09:31:33Z</time>
      </trkpt>
      <trkpt lat="47.748514898121357" lon="11.782019259408116">
        <ele>800.029999999999973</ele>
        <time>2014-11-15T09:31:46Z</time>
      </trkpt>
      <trkpt lat="47.74864255450666" lon="11.782283876091242">
        <ele>803.5</ele>
        <time>2014-11-15T09:32:01Z</time>
      </trkpt>
      <trkpt lat="47.748742047697306" lon="11.782554360106587">
        <ele>805.480000000000018</ele>
        <time>2014-11-15T09:32:16Z</time>
      </trkpt>
      <trkpt lat="47.748751435428858" lon="11.782817216590047">
        <ele>808.879999999999995</ele>
        <time>2014-11-15T09:32:30Z</time>
      </trkpt>
      <trkpt lat="47.74874615482986" lon="11.782927354797721">
        <ele>810.399999999999977</ele>
        <time>2014-11-15T09:32:36Z</time>
      </trkpt>
      <trkpt lat="47.748818658292294" lon="11.783317197114229">
        <ele>812.909999999999968</ele>
        <time>2014-11-15T09:32:55Z</time>
      </trkpt>
      <trkpt lat="47.7489132899791" lon="11.783777447417378">
        <ele>815.799999999999955</ele>
        <time>2014-11-15T09:33:13Z</time>
      </trkpt>
      <trkpt lat="47.749030217528343" lon="11.784278769046068">
        <ele>817.080000000000041</ele>
        <time>2014-11-15T09:33:29Z</time>
      </trkpt>
      <trkpt lat="47.749234568327665" lon="11.784957200288773">
        <ele>815.409999999999968</ele>
        <time>2014-11-15T09:33:45Z</time>
      </trkpt>
      <trkpt lat="47.749324338510633" lon="11.785591123625636">
        <ele>813.669999999999959</ele>
        <time>2014-11-15T09:33:54Z</time>
      </trkpt>
      <trkpt lat="47.749319057911634" lon="11.785673853009939">
        <ele>813.340000000000032</ele>
        <time>2014-11-15T09:33:55Z</time>
      </trkpt>
      <trkpt lat="47.74930271320045" lon="11.785749876871705">
        <ele>813.159999999999968</ele>
        <time>2014-11-15T09:33:56Z</time>
      </trkpt>
      <trkpt lat="47.749276058748364" lon="11.785812489688396">
        <ele>812.519999999999982</ele>
        <time>2014-11-15T09:33:57Z</time>
      </trkpt>
      <trkpt lat="47.749238256365061" lon="11.785852387547493">
        <ele>811.82000000000005</ele>
        <time>2014-11-15T09:33:58Z</time>
      </trkpt>
      <trkpt lat="47.749194921925664" lon="11.785868816077709">
        <ele>811.539999999999964</ele>
        <time>2014-11-15T09:33:59Z</time>
      </trkpt>
      <trkpt lat="47.749152090400457" lon="11.785851297900081">
        <ele>811.190000000000055</ele>
        <time>2014-11-15T09:34:00Z</time>
      </trkpt>
      <trkpt lat="47.74910288862884" lon="11.785815507173538">
        <ele>810.799999999999955</ele>
        <time>2014-11-15T09:34:01Z</time>
      </trkpt>
      <trkpt lat="47.749050669372082" lon="11.785775190219283">
        <ele>809.580000000000041</ele>
        <time>2014-11-15T09:34:02Z</time>
      </trkpt>
      <trkpt lat="47.748794266954064" lon="11.785602355375886">
        <ele>805.57000000000005</ele>
        <time>2014-11-15T09:34:06Z</time>
      </trkpt>
      <trkpt lat="47.748649260029197" lon="11.78550973534584">
        <ele>803.840000000000032</ele>
        <time>2014-11-15T09:34:08Z</time>
      </trkpt>
      <trkpt lat="47.748436694964767" lon="11.785354921594262">
        <ele>801.370000000000005</ele>
        <time>2014-11-15T09:34:11Z</time>
      </trkpt>
      <trkpt lat="47.74806504137814" lon="11.785042276605964">
        <ele>804.159999999999968</ele>
        <time>2014-11-15T09:34:18Z</time>
      </trkpt>
      <trkpt lat="47.747833533212543" lon="11.784917302429676">
        <ele>805.139999999999986</ele>
        <time>2014-11-15T09:34:24Z</time>
      </trkpt>
      <trkpt lat="47.747790366411209" lon="11.784908836707473">
        <ele>804.940000000000055</ele>
        <time>2014-11-15T09:34:25Z</time>
      </trkpt>
      <trkpt lat="47.747739991173148" lon="11.784920236095786">
        <ele>803.850000000000023</ele>
        <time>2014-11-15T09:34:26Z</time>
      </trkpt>
      <trkpt lat="47.747687688097358" lon="11.784942699596286">
        <ele>803.42999999999995</ele>
        <time>2014-11-15T09:34:27Z</time>
      </trkpt>
      <trkpt lat="47.747632199898362" lon="11.784976646304131">
        <ele>802.200000000000045</ele>
        <time>2014-11-15T09:34:28Z</time>
      </trkpt>
      <trkpt lat="47.747572939842939" lon="11.78501570597291">
        <ele>801.539999999999964</ele>
        <time>2014-11-15T09:34:29Z</time>
      </trkpt>
      <trkpt lat="47.747386358678341" lon="11.785136656835675">
        <ele>799.889999999999986</ele>
        <time>2014-11-15T09:34:32Z</time>
      </trkpt>
      <trkpt lat="47.747322907671332" lon="11.785175297409296">
        <ele>800.169999999999959</ele>
        <time>2014-11-15T09:34:33Z</time>
      </trkpt>
      <trkpt lat="47.747258450835943" lon="11.785204047337174">
        <ele>799.899999999999977</ele>
        <time>2014-11-15T09:34:34Z</time>
      </trkpt>
      <trkpt lat="47.747125262394547" lon="11.785257607698441">
        <ele>798.639999999999986</ele>
        <time>2014-11-15T09:34:36Z</time>
      </trkpt>
      <trkpt lat="47.746742712333798" lon="11.785434046760201">
        <ele>797.639999999999986</ele>
        <time>2014-11-15T09:34:42Z</time>
      </trkpt>
      <trkpt lat="47.746685715392232" lon="11.785488864406943">
        <ele>796.419999999999959</ele>
        <time>2014-11-15T09:34:43Z</time>
      </trkpt>
      <trkpt lat="47.746632574126124" lon="11.785558518022299">
        <ele>795.379999999999995</ele>
        <time>2014-11-15T09:34:44Z</time>
      </trkpt>
      <trkpt lat="47.74639880284667" lon="11.785875773057342">
        <ele>792.42999999999995</ele>
        <time>2014-11-15T09:34:48Z</time>
      </trkpt>
      <trkpt lat="47.746222782880068" lon="11.786130163818598">
        <ele>788.909999999999968</ele>
        <time>2014-11-15T09:34:51Z</time>
      </trkpt>
      <trkpt lat="47.746145082637668" lon="11.786205768585205">
        <ele>787.740000000000009</ele>
        <time>2014-11-15T09:34:52Z</time>
      </trkpt>
      <trkpt lat="47.745983647182584" lon="11.786321187391877">
        <ele>785.960000000000036</ele>
        <time>2014-11-15T09:34:54Z</time>
      </trkpt>
      <trkpt lat="47.745910389348865" lon="11.786366952583194">
        <ele>785</ele>
        <time>2014-11-15T09:34:55Z</time>
      </trkpt>
      <trkpt lat="47.745858756825328" lon="11.786403832957149">
        <ele>785.269999999999982</ele>
        <time>2014-11-15T09:34:56Z</time>
      </trkpt>
      <trkpt lat="47.745825229212642" lon="11.786440629512072">
        <ele>786.279999999999973</ele>
        <time>2014-11-15T09:34:57Z</time>
      </trkpt>
      <trkpt lat="47.745797568932176" lon="11.786480946466327">
        <ele>786.480000000000018</ele>
        <time>2014-11-15T09:34:58Z</time>
      </trkpt>
      <trkpt lat="47.74577921256423" lon="11.786513719707727">
        <ele>786.700000000000045</ele>
        <time>2014-11-15T09:34:59Z</time>
      </trkpt>
      <trkpt lat="47.745726238936186" lon="11.786692757159472">
        <ele>787.82000000000005</ele>
        <time>2014-11-15T09:35:05Z</time>
      </trkpt>
      <trkpt lat="47.745720958337188" lon="11.786723351106048">
        <ele>788.039999999999964</ele>
        <time>2014-11-15T09:35:06Z</time>
      </trkpt>
      <trkpt lat="47.74571618065238" lon="11.786754699423909">
        <ele>788.620000000000005</ele>
        <time>2014-11-15T09:35:07Z</time>
      </trkpt>
      <trkpt lat="47.745714252814651" lon="11.786783281713724">
        <ele>788.590000000000032</ele>
        <time>2014-11-15T09:35:08Z</time>
      </trkpt>
      <trkpt lat="47.745715845376253" lon="11.786808092147112">
        <ele>788.740000000000009</ele>
        <time>2014-11-15T09:35:09Z</time>
      </trkpt>
      <trkpt lat="47.745714001357555" lon="11.786826951429248">
        <ele>788.67999999999995</ele>
        <time>2014-11-15T09:35:10Z</time>
      </trkpt>
      <trkpt lat="47.745713079348207" lon="11.786847319453955">
        <ele>788.620000000000005</ele>
        <time>2014-11-15T09:35:11Z</time>
      </trkpt>
      <trkpt lat="47.74570545181632" lon="11.786870453506708">
        <ele>789.059999999999945</ele>
        <time>2014-11-15T09:35:12Z</time>
      </trkpt>
      <trkpt lat="47.745696566998959" lon="11.786895599216223">
        <ele>789.17999999999995</ele>
        <time>2014-11-15T09:35:13Z</time>
      </trkpt>
      <trkpt lat="47.745690448209643" lon="11.786915212869644">
        <ele>789.279999999999973</ele>
        <time>2014-11-15T09:35:14Z</time>
      </trkpt>
      <trkpt lat="47.745678713545203" lon="11.786927953362465">
        <ele>789.25</ele>
        <time>2014-11-15T09:35:15Z</time>
      </trkpt>
      <trkpt lat="47.745665805414319" lon="11.786939520388842">
        <ele>789.450000000000045</ele>
        <time>2014-11-15T09:35:16Z</time>
      </trkpt>
      <trkpt lat="47.74565264582634" lon="11.78695066832006">
        <ele>789.649999999999977</ele>
        <time>2014-11-15T09:35:17Z</time>
      </trkpt>
      <trkpt lat="47.745636720210314" lon="11.786961983889341">
        <ele>789.629999999999995</ele>
        <time>2014-11-15T09:35:18Z</time>
      </trkpt>
      <trkpt lat="47.745617777109146" lon="11.786971539258957">
        <ele>789.789999999999964</ele>
        <time>2014-11-15T09:35:19Z</time>
      </trkpt>
      <trkpt lat="47.745388448238373" lon="11.787101710215211">
        <ele>791.059999999999945</ele>
        <time>2014-11-15T09:35:31Z</time>
      </trkpt>
      <trkpt lat="47.74533455260098" lon="11.787161389365792">
        <ele>791.720000000000027</ele>
        <time>2014-11-15T09:35:35Z</time>
      </trkpt>
      <trkpt lat="47.745322482660413" lon="11.787186283618212">
        <ele>791.610000000000014</ele>
        <time>2014-11-15T09:35:36Z</time>
      </trkpt>
      <trkpt lat="47.74530865252018" lon="11.787211932241917">
        <ele>791.67999999999995</ele>
        <time>2014-11-15T09:35:37Z</time>
      </trkpt>
      <trkpt lat="47.745295241475105" lon="11.787245124578476">
        <ele>791.659999999999968</ele>
        <time>2014-11-15T09:35:38Z</time>
      </trkpt>
      <trkpt lat="47.745280992239714" lon="11.787281334400177">
        <ele>792.409999999999968</ele>
        <time>2014-11-15T09:35:39Z</time>
      </trkpt>
      <trkpt lat="47.745267581194639" lon="11.787319472059608">
        <ele>792.17999999999995</ele>
        <time>2014-11-15T09:35:40Z</time>
      </trkpt>
      <trkpt lat="47.745127603411674" lon="11.787720713764429">
        <ele>793.159999999999968</ele>
        <time>2014-11-15T09:35:52Z</time>
      </trkpt>
      <trkpt lat="47.744982512667775" lon="11.787925316020846">
        <ele>793.899999999999977</ele>
        <time>2014-11-15T09:36:04Z</time>
      </trkpt>
      <trkpt lat="47.744918474927545" lon="11.788038220256567">
        <ele>794.200000000000045</ele>
        <time>2014-11-15T09:36:10Z</time>
      </trkpt>
      <trkpt lat="47.744861645624042" lon="11.788122458383441">
        <ele>793.230000000000018</ele>
        <time>2014-11-15T09:36:43Z</time>
      </trkpt>
      <trkpt lat="47.744873045012355" lon="11.788127403706312">
        <ele>796.019999999999982</ele>
        <time>2014-11-15T09:37:39Z</time>
      </trkpt>
      <trkpt lat="47.744842953979969" lon="11.78816101513803">
        <ele>795.190000000000055</ele>
        <time>2014-11-15T09:38:02Z</time>
      </trkpt>
      <trkpt lat="47.744807247072458" lon="11.788178365677595">
        <ele>795.899999999999977</ele>
        <time>2014-11-15T09:38:05Z</time>
      </trkpt>
      <trkpt lat="47.744761314243078" lon="11.788210803642869">
        <ele>796.860000000000014</ele>
        <time>2014-11-15T09:38:09Z</time>
      </trkpt>
      <trkpt lat="47.744747148826718" lon="11.788220275193453">
        <ele>796.440000000000055</ele>
        <time>2014-11-15T09:38:10Z</time>
      </trkpt>
      <trkpt lat="47.744733318686485" lon="11.788225974887609">
        <ele>796.529999999999973</ele>
        <time>2014-11-15T09:38:11Z</time>
      </trkpt>
      <trkpt lat="47.744720159098506" lon="11.788234524428844">
        <ele>796.850000000000023</ele>
        <time>2014-11-15T09:38:12Z</time>
      </trkpt>
      <trkpt lat="47.74470716714859" lon="11.788243912160397">
        <ele>796.960000000000036</ele>
        <time>2014-11-15T09:38:13Z</time>
      </trkpt>
      <trkpt lat="47.744694007560611" lon="11.788251204416156">
        <ele>797.509999999999991</ele>
        <time>2014-11-15T09:38:14Z</time>
      </trkpt>
      <trkpt lat="47.744503822177649" lon="11.788495285436511">
        <ele>799.090000000000032</ele>
        <time>2014-11-15T09:38:27Z</time>
      </trkpt>
      <trkpt lat="47.744450094178319" lon="11.788606345653534">
        <ele>799.480000000000018</ele>
        <time>2014-11-15T09:38:32Z</time>
      </trkpt>
      <trkpt lat="47.744438694790006" lon="11.788628306239843">
        <ele>799.110000000000014</ele>
        <time>2014-11-15T09:38:33Z</time>
      </trkpt>
      <trkpt lat="47.74442377500236" lon="11.788644567131996">
        <ele>799.639999999999986</ele>
        <time>2014-11-15T09:38:34Z</time>
      </trkpt>
      <trkpt lat="47.744411118328571" lon="11.788657307624817">
        <ele>799.899999999999977</ele>
        <time>2014-11-15T09:38:35Z</time>
      </trkpt>
      <trkpt lat="47.744397623464465" lon="11.788677340373397">
        <ele>800.009999999999991</ele>
        <time>2014-11-15T09:38:36Z</time>
      </trkpt>
      <trkpt lat="47.744383625686169" lon="11.788699552416801">
        <ele>799.970000000000027</ele>
        <time>2014-11-15T09:38:37Z</time>
      </trkpt>
      <trkpt lat="47.744372645393014" lon="11.788713047280908">
        <ele>800.279999999999973</ele>
        <time>2014-11-15T09:38:38Z</time>
      </trkpt>
      <trkpt lat="47.744359904900193" lon="11.788725955411792">
        <ele>800.080000000000041</ele>
        <time>2014-11-15T09:38:39Z</time>
      </trkpt>
      <trkpt lat="47.744344733655453" lon="11.78873173892498">
        <ele>800.379999999999995</ele>
        <time>2014-11-15T09:38:40Z</time>
      </trkpt>
      <trkpt lat="47.744327634572983" lon="11.788738276809454">
        <ele>800.210000000000036</ele>
        <time>2014-11-15T09:38:41Z</time>
      </trkpt>
      <trkpt lat="47.744309613481164" lon="11.788744898512959">
        <ele>799.759999999999991</ele>
        <time>2014-11-15T09:38:42Z</time>
      </trkpt>
      <trkpt lat="47.744293184950948" lon="11.7887600697577">
        <ele>800.269999999999982</ele>
        <time>2014-11-15T09:38:43Z</time>
      </trkpt>
      <trkpt lat="47.744277594611049" lon="11.788779431954026">
        <ele>800.059999999999945</ele>
        <time>2014-11-15T09:38:44Z</time>
      </trkpt>
      <trkpt lat="47.744268458336592" lon="11.788806170225143">
        <ele>800.419999999999959</ele>
        <time>2014-11-15T09:38:45Z</time>
      </trkpt>
      <trkpt lat="47.744065281003714" lon="11.789020746946335">
        <ele>801.480000000000018</ele>
        <time>2014-11-15T09:39:01Z</time>
      </trkpt>
      <trkpt lat="47.743905019015074" lon="11.789264911785722">
        <ele>802.019999999999982</ele>
        <time>2014-11-15T09:39:12Z</time>
      </trkpt>
      <trkpt lat="47.743847770616412" lon="11.789396088570356">
        <ele>803.340000000000032</ele>
        <time>2014-11-15T09:39:18Z</time>
      </trkpt>
      <trkpt lat="47.743647610768676" lon="11.789800515398383">
        <ele>804.42999999999995</ele>
        <time>2014-11-15T09:39:31Z</time>
      </trkpt>
      <trkpt lat="47.743516601622105" lon="11.790067981928587">
        <ele>804.909999999999968</ele>
        <time>2014-11-15T09:39:40Z</time>
      </trkpt>
      <trkpt lat="47.74350319057703" lon="11.790086757391691">
        <ele>804.909999999999968</ele>
        <time>2014-11-15T09:39:41Z</time>
      </trkpt>
      <trkpt lat="47.743489779531956" lon="11.790100838989019">
        <ele>805.379999999999995</ele>
        <time>2014-11-15T09:39:42Z</time>
      </trkpt>
      <trkpt lat="47.743472764268517" lon="11.790135037153959">
        <ele>805.039999999999964</ele>
        <time>2014-11-15T09:39:43Z</time>
      </trkpt>
      <trkpt lat="47.743457173928618" lon="11.790169989690185">
        <ele>805.480000000000018</ele>
        <time>2014-11-15T09:39:44Z</time>
      </trkpt>
      <trkpt lat="47.743448205292225" lon="11.790205026045442">
        <ele>805.809999999999945</ele>
        <time>2014-11-15T09:39:45Z</time>
      </trkpt>
      <trkpt lat="47.743337396532297" lon="11.790570560842752">
        <ele>807</ele>
        <time>2014-11-15T09:40:00Z</time>
      </trkpt>
      <trkpt lat="47.743281740695238" lon="11.790900472551584">
        <ele>808.519999999999982</ele>
        <time>2014-11-15T09:40:13Z</time>
      </trkpt>
      <trkpt lat="47.743290038779378" lon="11.79094816558063">
        <ele>808.200000000000045</ele>
        <time>2014-11-15T09:40:16Z</time>
      </trkpt>
      <trkpt lat="47.743269754573703" lon="11.791133238002658">
        <ele>808.92999999999995</ele>
        <time>2014-11-15T09:40:23Z</time>
      </trkpt>
      <trkpt lat="47.743263216689229" lon="11.791152516379952">
        <ele>809.07000000000005</ele>
        <time>2014-11-15T09:40:24Z</time>
      </trkpt>
      <trkpt lat="47.743252906948328" lon="11.791182775050402">
        <ele>809.220000000000027</ele>
        <time>2014-11-15T09:40:25Z</time>
      </trkpt>
      <trkpt lat="47.743252404034138" lon="11.791215715929866">
        <ele>809.029999999999973</ele>
        <time>2014-11-15T09:40:26Z</time>
      </trkpt>
      <trkpt lat="47.743244357407093" lon="11.791244884952903">
        <ele>809.289999999999964</ele>
        <time>2014-11-15T09:40:27Z</time>
      </trkpt>
      <trkpt lat="47.743119383230805" lon="11.791515033692122">
        <ele>811.190000000000055</ele>
        <time>2014-11-15T09:40:39Z</time>
      </trkpt>
      <trkpt lat="47.743025338277221" lon="11.791722821071744">
        <ele>812.230000000000018</ele>
        <time>2014-11-15T09:40:49Z</time>
      </trkpt>
      <trkpt lat="47.742999857291579" lon="11.791739333420992">
        <ele>812.340000000000032</ele>
        <time>2014-11-15T09:40:51Z</time>
      </trkpt>
      <trkpt lat="47.742984853684902" lon="11.791749559342861">
        <ele>812.389999999999986</ele>
        <time>2014-11-15T09:40:52Z</time>
      </trkpt>
      <trkpt lat="47.742973957210779" lon="11.79175827652216">
        <ele>812.470000000000027</ele>
        <time>2014-11-15T09:40:53Z</time>
      </trkpt>
      <trkpt lat="47.742948811501265" lon="11.791803790256381">
        <ele>812.370000000000005</ele>
        <time>2014-11-15T09:40:56Z</time>
      </trkpt>
      <trkpt lat="47.742953589186072" lon="11.791827846318483">
        <ele>812.120000000000005</ele>
        <time>2014-11-15T09:40:57Z</time>
      </trkpt>
      <trkpt lat="47.742942441254854" lon="11.791837988421321">
        <ele>812.169999999999959</ele>
        <time>2014-11-15T09:40:58Z</time>
      </trkpt>
      <trkpt lat="47.742939423769712" lon="11.791848884895444">
        <ele>812.620000000000005</ele>
        <time>2014-11-15T09:40:59Z</time>
      </trkpt>
      <trkpt lat="47.742937747389078" lon="11.79186774417758">
        <ele>812.379999999999995</ele>
        <time>2014-11-15T09:41:00Z</time>
      </trkpt>
      <trkpt lat="47.742923246696591" lon="11.79187947884202">
        <ele>812.490000000000009</ele>
        <time>2014-11-15T09:41:01Z</time>
      </trkpt>
      <trkpt lat="47.742904387414455" lon="11.791888698935509">
        <ele>812.07000000000005</ele>
        <time>2014-11-15T09:41:02Z</time>
      </trkpt>
      <trkpt lat="47.742897095158696" lon="11.791902864351869">
        <ele>812.57000000000005</ele>
        <time>2014-11-15T09:41:03Z</time>
      </trkpt>
      <trkpt lat="47.742870692163706" lon="11.791943097487092">
        <ele>812.529999999999973</ele>
        <time>2014-11-15T09:41:06Z</time>
      </trkpt>
      <trkpt lat="47.74285183288157" lon="11.791955167427659">
        <ele>813.309999999999945</ele>
        <time>2014-11-15T09:41:07Z</time>
      </trkpt>
      <trkpt lat="47.7428312972188" lon="11.791967321187258">
        <ele>813.649999999999977</ele>
        <time>2014-11-15T09:41:08Z</time>
      </trkpt>
      <trkpt lat="47.742812940850854" lon="11.791976876556873">
        <ele>813.75</ele>
        <time>2014-11-15T09:41:09Z</time>
      </trkpt>
      <trkpt lat="47.742793662473559" lon="11.791987521573901">
        <ele>813.470000000000027</ele>
        <time>2014-11-15T09:41:10Z</time>
      </trkpt>
      <trkpt lat="47.742775976657867" lon="11.792002022266388">
        <ele>813.870000000000005</ele>
        <time>2014-11-15T09:41:11Z</time>
      </trkpt>
      <trkpt lat="47.742752004414797" lon="11.792033705860376">
        <ele>814.159999999999968</ele>
        <time>2014-11-15T09:41:12Z</time>
      </trkpt>
      <trkpt lat="47.742747981101274" lon="11.792057929560542">
        <ele>814.210000000000036</ele>
        <time>2014-11-15T09:41:13Z</time>
      </trkpt>
      <trkpt lat="47.742713112384081" lon="11.792104952037334">
        <ele>815.399999999999977</ele>
        <time>2014-11-15T09:41:16Z</time>
      </trkpt>
      <trkpt lat="47.742693582549691" lon="11.792119955644011">
        <ele>815.340000000000032</ele>
        <time>2014-11-15T09:41:17Z</time>
      </trkpt>
      <trkpt lat="47.742658462375402" lon="11.792143592610955">
        <ele>815.659999999999968</ele>
        <time>2014-11-15T09:41:19Z</time>
      </trkpt>
      <trkpt lat="47.742412621155381" lon="11.792253479361534">
        <ele>816.919999999999959</ele>
        <time>2014-11-15T09:41:33Z</time>
      </trkpt>
      <trkpt lat="47.742268703877926" lon="11.792531087994576">
        <ele>818.620000000000005</ele>
        <time>2014-11-15T09:41:46Z</time>
      </trkpt>
      <trkpt lat="47.742263758555055" lon="11.792561011388898">
        <ele>818.960000000000036</ele>
        <time>2014-11-15T09:41:50Z</time>
      </trkpt>
      <trkpt lat="47.742263926193118" lon="11.79271942935884">
        <ele>818.559999999999945</ele>
        <time>2014-11-15T09:42:09Z</time>
      </trkpt>
      <trkpt lat="47.742244899272919" lon="11.792727056890726">
        <ele>816.32000000000005</ele>
        <time>2014-11-15T09:42:13Z</time>
      </trkpt>
      <trkpt lat="47.742226542904973" lon="11.792734349146485">
        <ele>818.950000000000045</ele>
        <time>2014-11-15T09:42:24Z</time>
      </trkpt>
      <trkpt lat="47.742188824340701" lon="11.792832417413592">
        <ele>818.629999999999995</ele>
        <time>2014-11-15T09:43:02Z</time>
      </trkpt>
      <trkpt lat="47.742180107161403" lon="11.792849516496062">
        <ele>818.769999999999982</ele>
        <time>2014-11-15T09:43:03Z</time>
      </trkpt>
      <trkpt lat="47.74215504527092" lon="11.792887821793556">
        <ele>819.75</ele>
        <time>2014-11-15T09:43:05Z</time>
      </trkpt>
      <trkpt lat="47.742140460759401" lon="11.792898802086711">
        <ele>819.149999999999977</ele>
        <time>2014-11-15T09:43:06Z</time>
      </trkpt>
      <trkpt lat="47.742125038057566" lon="11.792910033836961">
        <ele>819.200000000000045</ele>
        <time>2014-11-15T09:43:07Z</time>
      </trkpt>
      <trkpt lat="47.742110453546047" lon="11.792925875633955">
        <ele>820.009999999999991</ele>
        <time>2014-11-15T09:43:08Z</time>
      </trkpt>
      <trkpt lat="47.742097796872258" lon="11.792948925867677">
        <ele>819.960000000000036</ele>
        <time>2014-11-15T09:43:09Z</time>
      </trkpt>
      <trkpt lat="47.742086229845881" lon="11.792975245043635">
        <ele>819.809999999999945</ele>
        <time>2014-11-15T09:43:10Z</time>
      </trkpt>
      <trkpt lat="47.742076087743044" lon="11.792998043820262">
        <ele>820.330000000000041</ele>
        <time>2014-11-15T09:43:11Z</time>
      </trkpt>
      <trkpt lat="47.742068460211158" lon="11.793015226721764">
        <ele>821.139999999999986</ele>
        <time>2014-11-15T09:43:12Z</time>
      </trkpt>
      <trkpt lat="47.742037363350391" lon="11.793075241148472">
        <ele>820.57000000000005</ele>
        <time>2014-11-15T09:43:16Z</time>
      </trkpt>
      <trkpt lat="47.742027724161744" lon="11.793089741840959">
        <ele>821.090000000000032</ele>
        <time>2014-11-15T09:43:17Z</time>
      </trkpt>
      <trkpt lat="47.742014229297638" lon="11.793104493990541">
        <ele>821.039999999999964</ele>
        <time>2014-11-15T09:43:18Z</time>
      </trkpt>
      <trkpt lat="47.741963686421514" lon="11.793174482882023">
        <ele>822.100000000000023</ele>
        <time>2014-11-15T09:43:22Z</time>
      </trkpt>
      <trkpt lat="47.741944659501314" lon="11.793187726289034">
        <ele>822.259999999999991</ele>
        <time>2014-11-15T09:43:23Z</time>
      </trkpt>
      <trkpt lat="47.741927560418844" lon="11.79319485090673">
        <ele>821.899999999999977</ele>
        <time>2014-11-15T09:43:24Z</time>
      </trkpt>
      <trkpt lat="47.741912389174104" lon="11.793205412104726">
        <ele>822.559999999999945</ele>
        <time>2014-11-15T09:43:25Z</time>
      </trkpt>
      <trkpt lat="47.741803927347064" lon="11.793278083205223">
        <ele>823.700000000000045</ele>
        <time>2014-11-15T09:43:32Z</time>
      </trkpt>
      <trkpt lat="47.741792360320687" lon="11.793273389339447">
        <ele>823.919999999999959</ele>
        <time>2014-11-15T09:43:33Z</time>
      </trkpt>
      <trkpt lat="47.741589602082968" lon="11.793344551697373">
        <ele>824.629999999999995</ele>
        <time>2014-11-15T09:43:43Z</time>
      </trkpt>
      <trkpt lat="47.741574682295322" lon="11.793345389887691">
        <ele>824.950000000000045</ele>
        <time>2014-11-15T09:43:44Z</time>
      </trkpt>
      <trkpt lat="47.741555403918028" lon="11.793357459828258">
        <ele>824.919999999999959</ele>
        <time>2014-11-15T09:43:45Z</time>
      </trkpt>
      <trkpt lat="47.741537718102336" lon="11.793360896408558">
        <ele>824.850000000000023</ele>
        <time>2014-11-15T09:43:46Z</time>
      </trkpt>
      <trkpt lat="47.741311239078641" lon="11.793539430946112">
        <ele>826.779999999999973</ele>
        <time>2014-11-15T09:43:59Z</time>
      </trkpt>
      <trkpt lat="47.741294056177139" lon="11.793561978265643">
        <ele>827.100000000000023</ele>
        <time>2014-11-15T09:44:00Z</time>
      </trkpt>
      <trkpt lat="47.741016112267971" lon="11.793754510581493">
        <ele>828.639999999999986</ele>
        <time>2014-11-15T09:44:14Z</time>
      </trkpt>
      <trkpt lat="47.740732133388519" lon="11.794016277417541">
        <ele>830.940000000000055</ele>
        <time>2014-11-15T09:44:30Z</time>
      </trkpt>
      <trkpt lat="47.74054404348135" lon="11.794239822775126">
        <ele>832.92999999999995</ele>
        <time>2014-11-15T09:44:43Z</time>
      </trkpt>
      <trkpt lat="47.740495847538114" lon="11.794436043128371">
        <ele>833.789999999999964</ele>
        <time>2014-11-15T09:44:50Z</time>
      </trkpt>
      <trkpt lat="47.740490902215242" lon="11.794460183009505">
        <ele>833.759999999999991</ele>
        <time>2014-11-15T09:44:51Z</time>
      </trkpt>
      <trkpt lat="47.74049224331975" lon="11.794480131939054">
        <ele>833.82000000000005</ele>
        <time>2014-11-15T09:44:52Z</time>
      </trkpt>
      <trkpt lat="47.740499703213573" lon="11.7945019248873">
        <ele>834.009999999999991</ele>
        <time>2014-11-15T09:44:53Z</time>
      </trkpt>
      <trkpt lat="47.740515125915408" lon="11.794525561854243">
        <ele>833.289999999999964</ele>
        <time>2014-11-15T09:44:54Z</time>
      </trkpt>
      <trkpt lat="47.740543959662318" lon="11.794558418914676">
        <ele>833.92999999999995</ele>
        <time>2014-11-15T09:44:56Z</time>
      </trkpt>
      <trkpt lat="47.740572290495038" lon="11.794570237398148">
        <ele>834</ele>
        <time>2014-11-15T09:44:57Z</time>
      </trkpt>
      <trkpt lat="47.740723667666316" lon="11.794607453048229">
        <ele>832.07000000000005</ele>
        <time>2014-11-15T09:45:01Z</time>
      </trkpt>
      <trkpt lat="47.740772115066648" lon="11.794623211026192">
        <ele>832.210000000000036</ele>
        <time>2014-11-15T09:45:02Z</time>
      </trkpt>
      <trkpt lat="47.740822155028582" lon="11.794650703668594">
        <ele>831.82000000000005</ele>
        <time>2014-11-15T09:45:03Z</time>
      </trkpt>
      <trkpt lat="47.740863896906376" lon="11.794683644548059">
        <ele>832.32000000000005</ele>
        <time>2014-11-15T09:45:04Z</time>
      </trkpt>
      <trkpt lat="47.740900358185172" lon="11.794699486345053">
        <ele>831.629999999999995</ele>
        <time>2014-11-15T09:45:05Z</time>
      </trkpt>
      <trkpt lat="47.74093396961689" lon="11.794721027836204">
        <ele>832.549999999999955</ele>
        <time>2014-11-15T09:45:06Z</time>
      </trkpt>
      <trkpt lat="47.740957774221897" lon="11.794744916260242">
        <ele>831.779999999999973</ele>
        <time>2014-11-15T09:45:07Z</time>
      </trkpt>
      <trkpt lat="47.74111962877214" lon="11.795060578733683">
        <ele>834.950000000000045</ele>
        <time>2014-11-15T09:45:20Z</time>
      </trkpt>
      <trkpt lat="47.741122059524059" lon="11.795314466580749">
        <ele>837.129999999999995</ele>
        <time>2014-11-15T09:45:34Z</time>
      </trkpt>
      <trkpt lat="47.741083754226565" lon="11.795400129631162">
        <ele>836.259999999999991</ele>
        <time>2014-11-15T09:45:54Z</time>
      </trkpt>
      <trkpt lat="47.741069756448269" lon="11.795414043590426">
        <ele>838.100000000000023</ele>
        <time>2014-11-15T09:46:11Z</time>
      </trkpt>
      <trkpt lat="47.741127843037248" lon="11.795330056920648">
        <ele>837.830000000000041</ele>
        <time>2014-11-15T09:46:31Z</time>
      </trkpt>
      <trkpt lat="47.741141086444259" lon="11.795321423560381">
        <ele>837.529999999999973</ele>
        <time>2014-11-15T09:46:32Z</time>
      </trkpt>
      <trkpt lat="47.741155754774809" lon="11.795320250093937">
        <ele>837.759999999999991</ele>
        <time>2014-11-15T09:46:33Z</time>
      </trkpt>
      <trkpt lat="47.741170926019549" lon="11.795318992808461">
        <ele>837.789999999999964</ele>
        <time>2014-11-15T09:46:34Z</time>
      </trkpt>
      <trkpt lat="47.741212081164122" lon="11.795318825170398">
        <ele>836.700000000000045</ele>
        <time>2014-11-15T09:46:38Z</time>
      </trkpt>
      <trkpt lat="47.741220882162452" lon="11.79532871581614">
        <ele>835.779999999999973</ele>
        <time>2014-11-15T09:46:39Z</time>
      </trkpt>
      <trkpt lat="47.741231275722384" lon="11.79533651098609">
        <ele>835.700000000000045</ele>
        <time>2014-11-15T09:46:40Z</time>
      </trkpt>
      <trkpt lat="47.741285506635904" lon="11.795357633382082">
        <ele>836.740000000000009</ele>
        <time>2014-11-15T09:46:51Z</time>
      </trkpt>
      <trkpt lat="47.741362201049924" lon="11.795451007783413">
        <ele>837.870000000000005</ele>
        <time>2014-11-15T09:47:08Z</time>
      </trkpt>
      <trkpt lat="47.741490108892322" lon="11.795589057728648">
        <ele>840.460000000000036</ele>
        <time>2014-11-15T09:47:26Z</time>
      </trkpt>
      <trkpt lat="47.741543836891651" lon="11.795644294470549">
        <ele>843.580000000000041</ele>
        <time>2014-11-15T09:47:37Z</time>
      </trkpt>
      <trkpt lat="47.741662608459592" lon="11.795813692733645">
        <ele>846.220000000000027</ele>
        <time>2014-11-15T09:47:52Z</time>
      </trkpt>
      <trkpt lat="47.741799987852573" lon="11.796023324131966">
        <ele>848.889999999999986</ele>
        <time>2014-11-15T09:48:08Z</time>
      </trkpt>
      <trkpt lat="47.741825133562088" lon="11.796052744612098">
        <ele>849.149999999999977</ele>
        <time>2014-11-15T09:48:11Z</time>
      </trkpt>
      <trkpt lat="47.741850027814507" lon="11.796077974140644">
        <ele>849.149999999999977</ele>
        <time>2014-11-15T09:48:13Z</time>
      </trkpt>
      <trkpt lat="47.74186285212636" lon="11.796089205890894">
        <ele>849.610000000000014</ele>
        <time>2014-11-15T09:48:14Z</time>
      </trkpt>
      <trkpt lat="47.741978941485286" lon="11.796255502849817">
        <ele>851.490000000000009</ele>
        <time>2014-11-15T09:48:27Z</time>
      </trkpt>
      <trkpt lat="47.742036860436201" lon="11.796365976333618">
        <ele>852.840000000000032</ele>
        <time>2014-11-15T09:48:40Z</time>
      </trkpt>
      <trkpt lat="47.742052199319005" lon="11.796409310773015">
        <ele>852.559999999999945</ele>
        <time>2014-11-15T09:48:45Z</time>
      </trkpt>
      <trkpt lat="47.742071812972426" lon="11.796449963003397">
        <ele>853.269999999999982</ele>
        <time>2014-11-15T09:48:47Z</time>
      </trkpt>
      <trkpt lat="47.742220256477594" lon="11.79681608453393">
        <ele>852.440000000000055</ele>
        <time>2014-11-15T09:48:59Z</time>
      </trkpt>
      <trkpt lat="47.742440449073911" lon="11.797294355928898">
        <ele>852.759999999999991</ele>
        <time>2014-11-15T09:49:13Z</time>
      </trkpt>
      <trkpt lat="47.742710430175066" lon="11.797553775832057">
        <ele>853.259999999999991</ele>
        <time>2014-11-15T09:49:24Z</time>
      </trkpt>
      <trkpt lat="47.742862980812788" lon="11.797854518517852">
        <ele>853.860000000000014</ele>
        <time>2014-11-15T09:49:36Z</time>
      </trkpt>
      <trkpt lat="47.742885947227478" lon="11.797960801050067">
        <ele>853.509999999999991</ele>
        <time>2014-11-15T09:49:38Z</time>
      </trkpt>
      <trkpt lat="47.742890557274222" lon="11.798031460493803">
        <ele>852.980000000000018</ele>
        <time>2014-11-15T09:49:39Z</time>
      </trkpt>
      <trkpt lat="47.742890976369381" lon="11.79846178740263">
        <ele>849</ele>
        <time>2014-11-15T09:49:43Z</time>
      </trkpt>
      <trkpt lat="47.742888377979398" lon="11.798595562577248">
        <ele>848.799999999999955</ele>
        <time>2014-11-15T09:49:44Z</time>
      </trkpt>
      <trkpt lat="47.742888042703271" lon="11.79905254393816">
        <ele>845.730000000000018</ele>
        <time>2014-11-15T09:49:47Z</time>
      </trkpt>
      <trkpt lat="47.742890138179064" lon="11.799398465082049">
        <ele>842.379999999999995</ele>
        <time>2014-11-15T09:49:49Z</time>
      </trkpt>
      <trkpt lat="47.742871949449182" lon="11.799756120890379">
        <ele>838.659999999999968</ele>
        <time>2014-11-15T09:49:51Z</time>
      </trkpt>
      <trkpt lat="47.742853509262204" lon="11.800126349553466">
        <ele>836.389999999999986</ele>
        <time>2014-11-15T09:49:53Z</time>
      </trkpt>
      <trkpt lat="47.742827609181404" lon="11.800492722541094">
        <ele>833.090000000000032</ele>
        <time>2014-11-15T09:49:55Z</time>
      </trkpt>
      <trkpt lat="47.742742029950023" lon="11.801479775458574">
        <ele>830</ele>
        <time>2014-11-15T09:50:01Z</time>
      </trkpt>
      <trkpt lat="47.742728367447853" lon="11.80161883123219">
        <ele>829.779999999999973</ele>
        <time>2014-11-15T09:50:02Z</time>
      </trkpt>
      <trkpt lat="47.74271453730762" lon="11.802121913060546">
        <ele>829.139999999999986</ele>
        <time>2014-11-15T09:50:06Z</time>
      </trkpt>
      <trkpt lat="47.74277706630528" lon="11.803056830540299">
        <ele>826.32000000000005</ele>
        <time>2014-11-15T09:50:14Z</time>
      </trkpt>
      <trkpt lat="47.742738509550691" lon="11.803863756358624">
        <ele>822.25</ele>
        <time>2014-11-15T09:50:21Z</time>
      </trkpt>
      <trkpt lat="47.742743119597435" lon="11.803956795483828">
        <ele>820.610000000000014</ele>
        <time>2014-11-15T09:50:22Z</time>
      </trkpt>
      <trkpt lat="47.742760302498937" lon="11.804038435220718">
        <ele>820.190000000000055</ele>
        <time>2014-11-15T09:50:23Z</time>
      </trkpt>
      <trkpt lat="47.742792656645179" lon="11.804106663912535">
        <ele>819.590000000000032</ele>
        <time>2014-11-15T09:50:24Z</time>
      </trkpt>
      <trkpt lat="47.742828782647848" lon="11.804158966988325">
        <ele>819.149999999999977</ele>
        <time>2014-11-15T09:50:25Z</time>
      </trkpt>
      <trkpt lat="47.742867758497596" lon="11.804191907867789">
        <ele>818.149999999999977</ele>
        <time>2014-11-15T09:50:26Z</time>
      </trkpt>
      <trkpt lat="47.742920648306608" lon="11.804197691380978">
        <ele>818.330000000000041</ele>
        <time>2014-11-15T09:50:27Z</time>
      </trkpt>
      <trkpt lat="47.742988625541329" lon="11.80419584736228">
        <ele>817.740000000000009</ele>
        <time>2014-11-15T09:50:28Z</time>
      </trkpt>
      <trkpt lat="47.743228347972035" lon="11.804177490994334">
        <ele>814.379999999999995</ele>
        <time>2014-11-15T09:50:31Z</time>
      </trkpt>
      <trkpt lat="47.743314430117607" lon="11.804168438538909">
        <ele>814.470000000000027</ele>
        <time>2014-11-15T09:50:32Z</time>
      </trkpt>
      <trkpt lat="47.743576029315591" lon="11.804165421053767">
        <ele>810.730000000000018</ele>
        <time>2014-11-15T09:50:35Z</time>
      </trkpt>
      <trkpt lat="47.74396444670856" lon="11.804190315306187">
        <ele>807.590000000000032</ele>
        <time>2014-11-15T09:50:39Z</time>
      </trkpt>
      <trkpt lat="47.744270050898194" lon="11.804279666393995">
        <ele>804.190000000000055</ele>
        <time>2014-11-15T09:50:42Z</time>
      </trkpt>
      <trkpt lat="47.744508851319551" lon="11.80437664501369">
        <ele>801.039999999999964</ele>
        <time>2014-11-15T09:50:44Z</time>
      </trkpt>
      <trkpt lat="47.744858711957932" lon="11.804549647495151">
        <ele>794.169999999999959</ele>
        <time>2014-11-15T09:50:47Z</time>
      </trkpt>
      <trkpt lat="47.745044622570276" lon="11.804691385477781">
        <ele>792.720000000000027</ele>
        <time>2014-11-15T09:50:49Z</time>
      </trkpt>
      <trkpt lat="47.745121484622359" lon="11.804782496765256">
        <ele>792.5</ele>
        <time>2014-11-15T09:50:50Z</time>
      </trkpt>
      <trkpt lat="47.745192144066095" lon="11.804895401000977">
        <ele>791.009999999999991</ele>
        <time>2014-11-15T09:50:51Z</time>
      </trkpt>
      <trkpt lat="47.745254756882787" lon="11.805016603320837">
        <ele>789.909999999999968</ele>
        <time>2014-11-15T09:50:52Z</time>
      </trkpt>
      <trkpt lat="47.745316866785288" lon="11.80513696745038">
        <ele>788.460000000000036</ele>
        <time>2014-11-15T09:50:53Z</time>
      </trkpt>
      <trkpt lat="47.745574694126844" lon="11.805637199431658">
        <ele>783.440000000000055</ele>
        <time>2014-11-15T09:50:57Z</time>
      </trkpt>
      <trkpt lat="47.745641497895122" lon="11.80576678365469">
        <ele>783</ele>
        <time>2014-11-15T09:50:58Z</time>
      </trkpt>
      <trkpt lat="47.745833778753877" lon="11.806258969008923">
        <ele>781.710000000000036</ele>
        <time>2014-11-15T09:51:02Z</time>
      </trkpt>
      <trkpt lat="47.745866300538182" lon="11.806367095559835">
        <ele>781.480000000000018</ele>
        <time>2014-11-15T09:51:03Z</time>
      </trkpt>
      <trkpt lat="47.745891697704792" lon="11.806460805237293">
        <ele>781.590000000000032</ele>
        <time>2014-11-15T09:51:04Z</time>
      </trkpt>
      <trkpt lat="47.745945509523153" lon="11.806644285097718">
        <ele>782.42999999999995</ele>
        <time>2014-11-15T09:51:06Z</time>
      </trkpt>
      <trkpt lat="47.745975600555539" lon="11.806725673377514">
        <ele>783.269999999999982</ele>
        <time>2014-11-15T09:51:07Z</time>
      </trkpt>
      <trkpt lat="47.746163187548518" lon="11.807628655806184">
        <ele>784.529999999999973</ele>
        <time>2014-11-15T09:51:19Z</time>
      </trkpt>
      <trkpt lat="47.746255388483405" lon="11.80796267464757">
        <ele>784.5</ele>
        <time>2014-11-15T09:51:23Z</time>
      </trkpt>
      <trkpt lat="47.746553532779217" lon="11.808833219110966">
        <ele>781.379999999999995</ele>
        <time>2014-11-15T09:51:32Z</time>
      </trkpt>
      <trkpt lat="47.746721589937806" lon="11.809145864099264">
        <ele>778.090000000000032</ele>
        <time>2014-11-15T09:51:35Z</time>
      </trkpt>
      <trkpt lat="47.746922839432955" lon="11.809560852125287">
        <ele>773.960000000000036</ele>
        <time>2014-11-15T09:51:38Z</time>
      </trkpt>
      <trkpt lat="47.747029457241297" lon="11.809887159615755">
        <ele>770.730000000000018</ele>
        <time>2014-11-15T09:51:40Z</time>
      </trkpt>
      <trkpt lat="47.747062230482697" lon="11.810067119076848">
        <ele>769.789999999999964</ele>
        <time>2014-11-15T09:51:41Z</time>
      </trkpt>
      <trkpt lat="47.747081760317087" lon="11.810255292803049">
        <ele>768.759999999999991</ele>
        <time>2014-11-15T09:51:42Z</time>
      </trkpt>
      <trkpt lat="47.747091734781861" lon="11.810448747128248">
        <ele>767.669999999999959</ele>
        <time>2014-11-15T09:51:43Z</time>
      </trkpt>
      <trkpt lat="47.747096680104733" lon="11.810635915026069">
        <ele>762.759999999999991</ele>
        <time>2014-11-15T09:51:44Z</time>
      </trkpt>
      <trkpt lat="47.747099865227938" lon="11.810815120115876">
        <ele>762.909999999999968</ele>
        <time>2014-11-15T09:51:45Z</time>
      </trkpt>
      <trkpt lat="47.74711025878787" lon="11.811153078451753">
        <ele>760.889999999999986</ele>
        <time>2014-11-15T09:51:47Z</time>
      </trkpt>
      <trkpt lat="47.747113360092044" lon="11.811920944601297">
        <ele>758.289999999999964</ele>
        <time>2014-11-15T09:51:52Z</time>
      </trkpt>
      <trkpt lat="47.747124256566167" lon="11.812055557966232">
        <ele>757.840000000000032</ele>
        <time>2014-11-15T09:51:53Z</time>
      </trkpt>
      <trkpt lat="47.747151246294379" lon="11.812184052541852">
        <ele>757.879999999999995</ele>
        <time>2014-11-15T09:51:54Z</time>
      </trkpt>
      <trkpt lat="47.747190976515412" lon="11.812302405014634">
        <ele>757.669999999999959</ele>
        <time>2014-11-15T09:51:55Z</time>
      </trkpt>
      <trkpt lat="47.747238334268332" lon="11.81240919046104">
        <ele>756.950000000000045</ele>
        <time>2014-11-15T09:51:56Z</time>
      </trkpt>
      <trkpt lat="47.747299019247293" lon="11.812506671994925">
        <ele>755.990000000000009</ele>
        <time>2014-11-15T09:51:57Z</time>
      </trkpt>
      <trkpt lat="47.747372277081013" lon="11.81258462369442">
        <ele>755.539999999999964</ele>
        <time>2014-11-15T09:51:58Z</time>
      </trkpt>
      <trkpt lat="47.747450899332762" lon="11.81263986043632">
        <ele>756.25</ele>
        <time>2014-11-15T09:51:59Z</time>
      </trkpt>
      <trkpt lat="47.747527342289686" lon="11.812680345028639">
        <ele>756.379999999999995</ele>
        <time>2014-11-15T09:52:00Z</time>
      </trkpt>
      <trkpt lat="47.747598672285676" lon="11.812715046107769">
        <ele>756.700000000000045</ele>
        <time>2014-11-15T09:52:01Z</time>
      </trkpt>
      <trkpt lat="47.747728088870645" lon="11.812791405245662">
        <ele>757.850000000000023</ele>
        <time>2014-11-15T09:52:03Z</time>
      </trkpt>
      <trkpt lat="47.747785840183496" lon="11.812837421894073">
        <ele>757.350000000000023</ele>
        <time>2014-11-15T09:52:04Z</time>
      </trkpt>
      <trkpt lat="47.747837053611875" lon="11.812890479341149">
        <ele>757.440000000000055</ele>
        <time>2014-11-15T09:52:05Z</time>
      </trkpt>
      <trkpt lat="47.748013325035572" lon="11.813133303076029">
        <ele>757.360000000000014</ele>
        <time>2014-11-15T09:52:09Z</time>
      </trkpt>
      <trkpt lat="47.74804693646729" lon="11.813198262825608">
        <ele>757.600000000000023</ele>
        <time>2014-11-15T09:52:10Z</time>
      </trkpt>
      <trkpt lat="47.748131258413196" lon="11.813374618068337">
        <ele>758.07000000000005</ele>
        <time>2014-11-15T09:52:13Z</time>
      </trkpt>
      <trkpt lat="47.748441221192479" lon="11.813625069335103">
        <ele>759.659999999999968</ele>
        <time>2014-11-15T09:52:23Z</time>
      </trkpt>
      <trkpt lat="47.748805666342378" lon="11.813841573894024">
        <ele>761.519999999999982</ele>
        <time>2014-11-15T09:52:37Z</time>
      </trkpt>
      <trkpt lat="47.749191904440522" lon="11.813991693779826">
        <ele>760.779999999999973</ele>
        <time>2014-11-15T09:52:48Z</time>
      </trkpt>
      <trkpt lat="47.749407738447189" lon="11.813988843932748">
        <ele>763.669999999999959</ele>
        <time>2014-11-15T09:53:00Z</time>
      </trkpt>
      <trkpt lat="47.749563055112958" lon="11.814079117029905">
        <ele>767.120000000000005</ele>
        <time>2014-11-15T09:53:12Z</time>
      </trkpt>
      <trkpt lat="47.749654166400433" lon="11.814208533614874">
        <ele>767.960000000000036</ele>
        <time>2014-11-15T09:53:21Z</time>
      </trkpt>
      <trkpt lat="47.749663637951016" lon="11.814229656010866">
        <ele>768.07000000000005</ele>
        <time>2014-11-15T09:53:22Z</time>
      </trkpt>
      <trkpt lat="47.749674869701266" lon="11.81425279006362">
        <ele>768.289999999999964</ele>
        <time>2014-11-15T09:53:23Z</time>
      </trkpt>
      <trkpt lat="47.74968626908958" lon="11.81427575647831">
        <ele>768.669999999999959</ele>
        <time>2014-11-15T09:53:24Z</time>
      </trkpt>
      <trkpt lat="47.749694315716624" lon="11.814296208322048">
        <ele>768.809999999999945</ele>
        <time>2014-11-15T09:53:25Z</time>
      </trkpt>
      <trkpt lat="47.749704206362367" lon="11.81431733071804">
        <ele>769.379999999999995</ele>
        <time>2014-11-15T09:53:26Z</time>
      </trkpt>
      <trkpt lat="47.74971267208457" lon="11.814336609095335">
        <ele>769.269999999999982</ele>
        <time>2014-11-15T09:53:27Z</time>
      </trkpt>
      <trkpt lat="47.749723317101598" lon="11.814354714006186">
        <ele>769.370000000000005</ele>
        <time>2014-11-15T09:53:28Z</time>
      </trkpt>
      <trkpt lat="47.749830354005098" lon="11.814520759508014">
        <ele>771.42999999999995</ele>
        <time>2014-11-15T09:53:39Z</time>
      </trkpt>
      <trkpt lat="47.749840915203094" lon="11.814535176381469">
        <ele>772.009999999999991</ele>
        <time>2014-11-15T09:53:40Z</time>
      </trkpt>
      <trkpt lat="47.74985583499074" lon="11.814550347626209">
        <ele>772.07000000000005</ele>
        <time>2014-11-15T09:53:41Z</time>
      </trkpt>
      <trkpt lat="47.749869665130973" lon="11.814564429223537">
        <ele>771.659999999999968</ele>
        <time>2014-11-15T09:53:42Z</time>
      </trkpt>
      <trkpt lat="47.74988223798573" lon="11.814586305990815">
        <ele>771.700000000000045</ele>
        <time>2014-11-15T09:53:43Z</time>
      </trkpt>
      <trkpt lat="47.749895146116614" lon="11.814607596024871">
        <ele>771.629999999999995</ele>
        <time>2014-11-15T09:53:44Z</time>
      </trkpt>
      <trkpt lat="47.749905874952674" lon="11.814625281840563">
        <ele>772.460000000000036</ele>
        <time>2014-11-15T09:53:45Z</time>
      </trkpt>
      <trkpt lat="47.749915346503258" lon="11.814647158607841">
        <ele>771.840000000000032</ele>
        <time>2014-11-15T09:53:46Z</time>
      </trkpt>
      <trkpt lat="47.750024059787393" lon="11.814828542992473">
        <ele>773.460000000000036</ele>
        <time>2014-11-15T09:53:54Z</time>
      </trkpt>
      <trkpt lat="47.750126821920276" lon="11.815180918201804">
        <ele>775.419999999999959</ele>
        <time>2014-11-15T09:54:08Z</time>
      </trkpt>
      <trkpt lat="47.75017443113029" lon="11.815526923164725">
        <ele>776.580000000000041</ele>
        <time>2014-11-15T09:54:21Z</time>
      </trkpt>
      <trkpt lat="47.750189350917935" lon="11.815634462982416">
        <ele>777.759999999999991</ele>
        <time>2014-11-15T09:54:25Z</time>
      </trkpt>
      <trkpt lat="47.750189015641809" lon="11.815652903169394">
        <ele>777.879999999999995</ele>
        <time>2014-11-15T09:54:26Z</time>
      </trkpt>
      <trkpt lat="47.750187925994396" lon="11.815676037222147">
        <ele>777.190000000000055</ele>
        <time>2014-11-15T09:54:27Z</time>
      </trkpt>
      <trkpt lat="47.750207288190722" lon="11.816003266721964">
        <ele>779.690000000000055</ele>
        <time>2014-11-15T09:54:39Z</time>
      </trkpt>
      <trkpt lat="47.750303763896227" lon="11.816594274714589">
        <ele>780.019999999999982</ele>
        <time>2014-11-15T09:54:55Z</time>
      </trkpt>
      <trkpt lat="47.750326646491885" lon="11.817199196666479">
        <ele>779.009999999999991</ele>
        <time>2014-11-15T09:55:06Z</time>
      </trkpt>
      <trkpt lat="47.750349612906575" lon="11.817439002916217">
        <ele>778.860000000000014</ele>
        <time>2014-11-15T09:55:10Z</time>
      </trkpt>
      <trkpt lat="47.750363443046808" lon="11.817504465579987">
        <ele>778.350000000000023</ele>
        <time>2014-11-15T09:55:11Z</time>
      </trkpt>
      <trkpt lat="47.750513227656484" lon="11.818033531308174">
        <ele>775.299999999999955</ele>
        <time>2014-11-15T09:55:17Z</time>
      </trkpt>
      <trkpt lat="47.750595286488533" lon="11.818555640056729">
        <ele>772.129999999999995</ele>
        <time>2014-11-15T09:55:21Z</time>
      </trkpt>
      <trkpt lat="47.750658402219415" lon="11.819013124331832">
        <ele>768.200000000000045</ele>
        <time>2014-11-15T09:55:24Z</time>
      </trkpt>
      <trkpt lat="47.750692432746291" lon="11.819342197850347">
        <ele>763.139999999999986</ele>
        <time>2014-11-15T09:55:26Z</time>
      </trkpt>
      <trkpt lat="47.750701820477843" lon="11.819501454010606">
        <ele>761.789999999999964</ele>
        <time>2014-11-15T09:55:27Z</time>
      </trkpt>
      <trkpt lat="47.750699389725924" lon="11.81965459138155">
        <ele>760.059999999999945</ele>
        <time>2014-11-15T09:55:28Z</time>
      </trkpt>
      <trkpt lat="47.75069042108953" lon="11.819797586649656">
        <ele>758.919999999999959</ele>
        <time>2014-11-15T09:55:29Z</time>
      </trkpt>
      <trkpt lat="47.750672064721584" lon="11.819936223328114">
        <ele>759.100000000000023</ele>
        <time>2014-11-15T09:55:30Z</time>
      </trkpt>
      <trkpt lat="47.750572822988033" lon="11.820383900776505">
        <ele>756.059999999999945</ele>
        <time>2014-11-15T09:55:33Z</time>
      </trkpt>
      <trkpt lat="47.750529991462827" lon="11.820525554940104">
        <ele>753.049999999999955</ele>
        <time>2014-11-15T09:55:34Z</time>
      </trkpt>
      <trkpt lat="47.750450950115919" lon="11.820748094469309">
        <ele>749.789999999999964</ele>
        <time>2014-11-15T09:55:36Z</time>
      </trkpt>
      <trkpt lat="47.750431168824434" lon="11.820835685357451">
        <ele>749.490000000000009</ele>
        <time>2014-11-15T09:55:37Z</time>
      </trkpt>
      <trkpt lat="47.75043192319572" lon="11.82090500369668">
        <ele>748.549999999999955</ele>
        <time>2014-11-15T09:55:38Z</time>
      </trkpt>
      <trkpt lat="47.750451201573014" lon="11.820957977324724">
        <ele>748.769999999999982</ele>
        <time>2014-11-15T09:55:39Z</time>
      </trkpt>
      <trkpt lat="47.750483974814415" lon="11.820997456088662">
        <ele>748.309999999999945</ele>
        <time>2014-11-15T09:55:40Z</time>
      </trkpt>
      <trkpt lat="47.750529320910573" lon="11.821019668132067">
        <ele>748.049999999999955</ele>
        <time>2014-11-15T09:55:41Z</time>
      </trkpt>
      <trkpt lat="47.750575756654143" lon="11.821021093055606">
        <ele>748.190000000000055</ele>
        <time>2014-11-15T09:55:42Z</time>
      </trkpt>
      <trkpt lat="47.75062152184546" lon="11.821015141904354">
        <ele>748.259999999999991</ele>
        <time>2014-11-15T09:55:43Z</time>
      </trkpt>
      <trkpt lat="47.750947829335928" lon="11.820926796644926">
        <ele>748.159999999999968</ele>
        <time>2014-11-15T09:55:50Z</time>
      </trkpt>
      <trkpt lat="47.750997114926577" lon="11.820932077243924">
        <ele>747.559999999999945</ele>
        <time>2014-11-15T09:55:51Z</time>
      </trkpt>
      <trkpt lat="47.751044975593686" lon="11.820944398641586">
        <ele>747.409999999999968</ele>
        <time>2014-11-15T09:55:52Z</time>
      </trkpt>
      <trkpt lat="47.751091914251447" lon="11.820970131084323">
        <ele>747.389999999999986</ele>
        <time>2014-11-15T09:55:53Z</time>
      </trkpt>
      <trkpt lat="47.751135332509875" lon="11.821007933467627">
        <ele>746.379999999999995</ele>
        <time>2014-11-15T09:55:54Z</time>
      </trkpt>
      <trkpt lat="47.75117514654994" lon="11.821054117754102">
        <ele>747.139999999999986</ele>
        <time>2014-11-15T09:55:55Z</time>
      </trkpt>
      <trkpt lat="47.751213032752275" lon="11.821104157716036">
        <ele>746.559999999999945</ele>
        <time>2014-11-15T09:55:56Z</time>
      </trkpt>
      <trkpt lat="47.7519525680691" lon="11.822110656648874">
        <ele>743.769999999999982</ele>
        <time>2014-11-15T09:56:14Z</time>
      </trkpt>
      <trkpt lat="47.752767121419311" lon="11.822723373770714">
        <ele>742.539999999999964</ele>
        <time>2014-11-15T09:56:29Z</time>
      </trkpt>
      <trkpt lat="47.752929478883743" lon="11.822807108983397">
        <ele>742.379999999999995</ele>
        <time>2014-11-15T09:56:32Z</time>
      </trkpt>
      <trkpt lat="47.752977339550853" lon="11.82284289970994">
        <ele>742.029999999999973</ele>
        <time>2014-11-15T09:56:33Z</time>
      </trkpt>
      <trkpt lat="47.753403894603252" lon="11.823153868317604">
        <ele>740.42999999999995</ele>
        <time>2014-11-15T09:56:42Z</time>
      </trkpt>
      <trkpt lat="47.753433147445321" lon="11.823204578831792">
        <ele>739.629999999999995</ele>
        <time>2014-11-15T09:56:43Z</time>
      </trkpt>
      <trkpt lat="47.753445049747825" lon="11.823268365114927">
        <ele>739.669999999999959</ele>
        <time>2014-11-15T09:56:44Z</time>
      </trkpt>
      <trkpt lat="47.753448653966188" lon="11.823337180539966">
        <ele>739.309999999999945</ele>
        <time>2014-11-15T09:56:45Z</time>
      </trkpt>
      <trkpt lat="47.753450917080045" lon="11.823408175259829">
        <ele>739.32000000000005</ele>
        <time>2014-11-15T09:56:46Z</time>
      </trkpt>
      <trkpt lat="47.753415796905756" lon="11.824476029723883">
        <ele>738.450000000000045</ele>
        <time>2014-11-15T09:57:00Z</time>
      </trkpt>
      <trkpt lat="47.753293421119452" lon="11.825550589710474">
        <ele>738.090000000000032</ele>
        <time>2014-11-15T09:57:13Z</time>
      </trkpt>
      <trkpt lat="47.752998545765877" lon="11.826824136078358">
        <ele>737.860000000000014</ele>
        <time>2014-11-15T09:57:29Z</time>
      </trkpt>
      <trkpt lat="47.752629825845361" lon="11.827946305274963">
        <ele>737.769999999999982</ele>
        <time>2014-11-15T09:57:44Z</time>
      </trkpt>
      <trkpt lat="47.752436874434352" lon="11.828522058203816">
        <ele>738.190000000000055</ele>
        <time>2014-11-15T09:57:52Z</time>
      </trkpt>
      <trkpt lat="47.752099670469761" lon="11.829544818028808">
        <ele>738.600000000000023</ele>
        <time>2014-11-15T09:58:09Z</time>
      </trkpt>
      <trkpt lat="47.751785516738892" lon="11.830428102985024">
        <ele>741.799999999999955</ele>
        <time>2014-11-15T09:58:29Z</time>
      </trkpt>
      <trkpt lat="47.75165157392621" lon="11.830881144851446">
        <ele>742.82000000000005</ele>
        <time>2014-11-15T09:58:39Z</time>
      </trkpt>
      <trkpt lat="47.751628439873457" lon="11.830902099609375">
        <ele>743</ele>
        <time>2014-11-15T09:58:40Z</time>
      </trkpt>
      <trkpt lat="47.751605808734894" lon="11.830902518704534">
        <ele>743.210000000000036</ele>
        <time>2014-11-15T09:58:41Z</time>
      </trkpt>
      <trkpt lat="47.75158510543406" lon="11.830891203135252">
        <ele>743.259999999999991</ele>
        <time>2014-11-15T09:58:42Z</time>
      </trkpt>
      <trkpt lat="47.751566162332892" lon="11.830879971385002">
        <ele>743.460000000000036</ele>
        <time>2014-11-15T09:58:43Z</time>
      </trkpt>
      <trkpt lat="47.75155040435493" lon="11.830866057425737">
        <ele>743.990000000000009</ele>
        <time>2014-11-15T09:58:44Z</time>
      </trkpt>
      <trkpt lat="47.751537077128887" lon="11.830849209800363">
        <ele>744.080000000000041</ele>
        <time>2014-11-15T09:58:45Z</time>
      </trkpt>
      <trkpt lat="47.751522492617369" lon="11.8308334518224">
        <ele>744.129999999999995</ele>
        <time>2014-11-15T09:58:46Z</time>
      </trkpt>
      <trkpt lat="47.751507991924882" lon="11.830820878967643">
        <ele>744.220000000000027</ele>
        <time>2014-11-15T09:58:47Z</time>
      </trkpt>
      <trkpt lat="47.751493491232395" lon="11.830807887017727">
        <ele>744.57000000000005</ele>
        <time>2014-11-15T09:58:48Z</time>
      </trkpt>
      <trkpt lat="47.751480415463448" lon="11.830794308334589">
        <ele>744.870000000000005</ele>
        <time>2014-11-15T09:58:49Z</time>
      </trkpt>
      <trkpt lat="47.751305485144258" lon="11.830499768257141">
        <ele>746.649999999999977</ele>
        <time>2014-11-15T09:59:05Z</time>
      </trkpt>
      <trkpt lat="47.751125022768974" lon="11.830136580392718">
        <ele>748.460000000000036</ele>
        <time>2014-11-15T09:59:21Z</time>
      </trkpt>
      <trkpt lat="47.750862166285515" lon="11.829842375591397">
        <ele>750.360000000000014</ele>
        <time>2014-11-15T09:59:38Z</time>
      </trkpt>
      <trkpt lat="47.750592352822423" lon="11.829698961228132">
        <ele>752.460000000000036</ele>
        <time>2014-11-15T09:59:54Z</time>
      </trkpt>
      <trkpt lat="47.750343745574355" lon="11.829629642888904">
        <ele>755.480000000000018</ele>
        <time>2014-11-15T10:00:10Z</time>
      </trkpt>
      <trkpt lat="47.750261602923274" lon="11.829616483300924">
        <ele>757.009999999999991</ele>
        <time>2014-11-15T10:00:16Z</time>
      </trkpt>
      <trkpt lat="47.750247856602073" lon="11.829621344804764">
        <ele>756.740000000000009</ele>
        <time>2014-11-15T10:00:17Z</time>
      </trkpt>
      <trkpt lat="47.750235702842474" lon="11.829622937366366">
        <ele>756.509999999999991</ele>
        <time>2014-11-15T10:00:18Z</time>
      </trkpt>
      <trkpt lat="47.750207036733627" lon="11.829634923487902">
        <ele>756.789999999999964</ele>
        <time>2014-11-15T10:00:20Z</time>
      </trkpt>
      <trkpt lat="47.750001261010766" lon="11.829579183831811">
        <ele>759.620000000000005</ele>
        <time>2014-11-15T10:00:36Z</time>
      </trkpt>
      <trkpt lat="47.749789701774716" lon="11.829553199931979">
        <ele>761.659999999999968</ele>
        <time>2014-11-15T10:00:52Z</time>
      </trkpt>
      <trkpt lat="47.749581411480904" lon="11.829491760581732">
        <ele>764.919999999999959</ele>
        <time>2014-11-15T10:01:09Z</time>
      </trkpt>
      <trkpt lat="47.749544531106949" lon="11.829471560195088">
        <ele>764.970000000000027</ele>
        <time>2014-11-15T10:01:12Z</time>
      </trkpt>
      <trkpt lat="47.749531790614128" lon="11.82946871034801">
        <ele>765.440000000000055</ele>
        <time>2014-11-15T10:01:13Z</time>
      </trkpt>
      <trkpt lat="47.749520391225815" lon="11.829463429749012">
        <ele>765.309999999999945</ele>
        <time>2014-11-15T10:01:14Z</time>
      </trkpt>
      <trkpt lat="47.749507147818804" lon="11.82946334592998">
        <ele>766.059999999999945</ele>
        <time>2014-11-15T10:01:15Z</time>
      </trkpt>
      <trkpt lat="47.749495161697268" lon="11.829460747539997">
        <ele>765.919999999999959</ele>
        <time>2014-11-15T10:01:16Z</time>
      </trkpt>
      <trkpt lat="47.749482421204448" lon="11.829458568245173">
        <ele>766.259999999999991</ele>
        <time>2014-11-15T10:01:17Z</time>
      </trkpt>
      <trkpt lat="47.749470518901944" lon="11.829451778903604">
        <ele>765.860000000000014</ele>
        <time>2014-11-15T10:01:18Z</time>
      </trkpt>
      <trkpt lat="47.749252170324326" lon="11.82934021577239">
        <ele>768.299999999999955</ele>
        <time>2014-11-15T10:01:35Z</time>
      </trkpt>
      <trkpt lat="47.749037342146039" lon="11.829239968210459">
        <ele>771.370000000000005</ele>
        <time>2014-11-15T10:01:51Z</time>
      </trkpt>
      <trkpt lat="47.748799296095967" lon="11.829112144187093">
        <ele>773.649999999999977</ele>
        <time>2014-11-15T10:02:10Z</time>
      </trkpt>
      <trkpt lat="47.74876425974071" lon="11.829107450321317">
        <ele>774.019999999999982</ele>
        <time>2014-11-15T10:02:13Z</time>
      </trkpt>
      <trkpt lat="47.748751938343048" lon="11.829110635444522">
        <ele>774.190000000000055</ele>
        <time>2014-11-15T10:02:14Z</time>
      </trkpt>
      <trkpt lat="47.748601315543056" lon="11.829086747020483">
        <ele>777.360000000000014</ele>
        <time>2014-11-15T10:02:27Z</time>
      </trkpt>
      <trkpt lat="47.748387660831213" lon="11.829137206077576">
        <ele>779.629999999999995</ele>
        <time>2014-11-15T10:02:43Z</time>
      </trkpt>
      <trkpt lat="47.748326389119029" lon="11.82914667762816">
        <ele>780.57000000000005</ele>
        <time>2014-11-15T10:02:48Z</time>
      </trkpt>
      <trkpt lat="47.748122960329056" lon="11.829171404242516">
        <ele>782.139999999999986</ele>
        <time>2014-11-15T10:03:03Z</time>
      </trkpt>
      <trkpt lat="47.747907545417547" lon="11.829101666808128">
        <ele>784.259999999999991</ele>
        <time>2014-11-15T10:03:19Z</time>
      </trkpt>
      <trkpt lat="47.747651813551784" lon="11.828988259658217">
        <ele>786.210000000000036</ele>
        <time>2014-11-15T10:03:38Z</time>
      </trkpt>
      <trkpt lat="47.747546536847949" lon="11.828980464488268">
        <ele>787.990000000000009</ele>
        <time>2014-11-15T10:03:46Z</time>
      </trkpt>
      <trkpt lat="47.747533712536097" lon="11.828973926603794">
        <ele>787.620000000000005</ele>
        <time>2014-11-15T10:03:47Z</time>
      </trkpt>
      <trkpt lat="47.74752021767199" lon="11.828968226909637">
        <ele>787.850000000000023</ele>
        <time>2014-11-15T10:03:48Z</time>
      </trkpt>
      <trkpt lat="47.747508147731423" lon="11.828959677368402">
        <ele>788.100000000000023</ele>
        <time>2014-11-15T10:03:49Z</time>
      </trkpt>
      <trkpt lat="47.747496580705047" lon="11.828950792551041">
        <ele>788.279999999999973</ele>
        <time>2014-11-15T10:03:50Z</time>
      </trkpt>
      <trkpt lat="47.747485684230924" lon="11.828939979895949">
        <ele>788.289999999999964</ele>
        <time>2014-11-15T10:03:51Z</time>
      </trkpt>
      <trkpt lat="47.747475039213896" lon="11.828927993774414">
        <ele>788.159999999999968</ele>
        <time>2014-11-15T10:03:52Z</time>
      </trkpt>
      <trkpt lat="47.747283931821585" lon="11.828795727342367">
        <ele>791.559999999999945</ele>
        <time>2014-11-15T10:04:09Z</time>
      </trkpt>
      <trkpt lat="47.74711805395782" lon="11.828614762052894">
        <ele>793.870000000000005</ele>
        <time>2014-11-15T10:04:26Z</time>
      </trkpt>
      <trkpt lat="47.746969610452652" lon="11.828426420688629">
        <ele>797.090000000000032</ele>
        <time>2014-11-15T10:04:42Z</time>
      </trkpt>
      <trkpt lat="47.746825106441975" lon="11.82822366245091">
        <ele>798.620000000000005</ele>
        <time>2014-11-15T10:04:58Z</time>
      </trkpt>
      <trkpt lat="47.746649254113436" lon="11.82799257338047">
        <ele>801.049999999999955</ele>
        <time>2014-11-15T10:05:16Z</time>
      </trkpt>
      <trkpt lat="47.74663919582963" lon="11.827979665249586">
        <ele>801.190000000000055</ele>
        <time>2014-11-15T10:05:17Z</time>
      </trkpt>
      <trkpt lat="47.746469797566533" lon="11.827794760465622">
        <ele>803.090000000000032</ele>
        <time>2014-11-15T10:05:33Z</time>
      </trkpt>
      <trkpt lat="47.746391259133816" lon="11.827658219262958">
        <ele>803.769999999999982</ele>
        <time>2014-11-15T10:05:42Z</time>
      </trkpt>
      <trkpt lat="47.746379775926471" lon="11.827649502083659">
        <ele>803.860000000000014</ele>
        <time>2014-11-15T10:05:43Z</time>
      </trkpt>
      <trkpt lat="47.746368795633316" lon="11.827638940885663">
        <ele>804.57000000000005</ele>
        <time>2014-11-15T10:05:44Z</time>
      </trkpt>
      <trkpt lat="47.746233511716127" lon="11.827432746067643">
        <ele>806.450000000000045</ele>
        <time>2014-11-15T10:05:59Z</time>
      </trkpt>
      <trkpt lat="47.746177520602942" lon="11.827334426343441">
        <ele>807.370000000000005</ele>
        <time>2014-11-15T10:06:06Z</time>
      </trkpt>
      <trkpt lat="47.746163355186582" lon="11.827307604253292">
        <ele>807.100000000000023</ele>
        <time>2014-11-15T10:06:08Z</time>
      </trkpt>
      <trkpt lat="47.745965626090765" lon="11.827103504911065">
        <ele>809.220000000000027</ele>
        <time>2014-11-15T10:06:27Z</time>
      </trkpt>
      <trkpt lat="47.74576504714787" lon="11.827007280662656">
        <ele>811.029999999999973</ele>
        <time>2014-11-15T10:06:44Z</time>
      </trkpt>
      <trkpt lat="47.745723472908139" lon="11.826941231265664">
        <ele>812.090000000000032</ele>
        <time>2014-11-15T10:07:00Z</time>
      </trkpt>
      <trkpt lat="47.745711402967572" lon="11.826923629269004">
        <ele>811.879999999999995</ele>
        <time>2014-11-15T10:07:02Z</time>
      </trkpt>
      <trkpt lat="47.745680054649711" lon="11.826883563771844">
        <ele>812.200000000000045</ele>
        <time>2014-11-15T10:07:05Z</time>
      </trkpt>
      <trkpt lat="47.745669996365905" lon="11.826872080564499">
        <ele>812.379999999999995</ele>
        <time>2014-11-15T10:07:06Z</time>
      </trkpt>
      <trkpt lat="47.745660608634353" lon="11.826857412233949">
        <ele>811.980000000000018</ele>
        <time>2014-11-15T10:07:07Z</time>
      </trkpt>
      <trkpt lat="47.745618112385273" lon="11.82682815939188">
        <ele>813.129999999999995</ele>
        <time>2014-11-15T10:07:11Z</time>
      </trkpt>
      <trkpt lat="47.745605036616325" lon="11.826827321201563">
        <ele>813.309999999999945</ele>
        <time>2014-11-15T10:07:12Z</time>
      </trkpt>
      <trkpt lat="47.74559497833252" lon="11.826823130249977">
        <ele>812.850000000000023</ele>
        <time>2014-11-15T10:07:13Z</time>
      </trkpt>
      <trkpt lat="47.745586764067411" lon="11.826810305938125">
        <ele>812.980000000000018</ele>
        <time>2014-11-15T10:07:14Z</time>
      </trkpt>
      <trkpt lat="47.745576957240701" lon="11.826797649264336">
        <ele>813.340000000000032</ele>
        <time>2014-11-15T10:07:15Z</time>
      </trkpt>
      <trkpt lat="47.745568491518497" lon="11.826788764446974">
        <ele>813.210000000000036</ele>
        <time>2014-11-15T10:07:16Z</time>
      </trkpt>
      <trkpt lat="47.745559522882104" lon="11.826779125258327">
        <ele>813.090000000000032</ele>
        <time>2014-11-15T10:07:17Z</time>
      </trkpt>
      <trkpt lat="47.745552062988281" lon="11.82676462456584">
        <ele>813.460000000000036</ele>
        <time>2014-11-15T10:07:18Z</time>
      </trkpt>
      <trkpt lat="47.745545944198966" lon="11.826750794425607">
        <ele>813.659999999999968</ele>
        <time>2014-11-15T10:07:19Z</time>
      </trkpt>
      <trkpt lat="47.745539490133524" lon="11.826735455542803">
        <ele>813.860000000000014</ele>
        <time>2014-11-15T10:07:20Z</time>
      </trkpt>
      <trkpt lat="47.745480230078101" lon="11.826664712280035">
        <ele>814.519999999999982</ele>
        <time>2014-11-15T10:07:26Z</time>
      </trkpt>
      <trkpt lat="47.745477799326181" lon="11.826645182445645">
        <ele>814.629999999999995</ele>
        <time>2014-11-15T10:07:27Z</time>
      </trkpt>
      <trkpt lat="47.745474278926849" lon="11.826625484973192">
        <ele>814.759999999999991</ele>
        <time>2014-11-15T10:07:28Z</time>
      </trkpt>
      <trkpt lat="47.74546405300498" lon="11.826606290414929">
        <ele>814.67999999999995</ele>
        <time>2014-11-15T10:07:29Z</time>
      </trkpt>
      <trkpt lat="47.745452234521508" lon="11.826589610427618">
        <ele>815.259999999999991</ele>
        <time>2014-11-15T10:07:30Z</time>
      </trkpt>
      <trkpt lat="47.745312927290797" lon="11.826367741450667">
        <ele>816.590000000000032</ele>
        <time>2014-11-15T10:07:44Z</time>
      </trkpt>
      <trkpt lat="47.745300522074103" lon="11.826352318748832">
        <ele>816.710000000000036</ele>
        <time>2014-11-15T10:07:45Z</time>
      </trkpt>
      <trkpt lat="47.74528912268579" lon="11.826339745894074">
        <ele>816.870000000000005</ele>
        <time>2014-11-15T10:07:46Z</time>
      </trkpt>
      <trkpt lat="47.745278561487794" lon="11.826325748115778">
        <ele>817.230000000000018</ele>
        <time>2014-11-15T10:07:47Z</time>
      </trkpt>
      <trkpt lat="47.745267832651734" lon="11.826310073956847">
        <ele>817.509999999999991</ele>
        <time>2014-11-15T10:07:48Z</time>
      </trkpt>
      <trkpt lat="47.745258193463087" lon="11.826293896883726">
        <ele>817.389999999999986</ele>
        <time>2014-11-15T10:07:49Z</time>
      </trkpt>
      <trkpt lat="47.745249476283789" lon="11.826274869963527">
        <ele>816.559999999999945</ele>
        <time>2014-11-15T10:07:50Z</time>
      </trkpt>
      <trkpt lat="47.745232125744224" lon="11.826241342350841">
        <ele>817.149999999999977</ele>
        <time>2014-11-15T10:07:52Z</time>
      </trkpt>
      <trkpt lat="47.745221816003323" lon="11.826230026781559">
        <ele>817.669999999999959</ele>
        <time>2014-11-15T10:07:53Z</time>
      </trkpt>
      <trkpt lat="47.745213182643056" lon="11.826218040660024">
        <ele>818.25</ele>
        <time>2014-11-15T10:07:54Z</time>
      </trkpt>
      <trkpt lat="47.745205471292138" lon="11.826202366501093">
        <ele>818.049999999999955</ele>
        <time>2014-11-15T10:07:55Z</time>
      </trkpt>
      <trkpt lat="47.745198430493474" lon="11.826181327924132">
        <ele>817.730000000000018</ele>
        <time>2014-11-15T10:07:56Z</time>
      </trkpt>
      <trkpt lat="47.745193149894476" lon="11.826163055375218">
        <ele>818.159999999999968</ele>
        <time>2014-11-15T10:07:57Z</time>
      </trkpt>
      <trkpt lat="47.745183678343892" lon="11.826148051768541">
        <ele>818.42999999999995</ele>
        <time>2014-11-15T10:07:58Z</time>
      </trkpt>
      <trkpt lat="47.745173117145896" lon="11.826137071475387">
        <ele>818.549999999999955</ele>
        <time>2014-11-15T10:07:59Z</time>
      </trkpt>
      <trkpt lat="47.745163813233376" lon="11.826125085353851">
        <ele>818.720000000000027</ele>
        <time>2014-11-15T10:08:00Z</time>
      </trkpt>
      <trkpt lat="47.745155347511172" lon="11.826113685965538">
        <ele>818.769999999999982</ele>
        <time>2014-11-15T10:08:01Z</time>
      </trkpt>
      <trkpt lat="47.745147133246064" lon="11.826101448386908">
        <ele>818.840000000000032</ele>
        <time>2014-11-15T10:08:02Z</time>
      </trkpt>
      <trkpt lat="47.745138080790639" lon="11.826086109504104">
        <ele>819.299999999999955</ele>
        <time>2014-11-15T10:08:03Z</time>
      </trkpt>
      <trkpt lat="47.745128525421023" lon="11.82607471011579">
        <ele>819.409999999999968</ele>
        <time>2014-11-15T10:08:04Z</time>
      </trkpt>
      <trkpt lat="47.745120897889137" lon="11.826062304899096">
        <ele>819.759999999999991</ele>
        <time>2014-11-15T10:08:05Z</time>
      </trkpt>
      <trkpt lat="47.74511368945241" lon="11.826049815863371">
        <ele>819.519999999999982</ele>
        <time>2014-11-15T10:08:06Z</time>
      </trkpt>
      <trkpt lat="47.745105810463428" lon="11.826039673760533">
        <ele>819.82000000000005</ele>
        <time>2014-11-15T10:08:07Z</time>
      </trkpt>
      <trkpt lat="47.745096255093813" lon="11.826028693467379">
        <ele>819.600000000000023</ele>
        <time>2014-11-15T10:08:08Z</time>
      </trkpt>
      <trkpt lat="47.745085945352912" lon="11.826019138097763">
        <ele>819.970000000000027</ele>
        <time>2014-11-15T10:08:09Z</time>
      </trkpt>
      <trkpt lat="47.745076473802328" lon="11.826010504737496">
        <ele>819.960000000000036</ele>
        <time>2014-11-15T10:08:10Z</time>
      </trkpt>
      <trkpt lat="47.744989721104503" lon="11.825915370136499">
        <ele>821.370000000000005</ele>
        <time>2014-11-15T10:08:19Z</time>
      </trkpt>
      <trkpt lat="47.744982680305839" lon="11.825899109244347">
        <ele>821.149999999999977</ele>
        <time>2014-11-15T10:08:20Z</time>
      </trkpt>
      <trkpt lat="47.744972035288811" lon="11.825885949656367">
        <ele>821.279999999999973</ele>
        <time>2014-11-15T10:08:21Z</time>
      </trkpt>
      <trkpt lat="47.744958875700831" lon="11.825874382629991">
        <ele>821.690000000000055</ele>
        <time>2014-11-15T10:08:22Z</time>
      </trkpt>
      <trkpt lat="47.744946219027042" lon="11.825863402336836">
        <ele>821.980000000000018</ele>
        <time>2014-11-15T10:08:23Z</time>
      </trkpt>
      <trkpt lat="47.744935154914856" lon="11.825850745663047">
        <ele>821.840000000000032</ele>
        <time>2014-11-15T10:08:24Z</time>
      </trkpt>
      <trkpt lat="47.744925012812018" lon="11.82583381421864">
        <ele>822.490000000000009</ele>
        <time>2014-11-15T10:08:25Z</time>
      </trkpt>
      <trkpt lat="47.744914786890149" lon="11.825817301869392">
        <ele>822.340000000000032</ele>
        <time>2014-11-15T10:08:26Z</time>
      </trkpt>
      <trkpt lat="47.744763325899839" lon="11.82557481341064">
        <ele>824.330000000000041</ele>
        <time>2014-11-15T10:08:43Z</time>
      </trkpt>
      <trkpt lat="47.744708424434066" lon="11.825462328270078">
        <ele>826.139999999999986</ele>
        <time>2014-11-15T10:08:50Z</time>
      </trkpt>
      <trkpt lat="47.744704987853765" lon="11.825444055721164">
        <ele>825.759999999999991</ele>
        <time>2014-11-15T10:08:51Z</time>
      </trkpt>
      <trkpt lat="47.744700210168958" lon="11.82542871683836">
        <ele>826.309999999999945</ele>
        <time>2014-11-15T10:08:52Z</time>
      </trkpt>
      <trkpt lat="47.74469300173223" lon="11.825414719060063">
        <ele>826.720000000000027</ele>
        <time>2014-11-15T10:08:53Z</time>
      </trkpt>
      <trkpt lat="47.744683865457773" lon="11.82540038600564">
        <ele>826.100000000000023</ele>
        <time>2014-11-15T10:08:54Z</time>
      </trkpt>
      <trkpt lat="47.74467489682138" lon="11.825384208932519">
        <ele>826.629999999999995</ele>
        <time>2014-11-15T10:08:55Z</time>
      </trkpt>
      <trkpt lat="47.744667939841747" lon="11.825367277488112">
        <ele>826.840000000000032</ele>
        <time>2014-11-15T10:08:56Z</time>
      </trkpt>
      <trkpt lat="47.744661653414369" lon="11.825350429862738">
        <ele>826.919999999999959</ele>
        <time>2014-11-15T10:08:57Z</time>
      </trkpt>
      <trkpt lat="47.744652349501848" lon="11.825334252789617">
        <ele>827.110000000000014</ele>
        <time>2014-11-15T10:08:58Z</time>
      </trkpt>
      <trkpt lat="47.744642794132233" lon="11.825321177020669">
        <ele>827.139999999999986</ele>
        <time>2014-11-15T10:08:59Z</time>
      </trkpt>
      <trkpt lat="47.744634160771966" lon="11.825308687984943">
        <ele>827.190000000000055</ele>
        <time>2014-11-15T10:09:00Z</time>
      </trkpt>
      <trkpt lat="47.744628125801682" lon="11.825296031311154">
        <ele>826.980000000000018</ele>
        <time>2014-11-15T10:09:01Z</time>
      </trkpt>
      <trkpt lat="47.744528045877814" lon="11.825124118477106">
        <ele>829.889999999999986</ele>
        <time>2014-11-15T10:09:15Z</time>
      </trkpt>
      <trkpt lat="47.744482532143593" lon="11.825041389092803">
        <ele>830.299999999999955</ele>
        <time>2014-11-15T10:09:21Z</time>
      </trkpt>
      <trkpt lat="47.744471887126565" lon="11.825029570609331">
        <ele>830.139999999999986</ele>
        <time>2014-11-15T10:09:22Z</time>
      </trkpt>
      <trkpt lat="47.744460823014379" lon="11.82502118870616">
        <ele>830.200000000000045</ele>
        <time>2014-11-15T10:09:23Z</time>
      </trkpt>
      <trkpt lat="47.744450094178319" lon="11.825008280575275">
        <ele>830.419999999999959</ele>
        <time>2014-11-15T10:09:24Z</time>
      </trkpt>
      <trkpt lat="47.744440706446767" lon="11.82499528862536">
        <ele>830.5</ele>
        <time>2014-11-15T10:09:25Z</time>
      </trkpt>
      <trkpt lat="47.744433833286166" lon="11.824982715770602">
        <ele>830.92999999999995</ele>
        <time>2014-11-15T10:09:26Z</time>
      </trkpt>
      <trkpt lat="47.744367364794016" lon="11.824879534542561">
        <ele>831.960000000000036</ele>
        <time>2014-11-15T10:09:35Z</time>
      </trkpt>
      <trkpt lat="47.744344649836421" lon="11.82482723146677">
        <ele>833.059999999999945</ele>
        <time>2014-11-15T10:09:39Z</time>
      </trkpt>
      <trkpt lat="47.744337860494852" lon="11.824811138212681">
        <ele>833.360000000000014</ele>
        <time>2014-11-15T10:09:40Z</time>
      </trkpt>
      <trkpt lat="47.744327215477824" lon="11.824791021645069">
        <ele>833.42999999999995</ele>
        <time>2014-11-15T10:09:41Z</time>
      </trkpt>
      <trkpt lat="47.74426837451756" lon="11.824686834588647">
        <ele>834.690000000000055</ele>
        <time>2014-11-15T10:09:48Z</time>
      </trkpt>
      <trkpt lat="47.744252532720566" lon="11.824658336117864">
        <ele>834.379999999999995</ele>
        <time>2014-11-15T10:09:52Z</time>
      </trkpt>
      <trkpt lat="47.744248760864139" lon="11.8246512953192">
        <ele>834.509999999999991</ele>
        <time>2014-11-15T10:09:53Z</time>
      </trkpt>
      <trkpt lat="47.74424247443676" lon="11.82463277131319">
        <ele>834.67999999999995</ele>
        <time>2014-11-15T10:09:54Z</time>
      </trkpt>
      <trkpt lat="47.744233254343271" lon="11.824617348611355">
        <ele>835.720000000000027</ele>
        <time>2014-11-15T10:09:55Z</time>
      </trkpt>
      <trkpt lat="47.744226632639766" lon="11.82459756731987">
        <ele>835.139999999999986</ele>
        <time>2014-11-15T10:09:56Z</time>
      </trkpt>
      <trkpt lat="47.744119176641107" lon="11.824381314218044">
        <ele>836.259999999999991</ele>
        <time>2014-11-15T10:10:11Z</time>
      </trkpt>
      <trkpt lat="47.744101323187351" lon="11.8243508040905">
        <ele>836.580000000000041</ele>
        <time>2014-11-15T10:10:13Z</time>
      </trkpt>
      <trkpt lat="47.74408414028585" lon="11.82433663867414">
        <ele>836.090000000000032</ele>
        <time>2014-11-15T10:10:14Z</time>
      </trkpt>
      <trkpt lat="47.74406511336565" lon="11.824322557076812">
        <ele>836.5</ele>
        <time>2014-11-15T10:10:15Z</time>
      </trkpt>
      <trkpt lat="47.743861768394709" lon="11.824239492416382">
        <ele>836.360000000000014</ele>
        <time>2014-11-15T10:10:27Z</time>
      </trkpt>
      <trkpt lat="47.743623554706573" lon="11.824223063886166">
        <ele>836.700000000000045</ele>
        <time>2014-11-15T10:10:39Z</time>
      </trkpt>
      <trkpt lat="47.743437308818102" lon="11.824146453291178">
        <ele>837.799999999999955</ele>
        <time>2014-11-15T10:10:50Z</time>
      </trkpt>
      <trkpt lat="47.74313229136169" lon="11.823897259309888">
        <ele>839.25</ele>
        <time>2014-11-15T10:11:06Z</time>
      </trkpt>
      <trkpt lat="47.74294319562614" lon="11.823744960129261">
        <ele>840.389999999999986</ele>
        <time>2014-11-15T10:11:17Z</time>
      </trkpt>
      <trkpt lat="47.74292953312397" lon="11.823729705065489">
        <ele>840.590000000000032</ele>
        <time>2014-11-15T10:11:18Z</time>
      </trkpt>
      <trkpt lat="47.742913775146008" lon="11.823704643175006">
        <ele>840.309999999999945</ele>
        <time>2014-11-15T10:11:19Z</time>
      </trkpt>
      <trkpt lat="47.742743119597435" lon="11.823465842753649">
        <ele>842.120000000000005</ele>
        <time>2014-11-15T10:11:34Z</time>
      </trkpt>
      <trkpt lat="47.742566345259547" lon="11.823118831962347">
        <ele>843.590000000000032</ele>
        <time>2014-11-15T10:11:49Z</time>
      </trkpt>
      <trkpt lat="47.742420667782426" lon="11.822873996570706">
        <ele>845.029999999999973</ele>
        <time>2014-11-15T10:12:02Z</time>
      </trkpt>
      <trkpt lat="47.742315055802464" lon="11.822653971612453">
        <ele>846.57000000000005</ele>
        <time>2014-11-15T10:12:14Z</time>
      </trkpt>
      <trkpt lat="47.742226039990783" lon="11.822485746815801">
        <ele>848.110000000000014</ele>
        <time>2014-11-15T10:12:26Z</time>
      </trkpt>
      <trkpt lat="47.742101568728685" lon="11.822174694389105">
        <ele>850.279999999999973</ele>
        <time>2014-11-15T10:12:42Z</time>
      </trkpt>
      <trkpt lat="47.741941642016172" lon="11.821929272264242">
        <ele>852.509999999999991</ele>
        <time>2014-11-15T10:12:58Z</time>
      </trkpt>
      <trkpt lat="47.741918507963419" lon="11.821903875097632">
        <ele>852.490000000000009</ele>
        <time>2014-11-15T10:13:00Z</time>
      </trkpt>
      <trkpt lat="47.741898978129029" lon="11.821843776851892">
        <ele>853.259999999999991</ele>
        <time>2014-11-15T10:13:13Z</time>
      </trkpt>
      <trkpt lat="47.741875341162086" lon="11.821841849014163">
        <ele>853.289999999999964</ele>
        <time>2014-11-15T10:13:18Z</time>
      </trkpt>
      <trkpt lat="47.741837874054909" lon="11.82182751595974">
        <ele>853.620000000000005</ele>
        <time>2014-11-15T10:13:21Z</time>
      </trkpt>
      <trkpt lat="47.741826139390469" lon="11.821819301694632">
        <ele>853.440000000000055</ele>
        <time>2014-11-15T10:13:22Z</time>
      </trkpt>
      <trkpt lat="47.741815326735377" lon="11.821811757981777">
        <ele>854.059999999999945</ele>
        <time>2014-11-15T10:13:23Z</time>
      </trkpt>
      <trkpt lat="47.741804262623191" lon="11.821808237582445">
        <ele>853.840000000000032</ele>
        <time>2014-11-15T10:13:24Z</time>
      </trkpt>
      <trkpt lat="47.741792108863592" lon="11.821806980296969">
        <ele>853.860000000000014</ele>
        <time>2014-11-15T10:13:25Z</time>
      </trkpt>
      <trkpt lat="47.741778697818518" lon="11.821803543716669">
        <ele>854.110000000000014</ele>
        <time>2014-11-15T10:13:26Z</time>
      </trkpt>
      <trkpt lat="47.741767382249236" lon="11.821796335279942">
        <ele>854.539999999999964</ele>
        <time>2014-11-15T10:13:27Z</time>
      </trkpt>
      <trkpt lat="47.741757910698652" lon="11.821788623929024">
        <ele>854.75</ele>
        <time>2014-11-15T10:13:28Z</time>
      </trkpt>
      <trkpt lat="47.74158189073205" lon="11.821723328903317">
        <ele>856.450000000000045</ele>
        <time>2014-11-15T10:13:42Z</time>
      </trkpt>
      <trkpt lat="47.741487929597497" lon="11.821707403287292">
        <ele>857.32000000000005</ele>
        <time>2014-11-15T10:13:49Z</time>
      </trkpt>
      <trkpt lat="47.741243513301015" lon="11.821643197908998">
        <ele>859.649999999999977</ele>
        <time>2014-11-15T10:14:08Z</time>
      </trkpt>
      <trkpt lat="47.741031451150775" lon="11.821570442989469">
        <ele>862.340000000000032</ele>
        <time>2014-11-15T10:14:25Z</time>
      </trkpt>
      <trkpt lat="47.741020135581493" lon="11.821560887619853">
        <ele>862.779999999999973</ele>
        <time>2014-11-15T10:14:26Z</time>
      </trkpt>
      <trkpt lat="47.741009155288339" lon="11.821555942296982">
        <ele>862.82000000000005</ele>
        <time>2014-11-15T10:14:27Z</time>
      </trkpt>
      <trkpt lat="47.740996582433581" lon="11.821552673354745">
        <ele>863.059999999999945</ele>
        <time>2014-11-15T10:14:28Z</time>
      </trkpt>
      <trkpt lat="47.740984512493014" lon="11.821549069136381">
        <ele>863.059999999999945</ele>
        <time>2014-11-15T10:14:29Z</time>
      </trkpt>
      <trkpt lat="47.74097210727632" lon="11.82154362089932">
        <ele>863.379999999999995</ele>
        <time>2014-11-15T10:14:30Z</time>
      </trkpt>
      <trkpt lat="47.740929191932082" lon="11.821512021124363">
        <ele>863.600000000000023</ele>
        <time>2014-11-15T10:14:34Z</time>
      </trkpt>
      <trkpt lat="47.740919720381498" lon="11.821503303945065">
        <ele>864.149999999999977</ele>
        <time>2014-11-15T10:14:35Z</time>
      </trkpt>
      <trkpt lat="47.740909243002534" lon="11.821493916213512">
        <ele>864.440000000000055</ele>
        <time>2014-11-15T10:14:36Z</time>
      </trkpt>
      <trkpt lat="47.740899519994855" lon="11.82148352265358">
        <ele>864.169999999999959</ele>
        <time>2014-11-15T10:14:37Z</time>
      </trkpt>
      <trkpt lat="47.740890551358461" lon="11.821472961455584">
        <ele>863.970000000000027</ele>
        <time>2014-11-15T10:14:38Z</time>
      </trkpt>
      <trkpt lat="47.740839337930083" lon="11.821445552632213">
        <ele>864.809999999999945</ele>
        <time>2014-11-15T10:14:43Z</time>
      </trkpt>
      <trkpt lat="47.740828189998865" lon="11.821446139365435">
        <ele>864.799999999999955</ele>
        <time>2014-11-15T10:14:44Z</time>
      </trkpt>
      <trkpt lat="47.74079323746264" lon="11.821429040282965">
        <ele>865.519999999999982</ele>
        <time>2014-11-15T10:14:47Z</time>
      </trkpt>
      <trkpt lat="47.740739677101374" lon="11.821401966735721">
        <ele>866.370000000000005</ele>
        <time>2014-11-15T10:14:53Z</time>
      </trkpt>
      <trkpt lat="47.740590311586857" lon="11.821347903460264">
        <ele>868.440000000000055</ele>
        <time>2014-11-15T10:15:06Z</time>
      </trkpt>
      <trkpt lat="47.74057874456048" lon="11.821350920945406">
        <ele>868.629999999999995</ele>
        <time>2014-11-15T10:15:07Z</time>
      </trkpt>
      <trkpt lat="47.740431223064661" lon="11.821311861276627">
        <ele>870.779999999999973</ele>
        <time>2014-11-15T10:15:22Z</time>
      </trkpt>
      <trkpt lat="47.74033734574914" lon="11.821273220703006">
        <ele>872.539999999999964</ele>
        <time>2014-11-15T10:15:29Z</time>
      </trkpt>
      <trkpt lat="47.740250257775187" lon="11.821224438026547">
        <ele>873.269999999999982</ele>
        <time>2014-11-15T10:15:36Z</time>
      </trkpt>
      <trkpt lat="47.740210611373186" lon="11.821193424984813">
        <ele>873.67999999999995</ele>
        <time>2014-11-15T10:15:40Z</time>
      </trkpt>
      <trkpt lat="47.740203738212585" lon="11.821181857958436">
        <ele>874.259999999999991</ele>
        <time>2014-11-15T10:15:41Z</time>
      </trkpt>
      <trkpt lat="47.740108603611588" lon="11.820989996194839">
        <ele>876.419999999999959</ele>
        <time>2014-11-15T10:15:55Z</time>
      </trkpt>
      <trkpt lat="47.740023946389556" lon="11.820839960128069">
        <ele>877.940000000000055</ele>
        <time>2014-11-15T10:16:08Z</time>
      </trkpt>
      <trkpt lat="47.740017157047987" lon="11.820792518556118">
        <ele>878.299999999999955</ele>
        <time>2014-11-15T10:16:11Z</time>
      </trkpt>
      <trkpt lat="47.739981869235635" lon="11.820713980123401">
        <ele>879.379999999999995</ele>
        <time>2014-11-15T10:16:17Z</time>
      </trkpt>
      <trkpt lat="47.739921184256673" lon="11.820499319583178">
        <ele>880.620000000000005</ele>
        <time>2014-11-15T10:16:30Z</time>
      </trkpt>
      <trkpt lat="47.739893104881048" lon="11.820394629612565">
        <ele>881.379999999999995</ele>
        <time>2014-11-15T10:16:36Z</time>
      </trkpt>
      <trkpt lat="47.739832755178213" lon="11.820184579119086">
        <ele>883.769999999999982</ele>
        <time>2014-11-15T10:16:52Z</time>
      </trkpt>
      <trkpt lat="47.739703506231308" lon="11.819832623004913">
        <ele>886.240000000000009</ele>
        <time>2014-11-15T10:17:08Z</time>
      </trkpt>
      <trkpt lat="47.739695543423295" lon="11.819808818399906">
        <ele>886.809999999999945</ele>
        <time>2014-11-15T10:17:09Z</time>
      </trkpt>
      <trkpt lat="47.7396918553859" lon="11.819788701832294">
        <ele>886.779999999999973</ele>
        <time>2014-11-15T10:17:10Z</time>
      </trkpt>
      <trkpt lat="47.739603845402598" lon="11.819526012986898">
        <ele>889.059999999999945</ele>
        <time>2014-11-15T10:17:26Z</time>
      </trkpt>
      <trkpt lat="47.739604515954852" lon="11.81949382647872">
        <ele>888.960000000000036</ele>
        <time>2014-11-15T10:17:28Z</time>
      </trkpt>
      <trkpt lat="47.73961029946804" lon="11.81947672739625">
        <ele>889.019999999999982</ele>
        <time>2014-11-15T10:17:29Z</time>
      </trkpt>
      <trkpt lat="47.739610550925136" lon="11.819462310522795">
        <ele>889.159999999999968</ele>
        <time>2014-11-15T10:17:30Z</time>
      </trkpt>
      <trkpt lat="47.739601163193583" lon="11.819441607221961">
        <ele>889.210000000000036</ele>
        <time>2014-11-15T10:17:31Z</time>
      </trkpt>
      <trkpt lat="47.739596720784903" lon="11.819420736283064">
        <ele>889.669999999999959</ele>
        <time>2014-11-15T10:17:32Z</time>
      </trkpt>
      <trkpt lat="47.739591524004936" lon="11.819393998011947">
        <ele>889.389999999999986</ele>
        <time>2014-11-15T10:17:33Z</time>
      </trkpt>
      <trkpt lat="47.739590099081397" lon="11.819350998848677">
        <ele>889.519999999999982</ele>
        <time>2014-11-15T10:17:35Z</time>
      </trkpt>
      <trkpt lat="47.739596804603934" lon="11.819325685501099">
        <ele>889.590000000000032</ele>
        <time>2014-11-15T10:17:36Z</time>
      </trkpt>
      <trkpt lat="47.739648437127471" lon="11.818958139047027">
        <ele>891.009999999999991</ele>
        <time>2014-11-15T10:17:50Z</time>
      </trkpt>
      <trkpt lat="47.739674001932144" lon="11.818883707746863">
        <ele>891.169999999999959</ele>
        <time>2014-11-15T10:17:53Z</time>
      </trkpt>
      <trkpt lat="47.739689676091075" lon="11.818862920626998">
        <ele>891.200000000000045</ele>
        <time>2014-11-15T10:17:54Z</time>
      </trkpt>
      <trkpt lat="47.739703170955181" lon="11.818843306973577">
        <ele>891.629999999999995</ele>
        <time>2014-11-15T10:17:55Z</time>
      </trkpt>
      <trkpt lat="47.739710798487067" lon="11.81881514377892">
        <ele>891.710000000000036</ele>
        <time>2014-11-15T10:17:56Z</time>
      </trkpt>
      <trkpt lat="47.739722114056349" lon="11.81879511103034">
        <ele>891.779999999999973</ele>
        <time>2014-11-15T10:17:57Z</time>
      </trkpt>
      <trkpt lat="47.739725047722459" lon="11.818769630044699">
        <ele>892.129999999999995</ele>
        <time>2014-11-15T10:17:58Z</time>
      </trkpt>
      <trkpt lat="47.739730663597584" lon="11.818743646144867">
        <ele>892.409999999999968</ele>
        <time>2014-11-15T10:17:59Z</time>
      </trkpt>
      <trkpt lat="47.739749606698751" lon="11.818640548735857">
        <ele>892.529999999999973</ele>
        <time>2014-11-15T10:18:03Z</time>
      </trkpt>
      <trkpt lat="47.739743236452341" lon="11.818611547350883">
        <ele>892.860000000000014</ele>
        <time>2014-11-15T10:18:04Z</time>
      </trkpt>
      <trkpt lat="47.739735944196582" lon="11.818583551794291">
        <ele>892.830000000000041</ele>
        <time>2014-11-15T10:18:05Z</time>
      </trkpt>
      <trkpt lat="47.73971188813448" lon="11.818466037511826">
        <ele>892.539999999999964</ele>
        <time>2014-11-15T10:18:10Z</time>
      </trkpt>
      <trkpt lat="47.739707194268703" lon="11.818446926772594">
        <ele>893.580000000000041</ele>
        <time>2014-11-15T10:18:11Z</time>
      </trkpt>
      <trkpt lat="47.739702248945832" lon="11.81843058206141">
        <ele>893.279999999999973</ele>
        <time>2014-11-15T10:18:12Z</time>
      </trkpt>
      <trkpt lat="47.7396987285465" lon="11.818408453837037">
        <ele>892.67999999999995</ele>
        <time>2014-11-15T10:18:13Z</time>
      </trkpt>
      <trkpt lat="47.739693867042661" lon="11.818381883203983">
        <ele>893.669999999999959</ele>
        <time>2014-11-15T10:18:14Z</time>
      </trkpt>
      <trkpt lat="47.739686239510775" lon="11.81835531257093">
        <ele>893.889999999999986</ele>
        <time>2014-11-15T10:18:15Z</time>
      </trkpt>
      <trkpt lat="47.739676265046" lon="11.818323964253068">
        <ele>893.710000000000036</ele>
        <time>2014-11-15T10:18:16Z</time>
      </trkpt>
      <trkpt lat="47.739666877314448" lon="11.818292951211333">
        <ele>894.039999999999964</ele>
        <time>2014-11-15T10:18:17Z</time>
      </trkpt>
      <trkpt lat="47.739649107679725" lon="11.817911323159933">
        <ele>895.490000000000009</ele>
        <time>2014-11-15T10:18:32Z</time>
      </trkpt>
      <trkpt lat="47.739653382450342" lon="11.817906713113189">
        <ele>895.220000000000027</ele>
        <time>2014-11-15T10:18:53Z</time>
      </trkpt>
      <trkpt lat="47.739602588117123" lon="11.817794814705849">
        <ele>896.370000000000005</ele>
        <time>2014-11-15T10:19:16Z</time>
      </trkpt>
      <trkpt lat="47.73954282514751" lon="11.817780816927552">
        <ele>896.629999999999995</ele>
        <time>2014-11-15T10:19:45Z</time>
      </trkpt>
      <trkpt lat="47.739523546770215" lon="11.81773186661303">
        <ele>897.870000000000005</ele>
        <time>2014-11-15T10:20:17Z</time>
      </trkpt>
      <trkpt lat="47.73951449431479" lon="11.817540926858783">
        <ele>900.379999999999995</ele>
        <time>2014-11-15T10:20:29Z</time>
      </trkpt>
      <trkpt lat="47.739517092704773" lon="11.817244458943605">
        <ele>902.970000000000027</ele>
        <time>2014-11-15T10:20:46Z</time>
      </trkpt>
      <trkpt lat="47.739521283656359" lon="11.81694807484746">
        <ele>905.549999999999955</ele>
        <time>2014-11-15T10:21:05Z</time>
      </trkpt>
      <trkpt lat="47.739515919238329" lon="11.816890072077513">
        <ele>906.25</ele>
        <time>2014-11-15T10:21:09Z</time>
      </trkpt>
      <trkpt lat="47.739492366090417" lon="11.816679267212749">
        <ele>908.720000000000027</ele>
        <time>2014-11-15T10:21:24Z</time>
      </trkpt>
      <trkpt lat="47.739486750215292" lon="11.816623527556658">
        <ele>910.220000000000027</ele>
        <time>2014-11-15T10:21:30Z</time>
      </trkpt>
      <trkpt lat="47.739475518465042" lon="11.816588155925274">
        <ele>909.940000000000055</ele>
        <time>2014-11-15T10:21:32Z</time>
      </trkpt>
      <trkpt lat="47.739353058859706" lon="11.816397048532963">
        <ele>912.92999999999995</ele>
        <time>2014-11-15T10:21:46Z</time>
      </trkpt>
      <trkpt lat="47.739205872640014" lon="11.816273247823119">
        <ele>916.149999999999977</ele>
        <time>2014-11-15T10:21:59Z</time>
      </trkpt>
      <trkpt lat="47.739150300621986" lon="11.81623175740242">
        <ele>917.059999999999945</ele>
        <time>2014-11-15T10:22:04Z</time>
      </trkpt>
      <trkpt lat="47.739139655604959" lon="11.816226895898581">
        <ele>917.139999999999986</ele>
        <time>2014-11-15T10:22:05Z</time>
      </trkpt>
      <trkpt lat="47.739108139649034" lon="11.816195212304592">
        <ele>917.259999999999991</ele>
        <time>2014-11-15T10:22:08Z</time>
      </trkpt>
      <trkpt lat="47.739099087193608" lon="11.816185154020786">
        <ele>917.379999999999995</ele>
        <time>2014-11-15T10:22:09Z</time>
      </trkpt>
      <trkpt lat="47.739087184891105" lon="11.816175514832139">
        <ele>917.480000000000018</ele>
        <time>2014-11-15T10:22:10Z</time>
      </trkpt>
      <trkpt lat="47.739079305902123" lon="11.816164785996079">
        <ele>917.870000000000005</ele>
        <time>2014-11-15T10:22:11Z</time>
      </trkpt>
      <trkpt lat="47.73907134309411" lon="11.816152716055512">
        <ele>918.259999999999991</ele>
        <time>2014-11-15T10:22:12Z</time>
      </trkpt>
      <trkpt lat="47.739060027524829" lon="11.816142573952675">
        <ele>917.970000000000027</ele>
        <time>2014-11-15T10:22:13Z</time>
      </trkpt>
      <trkpt lat="47.739048041403294" lon="11.816135616973042">
        <ele>918.149999999999977</ele>
        <time>2014-11-15T10:22:14Z</time>
      </trkpt>
      <trkpt lat="47.73893253877759" lon="11.815915759652853">
        <ele>921.740000000000009</ele>
        <time>2014-11-15T10:22:30Z</time>
      </trkpt>
      <trkpt lat="47.738923234865069" lon="11.815658183768392">
        <ele>923.110000000000014</ele>
        <time>2014-11-15T10:22:44Z</time>
      </trkpt>
      <trkpt lat="47.738924156874418" lon="11.815599342808127">
        <ele>923.259999999999991</ele>
        <time>2014-11-15T10:22:47Z</time>
      </trkpt>
      <trkpt lat="47.738895239308476" lon="11.81537127122283">
        <ele>926.25</ele>
        <time>2014-11-15T10:23:02Z</time>
      </trkpt>
      <trkpt lat="47.738728271797299" lon="11.815159795805812">
        <ele>928.720000000000027</ele>
        <time>2014-11-15T10:23:19Z</time>
      </trkpt>
      <trkpt lat="47.73867747746408" lon="11.81511428207159">
        <ele>929.269999999999982</ele>
        <time>2014-11-15T10:23:23Z</time>
      </trkpt>
      <trkpt lat="47.738666664808989" lon="11.815101960673928">
        <ele>929.399999999999977</ele>
        <time>2014-11-15T10:23:24Z</time>
      </trkpt>
      <trkpt lat="47.738652331754565" lon="11.815094668418169">
        <ele>929.480000000000018</ele>
        <time>2014-11-15T10:23:25Z</time>
      </trkpt>
      <trkpt lat="47.738529704511166" lon="11.814983440563083">
        <ele>931.649999999999977</ele>
        <time>2014-11-15T10:23:37Z</time>
      </trkpt>
      <trkpt lat="47.738424092531204" lon="11.814842456951737">
        <ele>934.909999999999968</ele>
        <time>2014-11-15T10:23:48Z</time>
      </trkpt>
      <trkpt lat="47.738215299323201" lon="11.814670376479626">
        <ele>937.600000000000023</ele>
        <time>2014-11-15T10:24:06Z</time>
      </trkpt>
      <trkpt lat="47.738150171935558" lon="11.814635172486305">
        <ele>938.539999999999964</ele>
        <time>2014-11-15T10:24:20Z</time>
      </trkpt>
      <trkpt lat="47.738113878294826" lon="11.814609104767442">
        <ele>939.019999999999982</ele>
        <time>2014-11-15T10:24:23Z</time>
      </trkpt>
      <trkpt lat="47.7380979526788" lon="11.814604913815856">
        <ele>939.210000000000036</ele>
        <time>2014-11-15T10:24:24Z</time>
      </trkpt>
      <trkpt lat="47.738085798919201" lon="11.814595442265272">
        <ele>939.259999999999991</ele>
        <time>2014-11-15T10:24:25Z</time>
      </trkpt>
      <trkpt lat="47.738074315711856" lon="11.814585383981466">
        <ele>939.419999999999959</ele>
        <time>2014-11-15T10:24:26Z</time>
      </trkpt>
      <trkpt lat="47.738063586875796" lon="11.814575912430882">
        <ele>939.509999999999991</ele>
        <time>2014-11-15T10:24:27Z</time>
      </trkpt>
      <trkpt lat="47.738053277134895" lon="11.814564848318696">
        <ele>939.710000000000036</ele>
        <time>2014-11-15T10:24:28Z</time>
      </trkpt>
      <trkpt lat="47.738044140860438" lon="11.814552778378129">
        <ele>940.389999999999986</ele>
        <time>2014-11-15T10:24:29Z</time>
      </trkpt>
      <trkpt lat="47.738033328205347" lon="11.814539870247245">
        <ele>940.730000000000018</ele>
        <time>2014-11-15T10:24:30Z</time>
      </trkpt>
      <trkpt lat="47.738022850826383" lon="11.814526626840234">
        <ele>940.82000000000005</ele>
        <time>2014-11-15T10:24:31Z</time>
      </trkpt>
      <trkpt lat="47.738013546913862" lon="11.814516484737396">
        <ele>941.210000000000036</ele>
        <time>2014-11-15T10:24:32Z</time>
      </trkpt>
      <trkpt lat="47.738003320991993" lon="11.814500223845243">
        <ele>941.289999999999964</ele>
        <time>2014-11-15T10:24:33Z</time>
      </trkpt>
      <trkpt lat="47.73799586109817" lon="11.814482118934393">
        <ele>941.549999999999955</ele>
        <time>2014-11-15T10:24:34Z</time>
      </trkpt>
      <trkpt lat="47.737987982109189" lon="11.814463762566447">
        <ele>941.740000000000009</ele>
        <time>2014-11-15T10:24:35Z</time>
      </trkpt>
      <trkpt lat="47.737979013472795" lon="11.814447166398168">
        <ele>941.509999999999991</ele>
        <time>2014-11-15T10:24:36Z</time>
      </trkpt>
      <trkpt lat="47.737970631569624" lon="11.814432498067617">
        <ele>941.620000000000005</ele>
        <time>2014-11-15T10:24:37Z</time>
      </trkpt>
      <trkpt lat="47.737820092588663" lon="11.814151033759117">
        <ele>943.299999999999955</ele>
        <time>2014-11-15T10:24:53Z</time>
      </trkpt>
      <trkpt lat="47.737716576084495" lon="11.813991274684668">
        <ele>944.230000000000018</ele>
        <time>2014-11-15T10:25:02Z</time>
      </trkpt>
      <trkpt lat="47.737700147554278" lon="11.813971661031246">
        <ele>944.330000000000041</ele>
        <time>2014-11-15T10:25:03Z</time>
      </trkpt>
      <trkpt lat="47.737685395404696" lon="11.813950454816222">
        <ele>944.230000000000018</ele>
        <time>2014-11-15T10:25:04Z</time>
      </trkpt>
      <trkpt lat="47.737670475617051" lon="11.813928410410881">
        <ele>944.620000000000005</ele>
        <time>2014-11-15T10:25:05Z</time>
      </trkpt>
      <trkpt lat="47.737656477838755" lon="11.813904019072652">
        <ele>944.649999999999977</ele>
        <time>2014-11-15T10:25:06Z</time>
      </trkpt>
      <trkpt lat="47.737641222774982" lon="11.813881304115057">
        <ele>944.610000000000014</ele>
        <time>2014-11-15T10:25:07Z</time>
      </trkpt>
      <trkpt lat="47.737624542787671" lon="11.813860516995192">
        <ele>944.559999999999945</ele>
        <time>2014-11-15T10:25:08Z</time>
      </trkpt>
      <trkpt lat="47.737458748742938" lon="11.81355700828135">
        <ele>944.92999999999995</ele>
        <time>2014-11-15T10:25:20Z</time>
      </trkpt>
      <trkpt lat="47.737450450658798" lon="11.812924174591899">
        <ele>945.42999999999995</ele>
        <time>2014-11-15T10:25:33Z</time>
      </trkpt>
      <trkpt lat="47.737638372927904" lon="11.812467696145177">
        <ele>946.029999999999973</ele>
        <time>2014-11-15T10:25:45Z</time>
      </trkpt>
      <trkpt lat="47.7378492616117" lon="11.812078524380922">
        <ele>946.110000000000014</ele>
        <time>2014-11-15T10:25:55Z</time>
      </trkpt>
      <trkpt lat="47.737868037074804" lon="11.811827570199966">
        <ele>945.200000000000045</ele>
        <time>2014-11-15T10:26:00Z</time>
      </trkpt>
      <trkpt lat="47.737692268565297" lon="11.811171099543571">
        <ele>945.25</ele>
        <time>2014-11-15T10:26:14Z</time>
      </trkpt>
      <trkpt lat="47.737685646861792" lon="11.810532817617059">
        <ele>946.190000000000055</ele>
        <time>2014-11-15T10:26:28Z</time>
      </trkpt>
      <trkpt lat="47.737745409831405" lon="11.810026634484529">
        <ele>947.639999999999986</ele>
        <time>2014-11-15T10:26:42Z</time>
      </trkpt>
      <trkpt lat="47.737595541402698" lon="11.809636289253831">
        <ele>948.450000000000045</ele>
        <time>2014-11-15T10:26:55Z</time>
      </trkpt>
      <trkpt lat="47.737374175339937" lon="11.809373516589403">
        <ele>949.509999999999991</ele>
        <time>2014-11-15T10:27:08Z</time>
      </trkpt>
      <trkpt lat="47.737303012982011" lon="11.809249464422464">
        <ele>949.720000000000027</ele>
        <time>2014-11-15T10:27:14Z</time>
      </trkpt>
      <trkpt lat="47.737289350479841" lon="11.809226917102933">
        <ele>949.75</ele>
        <time>2014-11-15T10:27:15Z</time>
      </trkpt>
      <trkpt lat="47.737172842025757" lon="11.808796338737011">
        <ele>949.960000000000036</ele>
        <time>2014-11-15T10:27:27Z</time>
      </trkpt>
      <trkpt lat="47.737137051299214" lon="11.808476485311985">
        <ele>951</ele>
        <time>2014-11-15T10:27:35Z</time>
      </trkpt>
      <trkpt lat="47.737034037709236" lon="11.808193596079946">
        <ele>951.490000000000009</ele>
        <time>2014-11-15T10:27:45Z</time>
      </trkpt>
      <trkpt lat="47.736937310546637" lon="11.807992765679955">
        <ele>954.009999999999991</ele>
        <time>2014-11-15T10:27:58Z</time>
      </trkpt>
      <trkpt lat="47.736865729093552" lon="11.807777099311352">
        <ele>956.549999999999955</ele>
        <time>2014-11-15T10:28:11Z</time>
      </trkpt>
      <trkpt lat="47.736838990822434" lon="11.807623459026217">
        <ele>958.029999999999973</ele>
        <time>2014-11-15T10:28:19Z</time>
      </trkpt>
      <trkpt lat="47.736828597262502" lon="11.807602001354098">
        <ele>958.649999999999977</ele>
        <time>2014-11-15T10:28:20Z</time>
      </trkpt>
      <trkpt lat="47.736825998872519" lon="11.80756981484592">
        <ele>959.700000000000045</ele>
        <time>2014-11-15T10:28:22Z</time>
      </trkpt>
      <trkpt lat="47.736823568120599" lon="11.807552883401513">
        <ele>959.330000000000041</ele>
        <time>2014-11-15T10:28:23Z</time>
      </trkpt>
      <trkpt lat="47.736824741587043" lon="11.807534275576472">
        <ele>959.5</ele>
        <time>2014-11-15T10:28:24Z</time>
      </trkpt>
      <trkpt lat="47.736826250329614" lon="11.807514159008861">
        <ele>959.340000000000032</ele>
        <time>2014-11-15T10:28:25Z</time>
      </trkpt>
      <trkpt lat="47.736816611140966" lon="11.807474093511701">
        <ele>959.029999999999973</ele>
        <time>2014-11-15T10:28:27Z</time>
      </trkpt>
      <trkpt lat="47.736809989437461" lon="11.807456742972136">
        <ele>959.840000000000032</ele>
        <time>2014-11-15T10:28:28Z</time>
      </trkpt>
      <trkpt lat="47.736806804314256" lon="11.80744081735611">
        <ele>959.700000000000045</ele>
        <time>2014-11-15T10:28:29Z</time>
      </trkpt>
      <trkpt lat="47.736791633069515" lon="11.80739488452673">
        <ele>959.669999999999959</ele>
        <time>2014-11-15T10:28:32Z</time>
      </trkpt>
      <trkpt lat="47.736782915890217" lon="11.807379461824894">
        <ele>960.110000000000014</ele>
        <time>2014-11-15T10:28:33Z</time>
      </trkpt>
      <trkpt lat="47.736771013587713" lon="11.807331433519721">
        <ele>960.350000000000023</ele>
        <time>2014-11-15T10:28:36Z</time>
      </trkpt>
      <trkpt lat="47.736770594492555" lon="11.8073152564466">
        <ele>960.830000000000041</ele>
        <time>2014-11-15T10:28:37Z</time>
      </trkpt>
      <trkpt lat="47.736774617806077" lon="11.807288350537419">
        <ele>960.870000000000005</ele>
        <time>2014-11-15T10:28:39Z</time>
      </trkpt>
      <trkpt lat="47.736771684139967" lon="11.807263204827905">
        <ele>961.190000000000055</ele>
        <time>2014-11-15T10:28:41Z</time>
      </trkpt>
      <trkpt lat="47.73674787953496" lon="11.807158514857292">
        <ele>962.639999999999986</ele>
        <time>2014-11-15T10:28:48Z</time>
      </trkpt>
      <trkpt lat="47.736716531217098" lon="11.807063883170485">
        <ele>963.620000000000005</ele>
        <time>2014-11-15T10:28:54Z</time>
      </trkpt>
      <trkpt lat="47.736688703298569" lon="11.80692876689136">
        <ele>965.639999999999986</ele>
        <time>2014-11-15T10:29:08Z</time>
      </trkpt>
      <trkpt lat="47.73668241687119" lon="11.806911248713732">
        <ele>966.480000000000018</ele>
        <time>2014-11-15T10:29:09Z</time>
      </trkpt>
      <trkpt lat="47.73666724562645" lon="11.80685349740088">
        <ele>966.289999999999964</ele>
        <time>2014-11-15T10:29:12Z</time>
      </trkpt>
      <trkpt lat="47.73665995337069" lon="11.806833548471332">
        <ele>966.730000000000018</ele>
        <time>2014-11-15T10:29:13Z</time>
      </trkpt>
      <trkpt lat="47.736654421314597" lon="11.806813264265656">
        <ele>966.639999999999986</ele>
        <time>2014-11-15T10:29:14Z</time>
      </trkpt>
      <trkpt lat="47.736640423536301" lon="11.806750735267997">
        <ele>967.019999999999982</ele>
        <time>2014-11-15T10:29:17Z</time>
      </trkpt>
      <trkpt lat="47.736635562032461" lon="11.806729109957814">
        <ele>967.019999999999982</ele>
        <time>2014-11-15T10:29:18Z</time>
      </trkpt>
      <trkpt lat="47.736605890095234" lon="11.806602878496051">
        <ele>968.539999999999964</ele>
        <time>2014-11-15T10:29:24Z</time>
      </trkpt>
      <trkpt lat="47.7366042137146" lon="11.806586366146803">
        <ele>968.789999999999964</ele>
        <time>2014-11-15T10:29:25Z</time>
      </trkpt>
      <trkpt lat="47.736600190401077" lon="11.806570691987872">
        <ele>968.830000000000041</ele>
        <time>2014-11-15T10:29:26Z</time>
      </trkpt>
      <trkpt lat="47.736594239249825" lon="11.806554766371846">
        <ele>968.970000000000027</ele>
        <time>2014-11-15T10:29:27Z</time>
      </trkpt>
      <trkpt lat="47.736562555655837" lon="11.806491985917091">
        <ele>969.710000000000036</ele>
        <time>2014-11-15T10:29:30Z</time>
      </trkpt>
      <trkpt lat="47.736555598676205" lon="11.806475557386875">
        <ele>969.809999999999945</ele>
        <time>2014-11-15T10:29:31Z</time>
      </trkpt>
      <trkpt lat="47.736471695825458" lon="11.806221166625619">
        <ele>972.769999999999982</ele>
        <time>2014-11-15T10:29:45Z</time>
      </trkpt>
      <trkpt lat="47.736453842371702" lon="11.806117482483387">
        <ele>973.299999999999955</ele>
        <time>2014-11-15T10:29:58Z</time>
      </trkpt>
      <trkpt lat="47.736454596742988" lon="11.806094935163856">
        <ele>973.490000000000009</ele>
        <time>2014-11-15T10:29:59Z</time>
      </trkpt>
      <trkpt lat="47.736452165991068" lon="11.806072555482388">
        <ele>973.460000000000036</ele>
        <time>2014-11-15T10:30:00Z</time>
      </trkpt>
      <trkpt lat="47.736420901492238" lon="11.805800646543503">
        <ele>975.399999999999977</ele>
        <time>2014-11-15T10:30:13Z</time>
      </trkpt>
      <trkpt lat="47.736387206241488" lon="11.805478949099779">
        <ele>976.830000000000041</ele>
        <time>2014-11-15T10:30:29Z</time>
      </trkpt>
      <trkpt lat="47.736377734690905" lon="11.805461179465055">
        <ele>976.870000000000005</ele>
        <time>2014-11-15T10:30:30Z</time>
      </trkpt>
      <trkpt lat="47.736367173492908" lon="11.805438129231334">
        <ele>976.830000000000041</ele>
        <time>2014-11-15T10:30:31Z</time>
      </trkpt>
      <trkpt lat="47.736298693343997" lon="11.805053483694792">
        <ele>977.330000000000041</ele>
        <time>2014-11-15T10:30:46Z</time>
      </trkpt>
      <trkpt lat="47.736181514337659" lon="11.804525507614017">
        <ele>977.690000000000055</ele>
        <time>2014-11-15T10:31:00Z</time>
      </trkpt>
      <trkpt lat="47.736080763861537" lon="11.804246222600341">
        <ele>978.17999999999995</ele>
        <time>2014-11-15T10:31:07Z</time>
      </trkpt>
      <trkpt lat="47.736059138551354" lon="11.804209845140576">
        <ele>977.980000000000018</ele>
        <time>2014-11-15T10:31:08Z</time>
      </trkpt>
      <trkpt lat="47.735793683677912" lon="11.803856045007706">
        <ele>979.889999999999986</ele>
        <time>2014-11-15T10:31:21Z</time>
      </trkpt>
      <trkpt lat="47.735584219917655" lon="11.803655801340938">
        <ele>981.379999999999995</ele>
        <time>2014-11-15T10:31:36Z</time>
      </trkpt>
      <trkpt lat="47.735410127788782" lon="11.803493443876505">
        <ele>983.690000000000055</ele>
        <time>2014-11-15T10:31:50Z</time>
      </trkpt>
      <trkpt lat="47.73539730347693" lon="11.803486486896873">
        <ele>983.409999999999968</ele>
        <time>2014-11-15T10:31:51Z</time>
      </trkpt>
      <trkpt lat="47.735309042036533" lon="11.803411552682519">
        <ele>984.539999999999964</ele>
        <time>2014-11-15T10:31:58Z</time>
      </trkpt>
      <trkpt lat="47.735293284058571" lon="11.803374504670501">
        <ele>984.67999999999995</ele>
        <time>2014-11-15T10:32:00Z</time>
      </trkpt>
      <trkpt lat="47.735289512202144" lon="11.803355477750301">
        <ele>984.850000000000023</ele>
        <time>2014-11-15T10:32:01Z</time>
      </trkpt>
      <trkpt lat="47.735284734517336" lon="11.80333879776299">
        <ele>985.299999999999955</ele>
        <time>2014-11-15T10:32:02Z</time>
      </trkpt>
      <trkpt lat="47.735276101157069" lon="11.803323039785028">
        <ele>986.090000000000032</ele>
        <time>2014-11-15T10:32:03Z</time>
      </trkpt>
      <trkpt lat="47.735265791416168" lon="11.803307868540287">
        <ele>985.600000000000023</ele>
        <time>2014-11-15T10:32:04Z</time>
      </trkpt>
      <trkpt lat="47.735253386199474" lon="11.803293032571673">
        <ele>986.220000000000027</ele>
        <time>2014-11-15T10:32:05Z</time>
      </trkpt>
      <trkpt lat="47.735241483896971" lon="11.80327576585114">
        <ele>986.389999999999986</ele>
        <time>2014-11-15T10:32:06Z</time>
      </trkpt>
      <trkpt lat="47.73523167707026" lon="11.803258918225765">
        <ele>986.559999999999945</ele>
        <time>2014-11-15T10:32:07Z</time>
      </trkpt>
      <trkpt lat="47.735222289338708" lon="11.80324399843812">
        <ele>986.889999999999986</ele>
        <time>2014-11-15T10:32:08Z</time>
      </trkpt>
      <trkpt lat="47.735210806131363" lon="11.803231844678521">
        <ele>986.700000000000045</ele>
        <time>2014-11-15T10:32:09Z</time>
      </trkpt>
      <trkpt lat="47.73519940674305" lon="11.803222792223096">
        <ele>987.059999999999945</ele>
        <time>2014-11-15T10:32:10Z</time>
      </trkpt>
      <trkpt lat="47.735029170289636" lon="11.803099913522601">
        <ele>989.309999999999945</ele>
        <time>2014-11-15T10:32:25Z</time>
      </trkpt>
      <trkpt lat="47.734871339052916" lon="11.80303143337369">
        <ele>992.580000000000041</ele>
        <time>2014-11-15T10:32:40Z</time>
      </trkpt>
      <trkpt lat="47.73477821610868" lon="11.802994552999735">
        <ele>994.299999999999955</ele>
        <time>2014-11-15T10:32:48Z</time>
      </trkpt>
      <trkpt lat="47.734669586643577" lon="11.802932526916265">
        <ele>995.789999999999964</ele>
        <time>2014-11-15T10:33:00Z</time>
      </trkpt>
      <trkpt lat="47.734601609408855" lon="11.80293126963079">
        <ele>997.460000000000036</ele>
        <time>2014-11-15T10:33:06Z</time>
      </trkpt>
      <trkpt lat="47.734496248885989" lon="11.802927162498236">
        <ele>998.539999999999964</ele>
        <time>2014-11-15T10:33:16Z</time>
      </trkpt>
      <trkpt lat="47.734484346583486" lon="11.802931437268853">
        <ele>998.870000000000005</ele>
        <time>2014-11-15T10:33:17Z</time>
      </trkpt>
      <trkpt lat="47.734473282471299" lon="11.80293956771493">
        <ele>999.539999999999964</ele>
        <time>2014-11-15T10:33:18Z</time>
      </trkpt>
      <trkpt lat="47.734461799263954" lon="11.802950212731957">
        <ele>999.590000000000032</ele>
        <time>2014-11-15T10:33:19Z</time>
      </trkpt>
      <trkpt lat="47.734449226409197" lon="11.802960187196732">
        <ele>999.700000000000045</ele>
        <time>2014-11-15T10:33:20Z</time>
      </trkpt>
      <trkpt lat="47.734439419582486" lon="11.802966725081205">
        <ele>999.870000000000005</ele>
        <time>2014-11-15T10:33:21Z</time>
      </trkpt>
      <trkpt lat="47.73442056030035" lon="11.802989942952991">
        <ele>1000.529999999999973</ele>
        <time>2014-11-15T10:33:23Z</time>
      </trkpt>
      <trkpt lat="47.734411843121052" lon="11.803001761436462">
        <ele>1000.759999999999991</ele>
        <time>2014-11-15T10:33:24Z</time>
      </trkpt>
      <trkpt lat="47.734389798715711" lon="11.803132686764002">
        <ele>1002.200000000000045</ele>
        <time>2014-11-15T10:33:31Z</time>
      </trkpt>
      <trkpt lat="47.73438636213541" lon="11.803307281807065">
        <ele>1003.330000000000041</ele>
        <time>2014-11-15T10:33:42Z</time>
      </trkpt>
      <trkpt lat="47.734434977173805" lon="11.803556811064482">
        <ele>1005.67999999999995</ele>
        <time>2014-11-15T10:33:55Z</time>
      </trkpt>
      <trkpt lat="47.734441850334406" lon="11.803569803014398">
        <ele>1005.950000000000045</ele>
        <time>2014-11-15T10:33:56Z</time>
      </trkpt>
      <trkpt lat="47.734446041285992" lon="11.803585728630424">
        <ele>1006.350000000000023</ele>
        <time>2014-11-15T10:33:57Z</time>
      </trkpt>
      <trkpt lat="47.734451154246926" lon="11.803605677559972">
        <ele>1005.830000000000041</ele>
        <time>2014-11-15T10:33:58Z</time>
      </trkpt>
      <trkpt lat="47.73451242595911" lon="11.803853362798691">
        <ele>1008.850000000000023</ele>
        <time>2014-11-15T10:34:14Z</time>
      </trkpt>
      <trkpt lat="47.734515862539411" lon="11.803896026685834">
        <ele>1008.419999999999959</ele>
        <time>2014-11-15T10:34:17Z</time>
      </trkpt>
      <trkpt lat="47.73451779037714" lon="11.803910695016384">
        <ele>1009.009999999999991</ele>
        <time>2014-11-15T10:34:18Z</time>
      </trkpt>
      <trkpt lat="47.734555760398507" lon="11.804015301167965">
        <ele>1009.789999999999964</ele>
        <time>2014-11-15T10:34:31Z</time>
      </trkpt>
      <trkpt lat="47.734558107331395" lon="11.804031310603023">
        <ele>1009.840000000000032</ele>
        <time>2014-11-15T10:34:32Z</time>
      </trkpt>
      <trkpt lat="47.734559951350093" lon="11.804050086066127">
        <ele>1009.82000000000005</ele>
        <time>2014-11-15T10:34:33Z</time>
      </trkpt>
      <trkpt lat="47.734563136473298" lon="11.804068610072136">
        <ele>1009.700000000000045</ele>
        <time>2014-11-15T10:34:34Z</time>
      </trkpt>
      <trkpt lat="47.734573446214199" lon="11.80408445186913">
        <ele>1010.57000000000005</ele>
        <time>2014-11-15T10:34:35Z</time>
      </trkpt>
      <trkpt lat="47.734581911936402" lon="11.804100126028061">
        <ele>1010.850000000000023</ele>
        <time>2014-11-15T10:34:36Z</time>
      </trkpt>
      <trkpt lat="47.734593143686652" lon="11.804113956168294">
        <ele>1010.639999999999986</ele>
        <time>2014-11-15T10:34:37Z</time>
      </trkpt>
      <trkpt lat="47.734598005190492" lon="11.804131222888827">
        <ele>1010.919999999999959</ele>
        <time>2014-11-15T10:34:38Z</time>
      </trkpt>
      <trkpt lat="47.734607309103012" lon="11.804148908704519">
        <ele>1010.899999999999977</ele>
        <time>2014-11-15T10:34:39Z</time>
      </trkpt>
      <trkpt lat="47.734617283567786" lon="11.804165337234735">
        <ele>1010.909999999999968</ele>
        <time>2014-11-15T10:34:40Z</time>
      </trkpt>
      <trkpt lat="47.73462331853807" lon="11.804182939231396">
        <ele>1011.090000000000032</ele>
        <time>2014-11-15T10:34:41Z</time>
      </trkpt>
      <trkpt lat="47.734625749289989" lon="11.804199703037739">
        <ele>1011.269999999999982</ele>
        <time>2014-11-15T10:34:42Z</time>
      </trkpt>
      <trkpt lat="47.734630778431892" lon="11.804216634482145">
        <ele>1011.460000000000036</ele>
        <time>2014-11-15T10:34:43Z</time>
      </trkpt>
      <trkpt lat="47.734636142849922" lon="11.804231554269791">
        <ele>1011.409999999999968</ele>
        <time>2014-11-15T10:34:44Z</time>
      </trkpt>
      <trkpt lat="47.734646368771791" lon="11.804247312247753">
        <ele>1011.690000000000055</ele>
        <time>2014-11-15T10:34:45Z</time>
      </trkpt>
      <trkpt lat="47.734657935798168" lon="11.804262986406684">
        <ele>1011.759999999999991</ele>
        <time>2014-11-15T10:34:46Z</time>
      </trkpt>
      <trkpt lat="47.734662294387817" lon="11.804284024983644">
        <ele>1011.669999999999959</ele>
        <time>2014-11-15T10:34:47Z</time>
      </trkpt>
      <trkpt lat="47.734669167548418" lon="11.80430724285543">
        <ele>1011.92999999999995</ele>
        <time>2014-11-15T10:34:48Z</time>
      </trkpt>
      <trkpt lat="47.734801014885306" lon="11.804512264207006">
        <ele>1012.480000000000018</ele>
        <time>2014-11-15T10:35:01Z</time>
      </trkpt>
      <trkpt lat="47.734808223322034" lon="11.804533805698156">
        <ele>1012.610000000000014</ele>
        <time>2014-11-15T10:35:02Z</time>
      </trkpt>
      <trkpt lat="47.734820628538728" lon="11.8045574426651">
        <ele>1013.240000000000009</ele>
        <time>2014-11-15T10:35:03Z</time>
      </trkpt>
      <trkpt lat="47.734835045412183" lon="11.804581163451076">
        <ele>1012.809999999999945</ele>
        <time>2014-11-15T10:35:04Z</time>
      </trkpt>
      <trkpt lat="47.734849881380796" lon="11.804605051875114">
        <ele>1013.450000000000045</ele>
        <time>2014-11-15T10:35:05Z</time>
      </trkpt>
      <trkpt lat="47.734871003776789" lon="11.804623575881124">
        <ele>1013.07000000000005</ele>
        <time>2014-11-15T10:35:06Z</time>
      </trkpt>
      <trkpt lat="47.735027158632874" lon="11.804818287491798">
        <ele>1013.850000000000023</ele>
        <time>2014-11-15T10:35:15Z</time>
      </trkpt>
      <trkpt lat="47.7350396476686" lon="11.804847624152899">
        <ele>1013.830000000000041</ele>
        <time>2014-11-15T10:35:16Z</time>
      </trkpt>
      <trkpt lat="47.735053226351738" lon="11.804871847853065">
        <ele>1014.279999999999973</ele>
        <time>2014-11-15T10:35:17Z</time>
      </trkpt>
      <trkpt lat="47.73506747558713" lon="11.804897161200643">
        <ele>1014.200000000000045</ele>
        <time>2014-11-15T10:35:18Z</time>
      </trkpt>
      <trkpt lat="47.735079796984792" lon="11.804923145100474">
        <ele>1014.42999999999995</ele>
        <time>2014-11-15T10:35:19Z</time>
      </trkpt>
      <trkpt lat="47.735098320990801" lon="11.804945440962911">
        <ele>1014.57000000000005</ele>
        <time>2014-11-15T10:35:20Z</time>
      </trkpt>
      <trkpt lat="47.735127909108996" lon="11.804951978847384">
        <ele>1014.419999999999959</ele>
        <time>2014-11-15T10:35:21Z</time>
      </trkpt>
      <trkpt lat="47.735145846381783" lon="11.804976370185614">
        <ele>1014.009999999999991</ele>
        <time>2014-11-15T10:35:22Z</time>
      </trkpt>
      <trkpt lat="47.735241316258907" lon="11.805108971893787">
        <ele>1014.789999999999964</ele>
        <time>2014-11-15T10:35:27Z</time>
      </trkpt>
      <trkpt lat="47.735258331522346" lon="11.805135039612651">
        <ele>1015.039999999999964</ele>
        <time>2014-11-15T10:35:28Z</time>
      </trkpt>
      <trkpt lat="47.735279202461243" lon="11.805158006027341">
        <ele>1015.029999999999973</ele>
        <time>2014-11-15T10:35:29Z</time>
      </trkpt>
      <trkpt lat="47.735293619334698" lon="11.805188097059727">
        <ele>1014.909999999999968</ele>
        <time>2014-11-15T10:35:30Z</time>
      </trkpt>
      <trkpt lat="47.735300995409489" lon="11.805234784260392">
        <ele>1014.629999999999995</ele>
        <time>2014-11-15T10:35:31Z</time>
      </trkpt>
      <trkpt lat="47.735346592962742" lon="11.805958393961191">
        <ele>1016.090000000000032</ele>
        <time>2014-11-15T10:35:45Z</time>
      </trkpt>
      <trkpt lat="47.735255649313331" lon="11.806271793320775">
        <ele>1017.190000000000055</ele>
        <time>2014-11-15T10:35:57Z</time>
      </trkpt>
      <trkpt lat="47.735096141695976" lon="11.806352008134127">
        <ele>1020.509999999999991</ele>
        <time>2014-11-15T10:36:10Z</time>
      </trkpt>
      <trkpt lat="47.734953816980124" lon="11.80626081302762">
        <ele>1022.700000000000045</ele>
        <time>2014-11-15T10:36:27Z</time>
      </trkpt>
      <trkpt lat="47.734859855845571" lon="11.806141203269362">
        <ele>1025.490000000000009</ele>
        <time>2014-11-15T10:36:38Z</time>
      </trkpt>
      <trkpt lat="47.734837140887976" lon="11.806118236854672">
        <ele>1026.279999999999973</ele>
        <time>2014-11-15T10:36:40Z</time>
      </trkpt>
      <trkpt lat="47.734745861962438" lon="11.805990748107433">
        <ele>1027.990000000000009</ele>
        <time>2014-11-15T10:36:49Z</time>
      </trkpt>
      <trkpt lat="47.734721722081304" lon="11.805954370647669">
        <ele>1028.720000000000027</ele>
        <time>2014-11-15T10:36:52Z</time>
      </trkpt>
      <trkpt lat="47.734713926911354" lon="11.805939450860023">
        <ele>1029.059999999999945</ele>
        <time>2014-11-15T10:36:53Z</time>
      </trkpt>
      <trkpt lat="47.734705880284309" lon="11.805925033986568">
        <ele>1028.730000000000018</ele>
        <time>2014-11-15T10:36:54Z</time>
      </trkpt>
      <trkpt lat="47.734700683504343" lon="11.805910533294082">
        <ele>1029.339999999999918</ele>
        <time>2014-11-15T10:36:55Z</time>
      </trkpt>
      <trkpt lat="47.734637400135398" lon="11.805818667635322">
        <ele>1030.980000000000018</ele>
        <time>2014-11-15T10:37:08Z</time>
      </trkpt>
      <trkpt lat="47.734628347679973" lon="11.805808106437325">
        <ele>1031.380000000000109</ele>
        <time>2014-11-15T10:37:09Z</time>
      </trkpt>
      <trkpt lat="47.734619714319706" lon="11.805792851373553">
        <ele>1031.160000000000082</ele>
        <time>2014-11-15T10:37:10Z</time>
      </trkpt>
      <trkpt lat="47.734610494226217" lon="11.805777596309781">
        <ele>1031.769999999999982</ele>
        <time>2014-11-15T10:37:11Z</time>
      </trkpt>
      <trkpt lat="47.73460085503757" lon="11.805763514712453">
        <ele>1031.630000000000109</ele>
        <time>2014-11-15T10:37:12Z</time>
      </trkpt>
      <trkpt lat="47.734593227505684" lon="11.805750019848347">
        <ele>1031.849999999999909</ele>
        <time>2014-11-15T10:37:13Z</time>
      </trkpt>
      <trkpt lat="47.734470264986157" lon="11.805613394826651">
        <ele>1034.970000000000027</ele>
        <time>2014-11-15T10:37:25Z</time>
      </trkpt>
      <trkpt lat="47.734451238065958" lon="11.805604929104447">
        <ele>1035.730000000000018</ele>
        <time>2014-11-15T10:37:27Z</time>
      </trkpt>
      <trkpt lat="47.734342608600855" lon="11.805679360404611">
        <ele>1037.589999999999918</ele>
        <time>2014-11-15T10:37:42Z</time>
      </trkpt>
      <trkpt lat="47.734337830916047" lon="11.805692184716463">
        <ele>1037.75</ele>
        <time>2014-11-15T10:37:43Z</time>
      </trkpt>
      <trkpt lat="47.734337076544762" lon="11.805704087018967">
        <ele>1037.789999999999964</ele>
        <time>2014-11-15T10:37:44Z</time>
      </trkpt>
      <trkpt lat="47.734335232526064" lon="11.805724706500769">
        <ele>1037.910000000000082</ele>
        <time>2014-11-15T10:37:45Z</time>
      </trkpt>
      <trkpt lat="47.734331041574478" lon="11.805758401751518">
        <ele>1038.119999999999891</ele>
        <time>2014-11-15T10:37:46Z</time>
      </trkpt>
      <trkpt lat="47.734326766803861" lon="11.805787570774555">
        <ele>1038.6400000000001</ele>
        <time>2014-11-15T10:37:47Z</time>
      </trkpt>
      <trkpt lat="47.734327604994178" lon="11.805815817788243">
        <ele>1038.299999999999955</ele>
        <time>2014-11-15T10:37:48Z</time>
      </trkpt>
      <trkpt lat="47.73432525806129" lon="11.805839706212282">
        <ele>1038.740000000000009</ele>
        <time>2014-11-15T10:37:49Z</time>
      </trkpt>
      <trkpt lat="47.734326012432575" lon="11.80586208589375">
        <ele>1039.259999999999991</ele>
        <time>2014-11-15T10:37:50Z</time>
      </trkpt>
      <trkpt lat="47.734328107908368" lon="11.805882202461362">
        <ele>1039.3599999999999</ele>
        <time>2014-11-15T10:37:51Z</time>
      </trkpt>
      <trkpt lat="47.734328610822558" lon="11.805901061743498">
        <ele>1039.1400000000001</ele>
        <time>2014-11-15T10:37:52Z</time>
      </trkpt>
      <trkpt lat="47.734331293031573" lon="11.805920256301761">
        <ele>1040.009999999999991</ele>
        <time>2014-11-15T10:37:53Z</time>
      </trkpt>
      <trkpt lat="47.734334813430905" lon="11.805937690660357">
        <ele>1040.049999999999955</ele>
        <time>2014-11-15T10:37:54Z</time>
      </trkpt>
      <trkpt lat="47.734336741268635" lon="11.805954622104764">
        <ele>1039.970000000000027</ele>
        <time>2014-11-15T10:37:55Z</time>
      </trkpt>
      <trkpt lat="47.734341770410538" lon="11.805971972644329">
        <ele>1040.329999999999927</ele>
        <time>2014-11-15T10:37:56Z</time>
      </trkpt>
      <trkpt lat="47.734348140656948" lon="11.806010864675045">
        <ele>1040.259999999999991</ele>
        <time>2014-11-15T10:37:58Z</time>
      </trkpt>
      <trkpt lat="47.734355013817549" lon="11.806029807776213">
        <ele>1040.5</ele>
        <time>2014-11-15T10:37:59Z</time>
      </trkpt>
      <trkpt lat="47.734354343265295" lon="11.806055875495076">
        <ele>1041.119999999999891</ele>
        <time>2014-11-15T10:38:00Z</time>
      </trkpt>
      <trkpt lat="47.734357779845595" lon="11.806079763919115">
        <ele>1041.220000000000027</ele>
        <time>2014-11-15T10:38:01Z</time>
      </trkpt>
      <trkpt lat="47.734363563358784" lon="11.806098204106092">
        <ele>1041.069999999999936</ele>
        <time>2014-11-15T10:38:02Z</time>
      </trkpt>
      <trkpt lat="47.734370268881321" lon="11.806116979569197">
        <ele>1041.269999999999982</ele>
        <time>2014-11-15T10:38:03Z</time>
      </trkpt>
      <trkpt lat="47.734377309679985" lon="11.806132402271032">
        <ele>1041.200000000000045</ele>
        <time>2014-11-15T10:38:04Z</time>
      </trkpt>
      <trkpt lat="47.734380410984159" lon="11.806149333715439">
        <ele>1041.549999999999955</ele>
        <time>2014-11-15T10:38:05Z</time>
      </trkpt>
      <trkpt lat="47.734382255002856" lon="11.806169617921114">
        <ele>1041.769999999999982</ele>
        <time>2014-11-15T10:38:06Z</time>
      </trkpt>
      <trkpt lat="47.734414357692003" lon="11.806295262649655">
        <ele>1042.569999999999936</ele>
        <time>2014-11-15T10:38:13Z</time>
      </trkpt>
      <trkpt lat="47.734430618584156" lon="11.806395510211587">
        <ele>1044.200000000000045</ele>
        <time>2014-11-15T10:38:19Z</time>
      </trkpt>
      <trkpt lat="47.734433552250266" lon="11.806413531303406">
        <ele>1044.059999999999945</ele>
        <time>2014-11-15T10:38:20Z</time>
      </trkpt>
      <trkpt lat="47.734472528100014" lon="11.806599777191877">
        <ele>1046.299999999999955</ele>
        <time>2014-11-15T10:38:31Z</time>
      </trkpt>
      <trkpt lat="47.734479736536741" lon="11.806616205722094">
        <ele>1046.309999999999945</ele>
        <time>2014-11-15T10:38:32Z</time>
      </trkpt>
      <trkpt lat="47.73448258638382" lon="11.806636489927769">
        <ele>1046.319999999999936</ele>
        <time>2014-11-15T10:38:33Z</time>
      </trkpt>
      <trkpt lat="47.734483173117042" lon="11.806656187400222">
        <ele>1046.930000000000064</ele>
        <time>2014-11-15T10:38:34Z</time>
      </trkpt>
      <trkpt lat="47.734484430402517" lon="11.806674543768167">
        <ele>1047.049999999999955</ele>
        <time>2014-11-15T10:38:35Z</time>
      </trkpt>
      <trkpt lat="47.734492728486657" lon="11.8067557644099">
        <ele>1047.589999999999918</ele>
        <time>2014-11-15T10:38:40Z</time>
      </trkpt>
      <trkpt lat="47.734517119824886" lon="11.806950811296701">
        <ele>1050.369999999999891</ele>
        <time>2014-11-15T10:38:51Z</time>
      </trkpt>
      <trkpt lat="47.734522148966789" lon="11.806965060532093">
        <ele>1050.339999999999918</ele>
        <time>2014-11-15T10:38:52Z</time>
      </trkpt>
      <trkpt lat="47.734525837004185" lon="11.806984338909388">
        <ele>1050.819999999999936</ele>
        <time>2014-11-15T10:38:53Z</time>
      </trkpt>
      <trkpt lat="47.734530447050929" lon="11.807001605629921">
        <ele>1050.670000000000073</ele>
        <time>2014-11-15T10:38:54Z</time>
      </trkpt>
      <trkpt lat="47.734536062926054" lon="11.807019710540771">
        <ele>1050.650000000000091</ele>
        <time>2014-11-15T10:38:55Z</time>
      </trkpt>
      <trkpt lat="47.734545031562448" lon="11.807037144899368">
        <ele>1050.839999999999918</ele>
        <time>2014-11-15T10:38:56Z</time>
      </trkpt>
      <trkpt lat="47.734552575275302" lon="11.807053321972489">
        <ele>1050.880000000000109</ele>
        <time>2014-11-15T10:38:57Z</time>
      </trkpt>
      <trkpt lat="47.734558274969459" lon="11.807069247588515">
        <ele>1051.369999999999891</ele>
        <time>2014-11-15T10:38:58Z</time>
      </trkpt>
      <trkpt lat="47.734565148130059" lon="11.807084251195192">
        <ele>1051.130000000000109</ele>
        <time>2014-11-15T10:38:59Z</time>
      </trkpt>
      <trkpt lat="47.734572440385818" lon="11.807098584249616">
        <ele>1051.480000000000018</ele>
        <time>2014-11-15T10:39:00Z</time>
      </trkpt>
      <trkpt lat="47.734579900279641" lon="11.807112749665976">
        <ele>1051.460000000000036</ele>
        <time>2014-11-15T10:39:01Z</time>
      </trkpt>
      <trkpt lat="47.734591299667954" lon="11.807126831263304">
        <ele>1052.190000000000055</ele>
        <time>2014-11-15T10:39:02Z</time>
      </trkpt>
      <trkpt lat="47.734677381813526" lon="11.807261109352112">
        <ele>1053.559999999999945</ele>
        <time>2014-11-15T10:39:12Z</time>
      </trkpt>
      <trkpt lat="47.734694732353091" lon="11.807271838188171">
        <ele>1053.6099999999999</ele>
        <time>2014-11-15T10:39:13Z</time>
      </trkpt>
      <trkpt lat="47.734709652140737" lon="11.807286087423563">
        <ele>1054.279999999999973</ele>
        <time>2014-11-15T10:39:14Z</time>
      </trkpt>
      <trkpt lat="47.734727840870619" lon="11.807315675541759">
        <ele>1054.089999999999918</ele>
        <time>2014-11-15T10:39:16Z</time>
      </trkpt>
      <trkpt lat="47.734735049307346" lon="11.807333780452609">
        <ele>1054.690000000000055</ele>
        <time>2014-11-15T10:39:17Z</time>
      </trkpt>
      <trkpt lat="47.734745861962438" lon="11.807352136820555">
        <ele>1054.519999999999982</ele>
        <time>2014-11-15T10:39:18Z</time>
      </trkpt>
      <trkpt lat="47.734753740951419" lon="11.807370744645596">
        <ele>1054.720000000000027</ele>
        <time>2014-11-15T10:39:19Z</time>
      </trkpt>
      <trkpt lat="47.734758937731385" lon="11.807389603927732">
        <ele>1055.130000000000109</ele>
        <time>2014-11-15T10:39:20Z</time>
      </trkpt>
      <trkpt lat="47.73476648144424" lon="11.807410474866629">
        <ele>1054.900000000000091</ele>
        <time>2014-11-15T10:39:21Z</time>
      </trkpt>
      <trkpt lat="47.734684338793159" lon="11.807646173983812">
        <ele>1057.579999999999927</ele>
        <time>2014-11-15T10:39:37Z</time>
      </trkpt>
      <trkpt lat="47.734624575823545" lon="11.80762748233974">
        <ele>1059.400000000000091</ele>
        <time>2014-11-15T10:39:42Z</time>
      </trkpt>
      <trkpt lat="47.734612673521042" lon="11.807619268074632">
        <ele>1059.200000000000045</ele>
        <time>2014-11-15T10:39:43Z</time>
      </trkpt>
      <trkpt lat="47.734600100666285" lon="11.807613400742412">
        <ele>1059.200000000000045</ele>
        <time>2014-11-15T10:39:44Z</time>
      </trkpt>
      <trkpt lat="47.734463810920715" lon="11.807512314990163">
        <ele>1062.400000000000091</ele>
        <time>2014-11-15T10:39:57Z</time>
      </trkpt>
      <trkpt lat="47.734321067109704" lon="11.807396141812205">
        <ele>1065.759999999999991</ele>
        <time>2014-11-15T10:40:12Z</time>
      </trkpt>
      <trkpt lat="47.734210258349776" lon="11.807325901463628">
        <ele>1068.079999999999927</ele>
        <time>2014-11-15T10:40:25Z</time>
      </trkpt>
      <trkpt lat="47.734077908098698" lon="11.80722582153976">
        <ele>1071.089999999999918</ele>
        <time>2014-11-15T10:40:40Z</time>
      </trkpt>
      <trkpt lat="47.733996687456965" lon="11.807100679725409">
        <ele>1074.539999999999964</ele>
        <time>2014-11-15T10:40:53Z</time>
      </trkpt>
      <trkpt lat="47.733861738815904" lon="11.806881073862314">
        <ele>1077.8599999999999</ele>
        <time>2014-11-15T10:41:09Z</time>
      </trkpt>
      <trkpt lat="47.733710613101721" lon="11.806718381121755">
        <ele>1081.059999999999945</ele>
        <time>2014-11-15T10:41:24Z</time>
      </trkpt>
      <trkpt lat="47.733541885390878" lon="11.80666197091341">
        <ele>1083.759999999999991</ele>
        <time>2014-11-15T10:41:40Z</time>
      </trkpt>
      <trkpt lat="47.733383970335126" lon="11.806562812998891">
        <ele>1086.960000000000036</ele>
        <time>2014-11-15T10:41:56Z</time>
      </trkpt>
      <trkpt lat="47.733299480751157" lon="11.806400958448648">
        <ele>1089.920000000000073</ele>
        <time>2014-11-15T10:42:09Z</time>
      </trkpt>
      <trkpt lat="47.733199819922447" lon="11.806230219081044">
        <ele>1092.839999999999918</ele>
        <time>2014-11-15T10:42:23Z</time>
      </trkpt>
      <trkpt lat="47.733157742768526" lon="11.806134162470698">
        <ele>1094.769999999999982</ele>
        <time>2014-11-15T10:42:31Z</time>
      </trkpt>
      <trkpt lat="47.733112145215273" lon="11.806053277105093">
        <ele>1095.670000000000073</ele>
        <time>2014-11-15T10:42:38Z</time>
      </trkpt>
      <trkpt lat="47.733105523511767" lon="11.806039195507765">
        <ele>1095.789999999999964</ele>
        <time>2014-11-15T10:42:39Z</time>
      </trkpt>
      <trkpt lat="47.732989769428968" lon="11.80580492131412">
        <ele>1099.079999999999927</ele>
        <time>2014-11-15T10:42:56Z</time>
      </trkpt>
      <trkpt lat="47.732965461909771" lon="11.8057179171592">
        <ele>1099.769999999999982</ele>
        <time>2014-11-15T10:43:09Z</time>
      </trkpt>
      <trkpt lat="47.732959929853678" lon="11.805706098675728">
        <ele>1099.789999999999964</ele>
        <time>2014-11-15T10:43:10Z</time>
      </trkpt>
      <trkpt lat="47.732952302321792" lon="11.805692603811622">
        <ele>1100.059999999999945</ele>
        <time>2014-11-15T10:43:11Z</time>
      </trkpt>
      <trkpt lat="47.732944088056684" lon="11.805678773671389">
        <ele>1100.400000000000091</ele>
        <time>2014-11-15T10:43:12Z</time>
      </trkpt>
      <trkpt lat="47.732933359220624" lon="11.805666703730822">
        <ele>1100.670000000000073</ele>
        <time>2014-11-15T10:43:13Z</time>
      </trkpt>
      <trkpt lat="47.73292288184166" lon="11.805654801428318">
        <ele>1100.779999999999973</ele>
        <time>2014-11-15T10:43:14Z</time>
      </trkpt>
      <trkpt lat="47.73286085575819" lon="11.80553418584168">
        <ele>1102.690000000000055</ele>
        <time>2014-11-15T10:43:23Z</time>
      </trkpt>
      <trkpt lat="47.73285255767405" lon="11.805522618815303">
        <ele>1102.670000000000073</ele>
        <time>2014-11-15T10:43:24Z</time>
      </trkpt>
      <trkpt lat="47.732822801917791" lon="11.805476099252701">
        <ele>1103.319999999999936</ele>
        <time>2014-11-15T10:43:28Z</time>
      </trkpt>
      <trkpt lat="47.732791621237993" lon="11.805427484214306">
        <ele>1104.339999999999918</ele>
        <time>2014-11-15T10:43:32Z</time>
      </trkpt>
      <trkpt lat="47.732779299840331" lon="11.805418096482754">
        <ele>1104.240000000000009</ele>
        <time>2014-11-15T10:43:33Z</time>
      </trkpt>
      <trkpt lat="47.732768822461367" lon="11.805407786741853">
        <ele>1104.789999999999964</ele>
        <time>2014-11-15T10:43:34Z</time>
      </trkpt>
      <trkpt lat="47.732645608484745" lon="11.805161945521832">
        <ele>1108.519999999999982</ele>
        <time>2014-11-15T10:43:51Z</time>
      </trkpt>
      <trkpt lat="47.732638567686081" lon="11.805148785933852">
        <ele>1108.099999999999909</ele>
        <time>2014-11-15T10:43:52Z</time>
      </trkpt>
      <trkpt lat="47.732529854401946" lon="11.804952062666416">
        <ele>1111.480000000000018</ele>
        <time>2014-11-15T10:44:08Z</time>
      </trkpt>
      <trkpt lat="47.732411921024323" lon="11.804731953889132">
        <ele>1114.8900000000001</ele>
        <time>2014-11-15T10:44:25Z</time>
      </trkpt>
      <trkpt lat="47.732388284057379" lon="11.804692978039384">
        <ele>1115.460000000000036</ele>
        <time>2014-11-15T10:44:39Z</time>
      </trkpt>
      <trkpt lat="47.732373448088765" lon="11.804669927805662">
        <ele>1116.1400000000001</ele>
        <time>2014-11-15T10:44:41Z</time>
      </trkpt>
      <trkpt lat="47.732358360663056" lon="11.804624330252409">
        <ele>1117.029999999999973</ele>
        <time>2014-11-15T10:44:44Z</time>
      </trkpt>
      <trkpt lat="47.732318127527833" lon="11.804508492350578">
        <ele>1117.940000000000055</ele>
        <time>2014-11-15T10:44:52Z</time>
      </trkpt>
      <trkpt lat="47.732310080900788" lon="11.804497176781297">
        <ele>1118.230000000000018</ele>
        <time>2014-11-15T10:44:53Z</time>
      </trkpt>
      <trkpt lat="47.732282923534513" lon="11.804453758522868">
        <ele>1119</ele>
        <time>2014-11-15T10:44:57Z</time>
      </trkpt>
      <trkpt lat="47.732278145849705" lon="11.804440263658762">
        <ele>1118.769999999999982</ele>
        <time>2014-11-15T10:44:58Z</time>
      </trkpt>
      <trkpt lat="47.732272865250707" lon="11.804426517337561">
        <ele>1119.829999999999927</ele>
        <time>2014-11-15T10:44:59Z</time>
      </trkpt>
      <trkpt lat="47.732226513326168" lon="11.804332807660103">
        <ele>1121.5</ele>
        <time>2014-11-15T10:45:06Z</time>
      </trkpt>
      <trkpt lat="47.732130624353886" lon="11.804107753559947">
        <ele>1124.470000000000027</ele>
        <time>2014-11-15T10:45:23Z</time>
      </trkpt>
      <trkpt lat="47.732082596048713" lon="11.803998537361622">
        <ele>1126.400000000000091</ele>
        <time>2014-11-15T10:45:31Z</time>
      </trkpt>
      <trkpt lat="47.731963908299804" lon="11.803807262331247">
        <ele>1129.829999999999927</ele>
        <time>2014-11-15T10:45:47Z</time>
      </trkpt>
      <trkpt lat="47.731972960755229" lon="11.803735848516226">
        <ele>1129.630000000000109</ele>
        <time>2014-11-15T10:46:06Z</time>
      </trkpt>
      <trkpt lat="47.731942115351558" lon="11.803717073053122">
        <ele>1130.710000000000036</ele>
        <time>2014-11-15T10:46:29Z</time>
      </trkpt>
      <trkpt lat="47.731867013499141" lon="11.803702153265476">
        <ele>1132.589999999999918</ele>
        <time>2014-11-15T10:46:39Z</time>
      </trkpt>
      <trkpt lat="47.731714295223355" lon="11.803615819662809">
        <ele>1135.029999999999973</ele>
        <time>2014-11-15T10:46:55Z</time>
      </trkpt>
      <trkpt lat="47.731550512835383" lon="11.803548680618405">
        <ele>1137.509999999999991</ele>
        <time>2014-11-15T10:47:10Z</time>
      </trkpt>
      <trkpt lat="47.731419419869781" lon="11.803563265129924">
        <ele>1139.309999999999945</ele>
        <time>2014-11-15T10:47:25Z</time>
      </trkpt>
      <trkpt lat="47.731396285817027" lon="11.803621016442776">
        <ele>1139.559999999999945</ele>
        <time>2014-11-15T10:47:38Z</time>
      </trkpt>
      <trkpt lat="47.731403829529881" lon="11.803634259849787">
        <ele>1139.690000000000055</ele>
        <time>2014-11-15T10:47:39Z</time>
      </trkpt>
      <trkpt lat="47.731414893642068" lon="11.803645826876163">
        <ele>1139.670000000000073</ele>
        <time>2014-11-15T10:47:40Z</time>
      </trkpt>
      <trkpt lat="47.731422772631049" lon="11.803657142445445">
        <ele>1140.220000000000027</ele>
        <time>2014-11-15T10:47:41Z</time>
      </trkpt>
      <trkpt lat="47.73142914287746" lon="11.803672984242439">
        <ele>1140.569999999999936</ele>
        <time>2014-11-15T10:47:42Z</time>
      </trkpt>
      <trkpt lat="47.731435596942902" lon="11.803687065839767">
        <ele>1139.980000000000018</ele>
        <time>2014-11-15T10:47:43Z</time>
      </trkpt>
      <trkpt lat="47.73144381120801" lon="11.803701566532254">
        <ele>1139.930000000000064</ele>
        <time>2014-11-15T10:47:44Z</time>
      </trkpt>
      <trkpt lat="47.731515225023031" lon="11.80390952154994">
        <ele>1142.799999999999955</ele>
        <time>2014-11-15T10:47:59Z</time>
      </trkpt>
      <trkpt lat="47.731543639674783" lon="11.803939947858453">
        <ele>1143.490000000000009</ele>
        <time>2014-11-15T10:48:02Z</time>
      </trkpt>
      <trkpt lat="47.731557050719857" lon="11.803948748856783">
        <ele>1143.960000000000036</ele>
        <time>2014-11-15T10:48:03Z</time>
      </trkpt>
      <trkpt lat="47.731594182550907" lon="11.804008176550269">
        <ele>1144.420000000000073</ele>
        <time>2014-11-15T10:48:08Z</time>
      </trkpt>
      <trkpt lat="47.731660399585962" lon="11.804158464074135">
        <ele>1146.410000000000082</ele>
        <time>2014-11-15T10:48:18Z</time>
      </trkpt>
      <trkpt lat="47.731666686013341" lon="11.804213616997004">
        <ele>1147.380000000000109</ele>
        <time>2014-11-15T10:48:22Z</time>
      </trkpt>
      <trkpt lat="47.731669871136546" lon="11.804239684715867">
        <ele>1146.940000000000055</ele>
        <time>2014-11-15T10:48:23Z</time>
      </trkpt>
      <trkpt lat="47.731679929420352" lon="11.804286707192659">
        <ele>1147.759999999999991</ele>
        <time>2014-11-15T10:48:27Z</time>
      </trkpt>
      <trkpt lat="47.731696693226695" lon="11.804462308064103">
        <ele>1150.440000000000055</ele>
        <time>2014-11-15T10:48:39Z</time>
      </trkpt>
      <trkpt lat="47.731735585257411" lon="11.804653750732541">
        <ele>1152.279999999999973</ele>
        <time>2014-11-15T10:48:50Z</time>
      </trkpt>
      <trkpt lat="47.731736088171601" lon="11.804671688005328">
        <ele>1152.730000000000018</ele>
        <time>2014-11-15T10:48:51Z</time>
      </trkpt>
      <trkpt lat="47.73173650726676" lon="11.804688787087798">
        <ele>1153.299999999999955</ele>
        <time>2014-11-15T10:48:52Z</time>
      </trkpt>
      <trkpt lat="47.731772297993302" lon="11.804922809824347">
        <ele>1155.259999999999991</ele>
        <time>2014-11-15T10:49:05Z</time>
      </trkpt>
      <trkpt lat="47.731775734573603" lon="11.804941417649388">
        <ele>1155.160000000000082</ele>
        <time>2014-11-15T10:49:06Z</time>
      </trkpt>
      <trkpt lat="47.731811190024018" lon="11.805181642994285">
        <ele>1158.420000000000073</ele>
        <time>2014-11-15T10:49:20Z</time>
      </trkpt>
      <trkpt lat="47.731812028214335" lon="11.805211650207639">
        <ele>1158.829999999999927</ele>
        <time>2014-11-15T10:49:22Z</time>
      </trkpt>
      <trkpt lat="47.731806831434369" lon="11.805223803967237">
        <ele>1158.980000000000018</ele>
        <time>2014-11-15T10:49:23Z</time>
      </trkpt>
      <trkpt lat="47.731807082891464" lon="11.805255487561226">
        <ele>1159.1400000000001</ele>
        <time>2014-11-15T10:49:25Z</time>
      </trkpt>
      <trkpt lat="47.73180783726275" lon="11.805271916091442">
        <ele>1159.329999999999927</ele>
        <time>2014-11-15T10:49:26Z</time>
      </trkpt>
      <trkpt lat="47.731805574148893" lon="11.805286332964897">
        <ele>1159.519999999999982</ele>
        <time>2014-11-15T10:49:27Z</time>
      </trkpt>
      <trkpt lat="47.731804149225354" lon="11.805394291877747">
        <ele>1160.680000000000064</ele>
        <time>2014-11-15T10:49:33Z</time>
      </trkpt>
      <trkpt lat="47.731809681281447" lon="11.805481044575572">
        <ele>1162.329999999999927</ele>
        <time>2014-11-15T10:49:39Z</time>
      </trkpt>
      <trkpt lat="47.731807334348559" lon="11.805496970191598">
        <ele>1162.839999999999918</ele>
        <time>2014-11-15T10:49:40Z</time>
      </trkpt>
      <trkpt lat="47.731807669624686" lon="11.805512392893434">
        <ele>1162.309999999999945</ele>
        <time>2014-11-15T10:49:41Z</time>
      </trkpt>
      <trkpt lat="47.731813453137875" lon="11.805527983233333">
        <ele>1162.069999999999936</ele>
        <time>2014-11-15T10:49:42Z</time>
      </trkpt>
      <trkpt lat="47.731814878061414" lon="11.805544411763549">
        <ele>1163.099999999999909</ele>
        <time>2014-11-15T10:49:43Z</time>
      </trkpt>
      <trkpt lat="47.731812447309494" lon="11.805561846122146">
        <ele>1162.8599999999999</ele>
        <time>2014-11-15T10:49:44Z</time>
      </trkpt>
      <trkpt lat="47.731810519471765" lon="11.80559235624969">
        <ele>1162.960000000000036</ele>
        <time>2014-11-15T10:49:46Z</time>
      </trkpt>
      <trkpt lat="47.731830719858408" lon="11.805739039555192">
        <ele>1164.380000000000109</ele>
        <time>2014-11-15T10:49:55Z</time>
      </trkpt>
      <trkpt lat="47.731833569705486" lon="11.80575504899025">
        <ele>1164.450000000000045</ele>
        <time>2014-11-15T10:49:56Z</time>
      </trkpt>
      <trkpt lat="47.731833653524518" lon="11.805771393701434">
        <ele>1164.839999999999918</ele>
        <time>2014-11-15T10:49:57Z</time>
      </trkpt>
      <trkpt lat="47.731833904981613" lon="11.805787151679397">
        <ele>1164.930000000000064</ele>
        <time>2014-11-15T10:49:58Z</time>
      </trkpt>
      <trkpt lat="47.731835832819343" lon="11.80580148473382">
        <ele>1165.069999999999936</ele>
        <time>2014-11-15T10:49:59Z</time>
      </trkpt>
      <trkpt lat="47.731875814497471" lon="11.806026538833976">
        <ele>1168.960000000000036</ele>
        <time>2014-11-15T10:50:14Z</time>
      </trkpt>
      <trkpt lat="47.731895092874765" lon="11.806191159412265">
        <ele>1170.829999999999927</ele>
        <time>2014-11-15T10:50:25Z</time>
      </trkpt>
      <trkpt lat="47.731898697093129" lon="11.806207420304418">
        <ele>1170.930000000000064</ele>
        <time>2014-11-15T10:50:26Z</time>
      </trkpt>
      <trkpt lat="47.731915712356567" lon="11.806268692016602">
        <ele>1172.019999999999982</ele>
        <time>2014-11-15T10:50:30Z</time>
      </trkpt>
      <trkpt lat="47.731918310746551" lon="11.806284449994564">
        <ele>1172.089999999999918</ele>
        <time>2014-11-15T10:50:31Z</time>
      </trkpt>
      <trkpt lat="47.731918143108487" lon="11.806298699229956">
        <ele>1172.210000000000036</ele>
        <time>2014-11-15T10:50:32Z</time>
      </trkpt>
      <trkpt lat="47.73191730491817" lon="11.806314373388886">
        <ele>1172.220000000000027</ele>
        <time>2014-11-15T10:50:33Z</time>
      </trkpt>
      <trkpt lat="47.73191730491817" lon="11.806329879909754">
        <ele>1172.75</ele>
        <time>2014-11-15T10:50:34Z</time>
      </trkpt>
      <trkpt lat="47.731919819489121" lon="11.806392408907413">
        <ele>1173.75</ele>
        <time>2014-11-15T10:50:38Z</time>
      </trkpt>
      <trkpt lat="47.731920070946217" lon="11.806407999247313">
        <ele>1173.430000000000064</ele>
        <time>2014-11-15T10:50:39Z</time>
      </trkpt>
      <trkpt lat="47.731922920793295" lon="11.806424763053656">
        <ele>1173.559999999999945</ele>
        <time>2014-11-15T10:50:40Z</time>
      </trkpt>
      <trkpt lat="47.73193197324872" lon="11.806486705318093">
        <ele>1174.599999999999909</ele>
        <time>2014-11-15T10:50:44Z</time>
      </trkpt>
      <trkpt lat="47.731944965198636" lon="11.806536158546805">
        <ele>1174.960000000000036</ele>
        <time>2014-11-15T10:50:48Z</time>
      </trkpt>
      <trkpt lat="47.731945384293795" lon="11.806578151881695">
        <ele>1175.880000000000109</ele>
        <time>2014-11-15T10:50:51Z</time>
      </trkpt>
      <trkpt lat="47.731942534446716" lon="11.806596675887704">
        <ele>1175.569999999999936</ele>
        <time>2014-11-15T10:50:52Z</time>
      </trkpt>
      <trkpt lat="47.731954772025347" lon="11.806735983118415">
        <ele>1177.269999999999982</ele>
        <time>2014-11-15T10:51:00Z</time>
      </trkpt>
      <trkpt lat="47.731956699863076" lon="11.806802619248629">
        <ele>1178</ele>
        <time>2014-11-15T10:51:04Z</time>
      </trkpt>
      <trkpt lat="47.731960555538535" lon="11.806837990880013">
        <ele>1178.8900000000001</ele>
        <time>2014-11-15T10:51:06Z</time>
      </trkpt>
      <trkpt lat="47.731959968805313" lon="11.80685450322926">
        <ele>1178.940000000000055</ele>
        <time>2014-11-15T10:51:07Z</time>
      </trkpt>
      <trkpt lat="47.731962399557233" lon="11.806871183216572">
        <ele>1179.079999999999927</ele>
        <time>2014-11-15T10:51:08Z</time>
      </trkpt>
      <trkpt lat="47.731962064281106" lon="11.806886103004217">
        <ele>1179.25</ele>
        <time>2014-11-15T10:51:09Z</time>
      </trkpt>
      <trkpt lat="47.731967847794294" lon="11.806900016963482">
        <ele>1179.220000000000027</ele>
        <time>2014-11-15T10:51:10Z</time>
      </trkpt>
      <trkpt lat="47.731973631307483" lon="11.80692826397717">
        <ele>1179.880000000000109</ele>
        <time>2014-11-15T10:51:12Z</time>
      </trkpt>
      <trkpt lat="47.731975894421339" lon="11.80694343522191">
        <ele>1180.1400000000001</ele>
        <time>2014-11-15T10:51:13Z</time>
      </trkpt>
      <trkpt lat="47.73201403208077" lon="11.807057680562139">
        <ele>1181.490000000000009</ele>
        <time>2014-11-15T10:51:25Z</time>
      </trkpt>
      <trkpt lat="47.732012439519167" lon="11.807137811556458">
        <ele>1182.380000000000109</ele>
        <time>2014-11-15T10:51:30Z</time>
      </trkpt>
      <trkpt lat="47.73201696574688" lon="11.807169327512383">
        <ele>1182.519999999999982</ele>
        <time>2014-11-15T10:51:32Z</time>
      </trkpt>
      <trkpt lat="47.73201989941299" lon="11.807186929509044">
        <ele>1183.3599999999999</ele>
        <time>2014-11-15T10:51:33Z</time>
      </trkpt>
      <trkpt lat="47.732024928554893" lon="11.807203106582165">
        <ele>1183.099999999999909</ele>
        <time>2014-11-15T10:51:34Z</time>
      </trkpt>
      <trkpt lat="47.732027778401971" lon="11.807220540940762">
        <ele>1183.079999999999927</ele>
        <time>2014-11-15T10:51:35Z</time>
      </trkpt>
      <trkpt lat="47.732026353478432" lon="11.807238981127739">
        <ele>1183.25</ele>
        <time>2014-11-15T10:51:36Z</time>
      </trkpt>
      <trkpt lat="47.732023587450385" lon="11.807258008047938">
        <ele>1183.920000000000073</ele>
        <time>2014-11-15T10:51:37Z</time>
      </trkpt>
      <trkpt lat="47.73202920332551" lon="11.807363368570805">
        <ele>1184.910000000000082</ele>
        <time>2014-11-15T10:51:43Z</time>
      </trkpt>
      <trkpt lat="47.732030292972922" lon="11.807381054386497">
        <ele>1184.849999999999909</ele>
        <time>2014-11-15T10:51:44Z</time>
      </trkpt>
      <trkpt lat="47.732031131163239" lon="11.807398237287998">
        <ele>1185.420000000000073</ele>
        <time>2014-11-15T10:51:45Z</time>
      </trkpt>
      <trkpt lat="47.732032053172588" lon="11.807415671646595">
        <ele>1185.3900000000001</ele>
        <time>2014-11-15T10:51:46Z</time>
      </trkpt>
      <trkpt lat="47.73203406482935" lon="11.807431261986494">
        <ele>1185.569999999999936</ele>
        <time>2014-11-15T10:51:47Z</time>
      </trkpt>
      <trkpt lat="47.732039513066411" lon="11.80746185593307">
        <ele>1186</ele>
        <time>2014-11-15T10:51:49Z</time>
      </trkpt>
      <trkpt lat="47.73203993216157" lon="11.807478200644255">
        <ele>1186.059999999999945</ele>
        <time>2014-11-15T10:51:50Z</time>
      </trkpt>
      <trkpt lat="47.73203993216157" lon="11.807493958622217">
        <ele>1186.450000000000045</ele>
        <time>2014-11-15T10:51:51Z</time>
      </trkpt>
      <trkpt lat="47.732044206932187" lon="11.807554308325052">
        <ele>1187.220000000000027</ele>
        <time>2014-11-15T10:51:55Z</time>
      </trkpt>
      <trkpt lat="47.732043955475092" lon="11.807570569217205">
        <ele>1187.569999999999936</ele>
        <time>2014-11-15T10:51:56Z</time>
      </trkpt>
      <trkpt lat="47.732046972960234" lon="11.80758448317647">
        <ele>1187.849999999999909</ele>
        <time>2014-11-15T10:51:57Z</time>
      </trkpt>
      <trkpt lat="47.732047811150551" lon="11.807616082951427">
        <ele>1187.630000000000109</ele>
        <time>2014-11-15T10:51:59Z</time>
      </trkpt>
      <trkpt lat="47.73204680532217" lon="11.807633265852928">
        <ele>1188.200000000000045</ele>
        <time>2014-11-15T10:52:00Z</time>
      </trkpt>
      <trkpt lat="47.732047475874424" lon="11.807650113478303">
        <ele>1188.440000000000055</ele>
        <time>2014-11-15T10:52:01Z</time>
      </trkpt>
      <trkpt lat="47.732047224417329" lon="11.807667296379805">
        <ele>1188.559999999999945</ele>
        <time>2014-11-15T10:52:02Z</time>
      </trkpt>
      <trkpt lat="47.732047559693456" lon="11.807683892548084">
        <ele>1188.839999999999918</ele>
        <time>2014-11-15T10:52:03Z</time>
      </trkpt>
      <trkpt lat="47.732049990445375" lon="11.807700572535396">
        <ele>1189.009999999999991</ele>
        <time>2014-11-15T10:52:04Z</time>
      </trkpt>
      <trkpt lat="47.732049571350217" lon="11.807717168703675">
        <ele>1189.289999999999964</ele>
        <time>2014-11-15T10:52:05Z</time>
      </trkpt>
      <trkpt lat="47.732046889141202" lon="11.807734267786145">
        <ele>1188.970000000000027</ele>
        <time>2014-11-15T10:52:06Z</time>
      </trkpt>
      <trkpt lat="47.732048649340868" lon="11.807751953601837">
        <ele>1189.130000000000109</ele>
        <time>2014-11-15T10:52:07Z</time>
      </trkpt>
      <trkpt lat="47.73205166682601" lon="11.807768382132053">
        <ele>1189.430000000000064</ele>
        <time>2014-11-15T10:52:08Z</time>
      </trkpt>
      <trkpt lat="47.7320521697402" lon="11.807783972471952">
        <ele>1189.700000000000045</ele>
        <time>2014-11-15T10:52:09Z</time>
      </trkpt>
      <trkpt lat="47.7320521697402" lon="11.807799059897661">
        <ele>1189.960000000000036</ele>
        <time>2014-11-15T10:52:10Z</time>
      </trkpt>
      <trkpt lat="47.732054097577929" lon="11.807814398780465">
        <ele>1190.160000000000082</ele>
        <time>2014-11-15T10:52:11Z</time>
      </trkpt>
      <trkpt lat="47.73205703124404" lon="11.807832503691316">
        <ele>1190.569999999999936</ele>
        <time>2014-11-15T10:52:12Z</time>
      </trkpt>
      <trkpt lat="47.732040602713823" lon="11.808133916929364">
        <ele>1193.630000000000109</ele>
        <time>2014-11-15T10:52:30Z</time>
      </trkpt>
      <trkpt lat="47.732037752866745" lon="11.808292251080275">
        <ele>1195.539999999999964</ele>
        <time>2014-11-15T10:52:40Z</time>
      </trkpt>
      <trkpt lat="47.732033729553223" lon="11.808497607707977">
        <ele>1199.029999999999973</ele>
        <time>2014-11-15T10:52:53Z</time>
      </trkpt>
      <trkpt lat="47.732033226639032" lon="11.808513198047876">
        <ele>1199.059999999999945</ele>
        <time>2014-11-15T10:52:54Z</time>
      </trkpt>
      <trkpt lat="47.732033897191286" lon="11.808561393991113">
        <ele>1199.019999999999982</ele>
        <time>2014-11-15T10:52:57Z</time>
      </trkpt>
      <trkpt lat="47.732034986838698" lon="11.808577990159392">
        <ele>1199.160000000000082</ele>
        <time>2014-11-15T10:52:58Z</time>
      </trkpt>
      <trkpt lat="47.73203163407743" lon="11.808594251051545">
        <ele>1199.950000000000045</ele>
        <time>2014-11-15T10:52:59Z</time>
      </trkpt>
      <trkpt lat="47.732030879706144" lon="11.808610847219825">
        <ele>1199.380000000000109</ele>
        <time>2014-11-15T10:53:00Z</time>
      </trkpt>
      <trkpt lat="47.732030209153891" lon="11.8086276948452">
        <ele>1199.3599999999999</ele>
        <time>2014-11-15T10:53:01Z</time>
      </trkpt>
      <trkpt lat="47.732029287144542" lon="11.808673208579421">
        <ele>1200.170000000000073</ele>
        <time>2014-11-15T10:53:04Z</time>
      </trkpt>
      <trkpt lat="47.732017133384943" lon="11.808770941570401">
        <ele>1202.049999999999955</ele>
        <time>2014-11-15T10:53:10Z</time>
      </trkpt>
      <trkpt lat="47.732019061222672" lon="11.808848641812801">
        <ele>1202.869999999999891</ele>
        <time>2014-11-15T10:53:23Z</time>
      </trkpt>
      <trkpt lat="47.73201696574688" lon="11.808864148333669">
        <ele>1202.819999999999936</ele>
        <time>2014-11-15T10:53:24Z</time>
      </trkpt>
      <trkpt lat="47.732013948261738" lon="11.808880576863885">
        <ele>1203.1400000000001</ele>
        <time>2014-11-15T10:53:25Z</time>
      </trkpt>
      <trkpt lat="47.73201260715723" lon="11.808896921575069">
        <ele>1203.200000000000045</ele>
        <time>2014-11-15T10:53:26Z</time>
      </trkpt>
      <trkpt lat="47.732011014595628" lon="11.808912511914968">
        <ele>1203.549999999999955</ele>
        <time>2014-11-15T10:53:27Z</time>
      </trkpt>
      <trkpt lat="47.731997771188617" lon="11.809171931818128">
        <ele>1206.720000000000027</ele>
        <time>2014-11-15T10:53:43Z</time>
      </trkpt>
      <trkpt lat="47.731983857229352" lon="11.809420371428132">
        <ele>1209.940000000000055</ele>
        <time>2014-11-15T10:53:58Z</time>
      </trkpt>
      <trkpt lat="47.731957202777267" lon="11.809668811038136">
        <ele>1210.950000000000045</ele>
        <time>2014-11-15T10:54:16Z</time>
      </trkpt>
      <trkpt lat="47.731956951320171" lon="11.809696974232793">
        <ele>1211.710000000000036</ele>
        <time>2014-11-15T10:54:18Z</time>
      </trkpt>
      <trkpt lat="47.731956196948886" lon="11.809715079143643">
        <ele>1211.740000000000009</ele>
        <time>2014-11-15T10:54:19Z</time>
      </trkpt>
      <trkpt lat="47.731955861672759" lon="11.809735363349319">
        <ele>1212.269999999999982</ele>
        <time>2014-11-15T10:54:20Z</time>
      </trkpt>
      <trkpt lat="47.731906743720174" lon="11.810169545933604">
        <ele>1214.759999999999991</ele>
        <time>2014-11-15T10:54:40Z</time>
      </trkpt>
      <trkpt lat="47.731833234429359" lon="11.810588724911213">
        <ele>1217.119999999999891</ele>
        <time>2014-11-15T10:55:00Z</time>
      </trkpt>
      <trkpt lat="47.731803730130196" lon="11.810651086270809">
        <ele>1217.450000000000045</ele>
        <time>2014-11-15T10:55:15Z</time>
      </trkpt>
      <trkpt lat="47.731784619390965" lon="11.810627114027739">
        <ele>1217.759999999999991</ele>
        <time>2014-11-15T10:55:35Z</time>
      </trkpt>
      <trkpt lat="47.731769867241383" lon="11.810578750446439">
        <ele>1217.430000000000064</ele>
        <time>2014-11-15T10:55:38Z</time>
      </trkpt>
      <trkpt lat="47.731762323528528" lon="11.810561316087842">
        <ele>1217.509999999999991</ele>
        <time>2014-11-15T10:55:39Z</time>
      </trkpt>
      <trkpt lat="47.731753690168262" lon="11.810541115701199">
        <ele>1217.339999999999918</ele>
        <time>2014-11-15T10:55:40Z</time>
      </trkpt>
      <trkpt lat="47.731743883341551" lon="11.810520580038428">
        <ele>1217.740000000000009</ele>
        <time>2014-11-15T10:55:41Z</time>
      </trkpt>
      <trkpt lat="47.731732567772269" lon="11.810504402965307">
        <ele>1217.400000000000091</ele>
        <time>2014-11-15T10:55:42Z</time>
      </trkpt>
      <trkpt lat="47.731721503660083" lon="11.81048939935863">
        <ele>1218.160000000000082</ele>
        <time>2014-11-15T10:55:43Z</time>
      </trkpt>
      <trkpt lat="47.731711780652404" lon="11.810472551733255">
        <ele>1217.880000000000109</ele>
        <time>2014-11-15T10:55:44Z</time>
      </trkpt>
      <trkpt lat="47.731702895835042" lon="11.810454782098532">
        <ele>1218.589999999999918</ele>
        <time>2014-11-15T10:55:45Z</time>
      </trkpt>
      <trkpt lat="47.731695519760251" lon="11.810435922816396">
        <ele>1218.210000000000036</ele>
        <time>2014-11-15T10:55:46Z</time>
      </trkpt>
      <trkpt lat="47.731688562780619" lon="11.810414716601372">
        <ele>1219.150000000000091</ele>
        <time>2014-11-15T10:55:47Z</time>
      </trkpt>
      <trkpt lat="47.731681438162923" lon="11.810393258929253">
        <ele>1219.259999999999991</ele>
        <time>2014-11-15T10:55:48Z</time>
      </trkpt>
      <trkpt lat="47.731660818681121" lon="11.809963854029775">
        <ele>1220.009999999999991</ele>
        <time>2014-11-15T10:56:04Z</time>
      </trkpt>
      <trkpt lat="47.731651850044727" lon="11.80946814827621">
        <ele>1221.130000000000109</ele>
        <time>2014-11-15T10:56:18Z</time>
      </trkpt>
      <trkpt lat="47.731556799262762" lon="11.809036061167717">
        <ele>1221.5</ele>
        <time>2014-11-15T10:56:30Z</time>
      </trkpt>
      <trkpt lat="47.731444481760263" lon="11.80861696600914">
        <ele>1221.869999999999891</ele>
        <time>2014-11-15T10:56:43Z</time>
      </trkpt>
      <trkpt lat="47.731345323845744" lon="11.808229135349393">
        <ele>1222.160000000000082</ele>
        <time>2014-11-15T10:56:54Z</time>
      </trkpt>
      <trkpt lat="47.73119855672121" lon="11.807784894481301">
        <ele>1222.619999999999891</ele>
        <time>2014-11-15T10:57:06Z</time>
      </trkpt>
      <trkpt lat="47.730962270870805" lon="11.807210734114051">
        <ele>1223.299999999999955</ele>
        <time>2014-11-15T10:57:19Z</time>
      </trkpt>
      <trkpt lat="47.730674352496862" lon="11.806696420535445">
        <ele>1223.980000000000018</ele>
        <time>2014-11-15T10:57:34Z</time>
      </trkpt>
      <trkpt lat="47.730477377772331" lon="11.806174060329795">
        <ele>1224.700000000000045</ele>
        <time>2014-11-15T10:57:48Z</time>
      </trkpt>
      <trkpt lat="47.730416273698211" lon="11.805788492783904">
        <ele>1224.329999999999927</ele>
        <time>2014-11-15T10:57:59Z</time>
      </trkpt>
      <trkpt lat="47.730415351688862" lon="11.805756138637662">
        <ele>1224.380000000000109</ele>
        <time>2014-11-15T10:58:00Z</time>
      </trkpt>
      <trkpt lat="47.730413423851132" lon="11.805729987099767">
        <ele>1224.799999999999955</ele>
        <time>2014-11-15T10:58:01Z</time>
      </trkpt>
      <trkpt lat="47.730402024462819" lon="11.805690843611956">
        <ele>1224.420000000000073</ele>
        <time>2014-11-15T10:58:02Z</time>
      </trkpt>
      <trkpt lat="47.730387942865491" lon="11.805647341534495">
        <ele>1224.599999999999909</ele>
        <time>2014-11-15T10:58:03Z</time>
      </trkpt>
      <trkpt lat="47.73006591014564" lon="11.80505390278995">
        <ele>1225.190000000000055</ele>
        <time>2014-11-15T10:58:18Z</time>
      </trkpt>
      <trkpt lat="47.729798527434468" lon="11.804619552567601">
        <ele>1225.25</ele>
        <time>2014-11-15T10:58:31Z</time>
      </trkpt>
      <trkpt lat="47.729602642357349" lon="11.804144382476807">
        <ele>1226.099999999999909</ele>
        <time>2014-11-15T10:58:44Z</time>
      </trkpt>
      <trkpt lat="47.729444392025471" lon="11.803702656179667">
        <ele>1226.960000000000036</ele>
        <time>2014-11-15T10:58:55Z</time>
      </trkpt>
      <trkpt lat="47.729196036234498" lon="11.803179793059826">
        <ele>1227.210000000000036</ele>
        <time>2014-11-15T10:59:09Z</time>
      </trkpt>
      <trkpt lat="47.728964276611805" lon="11.802755333483219">
        <ele>1227.670000000000073</ele>
        <time>2014-11-15T10:59:21Z</time>
      </trkpt>
      <trkpt lat="47.728625144809484" lon="11.802361300215125">
        <ele>1228.730000000000018</ele>
        <time>2014-11-15T10:59:35Z</time>
      </trkpt>
      <trkpt lat="47.728291880339384" lon="11.802188716828823">
        <ele>1229.6400000000001</ele>
        <time>2014-11-15T10:59:47Z</time>
      </trkpt>
      <trkpt lat="47.728005303069949" lon="11.802076734602451">
        <ele>1229.829999999999927</ele>
        <time>2014-11-15T10:59:56Z</time>
      </trkpt>
      <trkpt lat="47.727620070800185" lon="11.801725113764405">
        <ele>1231.410000000000082</ele>
        <time>2014-11-15T11:00:11Z</time>
      </trkpt>
      <trkpt lat="47.727325363084674" lon="11.801515147089958">
        <ele>1232.309999999999945</ele>
        <time>2014-11-15T11:00:23Z</time>
      </trkpt>
      <trkpt lat="47.727132830768824" lon="11.801529144868255">
        <ele>1233.589999999999918</ele>
        <time>2014-11-15T11:00:31Z</time>
      </trkpt>
      <trkpt lat="47.727111289277673" lon="11.801535850390792">
        <ele>1233.619999999999891</ele>
        <time>2014-11-15T11:00:32Z</time>
      </trkpt>
      <trkpt lat="47.727086897939444" lon="11.80154993198812">
        <ele>1233.839999999999918</ele>
        <time>2014-11-15T11:00:33Z</time>
      </trkpt>
      <trkpt lat="47.727073905989528" lon="11.801570300012827">
        <ele>1233.880000000000109</ele>
        <time>2014-11-15T11:00:34Z</time>
      </trkpt>
      <trkpt lat="47.72706133313477" lon="11.801588991656899">
        <ele>1234.1099999999999</ele>
        <time>2014-11-15T11:00:35Z</time>
      </trkpt>
      <trkpt lat="47.726796381175518" lon="11.801830306649208">
        <ele>1237.1099999999999</ele>
        <time>2014-11-15T11:00:51Z</time>
      </trkpt>
      <trkpt lat="47.726541319862008" lon="11.802159883081913">
        <ele>1240.3599999999999</ele>
        <time>2014-11-15T11:01:10Z</time>
      </trkpt>
      <trkpt lat="47.726397234946489" lon="11.802333137020469">
        <ele>1241.3900000000001</ele>
        <time>2014-11-15T11:01:27Z</time>
      </trkpt>
      <trkpt lat="47.726420452818274" lon="11.802405724301934">
        <ele>1241.470000000000027</ele>
        <time>2014-11-15T11:01:40Z</time>
      </trkpt>
      <trkpt lat="47.726535620167851" lon="11.80250471457839">
        <ele>1242.680000000000064</ele>
        <time>2014-11-15T11:01:58Z</time>
      </trkpt>
      <trkpt lat="47.72651894018054" lon="11.802451573312283">
        <ele>1243.329999999999927</ele>
        <time>2014-11-15T11:02:10Z</time>
      </trkpt>
      <trkpt lat="47.726489268243313" lon="11.802436234429479">
        <ele>1242.839999999999918</ele>
        <time>2014-11-15T11:02:20Z</time>
      </trkpt>
      <trkpt lat="47.726476024836302" lon="11.802449058741331">
        <ele>1242.730000000000018</ele>
        <time>2014-11-15T11:02:33Z</time>
      </trkpt>
      <trkpt lat="47.726488346233964" lon="11.80245341733098">
        <ele>1242.6400000000001</ele>
        <time>2014-11-15T11:03:42Z</time>
      </trkpt>
      <trkpt lat="47.726491782814264" lon="11.802456937730312">
        <ele>1242.740000000000009</ele>
        <time>2014-11-15T11:04:32Z</time>
      </trkpt>
      <trkpt lat="47.726489435881376" lon="11.802461883053184">
        <ele>1242.160000000000082</ele>
        <time>2014-11-15T11:05:27Z</time>
      </trkpt>
      <trkpt lat="47.726494297385216" lon="11.802465906366706">
        <ele>1242.650000000000091</ele>
        <time>2014-11-15T11:06:28Z</time>
      </trkpt>
      <trkpt lat="47.726507456973195" lon="11.802471270784736">
        <ele>1242.150000000000091</ele>
        <time>2014-11-15T11:07:37Z</time>
      </trkpt>
      <trkpt lat="47.726490525528789" lon="11.802468169480562">
        <ele>1242.619999999999891</ele>
        <time>2014-11-15T11:08:42Z</time>
      </trkpt>
      <trkpt lat="47.726485077291727" lon="11.80246707983315">
        <ele>1242.420000000000073</ele>
        <time>2014-11-15T11:09:37Z</time>
      </trkpt>
      <trkpt lat="47.726474348455667" lon="11.802468840032816">
        <ele>1242.240000000000009</ele>
        <time>2014-11-15T11:10:07Z</time>
      </trkpt>
      <trkpt lat="47.72648080252111" lon="11.802467415109277">
        <ele>1242.400000000000091</ele>
        <time>2014-11-15T11:10:58Z</time>
      </trkpt>
      <trkpt lat="47.726476108655334" lon="11.80247051641345">
        <ele>1242.809999999999945</ele>
        <time>2014-11-15T11:11:41Z</time>
      </trkpt>
      <trkpt lat="47.726477365940809" lon="11.802467331290245">
        <ele>1242.369999999999891</ele>
        <time>2014-11-15T11:12:18Z</time>
      </trkpt>
      <trkpt lat="47.726481137797236" lon="11.802460961043835">
        <ele>1243.069999999999936</ele>
        <time>2014-11-15T11:12:59Z</time>
      </trkpt>
      <trkpt lat="47.726485328748822" lon="11.802467918023467">
        <ele>1242.930000000000064</ele>
        <time>2014-11-15T11:13:53Z</time>
      </trkpt>
      <trkpt lat="47.726476946845651" lon="11.80246808566153">
        <ele>1243.710000000000036</ele>
        <time>2014-11-15T11:14:32Z</time>
      </trkpt>
      <trkpt lat="47.726482227444649" lon="11.802455428987741">
        <ele>1244.5</ele>
        <time>2014-11-15T11:15:18Z</time>
      </trkpt>
      <trkpt lat="47.726471330970526" lon="11.802449142560363">
        <ele>1243.910000000000082</ele>
        <time>2014-11-15T11:16:10Z</time>
      </trkpt>
      <trkpt lat="47.72645297460258" lon="11.802444783970714">
        <ele>1243.799999999999955</ele>
        <time>2014-11-15T11:16:57Z</time>
      </trkpt>
      <trkpt lat="47.726464457809925" lon="11.802447633817792">
        <ele>1244.1099999999999</ele>
        <time>2014-11-15T11:17:36Z</time>
      </trkpt>
      <trkpt lat="47.726435204967856" lon="11.802421817556024">
        <ele>1244.3900000000001</ele>
        <time>2014-11-15T11:17:56Z</time>
      </trkpt>
      <trkpt lat="47.726455321535468" lon="11.802460206672549">
        <ele>1243.869999999999891</ele>
        <time>2014-11-15T11:18:22Z</time>
      </trkpt>
      <trkpt lat="47.726452387869358" lon="11.802448220551014">
        <ele>1244.430000000000064</ele>
        <time>2014-11-15T11:18:44Z</time>
      </trkpt>
      <trkpt lat="47.726510893553495" lon="11.802475042641163">
        <ele>1245.049999999999955</ele>
        <time>2014-11-15T11:18:58Z</time>
      </trkpt>
      <trkpt lat="47.726494967937469" lon="11.802492812275887">
        <ele>1244.230000000000018</ele>
        <time>2014-11-15T11:19:11Z</time>
      </trkpt>
      <trkpt lat="47.726408885791898" lon="11.802457273006439">
        <ele>1243.650000000000091</ele>
        <time>2014-11-15T11:19:18Z</time>
      </trkpt>
      <trkpt lat="47.726279385387897" lon="11.80234738625586">
        <ele>1242.309999999999945</ele>
        <time>2014-11-15T11:19:22Z</time>
      </trkpt>
      <trkpt lat="47.726239571347833" lon="11.802333556115627">
        <ele>1241.789999999999964</ele>
        <time>2014-11-15T11:19:23Z</time>
      </trkpt>
      <trkpt lat="47.726200511679053" lon="11.802327185869217">
        <ele>1241.309999999999945</ele>
        <time>2014-11-15T11:19:24Z</time>
      </trkpt>
      <trkpt lat="47.726073274388909" lon="11.802305979654193">
        <ele>1243.299999999999955</ele>
        <time>2014-11-15T11:19:28Z</time>
      </trkpt>
      <trkpt lat="47.726026754826307" lon="11.802285108715296">
        <ele>1242.369999999999891</ele>
        <time>2014-11-15T11:19:30Z</time>
      </trkpt>
      <trkpt lat="47.725767502561212" lon="11.802186369895935">
        <ele>1245.130000000000109</ele>
        <time>2014-11-15T11:19:44Z</time>
      </trkpt>
      <trkpt lat="47.725516380742192" lon="11.801952179521322">
        <ele>1245.650000000000091</ele>
        <time>2014-11-15T11:19:58Z</time>
      </trkpt>
      <trkpt lat="47.725351257249713" lon="11.801587985828519">
        <ele>1248.039999999999964</ele>
        <time>2014-11-15T11:20:14Z</time>
      </trkpt>
      <trkpt lat="47.725344384089112" lon="11.80124843493104">
        <ele>1249.420000000000073</ele>
        <time>2014-11-15T11:20:27Z</time>
      </trkpt>
      <trkpt lat="47.72534622810781" lon="11.800906369462609">
        <ele>1250.75</ele>
        <time>2014-11-15T11:20:43Z</time>
      </trkpt>
      <trkpt lat="47.725362572818995" lon="11.800575451925397">
        <ele>1251.329999999999927</ele>
        <time>2014-11-15T11:20:59Z</time>
      </trkpt>
      <trkpt lat="47.725362656638026" lon="11.800556173548102">
        <ele>1251.920000000000073</ele>
        <time>2014-11-15T11:21:00Z</time>
      </trkpt>
      <trkpt lat="47.725322172045708" lon="11.800243444740772">
        <ele>1255.069999999999936</ele>
        <time>2014-11-15T11:21:15Z</time>
      </trkpt>
      <trkpt lat="47.725229049101472" lon="11.799994334578514">
        <ele>1256.990000000000009</ele>
        <time>2014-11-15T11:21:29Z</time>
      </trkpt>
      <trkpt lat="47.725183451548219" lon="11.799712534993887">
        <ele>1257.690000000000055</ele>
        <time>2014-11-15T11:21:41Z</time>
      </trkpt>
      <trkpt lat="47.725187223404646" lon="11.799646988511086">
        <ele>1258.930000000000064</ele>
        <time>2014-11-15T11:21:44Z</time>
      </trkpt>
      <trkpt lat="47.725144391879439" lon="11.799339707940817">
        <ele>1262.039999999999964</ele>
        <time>2014-11-15T11:21:58Z</time>
      </trkpt>
      <trkpt lat="47.725103739649057" lon="11.799064362421632">
        <ele>1262.440000000000055</ele>
        <time>2014-11-15T11:22:11Z</time>
      </trkpt>
      <trkpt lat="47.725055459886789" lon="11.798730930313468">
        <ele>1264.910000000000082</ele>
        <time>2014-11-15T11:22:27Z</time>
      </trkpt>
      <trkpt lat="47.724998379126191" lon="11.798347122967243">
        <ele>1267.660000000000082</ele>
        <time>2014-11-15T11:22:45Z</time>
      </trkpt>
      <trkpt lat="47.724947920069098" lon="11.798015953972936">
        <ele>1269.339999999999918</ele>
        <time>2014-11-15T11:23:00Z</time>
      </trkpt>
      <trkpt lat="47.724948422983289" lon="11.797712864354253">
        <ele>1270.369999999999891</ele>
        <time>2014-11-15T11:23:14Z</time>
      </trkpt>
      <trkpt lat="47.724900143221021" lon="11.79735898040235">
        <ele>1272.240000000000009</ele>
        <time>2014-11-15T11:23:30Z</time>
      </trkpt>
      <trkpt lat="47.724869046360254" lon="11.796999564394355">
        <ele>1275.160000000000082</ele>
        <time>2014-11-15T11:23:45Z</time>
      </trkpt>
      <trkpt lat="47.724835937842727" lon="11.796668227761984">
        <ele>1277.579999999999927</ele>
        <time>2014-11-15T11:24:01Z</time>
      </trkpt>
      <trkpt lat="47.724804505705833" lon="11.79646329022944">
        <ele>1278.349999999999909</ele>
        <time>2014-11-15T11:24:13Z</time>
      </trkpt>
      <trkpt lat="47.724805260077119" lon="11.796444514766335">
        <ele>1278.059999999999945</ele>
        <time>2014-11-15T11:24:14Z</time>
      </trkpt>
      <trkpt lat="47.724805930629373" lon="11.796423308551311">
        <ele>1278.460000000000036</ele>
        <time>2014-11-15T11:24:15Z</time>
      </trkpt>
      <trkpt lat="47.724805176258087" lon="11.796401347965002">
        <ele>1278.289999999999964</ele>
        <time>2014-11-15T11:24:16Z</time>
      </trkpt>
      <trkpt lat="47.724802745506167" lon="11.796377459540963">
        <ele>1277.529999999999973</ele>
        <time>2014-11-15T11:24:17Z</time>
      </trkpt>
      <trkpt lat="47.72480433806777" lon="11.796306129544973">
        <ele>1277.940000000000055</ele>
        <time>2014-11-15T11:24:20Z</time>
      </trkpt>
      <trkpt lat="47.724807690829039" lon="11.79628106765449">
        <ele>1277.650000000000091</ele>
        <time>2014-11-15T11:24:21Z</time>
      </trkpt>
      <trkpt lat="47.724791681393981" lon="11.795944534242153">
        <ele>1278.309999999999945</ele>
        <time>2014-11-15T11:24:33Z</time>
      </trkpt>
      <trkpt lat="47.724813390523195" lon="11.795723419636488">
        <ele>1276.710000000000036</ele>
        <time>2014-11-15T11:24:39Z</time>
      </trkpt>
      <trkpt lat="47.724851528182626" lon="11.795243807137012">
        <ele>1279.690000000000055</ele>
        <time>2014-11-15T11:24:53Z</time>
      </trkpt>
      <trkpt lat="47.724872566759586" lon="11.795128053054214">
        <ele>1280.950000000000045</ele>
        <time>2014-11-15T11:24:56Z</time>
      </trkpt>
      <trkpt lat="47.724914811551571" lon="11.794639974832535">
        <ele>1280.8900000000001</ele>
        <time>2014-11-15T11:25:10Z</time>
      </trkpt>
      <trkpt lat="47.724911626428366" lon="11.794393211603165">
        <ele>1281.119999999999891</ele>
        <time>2014-11-15T11:25:22Z</time>
      </trkpt>
      <trkpt lat="47.724898299202323" lon="11.794357504695654">
        <ele>1280.509999999999991</ele>
        <time>2014-11-15T11:25:24Z</time>
      </trkpt>
      <trkpt lat="47.72477651014924" lon="11.794387428089976">
        <ele>1282.920000000000073</ele>
        <time>2014-11-15T11:25:43Z</time>
      </trkpt>
      <trkpt lat="47.724679866805673" lon="11.79442573338747">
        <ele>1284.369999999999891</ele>
        <time>2014-11-15T11:25:59Z</time>
      </trkpt>
      <trkpt lat="47.724592862650752" lon="11.794492704793811">
        <ele>1287.509999999999991</ele>
        <time>2014-11-15T11:26:14Z</time>
      </trkpt>
      <trkpt lat="47.724492363631725" lon="11.794608710333705">
        <ele>1290.8599999999999</ele>
        <time>2014-11-15T11:26:34Z</time>
      </trkpt>
      <trkpt lat="47.724428661167622" lon="11.794667886570096">
        <ele>1293.869999999999891</ele>
        <time>2014-11-15T11:26:49Z</time>
      </trkpt>
      <trkpt lat="47.724376358091831" lon="11.794732427224517">
        <ele>1297.059999999999945</ele>
        <time>2014-11-15T11:27:03Z</time>
      </trkpt>
      <trkpt lat="47.724371496587992" lon="11.794832842424512">
        <ele>1298.700000000000045</ele>
        <time>2014-11-15T11:27:22Z</time>
      </trkpt>
      <trkpt lat="47.724305279552937" lon="11.79493342526257">
        <ele>1302.200000000000045</ele>
        <time>2014-11-15T11:27:40Z</time>
      </trkpt>
      <trkpt lat="47.724306369200349" lon="11.794988745823503">
        <ele>1303.180000000000064</ele>
        <time>2014-11-15T11:27:57Z</time>
      </trkpt>
      <trkpt lat="47.724270075559616" lon="11.795079689472914">
        <ele>1305.509999999999991</ele>
        <time>2014-11-15T11:28:13Z</time>
      </trkpt>
      <trkpt lat="47.724278206005692" lon="11.795241544023156">
        <ele>1307.430000000000064</ele>
        <time>2014-11-15T11:28:38Z</time>
      </trkpt>
      <trkpt lat="47.724230848252773" lon="11.795361069962382">
        <ele>1310.720000000000027</ele>
        <time>2014-11-15T11:28:59Z</time>
      </trkpt>
      <trkpt lat="47.724185083061457" lon="11.795486630871892">
        <ele>1312.759999999999991</ele>
        <time>2014-11-15T11:29:20Z</time>
      </trkpt>
      <trkpt lat="47.724143005907536" lon="11.7955984454602">
        <ele>1314.980000000000018</ele>
        <time>2014-11-15T11:29:41Z</time>
      </trkpt>
      <trkpt lat="47.724140910431743" lon="11.795693831518292">
        <ele>1318.210000000000036</ele>
        <time>2014-11-15T11:30:00Z</time>
      </trkpt>
      <trkpt lat="47.724088272079825" lon="11.795813106000423">
        <ele>1320.730000000000018</ele>
        <time>2014-11-15T11:30:20Z</time>
      </trkpt>
      <trkpt lat="47.724040914326906" lon="11.795983845368028">
        <ele>1323.880000000000109</ele>
        <time>2014-11-15T11:30:41Z</time>
      </trkpt>
      <trkpt lat="47.724009230732918" lon="11.796203115954995">
        <ele>1325.230000000000018</ele>
        <time>2014-11-15T11:31:02Z</time>
      </trkpt>
      <trkpt lat="47.723965728655457" lon="11.796330939978361">
        <ele>1327.440000000000055</ele>
        <time>2014-11-15T11:31:21Z</time>
      </trkpt>
      <trkpt lat="47.72391208447516" lon="11.796471336856484">
        <ele>1329.869999999999891</ele>
        <time>2014-11-15T11:31:38Z</time>
      </trkpt>
      <trkpt lat="47.723870594054461" lon="11.796576110646129">
        <ele>1330.400000000000091</ele>
        <time>2014-11-15T11:31:54Z</time>
      </trkpt>
      <trkpt lat="47.723869420588017" lon="11.796613996848464">
        <ele>1330.190000000000055</ele>
        <time>2014-11-15T11:32:04Z</time>
      </trkpt>
      <trkpt lat="47.723862379789352" lon="11.796944243833423">
        <ele>1329.009999999999991</ele>
        <time>2014-11-15T11:32:15Z</time>
      </trkpt>
      <trkpt lat="47.723841173574328" lon="11.797331487759948">
        <ele>1328.730000000000018</ele>
        <time>2014-11-15T11:32:26Z</time>
      </trkpt>
      <trkpt lat="47.723776465281844" lon="11.797749157994986">
        <ele>1330.1099999999999</ele>
        <time>2014-11-15T11:32:38Z</time>
      </trkpt>
      <trkpt lat="47.723720725625753" lon="11.798162385821342">
        <ele>1330.400000000000091</ele>
        <time>2014-11-15T11:32:50Z</time>
      </trkpt>
      <trkpt lat="47.72372399456799" lon="11.798194320872426">
        <ele>1330.710000000000036</ele>
        <time>2014-11-15T11:32:51Z</time>
      </trkpt>
      <trkpt lat="47.723730532452464" lon="11.79822776466608">
        <ele>1330.950000000000045</ele>
        <time>2014-11-15T11:32:52Z</time>
      </trkpt>
      <trkpt lat="47.723731705918908" lon="11.798265902325511">
        <ele>1330.690000000000055</ele>
        <time>2014-11-15T11:32:53Z</time>
      </trkpt>
      <trkpt lat="47.723725838586688" lon="11.798300268128514">
        <ele>1330.25</ele>
        <time>2014-11-15T11:32:54Z</time>
      </trkpt>
      <trkpt lat="47.723717205226421" lon="11.798321893438697">
        <ele>1330.5</ele>
        <time>2014-11-15T11:32:55Z</time>
      </trkpt>
      <trkpt lat="47.723709242418408" lon="11.798303201794624">
        <ele>1330.849999999999909</ele>
        <time>2014-11-15T11:33:06Z</time>
      </trkpt>
      <trkpt lat="47.723713014274836" lon="11.798287108540535">
        <ele>1329.650000000000091</ele>
        <time>2014-11-15T11:33:31Z</time>
      </trkpt>
      <trkpt lat="47.723685102537274" lon="11.798228435218334">
        <ele>1329.829999999999927</ele>
        <time>2014-11-15T11:34:23Z</time>
      </trkpt>
      <trkpt lat="47.723675966262817" lon="11.798214269801974">
        <ele>1330.309999999999945</ele>
        <time>2014-11-15T11:35:40Z</time>
      </trkpt>
      <trkpt lat="47.723675463348627" lon="11.798224160447717">
        <ele>1330.630000000000109</ele>
        <time>2014-11-15T11:36:28Z</time>
      </trkpt>
      <trkpt lat="47.723679738119245" lon="11.798251233994961">
        <ele>1331.319999999999936</ele>
        <time>2014-11-15T11:36:43Z</time>
      </trkpt>
      <trkpt lat="47.72369222715497" lon="11.798285851255059">
        <ele>1331.210000000000036</ele>
        <time>2014-11-15T11:36:47Z</time>
      </trkpt>
      <trkpt lat="47.723692310974002" lon="11.798333460465074">
        <ele>1331.559999999999945</ele>
        <time>2014-11-15T11:36:51Z</time>
      </trkpt>
      <trkpt lat="47.723691305145621" lon="11.798363300040364">
        <ele>1331.269999999999982</ele>
        <time>2014-11-15T11:37:09Z</time>
      </trkpt>
      <trkpt lat="47.723692981526256" lon="11.798380063846707">
        <ele>1330.910000000000082</ele>
        <time>2014-11-15T11:37:22Z</time>
      </trkpt>
      <trkpt lat="47.723687952384353" lon="11.798352068290114">
        <ele>1331.329999999999927</ele>
        <time>2014-11-15T11:37:24Z</time>
      </trkpt>
      <trkpt lat="47.723687114194036" lon="11.79833622649312">
        <ele>1332.019999999999982</ele>
        <time>2014-11-15T11:37:25Z</time>
      </trkpt>
      <trkpt lat="47.72368686273694" lon="11.798318540677428">
        <ele>1332.099999999999909</ele>
        <time>2014-11-15T11:37:26Z</time>
      </trkpt>
      <trkpt lat="47.723691640421748" lon="11.798246372491121">
        <ele>1331.539999999999964</ele>
        <time>2014-11-15T11:37:43Z</time>
      </trkpt>
      <trkpt lat="47.723701698705554" lon="11.798280235379934">
        <ele>1330.519999999999982</ele>
        <time>2014-11-15T11:37:58Z</time>
      </trkpt>
      <trkpt lat="47.723699100315571" lon="11.79831082932651">
        <ele>1330.670000000000073</ele>
        <time>2014-11-15T11:37:59Z</time>
      </trkpt>
      <trkpt lat="47.723690886050463" lon="11.798341339454055">
        <ele>1330.470000000000027</ele>
        <time>2014-11-15T11:38:00Z</time>
      </trkpt>
      <trkpt lat="47.72367998957634" lon="11.798367323353887">
        <ele>1330.809999999999945</ele>
        <time>2014-11-15T11:38:01Z</time>
      </trkpt>
      <trkpt lat="47.723667584359646" lon="11.798391295596957">
        <ele>1330.819999999999936</ele>
        <time>2014-11-15T11:38:02Z</time>
      </trkpt>
      <trkpt lat="47.723656520247459" lon="11.798412417992949">
        <ele>1331.059999999999945</ele>
        <time>2014-11-15T11:38:03Z</time>
      </trkpt>
      <trkpt lat="47.723647216334939" lon="11.798433875665069">
        <ele>1331.339999999999918</ele>
        <time>2014-11-15T11:38:04Z</time>
      </trkpt>
      <trkpt lat="47.723638163879514" lon="11.798459775745869">
        <ele>1331.3900000000001</ele>
        <time>2014-11-15T11:38:05Z</time>
      </trkpt>
      <trkpt lat="47.723513692617416" lon="11.798826735466719">
        <ele>1329.789999999999964</ele>
        <time>2014-11-15T11:38:18Z</time>
      </trkpt>
      <trkpt lat="47.723370110616088" lon="11.799455378204584">
        <ele>1328.380000000000109</ele>
        <time>2014-11-15T11:38:35Z</time>
      </trkpt>
      <trkpt lat="47.723245974630117" lon="11.799882771447301">
        <ele>1328.599999999999909</ele>
        <time>2014-11-15T11:38:49Z</time>
      </trkpt>
      <trkpt lat="47.723034331575036" lon="11.800327347591519">
        <ele>1325.789999999999964</ele>
        <time>2014-11-15T11:38:58Z</time>
      </trkpt>
      <trkpt lat="47.723005833104253" lon="11.800380321219563">
        <ele>1325.440000000000055</ele>
        <time>2014-11-15T11:38:59Z</time>
      </trkpt>
      <trkpt lat="47.722981525585055" lon="11.800436731427908">
        <ele>1324.839999999999918</ele>
        <time>2014-11-15T11:39:00Z</time>
      </trkpt>
      <trkpt lat="47.722888654097915" lon="11.800703024491668">
        <ele>1321.829999999999927</ele>
        <time>2014-11-15T11:39:06Z</time>
      </trkpt>
      <trkpt lat="47.722875075414777" lon="11.800726242363453">
        <ele>1321.559999999999945</ele>
        <time>2014-11-15T11:39:07Z</time>
      </trkpt>
      <trkpt lat="47.72266611456871" lon="11.800926066935062">
        <ele>1320.049999999999955</ele>
        <time>2014-11-15T11:39:20Z</time>
      </trkpt>
      <trkpt lat="47.72264608182013" lon="11.80095381103456">
        <ele>1319.809999999999945</ele>
        <time>2014-11-15T11:39:26Z</time>
      </trkpt>
      <trkpt lat="47.722598975524306" lon="11.801006784662604">
        <ele>1319.119999999999891</ele>
        <time>2014-11-15T11:39:29Z</time>
      </trkpt>
      <trkpt lat="47.722581289708614" lon="11.801026398316026">
        <ele>1318.869999999999891</ele>
        <time>2014-11-15T11:39:30Z</time>
      </trkpt>
      <trkpt lat="47.722546756267548" lon="11.801068978384137">
        <ele>1318.670000000000073</ele>
        <time>2014-11-15T11:39:35Z</time>
      </trkpt>
      <trkpt lat="47.722496883943677" lon="11.801098482683301">
        <ele>1317.769999999999982</ele>
        <time>2014-11-15T11:39:38Z</time>
      </trkpt>
      <trkpt lat="47.722479784861207" lon="11.801109714433551">
        <ele>1317.400000000000091</ele>
        <time>2014-11-15T11:39:39Z</time>
      </trkpt>
      <trkpt lat="47.722464026883245" lon="11.801126478239894">
        <ele>1317.039999999999964</ele>
        <time>2014-11-15T11:39:40Z</time>
      </trkpt>
      <trkpt lat="47.722449526190758" lon="11.801148522645235">
        <ele>1317.150000000000091</ele>
        <time>2014-11-15T11:39:41Z</time>
      </trkpt>
      <trkpt lat="47.722432008013129" lon="11.801174422726035">
        <ele>1316.670000000000073</ele>
        <time>2014-11-15T11:39:42Z</time>
      </trkpt>
      <trkpt lat="47.722412561997771" lon="11.801196718588471">
        <ele>1316.029999999999973</ele>
        <time>2014-11-15T11:39:43Z</time>
      </trkpt>
      <trkpt lat="47.722397809848189" lon="11.801215661689639">
        <ele>1315.599999999999909</ele>
        <time>2014-11-15T11:39:44Z</time>
      </trkpt>
      <trkpt lat="47.722392110154033" lon="11.801241310313344">
        <ele>1315.680000000000064</ele>
        <time>2014-11-15T11:39:45Z</time>
      </trkpt>
      <trkpt lat="47.722365371882915" lon="11.801394615322351">
        <ele>1313.529999999999973</ele>
        <time>2014-11-15T11:39:50Z</time>
      </trkpt>
      <trkpt lat="47.722339555621147" lon="11.801408445462584">
        <ele>1313.369999999999891</ele>
        <time>2014-11-15T11:39:51Z</time>
      </trkpt>
      <trkpt lat="47.72226688452065" lon="11.801443481817842">
        <ele>1312.680000000000064</ele>
        <time>2014-11-15T11:39:54Z</time>
      </trkpt>
      <trkpt lat="47.722252802923322" lon="11.801467537879944">
        <ele>1312.119999999999891</ele>
        <time>2014-11-15T11:39:55Z</time>
      </trkpt>
      <trkpt lat="47.722227824851871" lon="11.801524702459574">
        <ele>1310.900000000000091</ele>
        <time>2014-11-15T11:39:57Z</time>
      </trkpt>
      <trkpt lat="47.722210306674242" lon="11.801532497629523">
        <ele>1311.119999999999891</ele>
        <time>2014-11-15T11:39:58Z</time>
      </trkpt>
      <trkpt lat="47.722111400216818" lon="11.801490923389792">
        <ele>1311.130000000000109</ele>
        <time>2014-11-15T11:40:03Z</time>
      </trkpt>
      <trkpt lat="47.722089104354382" lon="11.801505507901311">
        <ele>1310.170000000000073</ele>
        <time>2014-11-15T11:40:04Z</time>
      </trkpt>
      <trkpt lat="47.722069825977087" lon="11.801526127383113">
        <ele>1309.910000000000082</ele>
        <time>2014-11-15T11:40:05Z</time>
      </trkpt>
      <trkpt lat="47.722053565084934" lon="11.801554709672928">
        <ele>1309.619999999999891</ele>
        <time>2014-11-15T11:40:06Z</time>
      </trkpt>
      <trkpt lat="47.722039148211479" lon="11.801582956686616">
        <ele>1309.819999999999936</ele>
        <time>2014-11-15T11:40:07Z</time>
      </trkpt>
      <trkpt lat="47.722023138776422" lon="11.801601983606815">
        <ele>1310.230000000000018</ele>
        <time>2014-11-15T11:40:08Z</time>
      </trkpt>
      <trkpt lat="47.722004447132349" lon="11.801616819575429">
        <ele>1309.769999999999982</ele>
        <time>2014-11-15T11:40:09Z</time>
      </trkpt>
      <trkpt lat="47.721868325024843" lon="11.801869366317987">
        <ele>1309.920000000000073</ele>
        <time>2014-11-15T11:40:18Z</time>
      </trkpt>
      <trkpt lat="47.721716528758407" lon="11.802153512835503">
        <ele>1308.539999999999964</ele>
        <time>2014-11-15T11:40:29Z</time>
      </trkpt>
      <trkpt lat="47.721612090244889" lon="11.802266417071223">
        <ele>1307.829999999999927</ele>
        <time>2014-11-15T11:40:36Z</time>
      </trkpt>
      <trkpt lat="47.721586022526026" lon="11.80228334851563">
        <ele>1307.8900000000001</ele>
        <time>2014-11-15T11:40:40Z</time>
      </trkpt>
      <trkpt lat="47.721558194607496" lon="11.80229751393199">
        <ele>1307.339999999999918</ele>
        <time>2014-11-15T11:40:42Z</time>
      </trkpt>
      <trkpt lat="47.721543693915009" lon="11.802310505881906">
        <ele>1307.1099999999999</ele>
        <time>2014-11-15T11:40:43Z</time>
      </trkpt>
      <trkpt lat="47.72153246216476" lon="11.802331041544676">
        <ele>1306.660000000000082</ele>
        <time>2014-11-15T11:40:44Z</time>
      </trkpt>
      <trkpt lat="47.721523325890303" lon="11.802356857806444">
        <ele>1306.680000000000064</ele>
        <time>2014-11-15T11:40:45Z</time>
      </trkpt>
      <trkpt lat="47.721515530720353" lon="11.802382590249181">
        <ele>1306.880000000000109</ele>
        <time>2014-11-15T11:40:46Z</time>
      </trkpt>
      <trkpt lat="47.72143573500216" lon="11.802750052884221">
        <ele>1305.569999999999936</ele>
        <time>2014-11-15T11:41:00Z</time>
      </trkpt>
      <trkpt lat="47.721406482160091" lon="11.802916266024113">
        <ele>1303.519999999999982</ele>
        <time>2014-11-15T11:41:04Z</time>
      </trkpt>
      <trkpt lat="47.721333308145404" lon="11.803109971806407">
        <ele>1300.430000000000064</ele>
        <time>2014-11-15T11:41:10Z</time>
      </trkpt>
      <trkpt lat="47.721319478005171" lon="11.803225222975016">
        <ele>1299.400000000000091</ele>
        <time>2014-11-15T11:41:13Z</time>
      </trkpt>
      <trkpt lat="47.721304390579462" lon="11.803248524665833">
        <ele>1299.400000000000091</ele>
        <time>2014-11-15T11:41:14Z</time>
      </trkpt>
      <trkpt lat="47.721288716420531" lon="11.803266210481524">
        <ele>1298.789999999999964</ele>
        <time>2014-11-15T11:41:15Z</time>
      </trkpt>
      <trkpt lat="47.721273964270949" lon="11.803288422524929">
        <ele>1298.579999999999927</ele>
        <time>2014-11-15T11:41:16Z</time>
      </trkpt>
      <trkpt lat="47.721260469406843" lon="11.803316166624427">
        <ele>1298.769999999999982</ele>
        <time>2014-11-15T11:41:17Z</time>
      </trkpt>
      <trkpt lat="47.721248818561435" lon="11.803343072533607">
        <ele>1298.1400000000001</ele>
        <time>2014-11-15T11:41:18Z</time>
      </trkpt>
      <trkpt lat="47.721238508820534" lon="11.803370984271169">
        <ele>1297.920000000000073</ele>
        <time>2014-11-15T11:41:19Z</time>
      </trkpt>
      <trkpt lat="47.721227779984474" lon="11.80340233258903">
        <ele>1297.720000000000027</ele>
        <time>2014-11-15T11:41:20Z</time>
      </trkpt>
      <trkpt lat="47.721138512715697" lon="11.803769627586007">
        <ele>1294.220000000000027</ele>
        <time>2014-11-15T11:41:28Z</time>
      </trkpt>
      <trkpt lat="47.721125101670623" lon="11.803825702518225">
        <ele>1293.650000000000091</ele>
        <time>2014-11-15T11:41:29Z</time>
      </trkpt>
      <trkpt lat="47.721060728654265" lon="11.804028879851103">
        <ele>1291.029999999999973</ele>
        <time>2014-11-15T11:41:33Z</time>
      </trkpt>
      <trkpt lat="47.720983866602182" lon="11.804349655285478">
        <ele>1287.789999999999964</ele>
        <time>2014-11-15T11:41:40Z</time>
      </trkpt>
      <trkpt lat="47.720908261835575" lon="11.80460681207478">
        <ele>1284.730000000000018</ele>
        <time>2014-11-15T11:41:45Z</time>
      </trkpt>
      <trkpt lat="47.720871716737747" lon="11.804717537015676">
        <ele>1283.150000000000091</ele>
        <time>2014-11-15T11:41:47Z</time>
      </trkpt>
      <trkpt lat="47.720853863283992" lon="11.804777383804321">
        <ele>1282.3900000000001</ele>
        <time>2014-11-15T11:41:48Z</time>
      </trkpt>
      <trkpt lat="47.720832070335746" lon="11.804835218936205">
        <ele>1281.400000000000091</ele>
        <time>2014-11-15T11:41:49Z</time>
      </trkpt>
      <trkpt lat="47.72081128321588" lon="11.804888611659408">
        <ele>1280.490000000000009</ele>
        <time>2014-11-15T11:41:50Z</time>
      </trkpt>
      <trkpt lat="47.720799464732409" lon="11.804944518953562">
        <ele>1279.779999999999973</ele>
        <time>2014-11-15T11:41:51Z</time>
      </trkpt>
      <trkpt lat="47.720795944333076" lon="11.804999504238367">
        <ele>1279.380000000000109</ele>
        <time>2014-11-15T11:41:52Z</time>
      </trkpt>
      <trkpt lat="47.720794938504696" lon="11.805050382390618">
        <ele>1278.180000000000064</ele>
        <time>2014-11-15T11:41:53Z</time>
      </trkpt>
      <trkpt lat="47.720779934898019" lon="11.805124897509813">
        <ele>1276.940000000000055</ele>
        <time>2014-11-15T11:41:55Z</time>
      </trkpt>
      <trkpt lat="47.720764176920056" lon="11.805141242220998">
        <ele>1276.430000000000064</ele>
        <time>2014-11-15T11:41:56Z</time>
      </trkpt>
      <trkpt lat="47.720747580751777" lon="11.805151049047709">
        <ele>1276.559999999999945</ele>
        <time>2014-11-15T11:41:57Z</time>
      </trkpt>
      <trkpt lat="47.720669042319059" lon="11.805189186707139">
        <ele>1274.460000000000036</ele>
        <time>2014-11-15T11:42:02Z</time>
      </trkpt>
      <trkpt lat="47.720659570768476" lon="11.805207543075085">
        <ele>1273.799999999999955</ele>
        <time>2014-11-15T11:42:03Z</time>
      </trkpt>
      <trkpt lat="47.72065588273108" lon="11.805232269689441">
        <ele>1273.410000000000082</ele>
        <time>2014-11-15T11:42:04Z</time>
      </trkpt>
      <trkpt lat="47.720655212178826" lon="11.805265378206968">
        <ele>1272.900000000000091</ele>
        <time>2014-11-15T11:42:05Z</time>
      </trkpt>
      <trkpt lat="47.720651105046272" lon="11.805304354056716">
        <ele>1272.069999999999936</ele>
        <time>2014-11-15T11:42:06Z</time>
      </trkpt>
      <trkpt lat="47.720644902437925" lon="11.805341821163893">
        <ele>1271.289999999999964</ele>
        <time>2014-11-15T11:42:07Z</time>
      </trkpt>
      <trkpt lat="47.720625288784504" lon="11.805405523627996">
        <ele>1269.680000000000064</ele>
        <time>2014-11-15T11:42:09Z</time>
      </trkpt>
      <trkpt lat="47.720605842769146" lon="11.80542522110045">
        <ele>1268.799999999999955</ele>
        <time>2014-11-15T11:42:10Z</time>
      </trkpt>
      <trkpt lat="47.720582289621234" lon="11.805435698479414">
        <ele>1268.509999999999991</ele>
        <time>2014-11-15T11:42:11Z</time>
      </trkpt>
      <trkpt lat="47.720485897734761" lon="11.80546972900629">
        <ele>1266.210000000000036</ele>
        <time>2014-11-15T11:42:15Z</time>
      </trkpt>
      <trkpt lat="47.720469888299704" lon="11.805496383458376">
        <ele>1264.779999999999973</ele>
        <time>2014-11-15T11:42:16Z</time>
      </trkpt>
      <trkpt lat="47.720461254939437" lon="11.805526725947857">
        <ele>1263.779999999999973</ele>
        <time>2014-11-15T11:42:17Z</time>
      </trkpt>
      <trkpt lat="47.720456812530756" lon="11.805560002103448">
        <ele>1263.309999999999945</ele>
        <time>2014-11-15T11:42:18Z</time>
      </trkpt>
      <trkpt lat="47.720421273261309" lon="11.805694028735161">
        <ele>1259.900000000000091</ele>
        <time>2014-11-15T11:42:22Z</time>
      </trkpt>
      <trkpt lat="47.720399312674999" lon="11.805705428123474">
        <ele>1259.8599999999999</ele>
        <time>2014-11-15T11:42:23Z</time>
      </trkpt>
      <trkpt lat="47.720332005992532" lon="11.805668547749519">
        <ele>1258.009999999999991</ele>
        <time>2014-11-15T11:42:26Z</time>
      </trkpt>
      <trkpt lat="47.720309039577842" lon="11.805668380111456">
        <ele>1257.299999999999955</ele>
        <time>2014-11-15T11:42:27Z</time>
      </trkpt>
      <trkpt lat="47.720287246629596" lon="11.805679276585579">
        <ele>1257.1099999999999</ele>
        <time>2014-11-15T11:42:28Z</time>
      </trkpt>
      <trkpt lat="47.720271488651633" lon="11.805699393153191">
        <ele>1256.3599999999999</ele>
        <time>2014-11-15T11:42:29Z</time>
      </trkpt>
      <trkpt lat="47.720260424539447" lon="11.805727388709784">
        <ele>1255.660000000000082</ele>
        <time>2014-11-15T11:42:30Z</time>
      </trkpt>
      <trkpt lat="47.720252880826592" lon="11.805760497227311">
        <ele>1255.009999999999991</ele>
        <time>2014-11-15T11:42:31Z</time>
      </trkpt>
      <trkpt lat="47.720243576914072" lon="11.80579612031579">
        <ele>1253.700000000000045</ele>
        <time>2014-11-15T11:42:32Z</time>
      </trkpt>
      <trkpt lat="47.720230501145124" lon="11.805829899385571">
        <ele>1252.460000000000036</ele>
        <time>2014-11-15T11:42:33Z</time>
      </trkpt>
      <trkpt lat="47.720214491710067" lon="11.805855045095086">
        <ele>1251.529999999999973</ele>
        <time>2014-11-15T11:42:34Z</time>
      </trkpt>
      <trkpt lat="47.720197308808565" lon="11.805870970711112">
        <ele>1250.720000000000027</ele>
        <time>2014-11-15T11:42:35Z</time>
      </trkpt>
      <trkpt lat="47.720181467011571" lon="11.805879520252347">
        <ele>1249.849999999999909</ele>
        <time>2014-11-15T11:42:36Z</time>
      </trkpt>
      <trkpt lat="47.720149364322424" lon="11.805895613506436">
        <ele>1248.019999999999982</ele>
        <time>2014-11-15T11:42:38Z</time>
      </trkpt>
      <trkpt lat="47.720136372372508" lon="11.80589335039258">
        <ele>1247.789999999999964</ele>
        <time>2014-11-15T11:42:39Z</time>
      </trkpt>
      <trkpt lat="47.720104521140456" lon="11.805895529687405">
        <ele>1246.369999999999891</ele>
        <time>2014-11-15T11:42:42Z</time>
      </trkpt>
      <trkpt lat="47.720090858638287" lon="11.805906258523464">
        <ele>1246</ele>
        <time>2014-11-15T11:42:43Z</time>
      </trkpt>
      <trkpt lat="47.720077447593212" lon="11.805926626548171">
        <ele>1245</ele>
        <time>2014-11-15T11:42:44Z</time>
      </trkpt>
      <trkpt lat="47.720061941072345" lon="11.805946575477719">
        <ele>1244</ele>
        <time>2014-11-15T11:42:45Z</time>
      </trkpt>
      <trkpt lat="47.720047608017921" lon="11.805958310142159">
        <ele>1243.519999999999982</ele>
        <time>2014-11-15T11:42:46Z</time>
      </trkpt>
      <trkpt lat="47.720035957172513" lon="11.805965518578887">
        <ele>1242.5</ele>
        <time>2014-11-15T11:42:47Z</time>
      </trkpt>
      <trkpt lat="47.720017852261662" lon="11.805968703702092">
        <ele>1241.849999999999909</ele>
        <time>2014-11-15T11:42:49Z</time>
      </trkpt>
      <trkpt lat="47.719964291900396" lon="11.805988317355514">
        <ele>1238.8900000000001</ele>
        <time>2014-11-15T11:43:12Z</time>
      </trkpt>
      <trkpt lat="47.71992539986968" lon="11.806050762534142">
        <ele>1237.210000000000036</ele>
        <time>2014-11-15T11:43:19Z</time>
      </trkpt>
      <trkpt lat="47.719892710447311" lon="11.806120248511434">
        <ele>1235.980000000000018</ele>
        <time>2014-11-15T11:43:23Z</time>
      </trkpt>
      <trkpt lat="47.719821380451322" lon="11.806157547980547">
        <ele>1232.630000000000109</ele>
        <time>2014-11-15T11:43:32Z</time>
      </trkpt>
      <trkpt lat="47.719794306904078" lon="11.806160984560847">
        <ele>1232.269999999999982</ele>
        <time>2014-11-15T11:43:35Z</time>
      </trkpt>
      <trkpt lat="47.719780309125781" lon="11.806161487475038">
        <ele>1231.410000000000082</ele>
        <time>2014-11-15T11:43:36Z</time>
      </trkpt>
      <trkpt lat="47.719740159809589" lon="11.806156290695071">
        <ele>1230.130000000000109</ele>
        <time>2014-11-15T11:43:40Z</time>
      </trkpt>
      <trkpt lat="47.719726413488388" lon="11.806157547980547">
        <ele>1229.450000000000045</ele>
        <time>2014-11-15T11:43:41Z</time>
      </trkpt>
      <trkpt lat="47.719657933339477" lon="11.806153105571866">
        <ele>1227.279999999999973</ele>
        <time>2014-11-15T11:43:46Z</time>
      </trkpt>
      <trkpt lat="47.719642426818609" lon="11.806144891306758">
        <ele>1226.5</ele>
        <time>2014-11-15T11:43:47Z</time>
      </trkpt>
      <trkpt lat="47.71961216814816" lon="11.806144891306758">
        <ele>1225.509999999999991</ele>
        <time>2014-11-15T11:43:49Z</time>
      </trkpt>
      <trkpt lat="47.719554668292403" lon="11.806209683418274">
        <ele>1221.670000000000073</ele>
        <time>2014-11-15T11:43:54Z</time>
      </trkpt>
      <trkpt lat="47.719541843980551" lon="11.806221166625619">
        <ele>1221.019999999999982</ele>
        <time>2014-11-15T11:43:55Z</time>
      </trkpt>
      <trkpt lat="47.719521978870034" lon="11.806238014250994">
        <ele>1219.75</ele>
        <time>2014-11-15T11:43:57Z</time>
      </trkpt>
      <trkpt lat="47.719487529247999" lon="11.806253436952829">
        <ele>1219.430000000000064</ele>
        <time>2014-11-15T11:44:11Z</time>
      </trkpt>
      <trkpt lat="47.719441261142492" lon="11.806307081133127">
        <ele>1216.220000000000027</ele>
        <time>2014-11-15T11:44:21Z</time>
      </trkpt>
      <trkpt lat="47.719428353011608" lon="11.806342201307416">
        <ele>1214.740000000000009</ele>
        <time>2014-11-15T11:44:27Z</time>
      </trkpt>
      <trkpt lat="47.719361716881394" lon="11.806453848257661">
        <ele>1212.1099999999999</ele>
        <time>2014-11-15T11:44:31Z</time>
      </trkpt>
      <trkpt lat="47.719338499009609" lon="11.806489722803235">
        <ele>1211.1400000000001</ele>
        <time>2014-11-15T11:44:32Z</time>
      </trkpt>
      <trkpt lat="47.719316203147173" lon="11.806523585692048">
        <ele>1210.710000000000036</ele>
        <time>2014-11-15T11:44:33Z</time>
      </trkpt>
      <trkpt lat="47.71929700858891" lon="11.806551078334451">
        <ele>1210.470000000000027</ele>
        <time>2014-11-15T11:44:34Z</time>
      </trkpt>
      <trkpt lat="47.71927890367806" lon="11.806572871282697">
        <ele>1209.539999999999964</ele>
        <time>2014-11-15T11:44:35Z</time>
      </trkpt>
      <trkpt lat="47.719260295853019" lon="11.80659357458353">
        <ele>1208.849999999999909</ele>
        <time>2014-11-15T11:44:36Z</time>
      </trkpt>
      <trkpt lat="47.719242861494422" lon="11.806609081104398">
        <ele>1208.559999999999945</ele>
        <time>2014-11-15T11:44:37Z</time>
      </trkpt>
      <trkpt lat="47.719148397445679" lon="11.80669667199254">
        <ele>1205.519999999999982</ele>
        <time>2014-11-15T11:44:43Z</time>
      </trkpt>
      <trkpt lat="47.719135405495763" lon="11.80671033449471">
        <ele>1205.440000000000055</ele>
        <time>2014-11-15T11:44:44Z</time>
      </trkpt>
      <trkpt lat="47.719107074663043" lon="11.806731289252639">
        <ele>1204.329999999999927</ele>
        <time>2014-11-15T11:44:46Z</time>
      </trkpt>
      <trkpt lat="47.719094082713127" lon="11.806735312566161">
        <ele>1203.849999999999909</ele>
        <time>2014-11-15T11:44:47Z</time>
      </trkpt>
      <trkpt lat="47.719038762152195" lon="11.806752411648631">
        <ele>1201.960000000000036</ele>
        <time>2014-11-15T11:44:55Z</time>
      </trkpt>
      <trkpt lat="47.719020405784249" lon="11.806751405820251">
        <ele>1200.680000000000064</ele>
        <time>2014-11-15T11:44:56Z</time>
      </trkpt>
      <trkpt lat="47.718997187912464" lon="11.806755345314741">
        <ele>1200.430000000000064</ele>
        <time>2014-11-15T11:44:57Z</time>
      </trkpt>
      <trkpt lat="47.718973634764552" lon="11.806764313951135">
        <ele>1200.1099999999999</ele>
        <time>2014-11-15T11:44:58Z</time>
      </trkpt>
      <trkpt lat="47.718953099101782" lon="11.80677043274045">
        <ele>1199.259999999999991</ele>
        <time>2014-11-15T11:44:59Z</time>
      </trkpt>
      <trkpt lat="47.7189383469522" lon="11.806772612035275">
        <ele>1199.799999999999955</ele>
        <time>2014-11-15T11:45:00Z</time>
      </trkpt>
      <trkpt lat="47.718899538740516" lon="11.806769510731101">
        <ele>1198.450000000000045</ele>
        <time>2014-11-15T11:45:04Z</time>
      </trkpt>
      <trkpt lat="47.718876991420984" lon="11.806764733046293">
        <ele>1197.759999999999991</ele>
        <time>2014-11-15T11:45:05Z</time>
      </trkpt>
      <trkpt lat="47.718849079683423" lon="11.806755177676678">
        <ele>1197.569999999999936</ele>
        <time>2014-11-15T11:45:06Z</time>
      </trkpt>
      <trkpt lat="47.718820665031672" lon="11.806745119392872">
        <ele>1196.470000000000027</ele>
        <time>2014-11-15T11:45:07Z</time>
      </trkpt>
      <trkpt lat="47.718793591484427" lon="11.806741934269667">
        <ele>1195.980000000000018</ele>
        <time>2014-11-15T11:45:08Z</time>
      </trkpt>
      <trkpt lat="47.71876978687942" lon="11.806742856279016">
        <ele>1195.8599999999999</ele>
        <time>2014-11-15T11:45:09Z</time>
      </trkpt>
      <trkpt lat="47.718669455498457" lon="11.806731624528766">
        <ele>1194.230000000000018</ele>
        <time>2014-11-15T11:45:20Z</time>
      </trkpt>
      <trkpt lat="47.718632575124502" lon="11.806716956198215">
        <ele>1192.400000000000091</ele>
        <time>2014-11-15T11:45:24Z</time>
      </trkpt>
      <trkpt lat="47.718616146594286" lon="11.806717459112406">
        <ele>1191.849999999999909</ele>
        <time>2014-11-15T11:45:25Z</time>
      </trkpt>
      <trkpt lat="47.718597622588277" lon="11.806726427748799">
        <ele>1191.130000000000109</ele>
        <time>2014-11-15T11:45:26Z</time>
      </trkpt>
      <trkpt lat="47.718575410544872" lon="11.806740257889032">
        <ele>1190.829999999999927</ele>
        <time>2014-11-15T11:45:27Z</time>
      </trkpt>
      <trkpt lat="47.718550264835358" lon="11.806745622307062">
        <ele>1190.299999999999955</ele>
        <time>2014-11-15T11:45:28Z</time>
      </trkpt>
      <trkpt lat="47.718525538221002" lon="11.806748388335109">
        <ele>1189.529999999999973</ele>
        <time>2014-11-15T11:45:29Z</time>
      </trkpt>
      <trkpt lat="47.718503158539534" lon="11.806744281202555">
        <ele>1189.700000000000045</ele>
        <time>2014-11-15T11:45:30Z</time>
      </trkpt>
      <trkpt lat="47.718482119962573" lon="11.806740509346128">
        <ele>1188.380000000000109</ele>
        <time>2014-11-15T11:45:31Z</time>
      </trkpt>
      <trkpt lat="47.718462254852057" lon="11.80673967115581">
        <ele>1188.410000000000082</ele>
        <time>2014-11-15T11:45:32Z</time>
      </trkpt>
      <trkpt lat="47.718403749167919" lon="11.806757608428597">
        <ele>1185.349999999999909</ele>
        <time>2014-11-15T11:45:35Z</time>
      </trkpt>
      <trkpt lat="47.718286737799644" lon="11.806813096627593">
        <ele>1181.740000000000009</ele>
        <time>2014-11-15T11:45:41Z</time>
      </trkpt>
      <trkpt lat="47.718219766393304" lon="11.806821394711733">
        <ele>1180.049999999999955</ele>
        <time>2014-11-15T11:45:44Z</time>
      </trkpt>
      <trkpt lat="47.718152543529868" lon="11.806879732757807">
        <ele>1177.039999999999964</ele>
        <time>2014-11-15T11:45:48Z</time>
      </trkpt>
      <trkpt lat="47.718129493296146" lon="11.806899178773165">
        <ele>1176.740000000000009</ele>
        <time>2014-11-15T11:45:49Z</time>
      </trkpt>
      <trkpt lat="47.718039555475116" lon="11.806974029168487">
        <ele>1175.069999999999936</ele>
        <time>2014-11-15T11:45:52Z</time>
      </trkpt>
      <trkpt lat="47.718002926558256" lon="11.807007556781173">
        <ele>1174.549999999999955</ele>
        <time>2014-11-15T11:45:53Z</time>
      </trkpt>
      <trkpt lat="47.717966549098492" lon="11.807049382477999">
        <ele>1174.490000000000009</ele>
        <time>2014-11-15T11:45:54Z</time>
      </trkpt>
      <trkpt lat="47.717787679284811" lon="11.807254571467638">
        <ele>1175.440000000000055</ele>
        <time>2014-11-15T11:46:03Z</time>
      </trkpt>
      <trkpt lat="47.717774771153927" lon="11.807274939492345">
        <ele>1176.069999999999936</ele>
        <time>2014-11-15T11:46:22Z</time>
      </trkpt>
      <trkpt lat="47.717756414785981" lon="11.807293128222227">
        <ele>1175.660000000000082</ele>
        <time>2014-11-15T11:46:50Z</time>
      </trkpt>
      <trkpt lat="47.717748703435063" lon="11.807302683591843">
        <ele>1176.299999999999955</ele>
        <time>2014-11-15T11:46:51Z</time>
      </trkpt>
      <trkpt lat="47.717707464471459" lon="11.807364961132407">
        <ele>1176.5</ele>
        <time>2014-11-15T11:47:03Z</time>
      </trkpt>
      <trkpt lat="47.717581568285823" lon="11.807474512606859">
        <ele>1178.730000000000018</ele>
        <time>2014-11-15T11:47:22Z</time>
      </trkpt>
      <trkpt lat="47.717574443668127" lon="11.80753561668098">
        <ele>1177.779999999999973</ele>
        <time>2014-11-15T11:47:29Z</time>
      </trkpt>
      <trkpt lat="47.717559691518545" lon="11.807558415457606">
        <ele>1178.519999999999982</ele>
        <time>2014-11-15T11:47:31Z</time>
      </trkpt>
      <trkpt lat="47.717549549415708" lon="11.807563779875636">
        <ele>1178.369999999999891</ele>
        <time>2014-11-15T11:47:32Z</time>
      </trkpt>
      <trkpt lat="47.717538485303521" lon="11.80756545625627">
        <ele>1178.549999999999955</ele>
        <time>2014-11-15T11:47:33Z</time>
      </trkpt>
      <trkpt lat="47.717407057061791" lon="11.807539807632565">
        <ele>1180.720000000000027</ele>
        <time>2014-11-15T11:47:48Z</time>
      </trkpt>
      <trkpt lat="47.717281244695187" lon="11.807516757398844">
        <ele>1183.789999999999964</ele>
        <time>2014-11-15T11:48:03Z</time>
      </trkpt>
      <trkpt lat="47.717100866138935" lon="11.807476943358779">
        <ele>1186.910000000000082</ele>
        <time>2014-11-15T11:48:21Z</time>
      </trkpt>
      <trkpt lat="47.716999445110559" lon="11.807463448494673">
        <ele>1190.079999999999927</ele>
        <time>2014-11-15T11:48:35Z</time>
      </trkpt>
      <trkpt lat="47.716875644400716" lon="11.807413408532739">
        <ele>1193.240000000000009</ele>
        <time>2014-11-15T11:48:55Z</time>
      </trkpt>
      <trkpt lat="47.71680599078536" lon="11.80745012126863">
        <ele>1195.980000000000018</ele>
        <time>2014-11-15T11:49:11Z</time>
      </trkpt>
      <trkpt lat="47.716774307191372" lon="11.807440984994173">
        <ele>1197.720000000000027</ele>
        <time>2014-11-15T11:49:17Z</time>
      </trkpt>
      <trkpt lat="47.716725692152977" lon="11.807405948638916">
        <ele>1199.519999999999982</ele>
        <time>2014-11-15T11:49:37Z</time>
      </trkpt>
      <trkpt lat="47.716671209782362" lon="11.807325566187501">
        <ele>1202.019999999999982</ele>
        <time>2014-11-15T11:49:53Z</time>
      </trkpt>
      <trkpt lat="47.716612787917256" lon="11.807221211493015">
        <ele>1205.240000000000009</ele>
        <time>2014-11-15T11:50:10Z</time>
      </trkpt>
      <trkpt lat="47.716547828167677" lon="11.80715742520988">
        <ele>1208.339999999999918</ele>
        <time>2014-11-15T11:50:31Z</time>
      </trkpt>
      <trkpt lat="47.71649376489222" lon="11.807107888162136">
        <ele>1210.210000000000036</ele>
        <time>2014-11-15T11:50:53Z</time>
      </trkpt>
      <trkpt lat="47.716447077691555" lon="11.807012837380171">
        <ele>1213.470000000000027</ele>
        <time>2014-11-15T11:51:09Z</time>
      </trkpt>
      <trkpt lat="47.716438947245479" lon="11.807055836543441">
        <ele>1213.430000000000064</ele>
        <time>2014-11-15T11:51:25Z</time>
      </trkpt>
      <trkpt lat="47.716421345248818" lon="11.807198161259294">
        <ele>1216.579999999999927</ele>
        <time>2014-11-15T11:51:43Z</time>
      </trkpt>
      <trkpt lat="47.716362671926618" lon="11.807165304198861">
        <ele>1219.849999999999909</ele>
        <time>2014-11-15T11:52:01Z</time>
      </trkpt>
      <trkpt lat="47.716296371072531" lon="11.807085257023573">
        <ele>1222.980000000000018</ele>
        <time>2014-11-15T11:52:16Z</time>
      </trkpt>
      <trkpt lat="47.716267872601748" lon="11.807182990014553">
        <ele>1224.130000000000109</ele>
        <time>2014-11-15T11:52:25Z</time>
      </trkpt>
      <trkpt lat="47.716238787397742" lon="11.807346101850271">
        <ele>1223.430000000000064</ele>
        <time>2014-11-15T11:52:42Z</time>
      </trkpt>
      <trkpt lat="47.716246079653502" lon="11.807388011366129">
        <ele>1223.420000000000073</ele>
        <time>2014-11-15T11:53:05Z</time>
      </trkpt>
      <trkpt lat="47.716238033026457" lon="11.807379964739084">
        <ele>1223.910000000000082</ele>
        <time>2014-11-15T11:53:28Z</time>
      </trkpt>
      <trkpt lat="47.716235015541315" lon="11.807362111285329">
        <ele>1223.990000000000009</ele>
        <time>2014-11-15T11:53:46Z</time>
      </trkpt>
      <trkpt lat="47.716262005269527" lon="11.80733235552907">
        <ele>1223.910000000000082</ele>
        <time>2014-11-15T11:54:09Z</time>
      </trkpt>
      <trkpt lat="47.716247923672199" lon="11.807340402156115">
        <ele>1223.720000000000027</ele>
        <time>2014-11-15T11:54:32Z</time>
      </trkpt>
      <trkpt lat="47.716232584789395" lon="11.807359512895346">
        <ele>1223.470000000000027</ele>
        <time>2014-11-15T11:55:06Z</time>
      </trkpt>
      <trkpt lat="47.716233087703586" lon="11.807352472096682">
        <ele>1223.910000000000082</ele>
        <time>2014-11-15T11:55:23Z</time>
      </trkpt>
      <trkpt lat="47.716225208714604" lon="11.80737535469234">
        <ele>1223.029999999999973</ele>
        <time>2014-11-15T11:55:43Z</time>
      </trkpt>
      <trkpt lat="47.716231495141983" lon="11.807374684140086">
        <ele>1223.349999999999909</ele>
        <time>2014-11-15T11:56:05Z</time>
      </trkpt>
      <trkpt lat="47.716202912852168" lon="11.807396560907364">
        <ele>1223.349999999999909</ele>
        <time>2014-11-15T11:56:24Z</time>
      </trkpt>
      <trkpt lat="47.716179359704256" lon="11.807469902560115">
        <ele>1222.619999999999891</ele>
        <time>2014-11-15T11:56:27Z</time>
      </trkpt>
      <trkpt lat="47.716171899810433" lon="11.807500412687659">
        <ele>1222.990000000000009</ele>
        <time>2014-11-15T11:56:28Z</time>
      </trkpt>
      <trkpt lat="47.716167205944657" lon="11.807530000805855">
        <ele>1222.779999999999973</ele>
        <time>2014-11-15T11:56:29Z</time>
      </trkpt>
      <trkpt lat="47.716164356097579" lon="11.807560594752431">
        <ele>1222.470000000000027</ele>
        <time>2014-11-15T11:56:30Z</time>
      </trkpt>
      <trkpt lat="47.716162176802754" lon="11.80759378708899">
        <ele>1222.210000000000036</ele>
        <time>2014-11-15T11:56:31Z</time>
      </trkpt>
      <trkpt lat="47.716121273115277" lon="11.808170294389129">
        <ele>1220.25</ele>
        <time>2014-11-15T11:56:45Z</time>
      </trkpt>
      <trkpt lat="47.716097552329302" lon="11.808379422873259">
        <ele>1217.930000000000064</ele>
        <time>2014-11-15T11:56:49Z</time>
      </trkpt>
      <trkpt lat="47.716063437983394" lon="11.808522501960397">
        <ele>1216.279999999999973</ele>
        <time>2014-11-15T11:56:52Z</time>
      </trkpt>
      <trkpt lat="47.716052960604429" lon="11.808901950716972">
        <ele>1213.6400000000001</ele>
        <time>2014-11-15T11:57:00Z</time>
      </trkpt>
      <trkpt lat="47.716062935069203" lon="11.809092555195093">
        <ele>1211.1099999999999</ele>
        <time>2014-11-15T11:57:03Z</time>
      </trkpt>
      <trkpt lat="47.716061426326632" lon="11.809161202982068">
        <ele>1210.200000000000045</ele>
        <time>2014-11-15T11:57:04Z</time>
      </trkpt>
      <trkpt lat="47.716059079393744" lon="11.809226498007774">
        <ele>1209.220000000000027</ele>
        <time>2014-11-15T11:57:05Z</time>
      </trkpt>
      <trkpt lat="47.716020690277219" lon="11.809486672282219">
        <ele>1204.930000000000064</ele>
        <time>2014-11-15T11:57:09Z</time>
      </trkpt>
      <trkpt lat="47.716002920642495" lon="11.809640061110258">
        <ele>1202.869999999999891</ele>
        <time>2014-11-15T11:57:11Z</time>
      </trkpt>
      <trkpt lat="47.716004010289907" lon="11.809790935367346">
        <ele>1199.8599999999999</ele>
        <time>2014-11-15T11:57:13Z</time>
      </trkpt>
      <trkpt lat="47.715978445485234" lon="11.810105005279183">
        <ele>1194.539999999999964</ele>
        <time>2014-11-15T11:57:17Z</time>
      </trkpt>
      <trkpt lat="47.715968554839492" lon="11.810269374400377">
        <ele>1191.160000000000082</ele>
        <time>2014-11-15T11:57:19Z</time>
      </trkpt>
      <trkpt lat="47.715974925085902" lon="11.810521502047777">
        <ele>1187.8900000000001</ele>
        <time>2014-11-15T11:57:22Z</time>
      </trkpt>
      <trkpt lat="47.715992610901594" lon="11.81070783175528">
        <ele>1184.3599999999999</ele>
        <time>2014-11-15T11:57:25Z</time>
      </trkpt>
      <trkpt lat="47.716023372486234" lon="11.810841942206025">
        <ele>1181.309999999999945</ele>
        <time>2014-11-15T11:57:30Z</time>
      </trkpt>
      <trkpt lat="47.716028150171041" lon="11.810870608314872">
        <ele>1181.170000000000073</ele>
        <time>2014-11-15T11:57:31Z</time>
      </trkpt>
      <trkpt lat="47.716025467962027" lon="11.810938250273466">
        <ele>1179.650000000000091</ele>
        <time>2014-11-15T11:57:34Z</time>
      </trkpt>
      <trkpt lat="47.716015744954348" lon="11.810950236395001">
        <ele>1179.589999999999918</ele>
        <time>2014-11-15T11:57:35Z</time>
      </trkpt>
      <trkpt lat="47.715993281453848" lon="11.810966329649091">
        <ele>1179.710000000000036</ele>
        <time>2014-11-15T11:57:38Z</time>
      </trkpt>
      <trkpt lat="47.715926058590412" lon="11.810985691845417">
        <ele>1178.599999999999909</ele>
        <time>2014-11-15T11:57:41Z</time>
      </trkpt>
      <trkpt lat="47.715892614796758" lon="11.810984183102846">
        <ele>1178.089999999999918</ele>
        <time>2014-11-15T11:57:42Z</time>
      </trkpt>
      <trkpt lat="47.715855734422803" lon="11.810974879190326">
        <ele>1177.450000000000045</ele>
        <time>2014-11-15T11:57:43Z</time>
      </trkpt>
      <trkpt lat="47.715817093849182" lon="11.810956187546253">
        <ele>1176.380000000000109</ele>
        <time>2014-11-15T11:57:44Z</time>
      </trkpt>
      <trkpt lat="47.715778117999434" lon="11.810932215303183">
        <ele>1175.710000000000036</ele>
        <time>2014-11-15T11:57:45Z</time>
      </trkpt>
      <trkpt lat="47.715526409447193" lon="11.810748148709536">
        <ele>1172.259999999999991</ele>
        <time>2014-11-15T11:57:51Z</time>
      </trkpt>
      <trkpt lat="47.71533471532166" lon="11.810613870620728">
        <ele>1169.089999999999918</ele>
        <time>2014-11-15T11:57:55Z</time>
      </trkpt>
      <trkpt lat="47.715124245733023" lon="11.810467438772321">
        <ele>1166.029999999999973</ele>
        <time>2014-11-15T11:57:59Z</time>
      </trkpt>
      <trkpt lat="47.71492961794138" lon="11.81032620370388">
        <ele>1162.190000000000055</ele>
        <time>2014-11-15T11:58:03Z</time>
      </trkpt>
      <trkpt lat="47.714881002902985" lon="11.81029150262475">
        <ele>1162.119999999999891</ele>
        <time>2014-11-15T11:58:04Z</time>
      </trkpt>
      <trkpt lat="47.714674640446901" lon="11.810136856511235">
        <ele>1159.019999999999982</ele>
        <time>2014-11-15T11:58:08Z</time>
      </trkpt>
      <trkpt lat="47.714489735662937" lon="11.810008278116584">
        <ele>1155.8900000000001</ele>
        <time>2014-11-15T11:58:11Z</time>
      </trkpt>
      <trkpt lat="47.714060163125396" lon="11.809726981446147">
        <ele>1152.710000000000036</ele>
        <time>2014-11-15T11:58:20Z</time>
      </trkpt>
      <trkpt lat="47.713910210877657" lon="11.809452893212438">
        <ele>1149.730000000000018</ele>
        <time>2014-11-15T11:58:28Z</time>
      </trkpt>
      <trkpt lat="47.713883388787508" lon="11.809402937069535">
        <ele>1149.039999999999964</ele>
        <time>2014-11-15T11:58:29Z</time>
      </trkpt>
      <trkpt lat="47.713849190622568" lon="11.809360021725297">
        <ele>1148.279999999999973</ele>
        <time>2014-11-15T11:58:30Z</time>
      </trkpt>
      <trkpt lat="47.713804012164474" lon="11.809319201856852">
        <ele>1147.849999999999909</ele>
        <time>2014-11-15T11:58:31Z</time>
      </trkpt>
      <trkpt lat="47.713748691603541" lon="11.809289865195751">
        <ele>1146.650000000000091</ele>
        <time>2014-11-15T11:58:32Z</time>
      </trkpt>
      <trkpt lat="47.713685324415565" lon="11.809261534363031">
        <ele>1145.660000000000082</ele>
        <time>2014-11-15T11:58:33Z</time>
      </trkpt>
      <trkpt lat="47.713613826781511" lon="11.809236640110612">
        <ele>1144.680000000000064</ele>
        <time>2014-11-15T11:58:34Z</time>
      </trkpt>
      <trkpt lat="47.713537886738777" lon="11.809221468865871">
        <ele>1143.769999999999982</ele>
        <time>2014-11-15T11:58:35Z</time>
      </trkpt>
      <trkpt lat="47.713460018858314" lon="11.809200514107943">
        <ele>1142.690000000000055</ele>
        <time>2014-11-15T11:58:36Z</time>
      </trkpt>
      <trkpt lat="47.713274359703064" lon="11.809139912948012">
        <ele>1140.650000000000091</ele>
        <time>2014-11-15T11:58:39Z</time>
      </trkpt>
      <trkpt lat="47.713229432702065" lon="11.809108480811119">
        <ele>1140.180000000000064</ele>
        <time>2014-11-15T11:58:40Z</time>
      </trkpt>
      <trkpt lat="47.713183499872684" lon="11.809067409485579">
        <ele>1139.6099999999999</ele>
        <time>2014-11-15T11:58:41Z</time>
      </trkpt>
      <trkpt lat="47.713135555386543" lon="11.809029774740338">
        <ele>1139.099999999999909</ele>
        <time>2014-11-15T11:58:42Z</time>
      </trkpt>
      <trkpt lat="47.713082749396563" lon="11.808987278491259">
        <ele>1138.009999999999991</ele>
        <time>2014-11-15T11:58:43Z</time>
      </trkpt>
      <trkpt lat="47.713025333359838" lon="11.808939082548022">
        <ele>1137.740000000000009</ele>
        <time>2014-11-15T11:58:44Z</time>
      </trkpt>
      <trkpt lat="47.712970683351159" lon="11.808886276558042">
        <ele>1136.150000000000091</ele>
        <time>2014-11-15T11:58:45Z</time>
      </trkpt>
      <trkpt lat="47.712913183495402" lon="11.808838248252869">
        <ele>1136.25</ele>
        <time>2014-11-15T11:58:46Z</time>
      </trkpt>
      <trkpt lat="47.712862221524119" lon="11.808795584365726">
        <ele>1134.599999999999909</ele>
        <time>2014-11-15T11:58:47Z</time>
      </trkpt>
      <trkpt lat="47.712808912619948" lon="11.808749483898282">
        <ele>1134.450000000000045</ele>
        <time>2014-11-15T11:58:48Z</time>
      </trkpt>
      <trkpt lat="47.712751077488065" lon="11.808723835274577">
        <ele>1133.099999999999909</ele>
        <time>2014-11-15T11:58:49Z</time>
      </trkpt>
      <trkpt lat="47.712573632597923" lon="11.808621743693948">
        <ele>1130.910000000000082</ele>
        <time>2014-11-15T11:58:52Z</time>
      </trkpt>
      <trkpt lat="47.712473636493087" lon="11.808545049279928">
        <ele>1128.940000000000055</ele>
        <time>2014-11-15T11:58:54Z</time>
      </trkpt>
      <trkpt lat="47.712288983166218" lon="11.808403143659234">
        <ele>1126.559999999999945</ele>
        <time>2014-11-15T11:58:57Z</time>
      </trkpt>
      <trkpt lat="47.712232656776905" lon="11.808339189738035">
        <ele>1126.160000000000082</ele>
        <time>2014-11-15T11:58:58Z</time>
      </trkpt>
      <trkpt lat="47.712182868272066" lon="11.808271715417504">
        <ele>1124.700000000000045</ele>
        <time>2014-11-15T11:58:59Z</time>
      </trkpt>
      <trkpt lat="47.712142886593938" lon="11.808201558887959">
        <ele>1124.289999999999964</ele>
        <time>2014-11-15T11:59:00Z</time>
      </trkpt>
      <trkpt lat="47.712097624316812" lon="11.808150429278612">
        <ele>1123.25</ele>
        <time>2014-11-15T11:59:01Z</time>
      </trkpt>
      <trkpt lat="47.712047584354877" lon="11.808102484792471">
        <ele>1122.170000000000073</ele>
        <time>2014-11-15T11:59:02Z</time>
      </trkpt>
      <trkpt lat="47.712000478059053" lon="11.808058898895979">
        <ele>1121.8900000000001</ele>
        <time>2014-11-15T11:59:03Z</time>
      </trkpt>
      <trkpt lat="47.711953036487103" lon="11.808016486465931">
        <ele>1120.880000000000109</ele>
        <time>2014-11-15T11:59:04Z</time>
      </trkpt>
      <trkpt lat="47.711652293801308" lon="11.807762179523706">
        <ele>1116.910000000000082</ele>
        <time>2014-11-15T11:59:09Z</time>
      </trkpt>
      <trkpt lat="47.711591441184282" lon="11.8077193479985">
        <ele>1115.6099999999999</ele>
        <time>2014-11-15T11:59:10Z</time>
      </trkpt>
      <trkpt lat="47.711265552788973" lon="11.80750778876245">
        <ele>1111.450000000000045</ele>
        <time>2014-11-15T11:59:15Z</time>
      </trkpt>
      <trkpt lat="47.71115792915225" lon="11.80747945792973">
        <ele>1109.700000000000045</ele>
        <time>2014-11-15T11:59:17Z</time>
      </trkpt>
      <trkpt lat="47.711105877533555" lon="11.807484570890665">
        <ele>1109.1099999999999</ele>
        <time>2014-11-15T11:59:18Z</time>
      </trkpt>
      <trkpt lat="47.711053323000669" lon="11.807484403252602">
        <ele>1108.430000000000064</ele>
        <time>2014-11-15T11:59:19Z</time>
      </trkpt>
      <trkpt lat="47.711003534495831" lon="11.807490019127727">
        <ele>1108.089999999999918</ele>
        <time>2014-11-15T11:59:20Z</time>
      </trkpt>
      <trkpt lat="47.710965648293495" lon="11.807502759620547">
        <ele>1107.329999999999927</ele>
        <time>2014-11-15T11:59:21Z</time>
      </trkpt>
      <trkpt lat="47.710934802889824" lon="11.807519691064954">
        <ele>1107.039999999999964</ele>
        <time>2014-11-15T11:59:22Z</time>
      </trkpt>
      <trkpt lat="47.710919715464115" lon="11.807545172050595">
        <ele>1106.299999999999955</ele>
        <time>2014-11-15T11:59:23Z</time>
      </trkpt>
      <trkpt lat="47.710905382409692" lon="11.807577107101679">
        <ele>1105.950000000000045</ele>
        <time>2014-11-15T11:59:24Z</time>
      </trkpt>
      <trkpt lat="47.710882583633065" lon="11.807609377428889">
        <ele>1105.220000000000027</ele>
        <time>2014-11-15T11:59:25Z</time>
      </trkpt>
      <trkpt lat="47.710854839533567" lon="11.807680372148752">
        <ele>1104.289999999999964</ele>
        <time>2014-11-15T11:59:27Z</time>
      </trkpt>
      <trkpt lat="47.710772110149264" lon="11.807815907523036">
        <ele>1101.400000000000091</ele>
        <time>2014-11-15T11:59:30Z</time>
      </trkpt>
      <trkpt lat="47.710537416860461" lon="11.808001566678286">
        <ele>1098.299999999999955</ele>
        <time>2014-11-15T11:59:34Z</time>
      </trkpt>
      <trkpt lat="47.710425602272153" lon="11.808116314932704">
        <ele>1096.940000000000055</ele>
        <time>2014-11-15T11:59:36Z</time>
      </trkpt>
      <trkpt lat="47.710368856787682" lon="11.8081493396312">
        <ele>1095.819999999999936</ele>
        <time>2014-11-15T11:59:37Z</time>
      </trkpt>
      <trkpt lat="47.710319319739938" lon="11.808168115094304">
        <ele>1095.289999999999964</ele>
        <time>2014-11-15T11:59:38Z</time>
      </trkpt>
      <trkpt lat="47.710203817114234" lon="11.808187393471599">
        <ele>1094.509999999999991</ele>
        <time>2014-11-15T11:59:40Z</time>
      </trkpt>
      <trkpt lat="47.710143970325589" lon="11.808185214176774">
        <ele>1093.440000000000055</ele>
        <time>2014-11-15T11:59:41Z</time>
      </trkpt>
      <trkpt lat="47.710091834887862" lon="11.80816057138145">
        <ele>1093.400000000000091</ele>
        <time>2014-11-15T11:59:42Z</time>
      </trkpt>
      <trkpt lat="47.710045734420419" lon="11.808114219456911">
        <ele>1092.480000000000018</ele>
        <time>2014-11-15T11:59:43Z</time>
      </trkpt>
      <trkpt lat="47.70992704667151" lon="11.807858403772116">
        <ele>1090.069999999999936</ele>
        <time>2014-11-15T11:59:47Z</time>
      </trkpt>
      <trkpt lat="47.70991631783545" lon="11.807544250041246">
        <ele>1086.759999999999991</ele>
        <time>2014-11-15T11:59:51Z</time>
      </trkpt>
      <trkpt lat="47.709936685860157" lon="11.807164214551449">
        <ele>1083</ele>
        <time>2014-11-15T11:59:55Z</time>
      </trkpt>
      <trkpt lat="47.709854291751981" lon="11.806580498814583">
        <ele>1077.960000000000036</ele>
        <time>2014-11-15T12:00:00Z</time>
      </trkpt>
      <trkpt lat="47.709778351709247" lon="11.806392911821604">
        <ele>1075.519999999999982</ele>
        <time>2014-11-15T12:00:02Z</time>
      </trkpt>
      <trkpt lat="47.709692772477865" lon="11.806181101128459">
        <ele>1073.759999999999991</ele>
        <time>2014-11-15T12:00:05Z</time>
      </trkpt>
      <trkpt lat="47.709655473008752" lon="11.806115889921784">
        <ele>1072.539999999999964</ele>
        <time>2014-11-15T12:00:06Z</time>
      </trkpt>
      <trkpt lat="47.709640385583043" lon="11.806046990677714">
        <ele>1072.230000000000018</ele>
        <time>2014-11-15T12:00:07Z</time>
      </trkpt>
      <trkpt lat="47.709645163267851" lon="11.80598278529942">
        <ele>1071.660000000000082</ele>
        <time>2014-11-15T12:00:08Z</time>
      </trkpt>
      <trkpt lat="47.709686988964677" lon="11.805854039266706">
        <ele>1070.410000000000082</ele>
        <time>2014-11-15T12:00:10Z</time>
      </trkpt>
      <trkpt lat="47.70972185768187" lon="11.805794443935156">
        <ele>1069.8900000000001</ele>
        <time>2014-11-15T12:00:11Z</time>
      </trkpt>
      <trkpt lat="47.709755804389715" lon="11.805731244385242">
        <ele>1069.420000000000073</ele>
        <time>2014-11-15T12:00:12Z</time>
      </trkpt>
      <trkpt lat="47.70978631451726" lon="11.805660417303443">
        <ele>1067.380000000000109</ele>
        <time>2014-11-15T12:00:13Z</time>
      </trkpt>
      <trkpt lat="47.70980928093195" lon="11.805578861385584">
        <ele>1066.660000000000082</ele>
        <time>2014-11-15T12:00:14Z</time>
      </trkpt>
      <trkpt lat="47.709837611764669" lon="11.805499568581581">
        <ele>1065.410000000000082</ele>
        <time>2014-11-15T12:00:15Z</time>
      </trkpt>
      <trkpt lat="47.709864182397723" lon="11.805411893874407">
        <ele>1064.730000000000018</ele>
        <time>2014-11-15T12:00:16Z</time>
      </trkpt>
      <trkpt lat="47.709880694746971" lon="11.805320531129837">
        <ele>1063.230000000000018</ele>
        <time>2014-11-15T12:00:17Z</time>
      </trkpt>
      <trkpt lat="47.70989234559238" lon="11.805221121758223">
        <ele>1062.599999999999909</ele>
        <time>2014-11-15T12:00:18Z</time>
      </trkpt>
      <trkpt lat="47.709902739152312" lon="11.805112324655056">
        <ele>1061.3900000000001</ele>
        <time>2014-11-15T12:00:19Z</time>
      </trkpt>
      <trkpt lat="47.70990114659071" lon="11.804998749867082">
        <ele>1060.940000000000055</ele>
        <time>2014-11-15T12:00:20Z</time>
      </trkpt>
      <trkpt lat="47.709894608706236" lon="11.804871764034033">
        <ele>1059.710000000000036</ele>
        <time>2014-11-15T12:00:21Z</time>
      </trkpt>
      <trkpt lat="47.709885723888874" lon="11.804758608341217">
        <ele>1058.8599999999999</ele>
        <time>2014-11-15T12:00:22Z</time>
      </trkpt>
      <trkpt lat="47.709868121892214" lon="11.804490135982633">
        <ele>1055.769999999999982</ele>
        <time>2014-11-15T12:00:24Z</time>
      </trkpt>
      <trkpt lat="47.709832582622766" lon="11.804188219830394">
        <ele>1054.160000000000082</ele>
        <time>2014-11-15T12:00:26Z</time>
      </trkpt>
      <trkpt lat="47.709775501862168" lon="11.803727047517896">
        <ele>1050.319999999999936</ele>
        <time>2014-11-15T12:00:30Z</time>
      </trkpt>
      <trkpt lat="47.709760162979364" lon="11.803660159930587">
        <ele>1050.220000000000027</ele>
        <time>2014-11-15T12:00:31Z</time>
      </trkpt>
      <trkpt lat="47.709680702537298" lon="11.803337959572673">
        <ele>1046.8900000000001</ele>
        <time>2014-11-15T12:00:38Z</time>
      </trkpt>
      <trkpt lat="47.709662429988384" lon="11.803256738930941">
        <ele>1046.480000000000018</ele>
        <time>2014-11-15T12:00:39Z</time>
      </trkpt>
      <trkpt lat="47.70964122377336" lon="11.803173255175352">
        <ele>1045.990000000000009</ele>
        <time>2014-11-15T12:00:40Z</time>
      </trkpt>
      <trkpt lat="47.709625801071525" lon="11.803108882158995">
        <ele>1045.230000000000018</ele>
        <time>2014-11-15T12:00:41Z</time>
      </trkpt>
      <trkpt lat="47.709607277065516" lon="11.803061524406075">
        <ele>1044.700000000000045</ele>
        <time>2014-11-15T12:00:42Z</time>
      </trkpt>
      <trkpt lat="47.709591099992394" lon="11.803031684830785">
        <ele>1044.869999999999891</ele>
        <time>2014-11-15T12:00:43Z</time>
      </trkpt>
      <trkpt lat="47.709564277902246" lon="11.803003773093224">
        <ele>1044.180000000000064</ele>
        <time>2014-11-15T12:00:44Z</time>
      </trkpt>
      <trkpt lat="47.709544077515602" lon="11.802985165268183">
        <ele>1043.619999999999891</ele>
        <time>2014-11-15T12:00:45Z</time>
      </trkpt>
      <trkpt lat="47.709525804966688" lon="11.802978962659836">
        <ele>1043.539999999999964</ele>
        <time>2014-11-15T12:00:46Z</time>
      </trkpt>
      <trkpt lat="47.709487248212099" lon="11.802949625998735">
        <ele>1044.039999999999964</ele>
        <time>2014-11-15T12:00:58Z</time>
      </trkpt>
      <trkpt lat="47.7094232942909" lon="11.802868321537971">
        <ele>1044.009999999999991</ele>
        <time>2014-11-15T12:01:09Z</time>
      </trkpt>
      <trkpt lat="47.709283987060189" lon="11.80280763655901">
        <ele>1043.240000000000009</ele>
        <time>2014-11-15T12:01:43Z</time>
      </trkpt>
      <trkpt lat="47.7090934664011" lon="11.802988350391388">
        <ele>1043.8599999999999</ele>
        <time>2014-11-15T12:01:58Z</time>
      </trkpt>
      <trkpt lat="47.709049629047513" lon="11.803029589354992">
        <ele>1043.799999999999955</ele>
        <time>2014-11-15T12:02:01Z</time>
      </trkpt>
      <trkpt lat="47.708967486396432" lon="11.803093375638127">
        <ele>1044.619999999999891</ele>
        <time>2014-11-15T12:02:05Z</time>
      </trkpt>
      <trkpt lat="47.708714352920651" lon="11.803316418081522">
        <ele>1045.279999999999973</ele>
        <time>2014-11-15T12:02:15Z</time>
      </trkpt>
      <trkpt lat="47.708693398162723" lon="11.803314909338951">
        <ele>1045.339999999999918</ele>
        <time>2014-11-15T12:02:16Z</time>
      </trkpt>
      <trkpt lat="47.708675460889935" lon="11.803314993157983">
        <ele>1045.349999999999909</ele>
        <time>2014-11-15T12:02:17Z</time>
      </trkpt>
      <trkpt lat="47.708652578294277" lon="11.803306695073843">
        <ele>1045.6099999999999</ele>
        <time>2014-11-15T12:02:18Z</time>
      </trkpt>
      <trkpt lat="47.708584684878588" lon="11.80322396568954">
        <ele>1044.720000000000027</ele>
        <time>2014-11-15T12:02:21Z</time>
      </trkpt>
      <trkpt lat="47.70851637236774" lon="11.803113156929612">
        <ele>1043.759999999999991</ele>
        <time>2014-11-15T12:02:24Z</time>
      </trkpt>
      <trkpt lat="47.708510756492615" lon="11.802841331809759">
        <ele>1041.099999999999909</ele>
        <time>2014-11-15T12:02:29Z</time>
      </trkpt>
      <trkpt lat="47.708503883332014" lon="11.802780143916607">
        <ele>1040.460000000000036</ele>
        <time>2014-11-15T12:02:30Z</time>
      </trkpt>
      <trkpt lat="47.708482760936022" lon="11.802707137539983">
        <ele>1040.039999999999964</ele>
        <time>2014-11-15T12:02:31Z</time>
      </trkpt>
      <trkpt lat="47.708450071513653" lon="11.802627174183726">
        <ele>1039.339999999999918</ele>
        <time>2014-11-15T12:02:32Z</time>
      </trkpt>
      <trkpt lat="47.708418555557728" lon="11.802552742883563">
        <ele>1038.809999999999945</ele>
        <time>2014-11-15T12:02:33Z</time>
      </trkpt>
      <trkpt lat="47.708383938297629" lon="11.802481999620795">
        <ele>1038.220000000000027</ele>
        <time>2014-11-15T12:02:34Z</time>
      </trkpt>
      <trkpt lat="47.708294922485948" lon="11.802314026281238">
        <ele>1036.650000000000091</ele>
        <time>2014-11-15T12:02:36Z</time>
      </trkpt>
      <trkpt lat="47.708274219185114" lon="11.802215287461877">
        <ele>1035.980000000000018</ele>
        <time>2014-11-15T12:02:37Z</time>
      </trkpt>
      <trkpt lat="47.708270950242877" lon="11.802128283306956">
        <ele>1035.829999999999927</ele>
        <time>2014-11-15T12:02:38Z</time>
      </trkpt>
      <trkpt lat="47.708267597481608" lon="11.801966764032841">
        <ele>1035.660000000000082</ele>
        <time>2014-11-15T12:02:40Z</time>
      </trkpt>
      <trkpt lat="47.708257706835866" lon="11.801897613331676">
        <ele>1035.529999999999973</ele>
        <time>2014-11-15T12:02:41Z</time>
      </trkpt>
      <trkpt lat="47.708236500620842" lon="11.801817649975419">
        <ele>1035.819999999999936</ele>
        <time>2014-11-15T12:02:42Z</time>
      </trkpt>
      <trkpt lat="47.708206912502646" lon="11.801717653870583">
        <ele>1035.089999999999918</ele>
        <time>2014-11-15T12:02:43Z</time>
      </trkpt>
      <trkpt lat="47.708171624690294" lon="11.801625201478601">
        <ele>1035</ele>
        <time>2014-11-15T12:02:44Z</time>
      </trkpt>
      <trkpt lat="47.708090404048562" lon="11.801447588950396">
        <ele>1034.880000000000109</ele>
        <time>2014-11-15T12:02:47Z</time>
      </trkpt>
      <trkpt lat="47.708075065165758" lon="11.801396124064922">
        <ele>1034.839999999999918</ele>
        <time>2014-11-15T12:02:48Z</time>
      </trkpt>
      <trkpt lat="47.708071628585458" lon="11.80133786983788">
        <ele>1035.470000000000027</ele>
        <time>2014-11-15T12:02:49Z</time>
      </trkpt>
      <trkpt lat="47.708066599443555" lon="11.801250446587801">
        <ele>1036.119999999999891</ele>
        <time>2014-11-15T12:02:51Z</time>
      </trkpt>
      <trkpt lat="47.70805804990232" lon="11.80118640884757">
        <ele>1037.259999999999991</ele>
        <time>2014-11-15T12:02:53Z</time>
      </trkpt>
      <trkpt lat="47.708057798445225" lon="11.800811653956771">
        <ele>1038.809999999999945</ele>
        <time>2014-11-15T12:03:05Z</time>
      </trkpt>
      <trkpt lat="47.707840204238892" lon="11.800209833309054">
        <ele>1040.039999999999964</ele>
        <time>2014-11-15T12:03:18Z</time>
      </trkpt>
      <trkpt lat="47.70764222368598" lon="11.799848154187202">
        <ele>1042.029999999999973</ele>
        <time>2014-11-15T12:03:31Z</time>
      </trkpt>
      <trkpt lat="47.707531247287989" lon="11.799652939662337">
        <ele>1043.059999999999945</ele>
        <time>2014-11-15T12:03:38Z</time>
      </trkpt>
      <trkpt lat="47.707518674433231" lon="11.799633409827948">
        <ele>1043.1099999999999</ele>
        <time>2014-11-15T12:03:39Z</time>
      </trkpt>
      <trkpt lat="47.707345001399517" lon="11.799454875290394">
        <ele>1044.880000000000109</ele>
        <time>2014-11-15T12:03:52Z</time>
      </trkpt>
      <trkpt lat="47.707220697775483" lon="11.799373906105757">
        <ele>1046.1400000000001</ele>
        <time>2014-11-15T12:04:02Z</time>
      </trkpt>
      <trkpt lat="47.707208376377821" lon="11.799360327422619">
        <ele>1046.079999999999927</ele>
        <time>2014-11-15T12:04:03Z</time>
      </trkpt>
      <trkpt lat="47.707194294780493" lon="11.799344904720783">
        <ele>1046.150000000000091</ele>
        <time>2014-11-15T12:04:04Z</time>
      </trkpt>
      <trkpt lat="47.707184320315719" lon="11.799321854487062">
        <ele>1046.259999999999991</ele>
        <time>2014-11-15T12:04:05Z</time>
      </trkpt>
      <trkpt lat="47.70717023871839" lon="11.799306012690067">
        <ele>1046.210000000000036</ele>
        <time>2014-11-15T12:04:06Z</time>
      </trkpt>
      <trkpt lat="47.70715557038784" lon="11.799294194206595">
        <ele>1046.900000000000091</ele>
        <time>2014-11-15T12:04:07Z</time>
      </trkpt>
      <trkpt lat="47.70709253847599" lon="11.799210542812943">
        <ele>1046.829999999999927</ele>
        <time>2014-11-15T12:04:12Z</time>
      </trkpt>
      <trkpt lat="47.707078624516726" lon="11.79919813759625">
        <ele>1046.789999999999964</ele>
        <time>2014-11-15T12:04:13Z</time>
      </trkpt>
      <trkpt lat="47.707064375281334" lon="11.799186319112778">
        <ele>1046.779999999999973</ele>
        <time>2014-11-15T12:04:14Z</time>
      </trkpt>
      <trkpt lat="47.707050209864974" lon="11.799173830077052">
        <ele>1047.779999999999973</ele>
        <time>2014-11-15T12:04:15Z</time>
      </trkpt>
      <trkpt lat="47.707039229571819" lon="11.79915958084166">
        <ele>1048.009999999999991</ele>
        <time>2014-11-15T12:04:16Z</time>
      </trkpt>
      <trkpt lat="47.706993380561471" lon="11.799122700467706">
        <ele>1048.049999999999955</ele>
        <time>2014-11-15T12:04:19Z</time>
      </trkpt>
      <trkpt lat="47.706975694745779" lon="11.799092022702098">
        <ele>1047.950000000000045</ele>
        <time>2014-11-15T12:04:20Z</time>
      </trkpt>
      <trkpt lat="47.706955410540104" lon="11.799049945548177">
        <ele>1048.380000000000109</ele>
        <time>2014-11-15T12:04:21Z</time>
      </trkpt>
      <trkpt lat="47.706943340599537" lon="11.799030164256692">
        <ele>1048.410000000000082</ele>
        <time>2014-11-15T12:04:22Z</time>
      </trkpt>
      <trkpt lat="47.706932192668319" lon="11.799013651907444">
        <ele>1049.259999999999991</ele>
        <time>2014-11-15T12:04:23Z</time>
      </trkpt>
      <trkpt lat="47.706728680059314" lon="11.798764206469059">
        <ele>1050.289999999999964</ele>
        <time>2014-11-15T12:04:35Z</time>
      </trkpt>
      <trkpt lat="47.706685680896044" lon="11.798723638057709">
        <ele>1051.400000000000091</ele>
        <time>2014-11-15T12:04:39Z</time>
      </trkpt>
      <trkpt lat="47.706664726138115" lon="11.798712238669395">
        <ele>1051.460000000000036</ele>
        <time>2014-11-15T12:04:41Z</time>
      </trkpt>
      <trkpt lat="47.706640670076013" lon="11.798708885908127">
        <ele>1051.5</ele>
        <time>2014-11-15T12:04:43Z</time>
      </trkpt>
      <trkpt lat="47.706628851592541" lon="11.798710646107793">
        <ele>1051.630000000000109</ele>
        <time>2014-11-15T12:04:44Z</time>
      </trkpt>
      <trkpt lat="47.706610662862659" lon="11.798700923100114">
        <ele>1051.789999999999964</ele>
        <time>2014-11-15T12:04:45Z</time>
      </trkpt>
      <trkpt lat="47.706594737246633" lon="11.798690110445023">
        <ele>1051.900000000000091</ele>
        <time>2014-11-15T12:04:46Z</time>
      </trkpt>
      <trkpt lat="47.706530950963497" lon="11.7986567504704">
        <ele>1051.910000000000082</ele>
        <time>2014-11-15T12:04:50Z</time>
      </trkpt>
      <trkpt lat="47.70624278113246" lon="11.798564130440354">
        <ele>1053.309999999999945</ele>
        <time>2014-11-15T12:05:04Z</time>
      </trkpt>
      <trkpt lat="47.705983612686396" lon="11.798335807397962">
        <ele>1052.380000000000109</ele>
        <time>2014-11-15T12:05:15Z</time>
      </trkpt>
      <trkpt lat="47.705873977392912" lon="11.798260286450386">
        <ele>1051.799999999999955</ele>
        <time>2014-11-15T12:05:19Z</time>
      </trkpt>
      <trkpt lat="47.705863416194916" lon="11.798217706382275">
        <ele>1051.680000000000064</ele>
        <time>2014-11-15T12:05:20Z</time>
      </trkpt>
      <trkpt lat="47.705866433680058" lon="11.798171103000641">
        <ele>1051.75</ele>
        <time>2014-11-15T12:05:21Z</time>
      </trkpt>
      <trkpt lat="47.705877916887403" lon="11.798128103837371">
        <ele>1052.069999999999936</ele>
        <time>2014-11-15T12:05:22Z</time>
      </trkpt>
      <trkpt lat="47.705894261598587" lon="11.798094576224685">
        <ele>1052.460000000000036</ele>
        <time>2014-11-15T12:05:23Z</time>
      </trkpt>
      <trkpt lat="47.705905828624964" lon="11.798069681972265">
        <ele>1051.829999999999927</ele>
        <time>2014-11-15T12:05:24Z</time>
      </trkpt>
      <trkpt lat="47.705916138365865" lon="11.798040512949228">
        <ele>1052.200000000000045</ele>
        <time>2014-11-15T12:05:25Z</time>
      </trkpt>
      <trkpt lat="47.705925609916449" lon="11.798003800213337">
        <ele>1051.940000000000055</ele>
        <time>2014-11-15T12:05:26Z</time>
      </trkpt>
      <trkpt lat="47.705937093123794" lon="11.797963147982955">
        <ele>1052.119999999999891</ele>
        <time>2014-11-15T12:05:27Z</time>
      </trkpt>
      <trkpt lat="47.70595352165401" lon="11.797918723896146">
        <ele>1051.960000000000036</ele>
        <time>2014-11-15T12:05:28Z</time>
      </trkpt>
      <trkpt lat="47.705968525260687" lon="11.797873796895146">
        <ele>1051.509999999999991</ele>
        <time>2014-11-15T12:05:29Z</time>
      </trkpt>
      <trkpt lat="47.705985121428967" lon="11.797827528789639">
        <ele>1050.900000000000091</ele>
        <time>2014-11-15T12:05:30Z</time>
      </trkpt>
      <trkpt lat="47.706008506938815" lon="11.797777069732547">
        <ele>1051.240000000000009</ele>
        <time>2014-11-15T12:05:31Z</time>
      </trkpt>
      <trkpt lat="47.706038765609264" lon="11.79772786796093">
        <ele>1050.759999999999991</ele>
        <time>2014-11-15T12:05:32Z</time>
      </trkpt>
      <trkpt lat="47.706064246594906" lon="11.797671038657427">
        <ele>1049.950000000000045</ele>
        <time>2014-11-15T12:05:33Z</time>
      </trkpt>
      <trkpt lat="47.706095175817609" lon="11.797607000917196">
        <ele>1049.740000000000009</ele>
        <time>2014-11-15T12:05:34Z</time>
      </trkpt>
      <trkpt lat="47.706167344003916" lon="11.797478003427386">
        <ele>1048.180000000000064</ele>
        <time>2014-11-15T12:05:36Z</time>
      </trkpt>
      <trkpt lat="47.706206487491727" lon="11.79741220548749">
        <ele>1047.759999999999991</ele>
        <time>2014-11-15T12:05:37Z</time>
      </trkpt>
      <trkpt lat="47.706380244344473" lon="11.797116240486503">
        <ele>1044.240000000000009</ele>
        <time>2014-11-15T12:05:41Z</time>
      </trkpt>
      <trkpt lat="47.706430703401566" lon="11.797043988481164">
        <ele>1043.470000000000027</ele>
        <time>2014-11-15T12:05:42Z</time>
      </trkpt>
      <trkpt lat="47.706554001197219" lon="11.796905100345612">
        <ele>1042.769999999999982</ele>
        <time>2014-11-15T12:05:44Z</time>
      </trkpt>
      <trkpt lat="47.706682914867997" lon="11.796788424253464">
        <ele>1041.400000000000091</ele>
        <time>2014-11-15T12:05:46Z</time>
      </trkpt>
      <trkpt lat="47.706749299541116" lon="11.79674961604178">
        <ele>1041.450000000000045</ele>
        <time>2014-11-15T12:05:47Z</time>
      </trkpt>
      <trkpt lat="47.706808978691697" lon="11.796719525009394">
        <ele>1040.789999999999964</ele>
        <time>2014-11-15T12:05:48Z</time>
      </trkpt>
      <trkpt lat="47.706958092749119" lon="11.796655571088195">
        <ele>1040.990000000000009</ele>
        <time>2014-11-15T12:05:51Z</time>
      </trkpt>
      <trkpt lat="47.706999583169818" lon="11.796615505591035">
        <ele>1040.900000000000091</ele>
        <time>2014-11-15T12:05:52Z</time>
      </trkpt>
      <trkpt lat="47.707022214308381" lon="11.796560604125261">
        <ele>1040.539999999999964</ele>
        <time>2014-11-15T12:05:53Z</time>
      </trkpt>
      <trkpt lat="47.707030344754457" lon="11.796498242765665">
        <ele>1040.630000000000109</ele>
        <time>2014-11-15T12:05:54Z</time>
      </trkpt>
      <trkpt lat="47.707040486857295" lon="11.79636119864881">
        <ele>1039.819999999999936</ele>
        <time>2014-11-15T12:05:56Z</time>
      </trkpt>
      <trkpt lat="47.707045935094357" lon="11.796210492029786">
        <ele>1039.299999999999955</ele>
        <time>2014-11-15T12:05:58Z</time>
      </trkpt>
      <trkpt lat="47.707058591768146" lon="11.796119716018438">
        <ele>1038.950000000000045</ele>
        <time>2014-11-15T12:05:59Z</time>
      </trkpt>
      <trkpt lat="47.70705540664494" lon="11.79603866301477">
        <ele>1038.569999999999936</ele>
        <time>2014-11-15T12:06:00Z</time>
      </trkpt>
      <trkpt lat="47.70703973248601" lon="11.795964315533638">
        <ele>1038</ele>
        <time>2014-11-15T12:06:01Z</time>
      </trkpt>
      <trkpt lat="47.707012658938766" lon="11.795892314985394">
        <ele>1038.210000000000036</ele>
        <time>2014-11-15T12:06:02Z</time>
      </trkpt>
      <trkpt lat="47.706982232630253" lon="11.795819560065866">
        <ele>1037.990000000000009</ele>
        <time>2014-11-15T12:06:03Z</time>
      </trkpt>
      <trkpt lat="47.706892462447286" lon="11.795593667775393">
        <ele>1037.490000000000009</ele>
        <time>2014-11-15T12:06:06Z</time>
      </trkpt>
      <trkpt lat="47.70687703974545" lon="11.795514458790421">
        <ele>1037.200000000000045</ele>
        <time>2014-11-15T12:06:07Z</time>
      </trkpt>
      <trkpt lat="47.706862119957805" lon="11.795347910374403">
        <ele>1036.950000000000045</ele>
        <time>2014-11-15T12:06:09Z</time>
      </trkpt>
      <trkpt lat="47.70687947049737" lon="11.795195024460554">
        <ele>1037.430000000000064</ele>
        <time>2014-11-15T12:06:11Z</time>
      </trkpt>
      <trkpt lat="47.706912914291024" lon="11.795111037790775">
        <ele>1037.529999999999973</ele>
        <time>2014-11-15T12:06:12Z</time>
      </trkpt>
      <trkpt lat="47.706932611763477" lon="11.795048005878925">
        <ele>1037.569999999999936</ele>
        <time>2014-11-15T12:06:13Z</time>
      </trkpt>
      <trkpt lat="47.706952979788184" lon="11.794991260394454">
        <ele>1037.690000000000055</ele>
        <time>2014-11-15T12:06:14Z</time>
      </trkpt>
      <trkpt lat="47.706981142982841" lon="11.794929066672921">
        <ele>1037.829999999999927</ele>
        <time>2014-11-15T12:06:15Z</time>
      </trkpt>
      <trkpt lat="47.706995559856296" lon="11.794874165207148">
        <ele>1037.720000000000027</ele>
        <time>2014-11-15T12:06:16Z</time>
      </trkpt>
      <trkpt lat="47.706998996436596" lon="11.794824209064245">
        <ele>1037.569999999999936</ele>
        <time>2014-11-15T12:06:17Z</time>
      </trkpt>
      <trkpt lat="47.706988854333758" lon="11.794758327305317">
        <ele>1037.569999999999936</ele>
        <time>2014-11-15T12:06:18Z</time>
      </trkpt>
      <trkpt lat="47.706989021971822" lon="11.794674508273602">
        <ele>1038.210000000000036</ele>
        <time>2014-11-15T12:06:19Z</time>
      </trkpt>
      <trkpt lat="47.706979215145111" lon="11.79460359737277">
        <ele>1037.309999999999945</ele>
        <time>2014-11-15T12:06:20Z</time>
      </trkpt>
      <trkpt lat="47.70696060732007" lon="11.79452053271234">
        <ele>1038.019999999999982</ele>
        <time>2014-11-15T12:06:21Z</time>
      </trkpt>
      <trkpt lat="47.706943340599537" lon="11.794453561306">
        <ele>1038.259999999999991</ele>
        <time>2014-11-15T12:06:22Z</time>
      </trkpt>
      <trkpt lat="47.706792969256639" lon="11.793915191665292">
        <ele>1039.440000000000055</ele>
        <time>2014-11-15T12:06:34Z</time>
      </trkpt>
      <trkpt lat="47.706654835492373" lon="11.793354693800211">
        <ele>1039.529999999999973</ele>
        <time>2014-11-15T12:06:45Z</time>
      </trkpt>
      <trkpt lat="47.706557018682361" lon="11.792831076309085">
        <ele>1040.029999999999973</ele>
        <time>2014-11-15T12:06:56Z</time>
      </trkpt>
      <trkpt lat="47.706517791375518" lon="11.792603423818946">
        <ele>1040.059999999999945</ele>
        <time>2014-11-15T12:07:01Z</time>
      </trkpt>
      <trkpt lat="47.706505050882697" lon="11.792565956711769">
        <ele>1039.309999999999945</ele>
        <time>2014-11-15T12:07:02Z</time>
      </trkpt>
      <trkpt lat="47.70637471228838" lon="11.792045021429658">
        <ele>1036.529999999999973</ele>
        <time>2014-11-15T12:07:12Z</time>
      </trkpt>
      <trkpt lat="47.706344956532121" lon="11.791949551552534">
        <ele>1035.950000000000045</ele>
        <time>2014-11-15T12:07:13Z</time>
      </trkpt>
      <trkpt lat="47.706261556595564" lon="11.791483098641038">
        <ele>1032.960000000000036</ele>
        <time>2014-11-15T12:07:18Z</time>
      </trkpt>
      <trkpt lat="47.706171534955502" lon="11.791008347645402">
        <ele>1028.779999999999973</ele>
        <time>2014-11-15T12:07:22Z</time>
      </trkpt>
      <trkpt lat="47.706138594076037" lon="11.790881445631385">
        <ele>1027.289999999999964</ele>
        <time>2014-11-15T12:07:23Z</time>
      </trkpt>
      <trkpt lat="47.706069527193904" lon="11.790600903332233">
        <ele>1024.039999999999964</ele>
        <time>2014-11-15T12:07:25Z</time>
      </trkpt>
      <trkpt lat="47.705980008468032" lon="11.790149537846446">
        <ele>1020.809999999999945</ele>
        <time>2014-11-15T12:07:28Z</time>
      </trkpt>
      <trkpt lat="47.70582695491612" lon="11.789515111595392">
        <ele>1017.909999999999968</ele>
        <time>2014-11-15T12:07:32Z</time>
      </trkpt>
      <trkpt lat="47.705595614388585" lon="11.788828717544675">
        <ele>1014.039999999999964</ele>
        <time>2014-11-15T12:07:37Z</time>
      </trkpt>
      <trkpt lat="47.705426886677742" lon="11.788387326523662">
        <ele>1009.789999999999964</ele>
        <time>2014-11-15T12:07:40Z</time>
      </trkpt>
      <trkpt lat="47.705322029069066" lon="11.788098905235529">
        <ele>1008.690000000000055</ele>
        <time>2014-11-15T12:07:42Z</time>
      </trkpt>
      <trkpt lat="47.70528213120997" lon="11.787946606054902">
        <ele>1008.789999999999964</ele>
        <time>2014-11-15T12:07:43Z</time>
      </trkpt>
      <trkpt lat="47.705207364633679" lon="11.787278316915035">
        <ele>1011.82000000000005</ele>
        <time>2014-11-15T12:07:48Z</time>
      </trkpt>
      <trkpt lat="47.705193199217319" lon="11.78699710406363">
        <ele>1012.620000000000005</ele>
        <time>2014-11-15T12:07:51Z</time>
      </trkpt>
      <trkpt lat="47.705108541995287" lon="11.786604076623917">
        <ele>1015.330000000000041</ele>
        <time>2014-11-15T12:07:59Z</time>
      </trkpt>
      <trkpt lat="47.705065291374922" lon="11.786357564851642">
        <ele>1015.950000000000045</ele>
        <time>2014-11-15T12:08:04Z</time>
      </trkpt>
      <trkpt lat="47.705042073503137" lon="11.786269722506404">
        <ele>1016.200000000000045</ele>
        <time>2014-11-15T12:08:05Z</time>
      </trkpt>
      <trkpt lat="47.705030255019665" lon="11.786223454400897">
        <ele>1016.159999999999968</ele>
        <time>2014-11-15T12:08:06Z</time>
      </trkpt>
      <trkpt lat="47.704922715201974" lon="11.785806035622954">
        <ele>1018.82000000000005</ele>
        <time>2014-11-15T12:08:21Z</time>
      </trkpt>
      <trkpt lat="47.704931097105145" lon="11.785428682342172">
        <ele>1020.730000000000018</ele>
        <time>2014-11-15T12:08:36Z</time>
      </trkpt>
      <trkpt lat="47.704994799569249" lon="11.785227432847023">
        <ele>1022.75</ele>
        <time>2014-11-15T12:08:50Z</time>
      </trkpt>
      <trkpt lat="47.704957667738199" lon="11.785130286589265">
        <ele>1024.119999999999891</ele>
        <time>2014-11-15T12:09:06Z</time>
      </trkpt>
      <trkpt lat="47.704908298328519" lon="11.785041270777583">
        <ele>1027.210000000000036</ele>
        <time>2014-11-15T12:09:20Z</time>
      </trkpt>
      <trkpt lat="47.704807631671429" lon="11.784951584413648">
        <ele>1030.329999999999927</ele>
        <time>2014-11-15T12:09:32Z</time>
      </trkpt>
      <trkpt lat="47.704610154032707" lon="11.784863574430346">
        <ele>1032.3900000000001</ele>
        <time>2014-11-15T12:09:57Z</time>
      </trkpt>
      <trkpt lat="47.704622391611338" lon="11.784954769536853">
        <ele>1032.200000000000045</ele>
        <time>2014-11-15T12:10:15Z</time>
      </trkpt>
      <trkpt lat="47.704577129334211" lon="11.785054346546531">
        <ele>1032.990000000000009</ele>
        <time>2014-11-15T12:10:46Z</time>
      </trkpt>
      <trkpt lat="47.70454335026443" lon="11.785121066495776">
        <ele>1032.970000000000027</ele>
        <time>2014-11-15T12:10:51Z</time>
      </trkpt>
      <trkpt lat="47.704535135999322" lon="11.785148810595274">
        <ele>1032.819999999999936</ele>
        <time>2014-11-15T12:10:52Z</time>
      </trkpt>
      <trkpt lat="47.70452968776226" lon="11.785179739817977">
        <ele>1032.579999999999927</ele>
        <time>2014-11-15T12:10:53Z</time>
      </trkpt>
      <trkpt lat="47.704509319737554" lon="11.785632949322462">
        <ele>1034.6099999999999</ele>
        <time>2014-11-15T12:11:06Z</time>
      </trkpt>
      <trkpt lat="47.704455507919192" lon="11.786006195470691">
        <ele>1035.779999999999973</ele>
        <time>2014-11-15T12:11:17Z</time>
      </trkpt>
      <trkpt lat="47.704389039427042" lon="11.786277769133449">
        <ele>1038.910000000000082</ele>
        <time>2014-11-15T12:11:29Z</time>
      </trkpt>
      <trkpt lat="47.704392476007342" lon="11.786509361118078">
        <ele>1041.119999999999891</ele>
        <time>2014-11-15T12:11:43Z</time>
      </trkpt>
      <trkpt lat="47.704363809898496" lon="11.786723099648952">
        <ele>1044.6099999999999</ele>
        <time>2014-11-15T12:12:00Z</time>
      </trkpt>
      <trkpt lat="47.7043601218611" lon="11.786851929500699">
        <ele>1046.3599999999999</ele>
        <time>2014-11-15T12:12:21Z</time>
      </trkpt>
      <trkpt lat="47.704303711652756" lon="11.787037421017885">
        <ele>1049.039999999999964</ele>
        <time>2014-11-15T12:12:44Z</time>
      </trkpt>
      <trkpt lat="47.704278649762273" lon="11.787136076018214">
        <ele>1050.160000000000082</ele>
        <time>2014-11-15T12:12:50Z</time>
      </trkpt>
      <trkpt lat="47.704237746074796" lon="11.787378983572125">
        <ele>1054.039999999999964</ele>
        <time>2014-11-15T12:13:07Z</time>
      </trkpt>
      <trkpt lat="47.704215785488486" lon="11.787484847009182">
        <ele>1055.970000000000027</ele>
        <time>2014-11-15T12:13:28Z</time>
      </trkpt>
      <trkpt lat="47.704156190156937" lon="11.78754678927362">
        <ele>1059.240000000000009</ele>
        <time>2014-11-15T12:13:40Z</time>
      </trkpt>
      <trkpt lat="47.704057451337576" lon="11.787498090416193">
        <ele>1062.579999999999927</ele>
        <time>2014-11-15T12:13:58Z</time>
      </trkpt>
      <trkpt lat="47.704028282314539" lon="11.787451487034559">
        <ele>1065.819999999999936</ele>
        <time>2014-11-15T12:14:14Z</time>
      </trkpt>
      <trkpt lat="47.703962149098516" lon="11.787300361320376">
        <ele>1065.960000000000036</ele>
        <time>2014-11-15T12:14:35Z</time>
      </trkpt>
      <trkpt lat="47.703993497416377" lon="11.787192402407527">
        <ele>1067.549999999999955</ele>
        <time>2014-11-15T12:14:57Z</time>
      </trkpt>
      <trkpt lat="47.704008920118213" lon="11.786973299458623">
        <ele>1070.740000000000009</ele>
        <time>2014-11-15T12:15:12Z</time>
      </trkpt>
      <trkpt lat="47.703981678932905" lon="11.786823850125074">
        <ele>1071.519999999999982</ele>
        <time>2014-11-15T12:15:20Z</time>
      </trkpt>
      <trkpt lat="47.703848741948605" lon="11.786370472982526">
        <ele>1068.170000000000073</ele>
        <time>2014-11-15T12:15:35Z</time>
      </trkpt>
      <trkpt lat="47.703645313158631" lon="11.786097893491387">
        <ele>1066.289999999999964</ele>
        <time>2014-11-15T12:15:46Z</time>
      </trkpt>
      <trkpt lat="47.703563841059804" lon="11.785904355347157">
        <ele>1062.8900000000001</ele>
        <time>2014-11-15T12:15:50Z</time>
      </trkpt>
      <trkpt lat="47.703586639836431" lon="11.785702100023627">
        <ele>1060.420000000000073</ele>
        <time>2014-11-15T12:15:53Z</time>
      </trkpt>
      <trkpt lat="47.703621676191688" lon="11.785547202453017">
        <ele>1059.509999999999991</ele>
        <time>2014-11-15T12:15:55Z</time>
      </trkpt>
      <trkpt lat="47.703734328970313" lon="11.785333044826984">
        <ele>1056.069999999999936</ele>
        <time>2014-11-15T12:15:58Z</time>
      </trkpt>
      <trkpt lat="47.703851256519556" lon="11.785037163645029">
        <ele>1053.319999999999936</ele>
        <time>2014-11-15T12:16:05Z</time>
      </trkpt>
      <trkpt lat="47.703962400555611" lon="11.784680178388953">
        <ele>1052.059999999999945</ele>
        <time>2014-11-15T12:16:14Z</time>
      </trkpt>
      <trkpt lat="47.704157531261444" lon="11.784416316077113">
        <ele>1051.029999999999973</ele>
        <time>2014-11-15T12:16:24Z</time>
      </trkpt>
      <trkpt lat="47.704414688050747" lon="11.784144658595324">
        <ele>1051.930000000000064</ele>
        <time>2014-11-15T12:16:36Z</time>
      </trkpt>
      <trkpt lat="47.704529855400324" lon="11.78410392254591">
        <ele>1052.740000000000009</ele>
        <time>2014-11-15T12:16:40Z</time>
      </trkpt>
      <trkpt lat="47.704544607549906" lon="11.784091684967279">
        <ele>1052.410000000000082</ele>
        <time>2014-11-15T12:16:41Z</time>
      </trkpt>
      <trkpt lat="47.704577632248402" lon="11.784085985273123">
        <ele>1052.960000000000036</ele>
        <time>2014-11-15T12:16:42Z</time>
      </trkpt>
      <trkpt lat="47.704594815149903" lon="11.784072490409017">
        <ele>1053.539999999999964</ele>
        <time>2014-11-15T12:16:43Z</time>
      </trkpt>
      <trkpt lat="47.704615350812674" lon="11.784054804593325">
        <ele>1053.579999999999927</ele>
        <time>2014-11-15T12:16:44Z</time>
      </trkpt>
      <trkpt lat="47.70462985150516" lon="11.784025132656097">
        <ele>1054.079999999999927</ele>
        <time>2014-11-15T12:16:45Z</time>
      </trkpt>
      <trkpt lat="47.704648794606328" lon="11.783994371071458">
        <ele>1053.819999999999936</ele>
        <time>2014-11-15T12:16:46Z</time>
      </trkpt>
      <trkpt lat="47.704667318612337" lon="11.783965034410357">
        <ele>1054.460000000000036</ele>
        <time>2014-11-15T12:16:47Z</time>
      </trkpt>
      <trkpt lat="47.704699169844389" lon="11.78393293172121">
        <ele>1054.660000000000082</ele>
        <time>2014-11-15T12:16:48Z</time>
      </trkpt>
      <trkpt lat="47.70472314208746" lon="11.78391139023006">
        <ele>1054.329999999999927</ele>
        <time>2014-11-15T12:16:49Z</time>
      </trkpt>
      <trkpt lat="47.704898407682776" lon="11.783677702769637">
        <ele>1050.6099999999999</ele>
        <time>2014-11-15T12:16:55Z</time>
      </trkpt>
      <trkpt lat="47.704993039369583" lon="11.78357133641839">
        <ele>1049.599999999999909</ele>
        <time>2014-11-15T12:16:57Z</time>
      </trkpt>
      <trkpt lat="47.705046264454722" lon="11.7835190333426">
        <ele>1050.319999999999936</ele>
        <time>2014-11-15T12:16:58Z</time>
      </trkpt>
      <trkpt lat="47.705100830644369" lon="11.783479806035757">
        <ele>1050.970000000000027</ele>
        <time>2014-11-15T12:16:59Z</time>
      </trkpt>
      <trkpt lat="47.705149026587605" lon="11.783444937318563">
        <ele>1051.450000000000045</ele>
        <time>2014-11-15T12:17:00Z</time>
      </trkpt>
      <trkpt lat="47.705180710181594" lon="11.783424569293857">
        <ele>1051.579999999999927</ele>
        <time>2014-11-15T12:17:01Z</time>
      </trkpt>
      <trkpt lat="47.705401154235005" lon="11.783307809382677">
        <ele>1054.5</ele>
        <time>2014-11-15T12:17:13Z</time>
      </trkpt>
      <trkpt lat="47.70555580034852" lon="11.783106559887528">
        <ele>1055.480000000000018</ele>
        <time>2014-11-15T12:17:26Z</time>
      </trkpt>
      <trkpt lat="47.705734670162201" lon="11.782857114449143">
        <ele>1056.759999999999991</ele>
        <time>2014-11-15T12:17:42Z</time>
      </trkpt>
      <trkpt lat="47.705845311284065" lon="11.7827401868999">
        <ele>1060.200000000000045</ele>
        <time>2014-11-15T12:17:56Z</time>
      </trkpt>
      <trkpt lat="47.705849166959524" lon="11.78273038007319">
        <ele>1060.380000000000109</ele>
        <time>2014-11-15T12:17:57Z</time>
      </trkpt>
      <trkpt lat="47.705889064818621" lon="11.782594090327621">
        <ele>1061.210000000000036</ele>
        <time>2014-11-15T12:18:06Z</time>
      </trkpt>
      <trkpt lat="47.705863164737821" lon="11.782554779201746">
        <ele>1062.3599999999999</ele>
        <time>2014-11-15T12:18:29Z</time>
      </trkpt>
      <trkpt lat="47.705900212749839" lon="11.782471127808094">
        <ele>1063.299999999999955</ele>
        <time>2014-11-15T12:18:37Z</time>
      </trkpt>
      <trkpt lat="47.705904403701425" lon="11.782451514154673">
        <ele>1063.240000000000009</ele>
        <time>2014-11-15T12:18:38Z</time>
      </trkpt>
      <trkpt lat="47.705906666815281" lon="11.782430140301585">
        <ele>1063.589999999999918</ele>
        <time>2014-11-15T12:18:39Z</time>
      </trkpt>
      <trkpt lat="47.70595595240593" lon="11.782195279374719">
        <ele>1064.869999999999891</ele>
        <time>2014-11-15T12:18:50Z</time>
      </trkpt>
      <trkpt lat="47.705962993204594" lon="11.782177006825805">
        <ele>1065.009999999999991</ele>
        <time>2014-11-15T12:18:51Z</time>
      </trkpt>
      <trkpt lat="47.706100204959512" lon="11.781849609687924">
        <ele>1066.799999999999955</ele>
        <time>2014-11-15T12:19:06Z</time>
      </trkpt>
      <trkpt lat="47.706410335376859" lon="11.7815210390836">
        <ele>1066.079999999999927</ele>
        <time>2014-11-15T12:19:19Z</time>
      </trkpt>
      <trkpt lat="47.706723818555474" lon="11.781229851767421">
        <ele>1065.960000000000036</ele>
        <time>2014-11-15T12:19:30Z</time>
      </trkpt>
      <trkpt lat="47.706795316189528" lon="11.78114184178412">
        <ele>1066.3599999999999</ele>
        <time>2014-11-15T12:19:42Z</time>
      </trkpt>
      <trkpt lat="47.706815684214234" lon="11.781046623364091">
        <ele>1066.25</ele>
        <time>2014-11-15T12:20:06Z</time>
      </trkpt>
      <trkpt lat="47.706855079159141" lon="11.781027764081955">
        <ele>1066.130000000000109</ele>
        <time>2014-11-15T12:20:23Z</time>
      </trkpt>
      <trkpt lat="47.706899000331759" lon="11.780988117679954">
        <ele>1065.279999999999973</ele>
        <time>2014-11-15T12:20:26Z</time>
      </trkpt>
      <trkpt lat="47.706935210153461" lon="11.780943525955081">
        <ele>1064.190000000000055</ele>
        <time>2014-11-15T12:20:29Z</time>
      </trkpt>
      <trkpt lat="47.706946022808552" lon="11.78088678047061">
        <ele>1063.3599999999999</ele>
        <time>2014-11-15T12:20:32Z</time>
      </trkpt>
      <trkpt lat="47.706922302022576" lon="11.780834645032883">
        <ele>1061.940000000000055</ele>
        <time>2014-11-15T12:20:37Z</time>
      </trkpt>
      <trkpt lat="47.7069176081568" lon="11.780812181532383">
        <ele>1061.720000000000027</ele>
        <time>2014-11-15T12:20:38Z</time>
      </trkpt>
      <trkpt lat="47.706917440518737" lon="11.780771361663938">
        <ele>1061.720000000000027</ele>
        <time>2014-11-15T12:20:40Z</time>
      </trkpt>
      <trkpt lat="47.706871088594198" lon="11.780635491013527">
        <ele>1059.150000000000091</ele>
        <time>2014-11-15T12:20:48Z</time>
      </trkpt>
      <trkpt lat="47.706818785518408" lon="11.780603136867285">
        <ele>1057.940000000000055</ele>
        <time>2014-11-15T12:20:53Z</time>
      </trkpt>
      <trkpt lat="47.706808811053634" lon="11.78058042190969">
        <ele>1057.730000000000018</ele>
        <time>2014-11-15T12:20:54Z</time>
      </trkpt>
      <trkpt lat="47.706799088045955" lon="11.780560724437237">
        <ele>1057.190000000000055</ele>
        <time>2014-11-15T12:20:55Z</time>
      </trkpt>
      <trkpt lat="47.706773607060313" lon="11.78050858899951">
        <ele>1055.670000000000073</ele>
        <time>2014-11-15T12:20:58Z</time>
      </trkpt>
      <trkpt lat="47.706716861575842" lon="11.780306333675981">
        <ele>1052.430000000000064</ele>
        <time>2014-11-15T12:21:09Z</time>
      </trkpt>
      <trkpt lat="47.706648297607899" lon="11.780080106109381">
        <ele>1049.990000000000009</ele>
        <time>2014-11-15T12:21:19Z</time>
      </trkpt>
      <trkpt lat="47.706637065857649" lon="11.780058229342103">
        <ele>1050.700000000000045</ele>
        <time>2014-11-15T12:21:21Z</time>
      </trkpt>
      <trkpt lat="47.706570513546467" lon="11.779819596558809">
        <ele>1047.769999999999982</ele>
        <time>2014-11-15T12:21:39Z</time>
      </trkpt>
      <trkpt lat="47.706554420292377" lon="11.779748434200883">
        <ele>1046.329999999999927</ele>
        <time>2014-11-15T12:21:41Z</time>
      </trkpt>
      <trkpt lat="47.706490214914083" lon="11.779601164162159">
        <ele>1044.930000000000064</ele>
        <time>2014-11-15T12:21:49Z</time>
      </trkpt>
      <trkpt lat="47.70647051744163" lon="11.779550034552813">
        <ele>1045.269999999999982</ele>
        <time>2014-11-15T12:21:52Z</time>
      </trkpt>
      <trkpt lat="47.706431122496724" lon="11.779372924938798">
        <ele>1044.339999999999918</ele>
        <time>2014-11-15T12:21:59Z</time>
      </trkpt>
      <trkpt lat="47.706360714510083" lon="11.779247112572193">
        <ele>1041.920000000000073</ele>
        <time>2014-11-15T12:22:15Z</time>
      </trkpt>
      <trkpt lat="47.706197183579206" lon="11.779120797291398">
        <ele>1042.940000000000055</ele>
        <time>2014-11-15T12:22:34Z</time>
      </trkpt>
      <trkpt lat="47.706133062019944" lon="11.779072433710098">
        <ele>1039.8900000000001</ele>
        <time>2014-11-15T12:22:54Z</time>
      </trkpt>
      <trkpt lat="47.706070700660348" lon="11.778978137299418">
        <ele>1039.049999999999955</ele>
        <time>2014-11-15T12:23:12Z</time>
      </trkpt>
      <trkpt lat="47.70599945448339" lon="11.778900772333145">
        <ele>1036.559999999999945</ele>
        <time>2014-11-15T12:23:32Z</time>
      </trkpt>
      <trkpt lat="47.705990569666028" lon="11.778830112889409">
        <ele>1035.430000000000064</ele>
        <time>2014-11-15T12:23:34Z</time>
      </trkpt>
      <trkpt lat="47.705993000417948" lon="11.778800776228309">
        <ele>1035.690000000000055</ele>
        <time>2014-11-15T12:23:35Z</time>
      </trkpt>
      <trkpt lat="47.706018649041653" lon="11.778709245845675">
        <ele>1034.25</ele>
        <time>2014-11-15T12:23:48Z</time>
      </trkpt>
      <trkpt lat="47.706020241603255" lon="11.778640933334827">
        <ele>1033.009999999999991</ele>
        <time>2014-11-15T12:23:51Z</time>
      </trkpt>
      <trkpt lat="47.70602292381227" lon="11.778609165921807">
        <ele>1032.5</ele>
        <time>2014-11-15T12:23:52Z</time>
      </trkpt>
      <trkpt lat="47.706022504717112" lon="11.778577901422977">
        <ele>1031.920000000000073</ele>
        <time>2014-11-15T12:23:53Z</time>
      </trkpt>
      <trkpt lat="47.706016721203923" lon="11.778558287769556">
        <ele>1031.1099999999999</ele>
        <time>2014-11-15T12:23:54Z</time>
      </trkpt>
      <trkpt lat="47.706016469746828" lon="11.77853993140161">
        <ele>1031.119999999999891</ele>
        <time>2014-11-15T12:23:55Z</time>
      </trkpt>
      <trkpt lat="47.705999789759517" lon="11.778376987203956">
        <ele>1029.049999999999955</ele>
        <time>2014-11-15T12:24:07Z</time>
      </trkpt>
      <trkpt lat="47.705997275188565" lon="11.778269112110138">
        <ele>1028.089999999999918</ele>
        <time>2014-11-15T12:24:10Z</time>
      </trkpt>
      <trkpt lat="47.706000963225961" lon="11.77824480459094">
        <ele>1027.380000000000109</ele>
        <time>2014-11-15T12:24:11Z</time>
      </trkpt>
      <trkpt lat="47.705998281016946" lon="11.778139108791947">
        <ele>1027.170000000000073</ele>
        <time>2014-11-15T12:24:14Z</time>
      </trkpt>
      <trkpt lat="47.705975398421288" lon="11.778013464063406">
        <ele>1026.670000000000073</ele>
        <time>2014-11-15T12:24:18Z</time>
      </trkpt>
      <trkpt lat="47.705960981547832" lon="11.777982031926513">
        <ele>1026.369999999999891</ele>
        <time>2014-11-15T12:24:19Z</time>
      </trkpt>
      <trkpt lat="47.705948743969202" lon="11.777945654466748">
        <ele>1026.309999999999945</ele>
        <time>2014-11-15T12:24:20Z</time>
      </trkpt>
      <trkpt lat="47.705942708998919" lon="11.777905505150557">
        <ele>1025.400000000000091</ele>
        <time>2014-11-15T12:24:21Z</time>
      </trkpt>
      <trkpt lat="47.705933824181557" lon="11.777868960052729">
        <ele>1025.059999999999945</ele>
        <time>2014-11-15T12:24:22Z</time>
      </trkpt>
      <trkpt lat="47.705936003476381" lon="11.777801401913166">
        <ele>1024.349999999999909</ele>
        <time>2014-11-15T12:24:24Z</time>
      </trkpt>
      <trkpt lat="47.705946564674377" lon="11.777732837945223">
        <ele>1023.639999999999986</ele>
        <time>2014-11-15T12:24:27Z</time>
      </trkpt>
      <trkpt lat="47.705934410914779" lon="11.777635188773274">
        <ele>1021.67999999999995</ele>
        <time>2014-11-15T12:24:30Z</time>
      </trkpt>
      <trkpt lat="47.705909516662359" lon="11.777537036687136">
        <ele>1019.169999999999959</ele>
        <time>2014-11-15T12:24:36Z</time>
      </trkpt>
      <trkpt lat="47.705907085910439" lon="11.777515998110175">
        <ele>1018.840000000000032</ele>
        <time>2014-11-15T12:24:37Z</time>
      </trkpt>
      <trkpt lat="47.70588168874383" lon="11.777293710038066">
        <ele>1017.259999999999991</ele>
        <time>2014-11-15T12:24:44Z</time>
      </trkpt>
      <trkpt lat="47.705892836675048" lon="11.777133196592331">
        <ele>1014</ele>
        <time>2014-11-15T12:24:53Z</time>
      </trkpt>
      <trkpt lat="47.705908427014947" lon="11.776894396170974">
        <ele>1010.889999999999986</ele>
        <time>2014-11-15T12:24:59Z</time>
      </trkpt>
      <trkpt lat="47.705881856381893" lon="11.776685435324907">
        <ele>1009.32000000000005</ele>
        <time>2014-11-15T12:25:04Z</time>
      </trkpt>
      <trkpt lat="47.705858889967203" lon="11.776309171691537">
        <ele>1006.009999999999991</ele>
        <time>2014-11-15T12:25:12Z</time>
      </trkpt>
      <trkpt lat="47.705858806148171" lon="11.776013877242804">
        <ele>1002.860000000000014</ele>
        <time>2014-11-15T12:25:19Z</time>
      </trkpt>
      <trkpt lat="47.705831145867705" lon="11.775716068223119">
        <ele>999.659999999999968</ele>
        <time>2014-11-15T12:25:27Z</time>
      </trkpt>
      <trkpt lat="47.705815890803933" lon="11.775669967755675">
        <ele>999.450000000000045</ele>
        <time>2014-11-15T12:25:28Z</time>
      </trkpt>
      <trkpt lat="47.70576492883265" lon="11.775437705218792">
        <ele>996.419999999999959</ele>
        <time>2014-11-15T12:25:34Z</time>
      </trkpt>
      <trkpt lat="47.70577322691679" lon="11.775390934199095">
        <ele>995.690000000000055</ele>
        <time>2014-11-15T12:25:35Z</time>
      </trkpt>
      <trkpt lat="47.705769874155521" lon="11.775349611416459">
        <ele>995.860000000000014</ele>
        <time>2014-11-15T12:25:36Z</time>
      </trkpt>
      <trkpt lat="47.705768868327141" lon="11.775311641395092">
        <ele>994.889999999999986</ele>
        <time>2014-11-15T12:25:37Z</time>
      </trkpt>
      <trkpt lat="47.705763503909111" lon="11.775237126275897">
        <ele>994.830000000000041</ele>
        <time>2014-11-15T12:25:40Z</time>
      </trkpt>
      <trkpt lat="47.705748332664371" lon="11.77513905800879">
        <ele>993.42999999999995</ele>
        <time>2014-11-15T12:25:43Z</time>
      </trkpt>
      <trkpt lat="47.705747075378895" lon="11.775111062452197">
        <ele>993.340000000000032</ele>
        <time>2014-11-15T12:25:44Z</time>
      </trkpt>
      <trkpt lat="47.70574975758791" lon="11.775078373029828">
        <ele>993.509999999999991</ele>
        <time>2014-11-15T12:25:45Z</time>
      </trkpt>
      <trkpt lat="47.705750847235322" lon="11.775039313361049">
        <ele>993.17999999999995</ele>
        <time>2014-11-15T12:25:46Z</time>
      </trkpt>
      <trkpt lat="47.70574439316988" lon="11.774995727464557">
        <ele>993.200000000000045</ele>
        <time>2014-11-15T12:25:47Z</time>
      </trkpt>
      <trkpt lat="47.705736178904772" lon="11.774965552613139">
        <ele>993.240000000000009</ele>
        <time>2014-11-15T12:25:48Z</time>
      </trkpt>
      <trkpt lat="47.705733496695757" lon="11.774917608126998">
        <ele>992.75</ele>
        <time>2014-11-15T12:25:49Z</time>
      </trkpt>
      <trkpt lat="47.705732407048345" lon="11.774876872077584">
        <ele>992.610000000000014</ele>
        <time>2014-11-15T12:25:50Z</time>
      </trkpt>
      <trkpt lat="47.705730311572552" lon="11.774847032502294">
        <ele>992.230000000000018</ele>
        <time>2014-11-15T12:25:51Z</time>
      </trkpt>
      <trkpt lat="47.705723773688078" lon="11.774815348908305">
        <ele>991.840000000000032</ele>
        <time>2014-11-15T12:25:52Z</time>
      </trkpt>
      <trkpt lat="47.705715727061033" lon="11.774782575666904">
        <ele>990.990000000000009</ele>
        <time>2014-11-15T12:25:53Z</time>
      </trkpt>
      <trkpt lat="47.70569795742631" lon="11.77475449629128">
        <ele>990.210000000000036</ele>
        <time>2014-11-15T12:25:54Z</time>
      </trkpt>
      <trkpt lat="47.705690329894423" lon="11.774727506563067">
        <ele>989.340000000000032</ele>
        <time>2014-11-15T12:25:55Z</time>
      </trkpt>
      <trkpt lat="47.705684043467045" lon="11.774701355025172">
        <ele>989.009999999999991</ele>
        <time>2014-11-15T12:25:56Z</time>
      </trkpt>
      <trkpt lat="47.705667531117797" lon="11.774567915126681">
        <ele>985.659999999999968</ele>
        <time>2014-11-15T12:26:03Z</time>
      </trkpt>
      <trkpt lat="47.705659400671721" lon="11.774543691426516">
        <ele>985.740000000000009</ele>
        <time>2014-11-15T12:26:04Z</time>
      </trkpt>
      <trkpt lat="47.7056466601789" lon="11.774496166035533">
        <ele>985.159999999999968</ele>
        <time>2014-11-15T12:26:05Z</time>
      </trkpt>
      <trkpt lat="47.705638948827982" lon="11.774445874616504">
        <ele>985.25</ele>
        <time>2014-11-15T12:26:07Z</time>
      </trkpt>
      <trkpt lat="47.705642720684409" lon="11.774412682279944">
        <ele>984.25</ele>
        <time>2014-11-15T12:26:08Z</time>
      </trkpt>
      <trkpt lat="47.70564766600728" lon="11.774374796077609">
        <ele>984.110000000000014</ele>
        <time>2014-11-15T12:26:09Z</time>
      </trkpt>
      <trkpt lat="47.705657305195928" lon="11.774336323142052">
        <ele>983.909999999999968</ele>
        <time>2014-11-15T12:26:10Z</time>
      </trkpt>
      <trkpt lat="47.705659065395594" lon="11.77429080940783">
        <ele>983.799999999999955</ele>
        <time>2014-11-15T12:26:11Z</time>
      </trkpt>
      <trkpt lat="47.705661077052355" lon="11.774240685626864">
        <ele>983.769999999999982</ele>
        <time>2014-11-15T12:26:12Z</time>
      </trkpt>
      <trkpt lat="47.705663591623306" lon="11.774207912385464">
        <ele>983.360000000000014</ele>
        <time>2014-11-15T12:26:13Z</time>
      </trkpt>
      <trkpt lat="47.705656802281737" lon="11.774171786382794">
        <ele>983.059999999999945</ele>
        <time>2014-11-15T12:26:14Z</time>
      </trkpt>
      <trkpt lat="47.705636769533157" lon="11.774129122495651">
        <ele>982.879999999999995</ele>
        <time>2014-11-15T12:26:15Z</time>
      </trkpt>
      <trkpt lat="47.705558817833662" lon="11.773980176076293">
        <ele>981.470000000000027</ele>
        <time>2014-11-15T12:26:20Z</time>
      </trkpt>
      <trkpt lat="47.70555186085403" lon="11.773956539109349">
        <ele>980.92999999999995</ele>
        <time>2014-11-15T12:26:21Z</time>
      </trkpt>
      <trkpt lat="47.705375170335174" lon="11.773722432553768">
        <ele>977.970000000000027</ele>
        <time>2014-11-15T12:26:27Z</time>
      </trkpt>
      <trkpt lat="47.705284478142858" lon="11.773662082850933">
        <ele>975.779999999999973</ele>
        <time>2014-11-15T12:26:30Z</time>
      </trkpt>
      <trkpt lat="47.705268133431673" lon="11.773622604086995">
        <ele>974.990000000000009</ele>
        <time>2014-11-15T12:26:32Z</time>
      </trkpt>
      <trkpt lat="47.705266876146197" lon="11.773594608530402">
        <ele>973.75</ele>
        <time>2014-11-15T12:26:35Z</time>
      </trkpt>
      <trkpt lat="47.705203425139189" lon="11.773481285199523">
        <ele>970.610000000000014</ele>
        <time>2014-11-15T12:26:44Z</time>
      </trkpt>
      <trkpt lat="47.705177022144198" lon="11.773416073992848">
        <ele>968.279999999999973</ele>
        <time>2014-11-15T12:26:47Z</time>
      </trkpt>
      <trkpt lat="47.705160928890109" lon="11.773391682654619">
        <ele>967.620000000000005</ele>
        <time>2014-11-15T12:26:48Z</time>
      </trkpt>
      <trkpt lat="47.705132095143199" lon="11.773354215547442">
        <ele>966.860000000000014</ele>
        <time>2014-11-15T12:26:49Z</time>
      </trkpt>
      <trkpt lat="47.70512237213552" lon="11.773339379578829">
        <ele>966.879999999999995</ele>
        <time>2014-11-15T12:26:50Z</time>
      </trkpt>
      <trkpt lat="47.704917518422008" lon="11.773106111213565">
        <ele>964.850000000000023</ele>
        <time>2014-11-15T12:27:03Z</time>
      </trkpt>
      <trkpt lat="47.704896982759237" lon="11.773043246939778">
        <ele>961.07000000000005</ele>
        <time>2014-11-15T12:27:18Z</time>
      </trkpt>
      <trkpt lat="47.704890863969922" lon="11.773021034896374">
        <ele>961.019999999999982</ele>
        <time>2014-11-15T12:27:19Z</time>
      </trkpt>
      <trkpt lat="47.704888349398971" lon="11.77300812676549">
        <ele>960.509999999999991</ele>
        <time>2014-11-15T12:27:20Z</time>
      </trkpt>
      <trkpt lat="47.704885583370924" lon="11.77282489836216">
        <ele>957.120000000000005</ele>
        <time>2014-11-15T12:27:33Z</time>
      </trkpt>
      <trkpt lat="47.70489220507443" lon="11.772800507023931">
        <ele>956.379999999999995</ele>
        <time>2014-11-15T12:27:34Z</time>
      </trkpt>
      <trkpt lat="47.704894971102476" lon="11.77277360111475">
        <ele>956.440000000000055</ele>
        <time>2014-11-15T12:27:35Z</time>
      </trkpt>
      <trkpt lat="47.704894049093127" lon="11.772747617214918">
        <ele>956.659999999999968</ele>
        <time>2014-11-15T12:27:36Z</time>
      </trkpt>
      <trkpt lat="47.704897737130523" lon="11.772723644971848">
        <ele>955.720000000000027</ele>
        <time>2014-11-15T12:27:37Z</time>
      </trkpt>
      <trkpt lat="47.704903017729521" lon="11.77269984036684">
        <ele>955.230000000000018</ele>
        <time>2014-11-15T12:27:38Z</time>
      </trkpt>
      <trkpt lat="47.704900251701474" lon="11.772678634151816">
        <ele>955.120000000000005</ele>
        <time>2014-11-15T12:27:39Z</time>
      </trkpt>
      <trkpt lat="47.704924894496799" lon="11.772404629737139">
        <ele>953.399999999999977</ele>
        <time>2014-11-15T12:27:47Z</time>
      </trkpt>
      <trkpt lat="47.704927241429687" lon="11.772378059104085">
        <ele>953.059999999999945</ele>
        <time>2014-11-15T12:27:48Z</time>
      </trkpt>
      <trkpt lat="47.704941742122173" lon="11.772358948364854">
        <ele>952.950000000000045</ele>
        <time>2014-11-15T12:27:49Z</time>
      </trkpt>
      <trkpt lat="47.704952387139201" lon="11.772343777120113">
        <ele>952.190000000000055</ele>
        <time>2014-11-15T12:27:50Z</time>
      </trkpt>
      <trkpt lat="47.704972419887781" lon="11.772323995828629">
        <ele>951.330000000000041</ele>
        <time>2014-11-15T12:27:52Z</time>
      </trkpt>
      <trkpt lat="47.705056741833687" lon="11.772204218432307">
        <ele>948.710000000000036</ele>
        <time>2014-11-15T12:27:58Z</time>
      </trkpt>
      <trkpt lat="47.705064117908478" lon="11.772170607000589">
        <ele>948.080000000000041</ele>
        <time>2014-11-15T12:27:59Z</time>
      </trkpt>
      <trkpt lat="47.705183140933514" lon="11.771928537636995">
        <ele>945.919999999999959</ele>
        <time>2014-11-15T12:28:03Z</time>
      </trkpt>
      <trkpt lat="47.70520300604403" lon="11.771861147135496">
        <ele>945.639999999999986</ele>
        <time>2014-11-15T12:28:04Z</time>
      </trkpt>
      <trkpt lat="47.705301744863391" lon="11.771613713353872">
        <ele>943.919999999999959</ele>
        <time>2014-11-15T12:28:09Z</time>
      </trkpt>
      <trkpt lat="47.705302499234676" lon="11.771559985354543">
        <ele>942.580000000000041</ele>
        <time>2014-11-15T12:28:10Z</time>
      </trkpt>
      <trkpt lat="47.705279029905796" lon="11.771432496607304">
        <ele>941.440000000000055</ele>
        <time>2014-11-15T12:28:12Z</time>
      </trkpt>
      <trkpt lat="47.705244161188602" lon="11.771275419741869">
        <ele>938.269999999999982</ele>
        <time>2014-11-15T12:28:15Z</time>
      </trkpt>
      <trkpt lat="47.705244496464729" lon="11.771233761683106">
        <ele>938.039999999999964</ele>
        <time>2014-11-15T12:28:16Z</time>
      </trkpt>
      <trkpt lat="47.705237539485097" lon="11.771112224087119">
        <ele>936.169999999999959</ele>
        <time>2014-11-15T12:28:20Z</time>
      </trkpt>
      <trkpt lat="47.705236533656716" lon="11.771031841635704">
        <ele>934.559999999999945</ele>
        <time>2014-11-15T12:28:23Z</time>
      </trkpt>
      <trkpt lat="47.705242987722158" lon="11.770993201062083">
        <ele>934.470000000000027</ele>
        <time>2014-11-15T12:28:24Z</time>
      </trkpt>
      <trkpt lat="47.705241395160556" lon="11.770957577973604">
        <ele>933.409999999999968</ele>
        <time>2014-11-15T12:28:25Z</time>
      </trkpt>
      <trkpt lat="47.705242652446032" lon="11.770922457799315">
        <ele>932.67999999999995</ele>
        <time>2014-11-15T12:28:26Z</time>
      </trkpt>
      <trkpt lat="47.70524893887341" lon="11.770894294604659">
        <ele>931.789999999999964</ele>
        <time>2014-11-15T12:28:27Z</time>
      </trkpt>
      <trkpt lat="47.705246340483427" lon="11.770856743678451">
        <ele>931.129999999999995</ele>
        <time>2014-11-15T12:28:28Z</time>
      </trkpt>
      <trkpt lat="47.705232929438353" lon="11.770630851387978">
        <ele>927.610000000000014</ele>
        <time>2014-11-15T12:28:34Z</time>
      </trkpt>
      <trkpt lat="47.705198563635349" lon="11.770354667678475">
        <ele>924.419999999999959</ele>
        <time>2014-11-15T12:28:38Z</time>
      </trkpt>
      <trkpt lat="47.705212812870741" lon="11.770249139517546">
        <ele>922.539999999999964</ele>
        <time>2014-11-15T12:28:39Z</time>
      </trkpt>
      <trkpt lat="47.705220188945532" lon="11.770155681297183">
        <ele>921.269999999999982</ele>
        <time>2014-11-15T12:28:40Z</time>
      </trkpt>
      <trkpt lat="47.705215662717819" lon="11.770073622465134">
        <ele>920.899999999999977</ele>
        <time>2014-11-15T12:28:41Z</time>
      </trkpt>
      <trkpt lat="47.70521080121398" lon="11.770000029355288">
        <ele>919.940000000000055</ele>
        <time>2014-11-15T12:28:42Z</time>
      </trkpt>
      <trkpt lat="47.705205269157887" lon="11.769946217536926">
        <ele>919.610000000000014</ele>
        <time>2014-11-15T12:28:43Z</time>
      </trkpt>
      <trkpt lat="47.705203928053379" lon="11.769902966916561">
        <ele>919.42999999999995</ele>
        <time>2014-11-15T12:28:44Z</time>
      </trkpt>
      <trkpt lat="47.705204179510474" lon="11.769862649962306">
        <ele>918.649999999999977</ele>
        <time>2014-11-15T12:28:45Z</time>
      </trkpt>
      <trkpt lat="47.70519713871181" lon="11.769809508696198">
        <ele>918.059999999999945</ele>
        <time>2014-11-15T12:28:46Z</time>
      </trkpt>
      <trkpt lat="47.70518783479929" lon="11.76975435577333">
        <ele>917.289999999999964</ele>
        <time>2014-11-15T12:28:47Z</time>
      </trkpt>
      <trkpt lat="47.705159839242697" lon="11.76963466219604">
        <ele>914.259999999999991</ele>
        <time>2014-11-15T12:28:49Z</time>
      </trkpt>
      <trkpt lat="47.70512287504971" lon="11.76945872604847">
        <ele>912.230000000000018</ele>
        <time>2014-11-15T12:28:52Z</time>
      </trkpt>
      <trkpt lat="47.705117845907807" lon="11.769354119896889">
        <ele>910.809999999999945</ele>
        <time>2014-11-15T12:28:55Z</time>
      </trkpt>
      <trkpt lat="47.705128407105803" lon="11.769328974187374">
        <ele>910.960000000000036</ele>
        <time>2014-11-15T12:28:56Z</time>
      </trkpt>
      <trkpt lat="47.705127066001296" lon="11.769295614212751">
        <ele>910.57000000000005</ele>
        <time>2014-11-15T12:28:57Z</time>
      </trkpt>
      <trkpt lat="47.7051165048033" lon="11.769254878163338">
        <ele>910.32000000000005</ele>
        <time>2014-11-15T12:28:58Z</time>
      </trkpt>
      <trkpt lat="47.70511457696557" lon="11.769214728847146">
        <ele>909.909999999999968</ele>
        <time>2014-11-15T12:28:59Z</time>
      </trkpt>
      <trkpt lat="47.705124216154218" lon="11.769165527075529">
        <ele>908.899999999999977</ele>
        <time>2014-11-15T12:29:00Z</time>
      </trkpt>
      <trkpt lat="47.705126730725169" lon="11.769090928137302">
        <ele>908.299999999999955</ele>
        <time>2014-11-15T12:29:01Z</time>
      </trkpt>
      <trkpt lat="47.705128993839025" lon="11.769026387482882">
        <ele>907.110000000000014</ele>
        <time>2014-11-15T12:29:02Z</time>
      </trkpt>
      <trkpt lat="47.705122455954552" lon="11.768821114674211">
        <ele>904.049999999999955</ele>
        <time>2014-11-15T12:29:05Z</time>
      </trkpt>
      <trkpt lat="47.705126227810979" lon="11.768739810213447">
        <ele>903.340000000000032</ele>
        <time>2014-11-15T12:29:06Z</time>
      </trkpt>
      <trkpt lat="47.705124299973249" lon="11.768647190183401">
        <ele>901.82000000000005</ele>
        <time>2014-11-15T12:29:07Z</time>
      </trkpt>
      <trkpt lat="47.705124216154218" lon="11.768564460799098">
        <ele>901.259999999999991</ele>
        <time>2014-11-15T12:29:08Z</time>
      </trkpt>
      <trkpt lat="47.705137794837356" lon="11.768292048946023">
        <ele>898.080000000000041</ele>
        <time>2014-11-15T12:29:11Z</time>
      </trkpt>
      <trkpt lat="47.705142153427005" lon="11.768003795295954">
        <ele>894.370000000000005</ele>
        <time>2014-11-15T12:29:14Z</time>
      </trkpt>
      <trkpt lat="47.70515170879662" lon="11.767920814454556">
        <ele>893.600000000000023</ele>
        <time>2014-11-15T12:29:15Z</time>
      </trkpt>
      <trkpt lat="47.705151792615652" lon="11.767775136977434">
        <ele>891.970000000000027</ele>
        <time>2014-11-15T12:29:17Z</time>
      </trkpt>
      <trkpt lat="47.705110050737858" lon="11.767500294372439">
        <ele>889.759999999999991</ele>
        <time>2014-11-15T12:29:26Z</time>
      </trkpt>
      <trkpt lat="47.705107033252716" lon="11.767484620213509">
        <ele>889.470000000000027</ele>
        <time>2014-11-15T12:29:27Z</time>
      </trkpt>
      <trkpt lat="47.705118265002966" lon="11.767409853637218">
        <ele>888.100000000000023</ele>
        <time>2014-11-15T12:29:30Z</time>
      </trkpt>
      <trkpt lat="47.705134190618992" lon="11.767333997413516">
        <ele>887.759999999999991</ele>
        <time>2014-11-15T12:29:32Z</time>
      </trkpt>
      <trkpt lat="47.705133687704802" lon="11.76728873513639">
        <ele>887.190000000000055</ele>
        <time>2014-11-15T12:29:33Z</time>
      </trkpt>
      <trkpt lat="47.705137124285102" lon="11.767104584723711">
        <ele>885.740000000000009</ele>
        <time>2014-11-15T12:29:36Z</time>
      </trkpt>
      <trkpt lat="47.705156989395618" lon="11.766735026612878">
        <ele>885.090000000000032</ele>
        <time>2014-11-15T12:29:40Z</time>
      </trkpt>
      <trkpt lat="47.705161431804299" lon="11.766634611412883">
        <ele>884.919999999999959</ele>
        <time>2014-11-15T12:29:41Z</time>
      </trkpt>
      <trkpt lat="47.705163946375251" lon="11.766536543145776">
        <ele>885.830000000000041</ele>
        <time>2014-11-15T12:29:42Z</time>
      </trkpt>
      <trkpt lat="47.705182805657387" lon="11.766046537086368">
        <ele>885.379999999999995</ele>
        <time>2014-11-15T12:29:49Z</time>
      </trkpt>
      <trkpt lat="47.705168724060059" lon="11.765961209312081">
        <ele>884.57000000000005</ele>
        <time>2014-11-15T12:29:50Z</time>
      </trkpt>
      <trkpt lat="47.70516000688076" lon="11.765873618423939">
        <ele>883.549999999999955</ele>
        <time>2014-11-15T12:29:51Z</time>
      </trkpt>
      <trkpt lat="47.705162856727839" lon="11.765783848240972">
        <ele>882.690000000000055</ele>
        <time>2014-11-15T12:29:52Z</time>
      </trkpt>
      <trkpt lat="47.705166041851044" lon="11.765705812722445">
        <ele>882.509999999999991</ele>
        <time>2014-11-15T12:29:53Z</time>
      </trkpt>
      <trkpt lat="47.705183811485767" lon="11.765411691740155">
        <ele>883.350000000000023</ele>
        <time>2014-11-15T12:29:57Z</time>
      </trkpt>
      <trkpt lat="47.705184817314148" lon="11.76535184495151">
        <ele>883.32000000000005</ele>
        <time>2014-11-15T12:29:58Z</time>
      </trkpt>
      <trkpt lat="47.705201748758554" lon="11.765297949314117">
        <ele>882.730000000000018</ele>
        <time>2014-11-15T12:29:59Z</time>
      </trkpt>
      <trkpt lat="47.705227481201291" lon="11.765245227143168">
        <ele>881.649999999999977</ele>
        <time>2014-11-15T12:30:00Z</time>
      </trkpt>
      <trkpt lat="47.705260924994946" lon="11.765205329284072">
        <ele>881.090000000000032</ele>
        <time>2014-11-15T12:30:01Z</time>
      </trkpt>
      <trkpt lat="47.705294955521822" lon="11.765159647911787">
        <ele>880.279999999999973</ele>
        <time>2014-11-15T12:30:02Z</time>
      </trkpt>
      <trkpt lat="47.705323118716478" lon="11.76511287689209">
        <ele>879.490000000000009</ele>
        <time>2014-11-15T12:30:03Z</time>
      </trkpt>
      <trkpt lat="47.705348348245025" lon="11.765072643756866">
        <ele>878.789999999999964</ele>
        <time>2014-11-15T12:30:04Z</time>
      </trkpt>
      <trkpt lat="47.705375170335174" lon="11.765030650421977">
        <ele>878.870000000000005</ele>
        <time>2014-11-15T12:30:05Z</time>
      </trkpt>
      <trkpt lat="47.705424455925822" lon="11.764917494729161">
        <ele>877.799999999999955</ele>
        <time>2014-11-15T12:30:09Z</time>
      </trkpt>
      <trkpt lat="47.705433927476406" lon="11.764909196645021">
        <ele>877.07000000000005</ele>
        <time>2014-11-15T12:30:10Z</time>
      </trkpt>
      <trkpt lat="47.705505592748523" lon="11.76481238566339">
        <ele>874.649999999999977</ele>
        <time>2014-11-15T12:30:14Z</time>
      </trkpt>
      <trkpt lat="47.705601314082742" lon="11.764643406495452">
        <ele>871.529999999999973</ele>
        <time>2014-11-15T12:30:25Z</time>
      </trkpt>
      <trkpt lat="47.705637272447348" lon="11.76457978785038">
        <ele>868.309999999999945</ele>
        <time>2014-11-15T12:30:32Z</time>
      </trkpt>
      <trkpt lat="47.705664345994592" lon="11.764538129791617">
        <ele>866.899999999999977</ele>
        <time>2014-11-15T12:30:35Z</time>
      </trkpt>
      <trkpt lat="47.705702818930149" lon="11.76451675593853">
        <ele>865.940000000000055</ele>
        <time>2014-11-15T12:30:37Z</time>
      </trkpt>
      <trkpt lat="47.705720840021968" lon="11.764502674341202">
        <ele>864.980000000000018</ele>
        <time>2014-11-15T12:30:38Z</time>
      </trkpt>
      <trkpt lat="47.70573559217155" lon="11.764471158385277">
        <ele>864.039999999999964</ele>
        <time>2014-11-15T12:30:39Z</time>
      </trkpt>
      <trkpt lat="47.705748081207275" lon="11.764452299103141">
        <ele>863.419999999999959</ele>
        <time>2014-11-15T12:30:40Z</time>
      </trkpt>
      <trkpt lat="47.705752607434988" lon="11.764442157000303">
        <ele>861.980000000000018</ele>
        <time>2014-11-15T12:30:41Z</time>
      </trkpt>
      <trkpt lat="47.705758642405272" lon="11.764422124251723">
        <ele>861.710000000000036</ele>
        <time>2014-11-15T12:30:42Z</time>
      </trkpt>
      <trkpt lat="47.705762078985572" lon="11.764389770105481">
        <ele>860.789999999999964</ele>
        <time>2014-11-15T12:30:43Z</time>
      </trkpt>
      <trkpt lat="47.705793678760529" lon="11.76436185836792">
        <ele>859.110000000000014</ele>
        <time>2014-11-15T12:30:45Z</time>
      </trkpt>
      <trkpt lat="47.70580398850143" lon="11.76434182561934">
        <ele>858.409999999999968</ele>
        <time>2014-11-15T12:30:46Z</time>
      </trkpt>
      <trkpt lat="47.705820333212614" lon="11.764328079298139">
        <ele>857.940000000000055</ele>
        <time>2014-11-15T12:30:47Z</time>
      </trkpt>
      <trkpt lat="47.705860901623964" lon="11.764305531978607">
        <ele>856.620000000000005</ele>
        <time>2014-11-15T12:30:49Z</time>
      </trkpt>
      <trkpt lat="47.705918736755848" lon="11.764241494238377">
        <ele>855.850000000000023</ele>
        <time>2014-11-15T12:30:53Z</time>
      </trkpt>
      <trkpt lat="47.705924352630973" lon="11.764250379055738">
        <ele>855.029999999999973</ele>
        <time>2014-11-15T12:30:54Z</time>
      </trkpt>
      <trkpt lat="47.705978667363524" lon="11.764233866706491">
        <ele>851.379999999999995</ele>
        <time>2014-11-15T12:30:58Z</time>
      </trkpt>
      <trkpt lat="47.706007165834308" lon="11.76424702629447">
        <ele>850.669999999999959</ele>
        <time>2014-11-15T12:30:59Z</time>
      </trkpt>
      <trkpt lat="47.706035496667027" lon="11.764257168397307">
        <ele>850.210000000000036</ele>
        <time>2014-11-15T12:31:00Z</time>
      </trkpt>
      <trkpt lat="47.706079501658678" lon="11.764271166175604">
        <ele>848.029999999999973</ele>
        <time>2014-11-15T12:31:02Z</time>
      </trkpt>
      <trkpt lat="47.706108000129461" lon="11.764276195317507">
        <ele>847.210000000000036</ele>
        <time>2014-11-15T12:31:03Z</time>
      </trkpt>
      <trkpt lat="47.706135408952832" lon="11.764263622462749">
        <ele>846.409999999999968</ele>
        <time>2014-11-15T12:31:04Z</time>
      </trkpt>
      <trkpt lat="47.70617145113647" lon="11.764250881969929">
        <ele>846.029999999999973</ele>
        <time>2014-11-15T12:31:05Z</time>
      </trkpt>
      <trkpt lat="47.706197937950492" lon="11.764236381277442">
        <ele>844.740000000000009</ele>
        <time>2014-11-15T12:31:06Z</time>
      </trkpt>
      <trkpt lat="47.706237835809588" lon="11.764227412641048">
        <ele>844</ele>
        <time>2014-11-15T12:31:07Z</time>
      </trkpt>
      <trkpt lat="47.706280332058668" lon="11.764214085415006">
        <ele>843.059999999999945</ele>
        <time>2014-11-15T12:31:08Z</time>
      </trkpt>
      <trkpt lat="47.706305729225278" lon="11.764194639399648">
        <ele>842.57000000000005</ele>
        <time>2014-11-15T12:31:09Z</time>
      </trkpt>
      <trkpt lat="47.70647345110774" lon="11.764136888086796">
        <ele>839.519999999999982</ele>
        <time>2014-11-15T12:31:13Z</time>
      </trkpt>
      <trkpt lat="47.706608986482024" lon="11.764072766527534">
        <ele>837.840000000000032</ele>
        <time>2014-11-15T12:31:15Z</time>
      </trkpt>
      <trkpt lat="47.706665312871337" lon="11.764031695201993">
        <ele>836.730000000000018</ele>
        <time>2014-11-15T12:31:16Z</time>
      </trkpt>
      <trkpt lat="47.706724740564823" lon="11.764000849798322">
        <ele>836.32000000000005</ele>
        <time>2014-11-15T12:31:17Z</time>
      </trkpt>
      <trkpt lat="47.706786096096039" lon="11.763983918353915">
        <ele>835.57000000000005</ele>
        <time>2014-11-15T12:31:18Z</time>
      </trkpt>
      <trkpt lat="47.706834794953465" lon="11.763963969424367">
        <ele>835.360000000000014</ele>
        <time>2014-11-15T12:31:19Z</time>
      </trkpt>
      <trkpt lat="47.70686186850071" lon="11.763939158990979">
        <ele>835.42999999999995</ele>
        <time>2014-11-15T12:31:20Z</time>
      </trkpt>
      <trkpt lat="47.706894306465983" lon="11.763901021331549">
        <ele>835.470000000000027</ele>
        <time>2014-11-15T12:31:21Z</time>
      </trkpt>
      <trkpt lat="47.706949124112725" lon="11.763846538960934">
        <ele>834.600000000000023</ele>
        <time>2014-11-15T12:31:22Z</time>
      </trkpt>
      <trkpt lat="47.706977287307382" lon="11.763801695778966">
        <ele>834.110000000000014</ele>
        <time>2014-11-15T12:31:23Z</time>
      </trkpt>
      <trkpt lat="47.706973515450954" lon="11.763766910880804">
        <ele>833.490000000000009</ele>
        <time>2014-11-15T12:31:24Z</time>
      </trkpt>
      <trkpt lat="47.706968570128083" lon="11.763735059648752">
        <ele>832.409999999999968</ele>
        <time>2014-11-15T12:31:25Z</time>
      </trkpt>
      <trkpt lat="47.706891288980842" lon="11.763649312779307">
        <ele>828.07000000000005</ele>
        <time>2014-11-15T12:31:28Z</time>
      </trkpt>
      <trkpt lat="47.706848122179508" lon="11.763625759631395">
        <ele>826.379999999999995</ele>
        <time>2014-11-15T12:31:29Z</time>
      </trkpt>
      <trkpt lat="47.7067915443331" lon="11.763607487082481">
        <ele>825.07000000000005</ele>
        <time>2014-11-15T12:31:30Z</time>
      </trkpt>
      <trkpt lat="47.706549977883697" lon="11.763515286147594">
        <ele>823.029999999999973</ele>
        <time>2014-11-15T12:31:34Z</time>
      </trkpt>
      <trkpt lat="47.70651594735682" lon="11.763461139053106">
        <ele>821.399999999999977</ele>
        <time>2014-11-15T12:31:35Z</time>
      </trkpt>
      <trkpt lat="47.706480994820595" lon="11.763393497094512">
        <ele>819.779999999999973</ele>
        <time>2014-11-15T12:31:36Z</time>
      </trkpt>
      <trkpt lat="47.706442773342133" lon="11.76331621594727">
        <ele>819.639999999999986</ele>
        <time>2014-11-15T12:31:37Z</time>
      </trkpt>
      <trkpt lat="47.706397008150816" lon="11.763243628665805">
        <ele>818.309999999999945</ele>
        <time>2014-11-15T12:31:38Z</time>
      </trkpt>
      <trkpt lat="47.706346716731787" lon="11.763186799362302">
        <ele>817.32000000000005</ele>
        <time>2014-11-15T12:31:39Z</time>
      </trkpt>
      <trkpt lat="47.706293156370521" lon="11.763150254264474">
        <ele>817.32000000000005</ele>
        <time>2014-11-15T12:31:40Z</time>
      </trkpt>
      <trkpt lat="47.706238590180874" lon="11.763119157403708">
        <ele>817.710000000000036</ele>
        <time>2014-11-15T12:31:41Z</time>
      </trkpt>
      <trkpt lat="47.706187544390559" lon="11.763087389990687">
        <ele>819.059999999999945</ele>
        <time>2014-11-15T12:31:42Z</time>
      </trkpt>
      <trkpt lat="47.7060317248106" lon="11.763065597042441">
        <ele>822.100000000000023</ele>
        <time>2014-11-15T12:31:48Z</time>
      </trkpt>
      <trkpt lat="47.706007165834308" lon="11.763059981167316">
        <ele>822.82000000000005</ele>
        <time>2014-11-15T12:31:50Z</time>
      </trkpt>
      <trkpt lat="47.705993754789233" lon="11.76306358538568">
        <ele>823.17999999999995</ele>
        <time>2014-11-15T12:31:51Z</time>
      </trkpt>
      <trkpt lat="47.705780100077391" lon="11.762910448014736">
        <ele>821.399999999999977</ele>
        <time>2014-11-15T12:32:02Z</time>
      </trkpt>
      <trkpt lat="47.705760821700096" lon="11.762919249013066">
        <ele>821.32000000000005</ele>
        <time>2014-11-15T12:32:03Z</time>
      </trkpt>
      <trkpt lat="47.705591004341841" lon="11.762979263439775">
        <ele>819.970000000000027</ele>
        <time>2014-11-15T12:32:09Z</time>
      </trkpt>
      <trkpt lat="47.705243658274412" lon="11.763107674196362">
        <ele>820.080000000000041</ele>
        <time>2014-11-15T12:32:18Z</time>
      </trkpt>
      <trkpt lat="47.705031763762236" lon="11.763154109939933">
        <ele>816.769999999999982</ele>
        <time>2014-11-15T12:32:23Z</time>
      </trkpt>
      <trkpt lat="47.704999409615993" lon="11.763152265921235">
        <ele>815.600000000000023</ele>
        <time>2014-11-15T12:32:24Z</time>
      </trkpt>
      <trkpt lat="47.704956829547882" lon="11.763153020292521">
        <ele>815.42999999999995</ele>
        <time>2014-11-15T12:32:25Z</time>
      </trkpt>
      <trkpt lat="47.70492103882134" lon="11.763154612854123">
        <ele>814.549999999999955</ele>
        <time>2014-11-15T12:32:26Z</time>
      </trkpt>
      <trkpt lat="47.704865802079439" lon="11.763135669752955">
        <ele>814.090000000000032</ele>
        <time>2014-11-15T12:32:27Z</time>
      </trkpt>
      <trkpt lat="47.704826239496469" lon="11.763116223737597">
        <ele>813.549999999999955</ele>
        <time>2014-11-15T12:32:28Z</time>
      </trkpt>
      <trkpt lat="47.704759854823351" lon="11.763036092743278">
        <ele>809.909999999999968</ele>
        <time>2014-11-15T12:32:31Z</time>
      </trkpt>
      <trkpt lat="47.704743091017008" lon="11.762995105236769">
        <ele>809.210000000000036</ele>
        <time>2014-11-15T12:32:32Z</time>
      </trkpt>
      <trkpt lat="47.704703528434038" lon="11.762856803834438">
        <ele>804.830000000000041</ele>
        <time>2014-11-15T12:32:35Z</time>
      </trkpt>
      <trkpt lat="47.704468332231045" lon="11.762536447495222">
        <ele>804.950000000000045</ele>
        <time>2014-11-15T12:32:44Z</time>
      </trkpt>
      <trkpt lat="47.704400271177292" lon="11.762451035901904">
        <ele>804.57000000000005</ele>
        <time>2014-11-15T12:32:49Z</time>
      </trkpt>
      <trkpt lat="47.70429465919733" lon="11.762303011491895">
        <ele>804.590000000000032</ele>
        <time>2014-11-15T12:32:59Z</time>
      </trkpt>
      <trkpt lat="47.704263646155596" lon="11.762266717851162">
        <ele>804.450000000000045</ele>
        <time>2014-11-15T12:33:01Z</time>
      </trkpt>
      <trkpt lat="47.704089805483818" lon="11.762063708156347">
        <ele>803.870000000000005</ele>
        <time>2014-11-15T12:33:12Z</time>
      </trkpt>
      <trkpt lat="47.704066168516874" lon="11.76212539896369">
        <ele>803.230000000000018</ele>
        <time>2014-11-15T12:33:30Z</time>
      </trkpt>
      <trkpt lat="47.704065581783652" lon="11.762157753109932">
        <ele>802.980000000000018</ele>
        <time>2014-11-15T12:33:31Z</time>
      </trkpt>
      <trkpt lat="47.704068180173635" lon="11.762191196903586">
        <ele>802.57000000000005</ele>
        <time>2014-11-15T12:33:32Z</time>
      </trkpt>
      <trkpt lat="47.704074047505856" lon="11.762227742001414">
        <ele>802.289999999999964</ele>
        <time>2014-11-15T12:33:33Z</time>
      </trkpt>
      <trkpt lat="47.704084776341915" lon="11.762248696759343">
        <ele>802.549999999999955</ele>
        <time>2014-11-15T12:33:34Z</time>
      </trkpt>
      <trkpt lat="47.704096427187324" lon="11.762265963479877">
        <ele>802.17999999999995</ele>
        <time>2014-11-15T12:33:35Z</time>
      </trkpt>
      <trkpt lat="47.704114951193333" lon="11.762277446687222">
        <ele>802</ele>
        <time>2014-11-15T12:33:36Z</time>
      </trkpt>
      <trkpt lat="47.704134732484818" lon="11.762282811105251">
        <ele>801.549999999999955</ele>
        <time>2014-11-15T12:33:37Z</time>
      </trkpt>
      <trkpt lat="47.70416172221303" lon="11.762285912409425">
        <ele>801.210000000000036</ele>
        <time>2014-11-15T12:33:38Z</time>
      </trkpt>
      <trkpt lat="47.704195417463779" lon="11.762269902974367">
        <ele>800.960000000000036</ele>
        <time>2014-11-15T12:33:39Z</time>
      </trkpt>
      <trkpt lat="47.70423305220902" lon="11.762243751436472">
        <ele>800.960000000000036</ele>
        <time>2014-11-15T12:33:40Z</time>
      </trkpt>
      <trkpt lat="47.704580733552575" lon="11.762197399511933">
        <ele>799.240000000000009</ele>
        <time>2014-11-15T12:33:50Z</time>
      </trkpt>
      <trkpt lat="47.70473881624639" lon="11.762247858569026">
        <ele>796.190000000000055</ele>
        <time>2014-11-15T12:33:54Z</time>
      </trkpt>
      <trkpt lat="47.704785587266088" lon="11.762250624597073">
        <ele>795.840000000000032</ele>
        <time>2014-11-15T12:33:55Z</time>
      </trkpt>
      <trkpt lat="47.704827412962914" lon="11.762250708416104">
        <ele>795.67999999999995</ele>
        <time>2014-11-15T12:33:56Z</time>
      </trkpt>
      <trkpt lat="47.70497577264905" lon="11.7622802965343">
        <ele>792.25</ele>
        <time>2014-11-15T12:34:00Z</time>
      </trkpt>
      <trkpt lat="47.705063028261065" lon="11.762307370081544">
        <ele>788.610000000000014</ele>
        <time>2014-11-15T12:34:03Z</time>
      </trkpt>
      <trkpt lat="47.705133855342865" lon="11.76232430152595">
        <ele>785.100000000000023</ele>
        <time>2014-11-15T12:34:05Z</time>
      </trkpt>
      <trkpt lat="47.705217842012644" lon="11.762338215485215">
        <ele>781.059999999999945</ele>
        <time>2014-11-15T12:34:07Z</time>
      </trkpt>
      <trkpt lat="47.705280454829335" lon="11.762356655672193">
        <ele>779.82000000000005</ele>
        <time>2014-11-15T12:34:08Z</time>
      </trkpt>
      <trkpt lat="47.705344827845693" lon="11.76235212944448">
        <ele>779.350000000000023</ele>
        <time>2014-11-15T12:34:09Z</time>
      </trkpt>
      <trkpt lat="47.705405009910464" lon="11.762340143322945">
        <ele>778.879999999999995</ele>
        <time>2014-11-15T12:34:10Z</time>
      </trkpt>
      <trkpt lat="47.705459659919143" lon="11.762319691479206">
        <ele>778.759999999999991</ele>
        <time>2014-11-15T12:34:11Z</time>
      </trkpt>
      <trkpt lat="47.705511879175901" lon="11.762289432808757">
        <ele>779</ele>
        <time>2014-11-15T12:34:12Z</time>
      </trkpt>
      <trkpt lat="47.705585723742843" lon="11.76224366761744">
        <ele>778.629999999999995</ele>
        <time>2014-11-15T12:34:13Z</time>
      </trkpt>
      <trkpt lat="47.705680942162871" lon="11.762198153883219">
        <ele>778.059999999999945</ele>
        <time>2014-11-15T12:34:16Z</time>
      </trkpt>
      <trkpt lat="47.705723689869046" lon="11.762184575200081">
        <ele>778.120000000000005</ele>
        <time>2014-11-15T12:34:17Z</time>
      </trkpt>
      <trkpt lat="47.7057536970824" lon="11.762176863849163">
        <ele>778.019999999999982</ele>
        <time>2014-11-15T12:34:18Z</time>
      </trkpt>
      <trkpt lat="47.705796025693417" lon="11.762164039537311">
        <ele>777.159999999999968</ele>
        <time>2014-11-15T12:34:19Z</time>
      </trkpt>
      <trkpt lat="47.705866852775216" lon="11.762105030938983">
        <ele>777.659999999999968</ele>
        <time>2014-11-15T12:34:21Z</time>
      </trkpt>
      <trkpt lat="47.705912869423628" lon="11.762025067582726">
        <ele>776.840000000000032</ele>
        <time>2014-11-15T12:34:22Z</time>
      </trkpt>
      <trkpt lat="47.705940362066031" lon="11.761957425624132">
        <ele>775.470000000000027</ele>
        <time>2014-11-15T12:34:23Z</time>
      </trkpt>
      <trkpt lat="47.705965172499418" lon="11.761903110891581">
        <ele>774.740000000000009</ele>
        <time>2014-11-15T12:34:24Z</time>
      </trkpt>
      <trkpt lat="47.705989144742489" lon="11.761843012645841">
        <ele>774.120000000000005</ele>
        <time>2014-11-15T12:34:25Z</time>
      </trkpt>
      <trkpt lat="47.706005489453673" lon="11.761786350980401">
        <ele>772.809999999999945</ele>
        <time>2014-11-15T12:34:26Z</time>
      </trkpt>
      <trkpt lat="47.70606542006135" lon="11.761631621047854">
        <ele>769.210000000000036</ele>
        <time>2014-11-15T12:34:29Z</time>
      </trkpt>
      <trkpt lat="47.706183353438973" lon="11.76149164326489">
        <ele>766.490000000000009</ele>
        <time>2014-11-15T12:34:32Z</time>
      </trkpt>
      <trkpt lat="47.706227693706751" lon="11.761443112045527">
        <ele>765.669999999999959</ele>
        <time>2014-11-15T12:34:33Z</time>
      </trkpt>
      <trkpt lat="47.70626918412745" lon="11.761383097618818">
        <ele>764.5</ele>
        <time>2014-11-15T12:34:34Z</time>
      </trkpt>
      <trkpt lat="47.706327103078365" lon="11.761332973837852">
        <ele>763.360000000000014</ele>
        <time>2014-11-15T12:34:35Z</time>
      </trkpt>
      <trkpt lat="47.70639332011342" lon="11.761274551972747">
        <ele>762.899999999999977</ele>
        <time>2014-11-15T12:34:36Z</time>
      </trkpt>
      <trkpt lat="47.706442605704069" lon="11.761222835630178">
        <ele>761.42999999999995</ele>
        <time>2014-11-15T12:34:37Z</time>
      </trkpt>
      <trkpt lat="47.706485856324434" lon="11.761160474270582">
        <ele>761.100000000000023</ele>
        <time>2014-11-15T12:34:38Z</time>
      </trkpt>
      <trkpt lat="47.706530950963497" lon="11.761105740442872">
        <ele>760.669999999999959</ele>
        <time>2014-11-15T12:34:39Z</time>
      </trkpt>
      <trkpt lat="47.706574955955148" lon="11.761050755158067">
        <ele>759.399999999999977</ele>
        <time>2014-11-15T12:34:40Z</time>
      </trkpt>
      <trkpt lat="47.70661954768002" lon="11.761000799015164">
        <ele>759.230000000000018</ele>
        <time>2014-11-15T12:34:41Z</time>
      </trkpt>
      <trkpt lat="47.706722980365157" lon="11.760910023003817">
        <ele>757.42999999999995</ele>
        <time>2014-11-15T12:34:43Z</time>
      </trkpt>
      <trkpt lat="47.706879302859306" lon="11.760787311941385">
        <ele>754.559999999999945</ele>
        <time>2014-11-15T12:34:46Z</time>
      </trkpt>
      <trkpt lat="47.70695230923593" lon="11.760758897289634">
        <ele>753.610000000000014</ele>
        <time>2014-11-15T12:34:47Z</time>
      </trkpt>
      <trkpt lat="47.707231091335416" lon="11.760618668049574">
        <ele>749.789999999999964</ele>
        <time>2014-11-15T12:34:53Z</time>
      </trkpt>
      <trkpt lat="47.707276605069637" lon="11.760587738826871">
        <ele>750.019999999999982</ele>
        <time>2014-11-15T12:34:54Z</time>
      </trkpt>
      <trkpt lat="47.707342738285661" lon="11.760501656681299">
        <ele>749.809999999999945</ele>
        <time>2014-11-15T12:34:55Z</time>
      </trkpt>
      <trkpt lat="47.707390682771802" lon="11.760438205674291">
        <ele>748.639999999999986</ele>
        <time>2014-11-15T12:34:56Z</time>
      </trkpt>
      <trkpt lat="47.707447176799178" lon="11.760379616171122">
        <ele>748.360000000000014</ele>
        <time>2014-11-15T12:34:57Z</time>
      </trkpt>
      <trkpt lat="47.707505598664284" lon="11.760348938405514">
        <ele>748.299999999999955</ele>
        <time>2014-11-15T12:34:58Z</time>
      </trkpt>
      <trkpt lat="47.707568798214197" lon="11.760321613401175">
        <ele>748.590000000000032</ele>
        <time>2014-11-15T12:34:59Z</time>
      </trkpt>
      <trkpt lat="47.707636104896665" lon="11.76028280518949">
        <ele>747.460000000000036</ele>
        <time>2014-11-15T12:35:00Z</time>
      </trkpt>
      <trkpt lat="47.707818411290646" lon="11.760206110775471">
        <ele>747.809999999999945</ele>
        <time>2014-11-15T12:35:03Z</time>
      </trkpt>
      <trkpt lat="47.707875575870275" lon="11.760169481858611">
        <ele>746.200000000000045</ele>
        <time>2014-11-15T12:35:04Z</time>
      </trkpt>
      <trkpt lat="47.707945145666599" lon="11.760147353634238">
        <ele>745.149999999999977</ele>
        <time>2014-11-15T12:35:05Z</time>
      </trkpt>
      <trkpt lat="47.708016391843557" lon="11.760133691132069">
        <ele>744.919999999999959</ele>
        <time>2014-11-15T12:35:06Z</time>
      </trkpt>
      <trkpt lat="47.708218479529023" lon="11.760102761909366">
        <ele>742.57000000000005</ele>
        <time>2014-11-15T12:35:09Z</time>
      </trkpt>
      <trkpt lat="47.708296766504645" lon="11.760094799101353">
        <ele>742.210000000000036</ele>
        <time>2014-11-15T12:35:10Z</time>
      </trkpt>
      <trkpt lat="47.708366001024842" lon="11.760041071102023">
        <ele>742.580000000000041</ele>
        <time>2014-11-15T12:35:11Z</time>
      </trkpt>
      <trkpt lat="47.708480581641197" lon="11.76003210246563">
        <ele>741.509999999999991</ele>
        <time>2014-11-15T12:35:13Z</time>
      </trkpt>
      <trkpt lat="47.708538919687271" lon="11.759986588731408">
        <ele>740.740000000000009</ele>
        <time>2014-11-15T12:35:14Z</time>
      </trkpt>
      <trkpt lat="47.708765985444188" lon="11.759788272902369">
        <ele>739.440000000000055</ele>
        <time>2014-11-15T12:35:18Z</time>
      </trkpt>
      <trkpt lat="47.709057927131653" lon="11.759584676474333">
        <ele>740.259999999999991</ele>
        <time>2014-11-15T12:35:24Z</time>
      </trkpt>
      <trkpt lat="47.709076115861535" lon="11.759546706452966">
        <ele>740.169999999999959</ele>
        <time>2014-11-15T12:35:25Z</time>
      </trkpt>
      <trkpt lat="47.709141243249178" lon="11.759438412263989">
        <ele>738.529999999999973</ele>
        <time>2014-11-15T12:35:27Z</time>
      </trkpt>
      <trkpt lat="47.709189103916287" lon="11.759379068389535">
        <ele>737.549999999999955</ele>
        <time>2014-11-15T12:35:28Z</time>
      </trkpt>
      <trkpt lat="47.709241742268205" lon="11.759325340390205">
        <ele>736.230000000000018</ele>
        <time>2014-11-15T12:35:29Z</time>
      </trkpt>
      <trkpt lat="47.709293542429805" lon="11.759285693988204">
        <ele>735.5</ele>
        <time>2014-11-15T12:35:30Z</time>
      </trkpt>
      <trkpt lat="47.70935095846653" lon="11.759253675118089">
        <ele>734.809999999999945</ele>
        <time>2014-11-15T12:35:31Z</time>
      </trkpt>
      <trkpt lat="47.709395634010434" lon="11.759228026494384">
        <ele>734.940000000000055</ele>
        <time>2014-11-15T12:35:32Z</time>
      </trkpt>
      <trkpt lat="47.709480794146657" lon="11.759124007076025">
        <ele>734.649999999999977</ele>
        <time>2014-11-15T12:35:35Z</time>
      </trkpt>
      <trkpt lat="47.709488002583385" lon="11.75907195545733">
        <ele>734.340000000000032</ele>
        <time>2014-11-15T12:35:36Z</time>
      </trkpt>
      <trkpt lat="47.709494037553668" lon="11.759026106446981">
        <ele>733.980000000000018</ele>
        <time>2014-11-15T12:35:37Z</time>
      </trkpt>
      <trkpt lat="47.709504179656506" lon="11.758951507508755">
        <ele>733.779999999999973</ele>
        <time>2014-11-15T12:35:38Z</time>
      </trkpt>
      <trkpt lat="47.709518177434802" lon="11.75890096463263">
        <ele>734.029999999999973</ele>
        <time>2014-11-15T12:35:39Z</time>
      </trkpt>
      <trkpt lat="47.70958112552762" lon="11.758711701259017">
        <ele>732.850000000000023</ele>
        <time>2014-11-15T12:35:42Z</time>
      </trkpt>
      <trkpt lat="47.709633093327284" lon="11.758494526147842">
        <ele>732.690000000000055</ele>
        <time>2014-11-15T12:35:45Z</time>
      </trkpt>
      <trkpt lat="47.70971205085516" lon="11.7582325078547">
        <ele>731.639999999999986</ele>
        <time>2014-11-15T12:35:48Z</time>
      </trkpt>
      <trkpt lat="47.709836270660162" lon="11.757956575602293">
        <ele>731.629999999999995</ele>
        <time>2014-11-15T12:35:52Z</time>
      </trkpt>
      <trkpt lat="47.709873486310244" lon="11.757913995534182">
        <ele>731.809999999999945</ele>
        <time>2014-11-15T12:35:53Z</time>
      </trkpt>
      <trkpt lat="47.709909109398723" lon="11.757881138473749">
        <ele>731.669999999999959</ele>
        <time>2014-11-15T12:35:54Z</time>
      </trkpt>
      <trkpt lat="47.710253773257136" lon="11.757561787962914">
        <ele>729.629999999999995</ele>
        <time>2014-11-15T12:36:02Z</time>
      </trkpt>
      <trkpt lat="47.710301298648119" lon="11.757561871781945">
        <ele>730.340000000000032</ele>
        <time>2014-11-15T12:36:03Z</time>
      </trkpt>
      <trkpt lat="47.710347902029753" lon="11.757578551769257">
        <ele>730.529999999999973</ele>
        <time>2014-11-15T12:36:04Z</time>
      </trkpt>
      <trkpt lat="47.710394589230418" lon="11.757605960592628">
        <ele>730.419999999999959</ele>
        <time>2014-11-15T12:36:05Z</time>
      </trkpt>
      <trkpt lat="47.710431553423405" lon="11.757553825154901">
        <ele>730.730000000000018</ele>
        <time>2014-11-15T12:36:06Z</time>
      </trkpt>
      <trkpt lat="47.710477570071816" lon="11.757548376917839">
        <ele>730.419999999999959</ele>
        <time>2014-11-15T12:36:07Z</time>
      </trkpt>
      <trkpt lat="47.710531130433083" lon="11.75756799057126">
        <ele>730.190000000000055</ele>
        <time>2014-11-15T12:36:08Z</time>
      </trkpt>
      <trkpt lat="47.710622409358621" lon="11.757532451301813">
        <ele>729.529999999999973</ele>
        <time>2014-11-15T12:36:10Z</time>
      </trkpt>
      <trkpt lat="47.710667001083493" lon="11.757534379139543">
        <ele>729.580000000000041</ele>
        <time>2014-11-15T12:36:11Z</time>
      </trkpt>
      <trkpt lat="47.71071226336062" lon="11.757531948387623">
        <ele>730.210000000000036</ele>
        <time>2014-11-15T12:36:12Z</time>
      </trkpt>
      <trkpt lat="47.711137225851417" lon="11.757440669462085">
        <ele>733.710000000000036</ele>
        <time>2014-11-15T12:36:24Z</time>
      </trkpt>
      <trkpt lat="47.711444338783622" lon="11.757586682215333">
        <ele>736.149999999999977</ele>
        <time>2014-11-15T12:36:36Z</time>
      </trkpt>
      <trkpt lat="47.71177995018661" lon="11.757698999717832">
        <ele>738.330000000000041</ele>
        <time>2014-11-15T12:36:48Z</time>
      </trkpt>
      <trkpt lat="47.712033083662391" lon="11.757833026349545">
        <ele>740.25</ele>
        <time>2014-11-15T12:37:00Z</time>
      </trkpt>
      <trkpt lat="47.712327456101775" lon="11.757936459034681">
        <ele>743.269999999999982</ele>
        <time>2014-11-15T12:37:14Z</time>
      </trkpt>
      <trkpt lat="47.712611518800259" lon="11.758142067119479">
        <ele>744.139999999999986</ele>
        <time>2014-11-15T12:37:26Z</time>
      </trkpt>
      <trkpt lat="47.712967833504081" lon="11.758169811218977">
        <ele>745.860000000000014</ele>
        <time>2014-11-15T12:37:40Z</time>
      </trkpt>
      <trkpt lat="47.713271928951144" lon="11.758014746010303">
        <ele>747.080000000000041</ele>
        <time>2014-11-15T12:37:52Z</time>
      </trkpt>
      <trkpt lat="47.713648527860641" lon="11.757878372445703">
        <ele>748.080000000000041</ele>
        <time>2014-11-15T12:38:05Z</time>
      </trkpt>
      <trkpt lat="47.713741147890687" lon="11.757858674973249">
        <ele>748.269999999999982</ele>
        <time>2014-11-15T12:38:17Z</time>
      </trkpt>
      <trkpt lat="47.713760090991855" lon="11.757843671366572">
        <ele>747.92999999999995</ele>
        <time>2014-11-15T12:38:44Z</time>
      </trkpt>
      <trkpt lat="47.713761767372489" lon="11.757836043834686">
        <ele>748.559999999999945</ele>
        <time>2014-11-15T12:39:13Z</time>
      </trkpt>
      <trkpt lat="47.713764868676662" lon="11.757842497900128">
        <ele>748.279999999999973</ele>
        <time>2014-11-15T12:39:19Z</time>
      </trkpt>
    </trkseg>
  </trk>

</gpx>
